GFSGL_sfc_wetblb_000.txt.gz
Wetbulb
67.28 65.99 65.77 65.74 64.93 63.80 63.33 62.93 63.10 62.89 63.71 64.61 64.55 64.15 63.33 62.89 63.56 63.42 63.07 62.85 62.26 61.94 61.95 61.72 61.45 60.38 58.16 58.48 57.71 56.28 55.12 54.77 54.15 54.21 54.38 56.51 56.37 56.92 58.61 60.97 64.19 66.51 68.47
68.44 66.84 66.51 66.40 65.15 64.04 63.58 63.36 63.39 63.36 62.94 62.61 62.74 62.61 62.77 63.36 63.69 63.02 62.78 62.86 62.02 61.43 61.36 60.61 60.66 61.65 58.20 58.10 57.14 56.22 55.40 55.18 55.60 53.66 55.01 55.38 55.81 56.86 57.78 59.02 61.35 65.03 67.10
68.79 67.02 64.38 63.41 63.11 63.36 63.42 63.13 63.11 62.61 62.14 62.23 61.29 60.71 61.89 62.31 62.27 62.90 62.76 62.96 62.36 62.02 61.65 60.22 59.88 59.77 58.41 57.46 57.18 56.88 56.62 57.02 55.80 56.04 55.85 56.16 55.96 56.23 57.23 58.88 59.59 61.18 65.45
68.36 67.30 63.76 62.36 62.27 62.91 63.35 62.96 62.82 62.74 62.00 61.61 61.56 62.41 62.64 62.28 62.32 62.46 62.77 62.61 61.96 61.53 60.86 60.60 60.72 59.49 59.07 57.91 57.26 57.44 56.60 55.14 54.75 55.78 55.64 55.19 54.91 56.18 57.06 56.76 56.85 59.45 60.97
67.74 66.72 64.81 64.32 63.12 62.67 63.19 63.12 62.91 62.83 62.46 62.13 62.66 62.70 62.48 62.43 63.69 62.92 62.89 61.95 60.92 60.37 61.01 60.98 60.70 61.23 62.46 60.27 58.75 57.80 56.28 55.22 56.28 56.52 55.01 54.38 54.00 54.29 54.80 56.61 56.88 57.77 58.99
67.01 66.39 65.69 64.97 63.92 63.60 64.29 63.71 62.92 62.64 62.07 62.18 62.53 62.42 61.19 62.95 62.30 62.29 61.13 58.91 58.78 58.78 58.32 58.59 59.06 62.17 61.93 62.71 62.00 61.89 59.88 55.70 55.52 55.30 54.46 53.95 54.42 55.58 56.22 56.05 56.24 55.54 54.79
66.02 65.54 65.14 65.14 64.43 64.59 64.65 63.33 62.99 62.74 61.78 61.98 62.31 60.92 61.50 61.65 60.64 59.88 62.75 58.22 56.80 56.54 56.67 57.20 58.51 60.74 61.35 59.56 59.97 60.43 59.85 60.23 60.02 56.14 54.98 55.33 55.41 56.27 56.24 55.84 56.08 55.88 55.78
65.08 64.99 65.70 65.63 64.92 64.84 63.78 63.24 63.16 62.91 62.76 62.38 61.07 61.98 61.85 61.22 60.23 59.03 60.85 57.62 57.00 56.83 57.65 57.71 56.92 57.71 57.95 57.92 56.42 54.46 54.42 55.35 55.77 56.41 56.04 56.89 57.33 57.25 56.93 56.88 56.60 56.84 57.37
64.41 64.54 65.28 65.57 64.99 63.91 63.02 62.89 63.71 62.85 62.01 62.06 62.67 62.46 60.63 61.06 58.78 57.61 58.08 57.12 56.58 55.96 55.05 56.60 57.16 56.52 56.83 55.99 53.72 52.95 52.95 54.01 57.19 57.12 56.98 56.99 57.07 57.11 57.59 57.26 56.32 55.36 54.32
64.54 64.99 65.57 65.40 64.59 63.73 63.67 63.93 64.74 63.49 62.63 63.93 62.97 62.35 59.69 60.51 57.22 55.78 56.50 56.32 53.97 53.20 55.09 55.79 56.61 54.60 53.18 52.74 52.02 51.67 53.38 54.62 54.33 54.59 55.52 56.19 57.02 57.02 57.98 58.16 56.94 55.22 55.30
65.21 64.79 64.61 65.64 65.08 64.71 64.89 64.90 64.06 62.94 60.47 59.98 60.76 60.60 59.83 58.77 57.91 54.95 54.33 53.99 54.43 54.32 52.97 52.12 53.18 52.28 50.13 49.84 50.11 49.77 51.67 52.84 54.06 54.60 54.82 55.25 56.16 56.26 56.66 57.78 57.99 58.13 56.32
63.20 62.65 61.83 59.80 64.50 66.54 65.28 64.02 62.37 61.18 60.06 59.17 59.49 58.32 58.27 56.48 54.33 54.17 54.24 52.60 54.73 51.61 51.50 51.68 50.88 49.80 49.21 49.84 50.10 51.01 51.12 52.81 53.28 53.21 53.21 53.31 54.38 54.98 55.50 56.80 58.46 59.61 59.32
61.61 61.87 59.92 60.90 60.47 61.31 64.17 63.14 61.39 59.75 58.26 57.94 57.95 56.36 54.78 54.90 52.41 51.73 51.72 51.89 52.39 49.94 50.84 50.07 50.63 48.31 49.21 50.58 51.60 52.10 52.49 52.41 51.95 50.66 50.58 51.46 53.37 54.60 55.28 56.68 58.21 58.93 60.18
60.59 60.67 60.30 59.39 59.32 61.98 62.90 62.03 60.53 58.95 57.16 56.72 55.72 54.04 52.53 49.82 49.09 49.57 50.00 49.19 50.66 49.41 48.65 46.10 50.10 51.43 51.08 50.76 49.71 50.14 50.89 51.34 50.83 50.19 50.77 52.11 53.29 53.28 53.80 56.08 56.04 56.38 58.95
60.47 60.97 60.53 61.20 61.98 59.32 55.23 54.47 55.82 49.97 52.30 53.41 52.01 52.48 53.00 48.85 48.08 45.14 45.59 47.57 48.32 46.50 44.54 49.11 49.80 49.69 48.79 45.87 45.57 47.12 49.15 48.43 47.14 48.65 50.46 50.21 50.61 51.26 52.75 54.48 55.78 55.78 55.00
56.98 59.70 59.68 61.44 58.75 54.47 51.97 49.62 45.86 44.63 43.29 43.08 45.84 46.67 45.74 45.93 43.75 42.41 41.18 40.83 40.98 41.98 46.22 45.49 45.11 44.52 43.62 42.59 41.68 42.72 43.98 45.74 44.82 47.12 48.97 49.75 49.59 50.03 50.90 53.24 54.24 54.36 54.13
60.92 60.60 59.45 58.57 57.83 53.26 51.07 50.97 49.56 48.60 45.57 43.06 42.08 43.50 44.00 43.03 41.37 40.78 40.65 40.94 42.70 44.58 43.36 41.39 40.28 39.29 38.99 38.73 38.71 39.08 40.01 43.14 43.65 45.70 47.25 48.23 49.26 49.59 49.87 51.09 51.49 52.21 52.98
59.30 55.57 56.82 56.92 57.24 53.97 52.12 50.77 49.69 48.48 47.21 46.91 44.50 43.95 42.75 42.56 42.10 41.22 42.70 43.74 43.34 40.98 39.26 37.92 38.12 36.49 35.87 35.92 36.69 37.32 40.00 41.50 43.28 42.71 44.37 44.39 44.73 48.81 48.13 48.24 49.19 49.42 50.36
59.12 57.01 57.11 57.08 57.12 56.04 55.38 54.47 52.89 51.22 50.00 48.30 46.49 45.31 43.64 42.98 42.53 41.66 42.87 45.12 42.02 38.53 37.54 36.71 37.01 36.43 35.73 35.83 36.36 37.34 37.71 38.30 40.68 40.34 40.93 41.97 42.31 44.76 46.85 47.32 47.70 47.25 48.31
56.82 56.08 56.24 54.93 54.70 53.64 52.39 51.95 51.44 50.70 49.51 47.07 46.51 45.61 45.17 44.90 44.49 43.53 42.87 42.16 40.96 39.84 38.95 38.50 38.08 36.93 36.66 36.92 34.81 33.65 35.97 36.67 37.01 37.73 38.50 39.26 40.68 41.11 42.64 45.37 46.46 46.80 47.14
57.05 54.89 56.71 54.85 54.42 53.24 52.35 52.15 51.18 49.45 48.26 46.42 45.60 45.76 42.62 43.92 43.16 42.47 41.63 40.98 40.93 40.78 40.07 38.75 36.09 36.78 34.63 32.01 30.59 31.46 32.96 34.45 34.45 34.88 36.08 37.50 39.05 38.72 40.06 42.05 43.82 46.11 46.48
54.32 54.40 56.09 54.85 53.54 52.83 52.09 51.09 50.26 50.53 48.20 46.19 44.16 45.05 41.67 43.01 42.58 42.35 41.92 41.61 41.40 40.99 38.92 36.17 34.07 32.16 30.70 29.49 29.84 29.99 30.12 30.56 31.78 32.53 33.74 35.85 37.86 38.61 39.32 39.58 40.57 42.62 44.58
53.81 54.11 53.56 53.02 51.79 51.27 51.32 52.17 53.27 51.57 49.00 48.25 46.18 45.34 43.47 42.54 42.19 42.11 42.30 42.34 40.99 38.23 36.01 35.02 32.79 30.56 29.80 29.31 29.06 28.22 27.50 27.90 28.99 30.70 31.28 34.94 36.41 36.89 38.05 37.75 38.72 39.53 41.14
51.46 50.85 50.30 49.46 49.37 48.41 48.70 48.90 48.70 49.00 50.79 49.02 47.04 45.94 43.60 42.81 42.31 41.75 41.52 40.16 37.95 37.27 35.41 33.73 32.08 29.89 28.69 27.59 27.02 25.98 26.19 27.50 28.98 29.20 31.37 34.20 35.76 35.81 36.93 37.05 37.51 38.70 39.48
49.15 49.02 48.86 48.41 48.29 47.71 47.69 48.00 46.67 45.77 46.21 47.55 47.55 45.36 44.31 43.21 41.69 41.52 41.12 37.84 36.11 35.65 34.58 33.40 31.92 31.19 29.51 28.10 26.23 26.04 28.17 30.37 29.95 31.79 32.97 34.08 34.49 35.09 35.28 35.31 35.82 37.13 38.01
46.41 46.87 48.09 48.02 47.77 47.03 46.37 45.95 45.86 45.10 44.99 43.38 42.91 43.56 44.96 43.58 41.88 40.91 38.39 36.00 35.20 34.72 34.67 33.48 32.55 31.78 31.07 29.86 28.52 29.38 28.96 30.08 30.05 30.73 33.20 33.09 33.10 33.41 34.22 34.49 35.66 35.90 35.90

GFSGL_sfc_wetblb_003.txt.gz
Wetbulb
66.06 64.38 63.28 63.27 63.87 63.32 62.44 61.44 61.23 61.05 60.68 61.25 61.59 61.83 62.35 61.83 61.29 61.38 61.70 62.16 61.28 61.08 61.38 61.44 61.55 60.50 58.60 57.66 57.24 55.91 54.23 53.38 53.66 52.94 54.22 55.54 55.51 56.33 57.63 58.07 58.91 59.21 60.72
67.13 64.95 64.03 64.31 64.02 62.92 62.02 61.92 61.59 60.90 61.20 62.31 62.40 62.35 61.50 61.17 61.47 62.09 61.96 62.07 61.59 60.91 60.98 60.58 60.73 61.43 58.77 57.33 56.70 55.95 55.17 54.53 53.64 53.32 54.07 55.40 54.88 57.39 57.29 56.51 57.52 59.61 59.66
67.19 65.78 65.10 64.68 64.42 63.10 63.12 62.37 61.92 61.48 61.33 60.55 60.30 59.31 58.60 59.11 60.40 60.85 61.39 61.46 61.16 61.57 61.35 60.17 59.87 58.75 58.15 57.22 56.48 56.39 56.27 56.84 54.97 54.90 55.26 57.79 56.96 56.95 56.16 56.42 56.91 57.73 59.26
68.00 66.68 65.36 65.50 65.36 64.87 64.27 63.04 61.88 61.28 60.25 59.74 59.82 59.55 59.39 60.08 60.66 60.55 60.71 60.66 61.15 61.50 61.07 59.91 59.39 59.02 58.84 57.97 57.30 56.91 56.86 55.63 54.93 54.12 56.02 55.97 55.51 55.88 55.63 54.36 54.22 56.70 56.57
68.66 67.45 66.02 65.48 65.13 64.73 63.99 63.03 62.15 61.75 61.97 60.25 60.10 59.67 60.27 61.20 61.83 60.62 61.02 61.62 61.08 60.28 59.87 59.58 59.80 60.84 62.87 60.57 58.18 57.19 55.85 55.63 55.05 54.85 55.28 54.69 53.94 53.22 52.97 54.67 54.59 55.66 55.92
68.94 68.01 66.49 64.59 63.83 63.19 63.16 62.64 61.64 62.62 61.80 60.35 59.97 60.14 60.27 61.61 61.25 62.12 62.75 59.55 58.86 58.08 56.99 56.29 56.81 60.09 60.06 61.80 62.33 62.25 59.50 55.61 54.65 54.24 54.54 53.68 53.49 53.34 55.23 54.82 54.35 53.73 52.41
69.20 67.73 65.88 65.44 63.84 62.85 63.08 62.03 61.92 62.13 61.48 59.97 60.03 60.25 60.17 59.87 59.73 59.87 62.55 58.18 56.54 55.62 54.51 55.20 56.61 58.93 59.24 57.50 59.06 59.88 59.77 60.20 60.31 56.33 53.57 53.68 53.12 54.53 55.54 54.49 54.31 54.15 53.74
67.94 66.99 66.41 65.43 64.48 63.38 61.64 61.97 62.57 62.32 61.48 60.73 60.41 60.27 59.43 60.58 58.85 58.30 60.80 59.13 56.59 55.35 55.85 56.17 54.59 54.55 56.00 56.61 55.82 53.97 53.42 53.36 54.09 55.06 54.57 54.90 55.30 55.67 56.01 55.75 55.24 55.30 56.06
66.24 65.84 66.14 66.01 64.64 63.12 62.89 63.53 63.67 61.74 60.98 61.31 60.56 60.48 60.45 60.21 58.15 57.47 57.94 57.50 55.99 55.42 54.06 53.96 55.14 54.67 55.89 56.26 52.95 51.75 51.19 52.24 55.79 56.65 56.82 56.63 56.51 56.74 57.33 56.29 54.36 53.46 52.68
66.18 65.98 66.44 66.09 64.88 63.40 63.71 63.77 63.69 62.71 61.89 61.58 61.62 59.68 60.26 60.44 57.35 55.76 55.58 56.10 54.08 52.83 53.43 53.87 54.74 54.25 53.64 52.43 50.70 49.30 51.24 50.87 51.90 52.80 54.02 54.93 56.01 56.01 57.59 56.99 55.49 52.84 52.80
65.81 65.30 64.84 63.72 63.81 64.11 62.94 62.11 62.29 63.18 61.81 61.90 62.58 62.02 61.63 59.61 58.89 54.43 53.91 54.40 53.48 53.46 52.27 50.73 51.53 53.08 50.24 50.05 49.43 48.87 49.10 50.29 51.16 52.38 52.97 53.09 54.18 54.67 55.60 56.11 55.96 54.83 53.34
64.72 63.82 60.93 61.66 63.63 62.45 59.68 59.64 60.87 62.18 61.68 59.87 59.64 58.96 59.02 58.01 53.95 53.66 52.95 53.64 55.02 51.57 50.20 50.23 49.89 50.10 48.74 49.43 50.26 50.93 50.75 51.67 50.04 51.62 50.81 50.89 51.47 52.67 54.14 54.96 55.70 56.40 58.62
63.29 61.48 61.25 62.15 62.51 61.68 60.02 58.73 59.00 60.65 60.49 59.24 58.46 57.76 57.14 55.17 52.28 51.62 51.24 51.72 52.14 49.32 49.82 49.74 49.54 47.84 47.72 49.73 51.27 51.58 50.65 47.48 48.21 48.32 49.12 50.50 51.63 52.79 53.55 54.58 55.54 56.47 58.16
61.59 60.80 61.17 61.24 60.62 61.97 61.08 60.08 62.02 60.65 59.12 58.26 58.34 57.40 53.74 50.77 49.57 49.16 49.51 48.29 50.32 48.56 47.84 45.77 48.59 50.07 50.88 50.39 47.60 46.89 46.49 46.62 46.62 46.02 47.95 50.24 51.05 51.41 51.82 53.55 53.41 53.99 55.45
61.32 61.06 60.21 61.41 59.81 60.56 55.53 53.94 57.42 53.48 53.50 56.80 55.17 53.91 51.17 48.39 48.11 46.31 46.42 46.84 46.10 44.93 43.55 48.80 50.06 46.89 45.27 43.55 42.24 42.74 43.60 43.87 43.28 43.80 45.47 47.03 48.89 49.73 50.46 52.14 52.99 52.68 53.32
59.20 59.77 59.29 59.35 61.52 60.05 53.64 49.37 46.22 46.43 43.51 42.72 46.24 48.89 45.85 46.25 44.38 42.09 40.74 40.30 40.45 41.83 47.20 47.80 43.89 42.11 40.50 39.16 38.14 38.52 39.32 41.72 41.74 42.39 43.64 45.98 45.86 46.82 48.66 50.14 51.08 50.93 51.71
58.68 58.55 58.77 57.43 58.42 54.42 52.79 50.85 48.88 46.69 43.38 41.14 41.37 42.29 43.29 42.87 41.93 40.93 40.22 40.11 40.75 43.41 45.53 42.51 39.28 37.37 36.76 36.35 35.98 35.90 36.47 38.40 39.42 40.74 41.40 42.38 43.47 44.19 47.79 47.86 48.73 49.29 49.80
56.25 55.16 57.75 57.46 57.12 53.98 52.90 51.55 50.63 47.68 46.51 45.78 42.87 42.97 41.55 42.48 41.59 41.73 41.60 42.51 42.27 41.87 38.66 37.22 35.19 34.43 33.67 33.83 34.44 34.88 35.82 36.82 38.07 38.53 39.35 40.06 40.71 41.84 44.51 45.59 46.98 47.57 48.26
57.39 56.38 56.08 56.74 55.55 52.82 52.18 50.90 50.01 48.39 47.61 46.47 45.83 44.38 42.22 43.16 39.55 40.83 41.72 42.54 40.51 38.04 36.51 34.98 34.86 34.67 34.73 34.97 34.13 33.48 34.55 35.58 36.34 35.76 37.19 37.93 38.71 39.45 40.50 43.41 45.04 46.20 47.48
56.04 55.91 55.74 55.47 54.34 53.36 52.88 53.86 51.25 49.04 48.26 46.64 46.19 46.01 44.62 44.37 43.77 42.45 41.47 40.46 38.94 37.82 37.23 36.90 36.83 36.24 35.80 33.58 30.66 30.61 33.34 33.68 33.28 33.89 34.87 35.98 37.53 38.19 38.83 39.86 41.84 44.35 45.84
54.27 53.47 55.66 54.07 53.38 52.49 51.59 51.67 51.85 52.58 49.80 47.65 46.91 45.57 43.75 46.14 45.25 43.03 40.90 39.91 39.91 39.36 38.15 36.49 34.73 33.63 30.31 29.31 29.49 30.58 31.39 31.55 31.72 32.26 33.38 34.74 36.34 36.45 37.95 38.41 39.87 42.67 43.95
52.60 53.31 53.21 52.92 52.68 53.72 53.34 52.87 50.11 48.79 47.90 47.76 45.76 44.44 41.06 44.95 44.24 42.85 40.93 40.36 40.20 40.03 37.61 34.21 31.52 29.37 28.25 28.40 29.18 28.82 28.91 29.07 30.03 30.78 32.17 34.02 35.23 35.84 36.63 37.17 38.27 40.02 40.38
53.15 52.73 51.97 50.96 51.35 50.78 50.26 49.70 49.20 48.91 48.46 48.53 45.80 45.17 44.21 44.22 43.57 41.47 41.80 41.89 41.17 37.88 34.77 33.14 30.81 28.42 27.65 27.70 27.95 27.58 27.25 27.64 28.06 29.16 30.68 33.36 34.36 34.52 35.18 35.34 36.31 36.96 37.45
51.68 51.56 51.03 50.00 49.50 48.89 49.05 49.60 51.94 49.25 49.77 48.10 46.69 45.70 44.17 44.17 41.66 41.67 41.57 41.03 38.65 36.02 34.53 32.29 30.53 28.53 27.10 26.30 26.14 25.49 25.82 26.63 28.28 29.00 31.05 32.71 33.65 34.33 34.41 34.47 34.77 35.98 36.49
48.86 48.35 48.30 47.59 47.59 46.78 46.57 46.32 45.89 46.56 47.94 47.57 45.32 45.81 43.69 42.27 41.35 40.89 40.90 37.35 36.28 34.88 33.49 31.81 30.00 29.24 27.91 26.33 25.19 25.51 27.63 29.96 30.64 32.13 32.06 32.12 33.34 33.87 33.93 33.53 34.10 34.62 35.47
46.15 47.30 47.17 47.07 46.87 46.16 45.15 45.09 44.80 44.16 44.01 43.99 44.85 43.54 43.59 42.86 41.35 40.39 39.96 35.55 34.10 34.14 32.93 31.70 30.83 30.21 29.61 28.63 28.03 29.38 28.43 29.87 30.76 31.07 31.91 31.74 31.92 32.38 32.82 33.38 34.34 33.97 34.08

GFSGL_sfc_wetblb_006.txt.gz
Wetbulb
69.63 68.06 65.93 63.59 63.38 63.19 63.35 63.68 62.55 62.07 62.66 63.25 63.27 63.22 63.70 63.79 64.45 63.82 63.86 64.26 64.21 64.43 64.43 64.10 64.25 64.56 63.38 61.82 60.93 60.01 58.76 57.33 55.28 58.11 57.70 60.02 59.90 60.79 61.04 61.42 61.13 60.77 60.87
70.34 67.10 64.96 63.86 63.79 63.59 63.49 63.66 63.33 62.74 62.63 63.05 63.38 63.73 64.19 64.41 64.28 63.51 63.73 64.90 64.39 64.04 64.26 63.95 63.88 63.64 63.16 62.59 60.64 60.56 60.00 59.14 57.59 57.07 59.54 58.68 59.46 61.22 61.09 60.29 60.03 60.21 60.64
70.57 66.10 64.71 63.83 64.26 64.08 63.99 63.69 63.25 62.55 62.35 62.70 63.62 63.53 63.38 63.05 62.39 62.63 63.77 63.93 63.75 63.77 63.95 63.53 63.31 62.54 62.07 61.55 60.93 60.48 60.56 60.43 58.71 57.59 58.10 60.11 59.58 60.72 59.77 60.20 59.90 59.84 60.05
69.17 66.31 65.05 64.28 64.41 64.70 64.50 63.84 63.31 63.09 62.70 62.57 63.09 62.72 62.33 61.69 62.19 62.97 63.44 63.29 63.05 63.31 63.91 63.80 63.00 62.08 61.91 62.05 61.52 61.25 60.98 59.85 59.77 57.95 57.57 58.36 58.96 60.31 58.81 56.96 56.58 58.49 58.35
67.94 66.79 65.98 65.71 65.47 64.94 64.63 64.57 64.17 63.01 63.11 62.87 62.44 62.24 62.41 62.21 62.41 63.19 63.44 63.14 63.38 63.64 63.88 63.05 62.44 62.33 62.70 62.49 62.08 61.92 60.10 59.33 59.09 58.06 57.21 57.69 57.47 57.76 56.91 57.71 55.94 56.90 58.23
68.79 67.37 67.56 66.37 65.93 65.54 65.50 65.36 63.88 63.16 62.59 62.78 61.83 62.35 62.21 62.63 61.11 61.81 63.85 63.44 63.75 63.05 62.11 61.57 60.44 60.42 60.85 60.83 61.46 62.19 62.32 60.39 59.33 58.02 57.38 56.41 57.46 57.71 57.79 56.19 55.70 54.67 53.55
69.42 68.65 67.90 66.42 65.30 64.12 64.55 64.97 63.72 62.85 62.52 62.48 62.48 62.65 62.44 63.33 59.43 59.73 62.09 63.62 61.91 60.76 60.50 60.20 59.77 60.55 60.63 59.44 59.37 59.42 60.22 60.11 60.80 60.72 56.47 57.28 57.02 57.65 57.67 56.27 55.70 54.08 54.45
69.29 69.03 67.41 66.10 65.14 64.15 63.41 63.12 64.19 62.80 62.17 62.37 62.48 62.72 62.52 62.76 58.57 58.38 60.73 63.42 62.28 61.06 59.85 59.25 59.23 58.97 58.69 58.72 58.98 58.44 57.49 57.23 57.41 56.75 57.24 56.89 57.15 57.26 57.63 57.05 55.46 55.67 56.13
68.78 68.13 67.12 66.43 65.36 65.23 64.69 63.23 63.60 63.13 62.88 63.57 63.41 62.93 62.22 62.86 58.16 57.42 59.32 62.10 61.35 60.65 59.45 57.95 57.56 58.72 56.75 55.95 57.24 56.18 55.71 55.73 56.00 55.76 55.80 55.67 55.69 56.05 56.66 56.35 54.23 53.49 52.22
68.24 67.90 67.46 67.30 65.47 63.80 64.51 64.25 63.46 64.00 63.45 64.52 63.49 62.44 60.43 62.03 57.75 57.31 57.99 61.22 59.80 58.01 57.41 58.20 56.14 55.60 53.61 52.68 55.68 54.35 53.84 54.13 53.51 53.74 54.11 54.87 55.67 55.89 56.41 57.54 56.67 53.05 52.22
67.50 67.74 67.90 67.37 66.45 65.34 63.82 63.26 62.60 63.56 63.49 62.82 61.08 60.02 62.10 62.21 62.01 56.59 54.24 59.26 58.23 57.34 56.66 56.40 56.06 52.79 50.88 50.29 49.89 54.25 53.28 53.74 53.04 52.42 52.16 52.63 53.50 53.68 54.65 56.24 56.46 54.14 52.07
66.09 65.18 64.75 64.68 65.17 63.05 61.39 61.62 62.08 61.59 60.60 61.39 61.43 59.37 58.08 60.81 56.67 55.81 52.55 54.82 55.91 57.07 56.14 54.57 54.57 49.03 48.72 49.02 51.87 50.56 50.37 51.37 52.10 51.35 50.71 50.48 51.44 52.20 53.63 53.86 55.26 54.72 55.69
62.52 62.17 62.75 62.89 63.02 62.45 61.43 61.27 60.93 61.22 60.36 60.90 61.39 60.95 61.50 59.12 56.77 51.85 51.66 50.63 52.30 53.23 53.32 52.09 49.96 47.53 46.91 50.12 50.51 50.12 49.64 50.67 50.05 48.59 47.56 49.04 50.81 52.31 53.46 53.56 54.27 54.68 55.67
61.64 61.96 62.50 62.32 61.37 61.03 61.56 62.06 60.95 60.00 59.80 60.74 61.29 60.47 59.60 56.79 55.46 53.90 53.31 52.87 51.43 51.95 49.74 49.86 51.09 50.81 50.75 50.29 49.46 48.36 48.90 49.27 48.76 46.89 46.81 48.52 50.14 50.68 49.85 52.34 51.42 52.52 52.34
61.54 61.33 61.20 60.75 61.52 61.44 60.75 58.08 59.70 56.81 56.89 60.59 59.70 59.48 57.10 54.70 53.28 50.23 50.42 51.85 51.70 48.81 47.42 52.22 52.94 51.70 48.09 47.11 46.08 45.97 46.16 46.47 45.33 45.55 45.48 46.22 47.66 47.73 47.40 50.69 50.71 50.81 50.83
61.73 60.73 60.10 60.40 60.92 60.44 54.22 51.76 45.73 44.69 44.64 43.99 44.70 52.05 51.90 48.03 44.05 42.72 41.26 40.75 39.69 41.38 48.88 51.31 49.43 45.62 45.33 44.58 43.66 43.21 43.82 43.50 43.50 43.68 43.55 44.36 44.51 45.19 45.62 48.13 49.28 49.33 49.40
61.48 58.79 58.06 58.31 59.71 57.35 55.57 53.60 52.56 47.97 42.53 41.90 42.27 42.17 43.37 42.79 41.32 40.61 39.75 39.82 39.87 43.29 49.27 47.64 46.43 44.29 43.05 42.30 41.56 41.38 41.22 42.09 42.78 42.32 42.71 42.67 42.74 43.97 44.59 46.22 46.77 47.81 48.85
60.01 54.96 59.62 58.99 58.87 56.71 55.53 54.76 53.53 52.52 51.28 48.79 43.40 43.91 41.10 40.90 41.35 40.09 40.31 42.80 47.11 45.40 45.47 44.90 43.29 41.21 40.57 40.84 40.74 40.15 40.39 41.24 41.38 40.91 41.13 41.23 41.84 41.89 42.42 44.26 45.51 45.68 47.29
58.66 58.09 58.44 58.31 57.23 55.51 55.29 54.63 53.78 51.80 50.91 49.47 48.44 44.72 42.28 40.15 39.34 40.31 41.87 48.20 46.85 44.65 42.76 41.66 41.29 41.34 41.48 41.60 40.06 38.59 38.64 40.02 39.81 39.58 40.11 40.08 41.10 41.44 42.24 43.31 42.98 43.83 46.71
59.22 56.57 56.45 57.29 55.53 54.77 54.39 53.68 52.37 51.92 50.70 49.77 49.54 50.07 48.87 47.50 48.59 47.96 46.55 45.37 44.14 43.14 42.62 42.72 42.60 42.29 42.06 39.39 37.51 37.21 39.13 39.25 39.06 39.09 39.11 39.69 40.73 41.81 41.90 42.55 43.17 42.65 45.31
57.60 57.71 56.45 57.05 56.01 55.02 54.63 54.19 53.61 52.43 51.18 50.55 50.99 49.59 45.04 50.18 49.12 47.45 46.18 45.44 45.03 44.22 43.66 43.17 42.06 40.47 37.90 36.84 37.68 38.34 38.64 38.83 38.31 38.38 38.81 39.62 40.51 41.08 42.40 42.83 43.05 43.96 44.43
55.88 56.16 56.90 56.95 56.05 55.32 54.98 55.18 54.74 53.87 51.72 51.31 50.53 48.57 41.65 48.85 48.61 47.87 46.44 45.74 45.59 45.26 43.52 40.94 39.14 37.72 36.86 36.95 37.60 38.00 37.84 37.76 38.01 37.89 38.51 39.34 40.27 41.33 41.97 42.35 42.51 42.89 43.39
55.70 55.37 55.18 55.12 55.22 52.97 54.15 54.23 53.63 52.64 51.73 51.43 50.14 47.72 45.55 47.46 47.93 47.32 46.18 45.96 45.49 44.84 42.22 40.00 38.11 36.46 35.74 36.17 36.68 36.87 37.19 37.33 36.78 36.49 37.76 38.84 39.91 40.42 41.39 41.61 41.83 41.88 41.80
54.82 54.39 53.80 53.22 53.45 53.47 53.12 52.77 53.12 49.35 52.21 50.45 48.94 46.78 46.84 46.38 46.84 46.94 46.59 46.49 46.01 43.63 40.59 39.28 38.04 36.72 35.26 35.14 35.54 35.57 35.16 35.82 36.72 37.48 37.81 38.88 39.86 40.14 41.09 41.56 41.21 41.59 41.26
51.75 51.88 51.91 51.90 51.68 51.72 51.79 52.29 52.77 53.13 52.02 50.07 50.01 49.43 48.52 47.94 46.75 46.23 46.76 46.20 45.02 42.04 40.14 38.94 37.74 36.49 34.89 34.23 34.22 34.65 33.05 30.10 34.80 33.79 39.41 39.76 40.17 40.75 40.49 40.82 41.04 41.24 41.01
50.17 50.68 50.57 50.80 50.80 50.50 50.24 49.99 49.50 49.20 49.50 50.71 49.97 49.29 48.81 47.81 46.88 46.28 45.47 44.36 42.87 41.45 40.13 38.80 37.83 36.41 35.54 35.22 35.35 32.76 29.19 29.64 34.68 31.13 39.28 40.42 40.01 40.49 40.62 40.44 40.52 40.52 40.52

GFSGL_sfc_wetblb_009.txt.gz
Wetbulb
74.72 75.72 75.68 74.96 74.11 74.40 72.57 69.57 69.05 70.31 69.94 69.94 69.78 69.02 68.87 68.51 68.95 69.13 69.15 68.76 68.13 68.61 69.42 68.92 68.95 69.49 67.67 68.07 67.91 66.82 65.01 63.84 61.20 62.15 63.53 65.15 65.06 65.20 65.74 66.47 66.11 65.73 64.55
75.60 75.54 74.57 74.25 73.65 70.83 71.74 69.22 70.65 66.23 69.47 69.29 69.27 68.98 68.84 68.69 69.11 69.09 68.35 67.50 67.81 67.87 68.21 68.55 68.32 67.74 68.20 68.63 66.85 67.08 66.72 65.90 62.97 61.50 64.16 63.57 65.06 65.90 65.39 65.30 64.83 64.65 64.37
75.16 74.30 73.74 72.36 71.38 72.59 68.56 68.51 68.34 68.26 68.79 67.98 68.46 68.40 68.43 68.73 69.17 69.47 68.74 67.75 68.10 68.14 68.11 68.02 67.82 68.07 67.49 66.79 66.60 65.50 65.10 66.80 64.75 61.60 61.41 62.91 63.60 64.49 64.10 64.90 64.42 64.43 64.00
74.24 73.95 73.10 71.96 72.37 69.43 68.29 69.64 68.46 67.10 68.23 68.20 68.02 68.74 68.72 69.03 68.73 68.10 67.27 67.60 68.05 67.86 68.30 68.28 68.21 67.68 67.20 66.68 65.89 65.97 65.40 64.42 64.07 62.50 61.38 61.53 62.08 64.28 63.07 61.47 60.80 62.44 61.87
74.86 73.97 73.21 72.43 71.93 72.08 69.70 66.70 64.84 65.47 65.81 66.33 67.09 67.42 68.09 67.56 66.86 67.12 67.55 67.93 68.09 67.94 68.12 68.46 68.47 67.48 65.15 64.38 63.86 64.59 65.19 63.60 62.19 61.18 60.44 60.78 60.54 60.51 60.07 61.11 60.14 60.69 61.95
74.50 73.51 73.35 72.93 71.55 70.76 68.94 67.52 65.07 64.62 64.79 65.43 65.11 65.76 66.78 66.24 62.15 62.01 65.76 67.60 68.25 67.84 67.30 68.18 67.84 63.87 63.42 61.76 61.56 62.18 63.09 63.12 62.25 63.51 61.14 59.85 60.54 60.55 61.00 59.93 58.90 57.69 56.01
73.84 73.47 73.05 72.55 70.88 70.02 68.93 68.31 66.86 65.58 64.74 64.94 64.69 64.65 67.43 68.01 60.88 60.51 62.68 66.79 67.52 67.40 67.65 67.22 65.99 64.65 62.72 64.18 61.70 60.53 60.36 60.41 61.29 62.58 60.14 60.22 60.06 60.72 59.99 58.43 57.90 56.07 55.22
73.36 73.17 72.98 72.16 70.71 69.66 69.32 68.74 67.44 65.49 67.21 64.53 65.55 67.12 68.34 67.88 59.61 58.56 61.21 66.25 67.07 67.71 67.27 66.59 65.58 64.82 64.63 62.33 62.42 62.26 62.94 62.99 62.75 61.41 61.17 60.74 60.50 60.09 59.08 58.08 56.42 55.81 56.86
72.64 73.02 72.80 71.94 70.26 69.71 69.22 67.43 68.82 66.97 66.32 66.99 66.65 66.80 67.11 66.97 58.57 57.58 61.32 64.28 64.91 65.33 67.02 65.41 63.97 63.62 59.25 56.38 59.88 60.77 61.40 61.57 59.15 56.15 55.81 55.52 55.43 55.57 56.46 56.37 54.81 55.32 54.30
72.46 72.99 73.42 71.84 70.98 69.61 68.49 67.08 68.03 67.37 65.96 66.40 66.44 67.87 65.09 68.29 57.33 56.29 60.34 63.24 62.34 63.19 64.88 62.85 57.32 59.76 53.99 53.98 59.74 60.49 59.31 60.12 59.03 58.65 58.62 58.15 57.95 58.55 57.05 58.77 56.44 54.25 54.96
73.51 73.28 72.33 71.44 70.83 70.57 68.04 67.91 67.36 66.95 64.54 64.69 66.37 67.25 66.00 65.30 64.75 55.04 55.18 65.47 62.32 62.23 62.98 62.08 62.28 53.62 51.52 50.64 50.80 60.01 58.01 55.82 56.75 56.85 56.65 57.08 57.71 58.19 58.66 58.89 58.84 56.94 55.69
72.31 71.76 70.21 70.30 68.52 67.11 66.25 66.30 67.75 66.82 64.17 62.46 64.56 62.79 63.53 65.69 57.37 55.49 54.07 55.10 59.66 62.92 63.31 62.80 60.15 50.79 48.47 49.83 52.36 51.62 50.92 51.27 55.96 55.40 54.96 55.01 55.11 55.24 56.04 56.10 56.95 57.85 58.56
70.93 69.46 68.82 69.17 67.59 66.32 65.94 65.27 64.26 64.27 64.22 62.76 62.27 62.19 63.24 63.71 63.38 52.18 51.88 52.16 53.70 59.92 61.19 55.96 50.39 48.33 47.66 48.94 52.09 50.44 49.47 55.02 54.23 53.34 52.81 52.76 53.22 54.03 55.22 54.88 56.21 58.60 58.69
68.79 68.04 68.62 68.25 66.82 66.83 66.12 65.81 65.81 64.33 63.27 61.29 63.42 62.85 64.25 64.13 63.94 62.04 59.77 57.39 53.24 55.71 53.37 57.90 53.31 51.74 50.84 54.29 52.81 52.96 53.23 53.56 51.88 51.36 50.92 51.64 52.53 52.58 51.85 52.45 52.94 54.93 53.58
67.92 67.26 66.60 66.14 66.37 65.56 62.09 61.76 63.90 64.08 59.33 62.80 62.20 65.06 64.56 63.23 61.98 56.71 56.37 59.16 60.35 54.39 54.88 58.17 58.16 57.52 56.69 56.04 53.30 53.08 53.07 52.29 50.81 50.63 50.04 49.87 49.83 49.94 50.06 51.52 53.15 53.99 53.06
66.22 65.35 64.60 64.07 63.95 63.74 60.64 56.41 44.44 44.93 44.28 44.14 44.68 57.11 57.89 49.36 44.76 44.04 43.89 42.43 41.45 42.81 53.73 55.73 56.04 55.81 54.99 54.29 53.54 52.43 51.87 49.47 49.70 49.12 49.19 49.02 48.25 48.22 48.67 50.30 53.43 53.55 53.13
66.13 65.30 64.35 62.68 64.29 63.26 61.32 61.37 60.04 49.35 42.29 40.81 42.38 43.98 47.08 44.47 41.24 40.23 39.93 40.03 40.38 43.01 54.37 55.46 54.82 54.25 53.52 52.43 50.91 50.46 49.34 48.74 48.57 48.20 47.97 48.26 47.86 47.88 47.90 49.77 50.57 50.52 49.58
66.11 56.27 63.40 63.18 63.07 61.78 61.34 61.24 61.60 60.33 59.40 55.78 44.00 46.21 41.02 40.56 39.77 39.50 40.66 43.94 51.23 50.35 55.08 54.41 53.54 52.10 50.85 50.41 50.71 49.12 47.98 47.08 46.89 47.16 47.33 47.72 47.60 47.18 47.49 48.78 49.34 47.28 49.25
63.68 62.91 63.83 64.09 63.65 61.37 62.39 61.42 61.17 60.70 59.96 57.13 53.28 47.53 44.54 38.93 40.22 40.82 41.89 55.24 55.16 53.91 52.84 51.84 51.51 50.54 50.69 50.90 50.11 47.77 45.46 45.28 45.44 46.48 46.90 47.02 47.14 47.18 47.23 48.07 49.12 47.04 48.14
64.40 58.25 60.01 62.68 60.81 61.20 60.92 60.65 60.18 59.56 58.29 57.11 56.24 56.26 54.20 51.18 53.97 54.60 54.66 54.88 54.05 53.29 52.07 51.27 50.72 51.15 50.94 49.83 47.39 45.63 45.21 46.61 46.96 46.48 46.50 46.95 47.16 47.24 46.87 47.24 48.41 49.12 50.30
64.91 62.89 59.05 62.72 62.35 61.99 61.24 60.59 60.29 59.04 58.55 57.97 57.86 56.33 48.72 55.97 55.82 55.34 54.18 53.66 52.89 52.16 51.15 51.59 50.40 50.39 48.53 47.37 45.88 46.07 47.15 47.15 46.83 46.25 46.17 46.33 46.97 46.28 47.38 47.57 47.84 49.05 49.21
61.44 61.06 62.37 62.21 61.67 61.09 60.94 60.04 60.01 59.69 59.26 58.25 58.05 54.44 43.30 55.29 55.48 54.33 53.42 52.82 52.94 52.54 52.14 49.79 48.89 48.29 46.89 46.06 45.70 47.10 47.24 46.58 46.37 45.84 45.78 46.03 46.40 46.40 46.85 46.89 47.07 47.54 48.10
61.27 61.00 61.10 61.16 61.62 57.12 59.85 60.73 60.12 59.67 58.93 58.63 58.02 56.13 53.61 54.63 53.76 53.81 52.89 52.88 52.52 51.99 51.44 49.35 47.89 47.23 45.92 44.94 46.10 46.89 46.45 45.98 45.28 44.98 44.72 45.23 45.73 45.90 46.37 46.34 46.49 46.37 46.36
61.09 60.54 59.87 59.89 60.33 60.07 59.86 59.68 59.56 53.33 58.07 57.78 57.19 55.92 54.80 53.79 52.03 52.76 53.30 52.80 52.32 52.06 50.59 48.31 47.80 46.15 43.89 43.16 44.78 45.74 46.15 45.80 45.42 45.65 44.94 44.92 45.35 45.38 46.00 46.01 46.29 46.44 46.49
59.69 59.37 59.13 59.16 59.10 59.33 58.64 59.01 58.63 58.16 57.79 57.54 56.72 53.76 53.13 54.73 55.32 54.01 53.16 52.68 52.43 51.39 49.54 47.88 46.98 44.70 42.80 41.49 41.18 41.46 36.69 31.17 38.21 34.53 45.24 45.34 45.38 46.08 45.67 45.58 45.92 45.89 46.15
57.09 56.77 56.53 56.96 56.90 57.00 56.90 56.64 56.43 56.70 56.91 57.06 56.80 56.44 56.59 56.26 55.94 54.92 53.26 52.49 51.74 50.92 49.70 47.78 46.32 44.45 42.83 42.36 42.12 35.68 29.60 29.91 37.71 30.75 42.29 45.84 45.18 45.44 45.45 44.93 45.07 45.12 45.44

GFSGL_sfc_wetblb_012.txt.gz
Wetbulb
76.66 77.74 77.50 77.17 77.44 77.85 77.58 77.06 76.06 74.91 74.00 73.03 72.60 71.33 71.48 70.25 70.58 70.73 70.29 69.22 69.03 69.14 68.77 69.07 69.48 70.38 67.86 66.99 66.84 66.37 65.41 64.89 62.18 63.29 64.63 67.10 67.71 67.73 67.83 68.32 68.10 67.60 67.10
77.83 78.18 77.03 77.58 77.56 77.06 77.71 76.84 76.42 74.44 73.33 73.13 72.31 71.55 70.59 70.24 70.18 70.13 68.90 68.21 67.95 67.57 68.23 68.90 68.92 68.31 69.26 69.34 67.33 67.92 66.45 66.48 63.79 63.38 65.33 64.66 67.53 68.65 67.15 67.54 66.77 66.57 66.57
77.15 76.26 76.11 76.86 76.64 77.29 77.04 76.65 73.11 73.63 71.37 71.21 71.03 69.74 69.90 69.89 69.58 69.95 70.06 69.27 68.54 68.29 68.81 68.65 68.64 68.93 68.35 67.42 67.78 66.36 65.46 65.18 65.51 63.28 63.03 64.82 64.66 65.14 65.96 67.88 66.58 67.47 65.85
75.72 76.02 77.00 76.73 76.59 76.28 76.87 75.03 72.26 69.66 70.25 68.20 70.08 69.29 69.32 69.94 69.86 69.33 69.37 69.39 68.48 68.36 69.04 69.27 69.14 68.94 67.98 68.15 67.15 67.57 67.08 65.45 65.77 63.18 62.86 62.57 63.21 65.64 64.46 62.84 62.10 63.50 62.94
76.57 76.02 76.81 77.59 77.18 76.34 76.91 74.41 72.37 70.51 70.14 68.86 67.56 67.97 68.47 68.95 68.10 69.91 69.18 68.05 68.00 68.41 69.10 69.26 69.48 69.50 67.25 66.59 66.16 67.56 66.89 64.25 63.00 61.89 61.44 60.91 61.12 60.70 62.42 62.19 61.23 62.04 63.95
76.71 76.24 77.67 78.04 77.15 75.87 76.62 73.74 71.50 69.42 69.38 66.96 65.48 64.65 65.48 66.97 63.82 63.21 66.90 67.90 68.30 68.65 68.53 69.27 69.62 66.82 66.48 63.42 62.83 62.38 63.32 64.02 63.21 61.46 60.58 61.10 62.90 62.59 62.55 61.36 60.86 59.29 57.86
76.26 76.57 77.08 77.65 76.45 75.54 75.54 73.15 71.41 70.27 69.00 66.33 64.79 64.96 65.85 66.95 61.72 61.39 63.26 66.90 67.78 68.54 69.20 69.82 68.61 66.68 66.86 67.59 64.05 61.89 61.35 60.59 60.78 63.28 62.17 62.48 62.03 62.81 62.90 61.20 60.41 59.07 58.30
76.06 76.21 76.66 76.75 75.67 74.56 73.16 72.11 71.87 70.08 68.20 68.35 67.13 67.05 66.98 66.74 61.50 60.17 62.38 67.34 67.92 69.02 69.50 69.51 68.68 67.20 68.50 67.22 66.65 65.30 64.66 65.59 65.28 64.09 64.20 63.65 63.42 62.75 61.18 60.08 59.71 59.37 58.38
74.88 75.63 75.97 76.06 75.12 74.01 71.83 69.90 70.37 69.59 67.83 66.86 67.01 68.24 67.84 67.93 58.96 58.21 61.37 67.57 67.40 68.27 68.73 67.56 67.10 66.25 62.21 59.29 63.71 63.38 63.86 64.12 61.29 58.31 57.16 56.51 56.03 56.09 57.05 58.72 57.73 56.04 54.95
74.58 75.45 76.26 76.23 75.20 72.82 72.48 71.57 69.77 67.95 66.88 66.18 68.01 68.27 65.70 67.38 58.97 56.34 59.15 65.91 67.55 64.34 65.84 68.51 60.10 61.29 57.50 55.75 60.80 62.03 61.50 62.46 63.00 62.40 61.92 60.57 58.78 60.68 58.00 59.95 58.22 56.21 56.82
75.39 75.97 76.28 76.23 74.93 73.37 73.01 71.25 68.93 67.19 66.76 68.18 68.94 68.69 67.02 66.48 66.23 55.78 55.66 66.20 65.41 64.60 65.88 66.06 64.07 55.89 52.95 52.09 52.47 62.13 60.54 59.51 59.76 60.41 60.40 59.88 59.22 60.41 60.38 60.66 61.05 58.53 55.96
76.14 75.72 75.82 73.97 72.49 71.95 69.58 68.71 67.78 68.09 69.31 68.43 68.18 68.17 67.67 67.40 60.01 54.69 54.27 56.36 60.16 65.91 65.83 65.34 60.25 51.59 51.30 50.75 53.00 53.37 52.33 51.86 59.29 59.55 58.81 56.89 57.49 57.86 58.20 58.54 59.35 59.41 58.80
75.09 74.57 71.66 72.00 70.86 69.94 67.57 66.84 66.29 67.57 66.62 66.60 66.73 65.48 63.84 66.71 66.36 53.58 53.10 53.22 54.84 62.61 66.34 58.00 52.17 50.49 48.85 49.44 51.31 52.30 50.16 58.45 58.93 57.33 55.94 56.03 56.78 57.12 57.78 59.06 59.59 61.41 62.42
71.95 69.96 69.87 68.18 67.45 67.76 67.08 66.83 67.08 66.96 66.20 67.27 66.00 65.10 64.25 64.93 65.58 65.10 59.55 59.77 56.00 58.83 54.87 59.16 56.49 54.65 51.48 53.36 55.82 54.67 58.76 59.00 57.05 55.18 55.25 56.05 56.52 55.82 54.45 54.33 53.09 55.41 57.38
70.37 69.84 69.46 68.22 68.97 68.02 58.74 59.32 66.57 65.69 59.52 66.55 64.77 62.74 63.61 62.64 64.71 60.76 59.81 64.77 64.51 58.44 60.52 62.38 60.97 61.24 60.63 60.28 60.13 59.58 58.65 57.54 55.72 55.45 54.86 54.17 53.57 53.22 52.32 53.11 52.59 55.99 55.14
69.91 70.07 69.51 69.43 68.85 67.73 65.93 63.70 44.71 46.20 45.40 45.36 46.25 56.55 57.82 50.65 46.32 44.58 43.39 42.75 44.31 45.72 57.40 59.87 59.70 59.59 59.10 59.01 58.45 57.82 56.97 53.99 54.99 54.04 53.50 52.98 51.76 51.21 50.95 51.41 52.83 55.01 53.83
69.59 69.34 67.37 66.01 67.64 66.31 65.71 64.37 62.77 52.98 43.03 41.25 41.96 43.32 46.78 46.20 42.32 41.32 40.76 40.67 40.94 44.47 58.05 59.04 58.73 58.70 58.64 58.35 56.89 55.49 54.05 54.78 54.47 53.19 52.60 51.78 50.98 50.79 50.30 50.60 51.75 53.55 54.51
69.37 58.98 67.66 67.16 66.82 66.21 65.88 65.73 64.94 63.30 62.00 60.15 45.62 48.46 40.96 40.54 40.41 40.08 40.58 44.36 53.97 52.22 58.34 58.34 57.95 58.02 57.18 55.83 55.05 54.13 53.76 53.37 52.54 51.60 51.04 50.85 50.70 50.04 49.64 49.84 50.99 52.37 53.80
67.91 66.72 66.42 65.80 65.41 63.46 65.08 64.75 64.52 63.72 64.15 61.53 55.14 49.48 44.91 39.98 39.84 40.82 42.03 58.12 59.41 58.53 58.49 56.49 56.53 55.65 55.41 54.98 54.86 53.70 52.54 51.12 48.73 49.74 50.23 50.04 50.09 49.84 49.74 49.84 50.11 48.15 50.15
65.70 59.37 62.65 65.33 64.78 65.48 65.46 64.69 64.06 64.06 63.80 62.18 60.03 59.31 56.27 52.17 56.26 57.17 57.76 58.80 57.99 57.99 57.92 56.00 56.29 55.66 55.28 54.69 53.82 52.04 50.21 49.75 50.33 49.85 49.85 49.83 49.73 49.84 49.22 49.18 49.65 49.54 52.06
65.34 64.96 61.10 65.39 64.71 64.24 63.92 63.61 63.68 63.34 62.45 62.07 61.92 60.40 52.29 59.82 59.30 58.95 58.18 57.35 57.07 57.63 57.06 55.77 56.14 54.74 54.46 52.66 50.85 49.81 49.33 49.76 50.49 49.71 49.30 49.39 49.42 48.83 49.47 49.61 49.54 49.76 50.10
65.65 64.60 64.06 63.43 63.53 62.97 63.61 64.19 63.45 62.71 62.16 61.62 61.04 56.61 46.79 58.42 59.66 59.04 58.04 57.21 57.12 57.15 56.84 55.92 53.96 53.24 53.04 50.88 50.10 48.56 49.45 49.54 50.30 49.40 48.74 48.69 48.88 49.08 49.08 49.10 49.07 49.39 49.15
64.44 63.82 63.96 64.50 64.38 59.04 62.39 62.95 62.66 62.32 61.79 61.41 60.09 59.20 57.58 58.46 58.89 58.43 57.80 57.53 57.04 56.29 55.92 54.58 53.12 52.00 52.06 49.49 48.77 49.11 49.16 50.64 49.60 48.94 48.19 48.30 48.30 48.45 48.91 48.51 48.55 48.53 48.63
64.02 64.21 63.78 63.28 62.84 61.87 62.14 62.00 61.99 55.70 60.59 59.74 59.32 59.17 59.07 58.48 58.77 58.28 57.84 57.30 56.45 55.97 55.57 53.93 52.87 51.67 49.52 47.13 47.75 48.63 49.58 49.46 48.70 49.11 48.32 48.22 48.19 47.96 48.83 48.54 48.37 48.79 48.57
63.32 62.85 62.65 62.83 61.89 60.90 61.55 60.84 60.68 59.27 59.04 59.38 58.96 59.08 59.33 59.36 58.51 57.35 58.04 57.04 56.36 55.46 54.30 53.48 52.61 50.50 48.06 46.44 45.47 45.58 35.15 32.29 41.47 34.22 47.42 48.92 48.46 49.17 48.53 48.19 48.07 48.23 48.49
61.92 61.61 61.37 61.12 60.33 60.14 59.43 59.35 59.12 59.41 58.65 58.52 58.36 58.14 57.96 57.60 58.00 58.08 57.58 56.72 55.89 55.27 54.46 53.49 52.15 49.77 47.82 46.80 45.66 35.46 29.91 31.20 38.60 30.98 42.65 48.17 48.13 48.33 47.07 47.69 47.48 47.45 47.69

GFSGL_sfc_wetblb_015.txt.gz
Wetbulb
78.88 79.12 79.19 78.81 79.38 80.28 79.88 79.53 79.34 76.77 77.41 76.00 75.47 73.32 72.32 72.40 71.53 71.50 71.60 70.87 70.45 70.79 69.99 69.23 69.58 70.92 67.68 67.16 67.03 66.70 65.25 64.78 62.44 63.45 65.21 67.97 70.60 69.71 69.04 69.54 68.85 68.53 67.93
78.17 79.18 78.97 79.55 79.28 78.91 79.55 79.88 79.88 78.11 77.26 76.21 75.18 73.61 73.02 71.41 71.89 70.79 70.15 69.78 68.84 68.36 68.27 70.06 68.75 68.00 71.65 71.71 67.91 68.20 66.27 68.61 63.82 65.13 66.47 65.38 68.13 69.49 70.11 70.36 67.51 66.46 66.91
77.54 77.59 78.63 78.45 79.19 78.66 79.59 79.80 79.68 78.22 77.46 74.37 74.53 71.76 72.47 70.20 69.24 69.44 71.01 70.56 70.19 70.06 69.73 70.17 69.72 70.45 71.10 68.90 70.16 67.89 65.90 67.29 66.84 63.52 63.35 65.65 64.96 66.62 67.03 67.19 66.75 66.27 66.62
75.43 75.73 77.19 78.22 78.51 78.89 79.91 79.47 79.56 78.96 76.65 73.63 74.38 73.11 71.68 69.10 69.34 68.56 69.54 69.14 70.49 70.19 70.59 70.78 70.28 70.23 71.08 71.05 69.35 70.37 69.16 67.03 66.23 63.76 62.98 63.12 63.75 62.82 66.14 63.97 62.35 62.02 63.64
76.46 76.24 77.08 78.70 79.24 79.43 79.17 79.69 79.49 77.93 76.09 74.48 73.66 72.86 71.32 69.39 68.37 66.77 69.21 69.06 69.85 69.91 70.14 70.54 70.60 70.44 68.10 67.79 67.90 69.32 70.11 66.34 63.91 62.92 62.12 61.52 62.35 62.56 62.24 63.25 61.81 62.41 62.36
78.04 77.45 78.53 79.69 79.32 79.13 79.47 79.56 79.17 77.80 75.97 74.58 72.81 71.59 68.93 67.31 63.34 64.75 68.87 69.00 69.52 70.09 69.87 70.82 71.17 69.06 67.47 64.98 64.46 63.54 64.45 65.00 65.37 62.94 61.81 61.33 63.29 63.15 63.09 61.94 61.37 59.64 57.67
78.82 80.18 79.64 80.48 79.90 79.98 79.67 79.23 78.08 77.07 74.76 73.07 72.27 70.58 69.20 68.04 62.24 62.47 64.13 68.49 68.73 68.84 68.82 70.65 69.92 68.44 67.45 68.76 64.63 63.02 62.42 61.81 61.53 64.38 63.34 63.47 63.67 64.73 64.99 63.29 62.53 60.76 58.51
79.76 79.36 80.62 80.48 80.46 80.02 78.97 78.31 76.96 74.62 72.14 72.45 71.82 70.00 68.21 68.84 62.17 61.26 63.37 66.94 67.35 67.24 68.82 71.02 70.93 70.15 69.47 67.81 67.00 64.23 65.38 67.67 66.43 64.05 64.83 64.97 65.71 65.51 63.15 61.79 61.50 60.88 60.73
78.64 79.11 79.71 79.96 79.44 79.31 77.77 76.77 74.55 72.76 71.23 69.80 69.74 68.78 68.46 69.96 60.26 59.32 62.05 65.11 65.95 66.32 67.84 70.41 70.49 69.27 63.35 61.16 62.49 63.05 65.50 66.24 64.00 60.83 60.07 58.68 57.51 57.49 58.51 59.43 57.88 56.97 56.28
77.60 77.81 79.26 79.24 78.89 77.77 76.68 75.03 74.65 73.41 70.74 69.17 68.24 67.73 65.13 70.10 59.28 58.09 61.23 66.89 67.82 66.66 67.52 69.86 62.24 63.94 58.46 57.90 61.08 62.86 62.85 63.80 63.96 64.43 63.87 61.15 58.78 61.10 57.96 60.58 59.98 57.21 56.87
76.49 76.57 77.67 78.17 78.41 78.11 77.04 74.95 73.66 72.57 70.51 69.21 67.51 68.90 69.99 69.49 68.38 55.55 55.85 66.23 65.64 64.01 65.44 67.54 67.45 56.56 54.50 53.01 54.40 62.11 62.10 60.70 62.90 61.56 60.66 60.98 61.84 62.53 60.27 62.26 63.39 59.82 56.50
78.09 77.36 77.52 78.16 76.61 75.38 74.75 73.46 72.28 69.84 67.48 66.77 67.51 68.06 70.33 71.89 61.62 55.05 54.47 56.59 61.87 65.44 65.73 67.43 65.96 53.96 51.80 52.03 53.43 56.55 54.24 53.80 59.61 59.06 59.50 58.48 59.49 58.14 58.74 60.05 62.40 61.31 60.20
77.32 77.74 77.35 76.01 74.32 74.00 72.63 70.89 69.45 68.34 66.47 66.15 66.73 68.81 69.58 68.22 70.12 54.40 53.85 54.58 56.00 61.58 65.94 60.13 54.81 52.88 52.54 51.34 52.00 54.30 53.11 58.14 58.66 58.94 58.99 57.64 56.96 58.03 61.50 60.38 61.67 62.67 62.29
76.27 73.91 73.32 72.22 71.03 71.25 70.99 69.75 67.83 67.19 66.80 67.12 67.31 67.67 67.63 67.26 64.79 66.67 65.09 60.78 56.10 58.13 57.11 60.35 58.76 58.01 56.39 56.25 57.27 55.19 58.35 59.38 59.33 58.00 56.27 56.89 57.31 56.60 55.42 55.66 53.82 53.84 53.59
71.75 70.24 70.02 69.60 69.92 67.55 63.80 64.55 67.84 62.67 62.59 67.98 67.33 68.12 66.64 65.72 66.09 58.69 59.27 63.08 64.95 61.21 63.15 64.75 61.86 61.47 61.18 60.44 59.09 58.88 58.68 59.73 58.78 57.57 56.34 55.31 54.64 54.56 53.81 54.03 52.73 53.16 53.00
70.94 69.98 70.07 69.47 67.42 66.07 63.54 62.44 45.74 47.53 44.62 44.18 46.37 59.52 59.42 51.11 46.29 44.98 44.38 46.76 48.13 49.90 61.00 62.18 61.35 60.99 61.29 59.73 60.36 58.83 59.66 58.86 57.83 56.96 55.45 54.56 53.34 52.67 51.99 52.04 52.71 52.38 53.21
72.17 72.09 70.68 69.13 68.44 68.48 68.15 67.27 64.93 53.46 44.47 42.96 43.64 46.60 49.70 47.33 42.94 41.97 41.90 42.24 44.22 47.29 59.42 59.99 59.76 60.00 60.20 60.66 60.52 58.39 57.38 57.16 57.71 55.39 54.42 53.67 52.61 51.90 51.23 50.98 51.42 51.55 52.21
70.92 61.62 69.39 69.08 68.40 67.49 66.90 66.41 65.84 64.27 62.87 61.63 46.95 50.23 42.40 41.89 41.68 41.49 41.99 45.00 55.94 53.11 58.62 58.97 59.27 59.76 59.26 58.51 57.67 56.62 56.22 55.91 55.06 54.04 52.81 52.28 51.90 51.26 50.43 50.61 50.67 51.07 50.90
69.07 68.70 68.87 68.21 67.60 65.46 66.56 66.48 65.42 64.64 64.15 62.65 57.11 51.37 46.39 41.09 41.20 41.66 42.32 58.37 59.88 59.80 59.68 59.13 58.50 57.83 57.35 56.98 56.26 56.01 55.54 54.01 52.01 50.79 51.59 51.54 51.25 50.89 50.45 50.60 50.54 47.55 48.58
68.60 61.57 64.88 66.80 65.70 65.49 65.57 64.82 64.46 64.00 63.01 62.25 60.72 59.84 56.24 52.53 55.62 56.72 57.23 58.91 59.63 58.88 59.65 58.25 57.49 57.17 56.39 56.00 55.57 54.80 53.40 52.17 51.72 51.44 51.15 50.84 51.05 50.70 50.07 49.81 50.07 49.72 50.18
66.81 66.16 63.37 66.03 65.24 65.57 65.24 64.56 64.01 63.63 62.95 62.75 62.08 60.34 52.22 58.69 59.90 59.56 59.24 59.91 59.11 58.66 58.63 57.89 57.17 57.09 56.24 55.43 53.93 52.41 51.29 50.68 51.07 50.67 50.42 50.45 50.49 49.71 50.61 50.39 50.16 49.94 50.09
66.13 65.90 65.06 65.19 64.41 64.46 63.93 63.82 63.57 63.37 63.04 61.98 60.28 57.84 47.58 60.37 60.58 59.64 59.98 59.59 59.27 59.45 59.01 58.65 56.60 55.45 54.74 53.33 52.19 50.79 49.85 49.94 50.58 50.45 49.62 49.78 49.91 50.13 49.78 49.90 49.83 49.79 49.62
65.60 64.53 64.00 63.81 63.77 60.37 63.48 63.71 62.93 62.25 61.58 61.90 60.00 58.60 60.02 60.73 60.45 59.70 59.65 59.65 58.85 59.41 58.97 57.87 55.80 54.36 54.20 53.25 50.76 49.65 49.35 50.23 50.65 50.02 49.31 49.43 49.52 49.87 49.81 49.87 49.60 49.40 49.14
64.25 63.96 62.60 63.88 62.69 63.78 62.04 61.78 62.34 55.03 61.73 60.14 59.74 60.56 59.12 59.05 59.46 59.86 59.33 59.46 58.89 58.07 57.99 57.16 55.29 53.87 53.41 51.32 49.52 49.34 49.87 50.58 49.67 49.66 49.77 49.18 49.58 49.48 50.05 49.77 49.19 49.53 49.15
64.55 63.71 61.35 62.08 61.76 62.04 61.69 61.61 61.23 61.01 59.70 59.24 59.05 59.17 58.93 58.38 57.88 58.87 59.36 58.62 58.04 57.24 57.14 56.55 55.35 53.86 52.34 50.51 49.33 48.47 37.30 34.78 43.48 34.78 47.41 49.38 49.97 50.24 49.80 49.24 48.86 49.00 49.14
62.07 61.27 62.32 62.81 61.96 61.33 60.67 60.48 60.47 60.07 58.96 59.41 59.78 59.22 58.92 57.85 58.31 59.20 57.85 56.62 57.01 57.58 56.80 56.36 55.32 53.65 51.93 50.22 48.76 35.74 30.37 33.29 39.33 31.83 42.88 47.03 49.50 49.52 48.04 48.23 48.61 48.49 48.64

GFSGL_sfc_wetblb_018.txt.gz
Wetbulb
78.34 78.20 78.42 78.31 78.73 78.16 78.50 77.47 76.84 77.24 75.56 75.29 74.81 73.18 72.42 71.89 72.67 70.89 69.51 69.80 68.74 70.12 69.78 69.81 69.13 70.64 68.03 67.96 68.13 67.64 66.19 65.30 62.49 63.12 64.28 66.40 66.48 66.68 66.42 67.69 68.38 67.05 66.63
78.18 77.78 77.97 78.58 78.44 78.35 77.44 78.58 78.05 76.73 77.24 75.54 74.50 73.01 71.89 71.19 71.48 69.83 68.49 68.62 68.61 68.29 69.05 68.74 68.51 68.18 68.85 69.45 68.59 67.68 67.38 65.87 64.67 62.93 65.01 65.35 66.20 67.96 67.96 67.60 67.09 66.11 65.44
77.51 77.13 77.46 77.25 77.64 77.54 78.24 77.49 78.55 77.37 75.82 73.89 74.44 72.75 71.17 70.95 70.10 69.32 69.05 68.73 67.40 68.47 68.52 68.47 67.48 68.33 68.47 68.46 68.41 67.40 66.87 66.37 66.27 63.70 62.62 63.96 65.04 64.59 63.22 65.17 65.35 66.31 66.32
76.83 76.64 76.39 76.64 76.89 77.00 77.67 78.19 78.00 77.94 76.22 75.09 73.88 72.95 71.26 71.05 69.96 69.24 68.81 69.05 69.13 69.17 69.69 69.32 69.17 68.88 68.83 69.08 68.18 68.20 67.52 66.51 65.20 63.82 62.69 62.35 63.89 63.85 63.75 62.08 61.25 63.70 63.30
75.01 75.55 75.87 76.95 77.19 77.50 77.36 77.90 77.95 78.08 76.99 76.06 73.60 73.34 71.82 70.79 70.01 69.20 69.20 69.20 69.21 68.65 68.89 69.20 68.98 69.69 68.86 68.37 67.89 67.80 67.32 64.62 63.48 61.81 61.11 61.64 61.07 61.82 60.56 61.36 60.54 61.15 61.91
73.69 74.58 75.63 76.18 77.08 76.80 77.59 77.20 78.04 77.81 77.36 76.09 74.13 72.77 71.70 70.65 64.63 65.22 68.59 69.05 69.49 68.94 67.66 69.22 68.76 68.97 67.86 66.34 65.13 63.94 63.65 62.69 62.38 61.03 60.19 60.53 61.07 61.75 62.00 61.16 60.15 58.67 56.58
74.51 74.93 75.10 75.89 76.33 76.78 77.01 77.40 77.15 77.19 77.30 75.71 73.78 72.59 72.02 70.91 62.23 62.64 65.04 69.31 69.10 69.26 68.02 68.54 65.87 67.39 67.04 66.97 64.44 63.29 63.13 62.53 62.01 60.05 60.15 60.91 61.55 62.40 62.20 60.61 59.87 59.17 57.39
74.87 75.58 75.97 76.33 76.61 77.04 76.90 76.82 77.34 77.51 76.88 75.83 73.55 71.79 70.84 70.29 62.02 61.40 63.52 67.96 68.56 68.67 66.45 65.32 66.13 66.66 66.09 64.93 65.87 65.72 64.82 64.58 62.93 63.08 61.62 61.57 63.43 64.09 63.19 60.99 59.43 58.20 58.20
76.01 77.02 77.33 78.72 77.81 77.60 77.24 77.46 77.63 77.58 76.79 73.45 71.61 70.19 69.39 69.05 60.75 59.79 61.87 65.43 65.54 66.30 65.80 63.87 66.36 65.37 64.67 62.15 64.04 63.56 62.25 63.21 64.11 61.19 62.03 60.65 59.42 58.16 58.74 59.26 57.00 55.38 54.38
76.30 77.54 78.84 79.80 79.74 78.76 78.84 78.17 78.37 76.28 73.85 71.69 70.38 69.88 65.97 67.21 58.82 57.97 59.76 64.25 63.63 65.78 68.08 66.99 62.47 65.38 61.09 58.29 62.31 63.21 62.40 62.52 63.67 63.55 63.43 61.06 59.23 60.19 58.85 58.90 58.40 55.90 55.20
78.09 79.30 79.17 79.80 79.45 79.71 79.24 77.58 74.15 72.69 72.07 70.51 68.87 67.71 67.04 66.70 66.57 56.55 56.56 65.97 65.57 65.68 65.49 65.71 64.93 59.20 55.70 54.58 56.79 63.63 62.00 60.12 61.06 62.07 61.74 59.93 59.78 60.71 60.76 60.77 60.58 58.68 56.96
79.01 78.48 78.62 79.09 77.92 78.11 77.19 75.22 72.86 71.89 70.21 68.60 68.30 67.51 67.38 68.12 61.06 55.50 55.34 57.45 62.93 64.55 64.58 65.78 66.72 56.58 52.79 53.38 55.22 57.23 54.50 55.17 58.71 58.37 58.11 57.71 58.14 58.48 58.32 58.85 59.29 58.84 57.93
77.33 77.45 77.86 78.05 77.10 75.16 73.50 72.09 71.02 70.07 68.18 66.98 65.60 65.85 67.27 70.76 69.80 56.84 54.08 54.68 55.78 61.90 65.48 57.60 55.53 54.37 54.31 53.18 53.66 54.69 54.80 57.64 57.34 57.14 57.20 57.21 56.86 57.80 59.17 57.81 59.03 59.94 60.17
77.27 76.73 74.92 73.99 72.78 72.67 71.82 71.16 69.18 67.91 67.05 67.24 67.09 67.97 68.66 69.20 67.94 64.36 62.47 59.63 56.04 59.28 57.02 58.78 57.23 57.38 56.62 58.14 57.54 54.29 56.12 57.67 58.53 59.06 57.87 57.73 58.36 56.44 55.07 55.65 53.73 52.91 50.94
74.37 72.92 71.12 70.05 70.31 64.80 58.90 61.29 68.32 63.23 65.52 67.70 67.23 66.96 67.14 66.96 66.07 63.76 63.14 64.74 63.76 60.13 61.36 63.67 61.08 59.02 59.12 58.30 59.14 59.77 57.59 58.59 58.25 58.33 58.07 56.70 54.74 54.49 53.69 54.26 52.64 50.77 50.00
70.72 70.05 69.40 67.90 67.20 66.37 63.84 59.75 46.44 47.72 45.30 46.31 48.73 63.75 59.83 53.40 46.89 45.96 45.80 47.57 49.35 54.16 61.36 63.98 61.98 61.07 59.29 59.56 59.43 59.33 58.66 57.28 56.79 57.06 57.44 55.37 53.72 53.11 52.17 52.01 51.59 51.79 50.03
70.18 70.25 68.84 66.71 67.45 66.73 66.38 64.35 60.45 52.72 44.91 43.72 45.09 48.50 52.19 47.97 43.86 43.25 42.91 43.75 46.68 51.51 62.71 62.60 61.38 60.50 59.92 58.52 58.10 57.39 56.16 57.21 57.76 57.27 56.22 55.12 53.42 52.50 51.02 50.98 50.58 50.79 50.08
73.11 64.93 69.94 69.41 68.80 68.46 67.66 67.14 65.85 62.47 61.31 58.76 46.54 49.10 42.79 42.24 41.60 41.62 42.53 47.85 55.49 54.11 59.83 59.15 59.54 61.60 60.71 60.87 58.66 58.02 57.53 57.39 56.46 55.21 53.00 51.95 51.76 52.09 50.64 50.02 50.24 49.58 49.12
69.74 67.11 69.34 68.52 67.85 67.11 67.71 66.88 65.77 64.52 63.96 60.24 55.04 49.95 44.49 41.94 42.32 43.25 44.22 58.75 60.00 59.97 57.50 56.95 60.27 59.51 58.97 58.51 58.16 57.71 56.51 55.48 53.17 52.48 51.52 51.56 52.45 50.62 50.15 49.93 49.48 47.43 47.89
66.16 63.08 65.84 67.67 66.00 66.94 66.51 66.15 65.25 65.21 63.02 60.06 59.83 57.74 54.62 52.76 55.16 56.20 56.84 58.58 59.09 59.77 59.71 59.40 58.81 58.56 58.26 57.68 57.50 56.74 55.41 54.25 53.29 53.25 52.56 51.93 51.58 51.42 49.15 49.21 48.88 48.24 48.89
67.49 67.33 61.53 66.57 65.56 65.23 65.19 64.95 64.71 64.13 63.62 61.82 61.48 58.87 51.35 58.23 58.65 59.01 59.25 59.28 59.99 60.80 60.33 59.40 58.97 58.42 58.04 57.09 56.42 54.40 52.66 51.83 51.84 52.11 51.32 50.65 50.96 49.51 50.34 49.86 48.87 48.95 48.91
66.42 65.99 65.04 65.05 65.51 66.45 66.05 65.88 64.73 64.16 61.81 60.66 61.37 55.89 46.71 59.23 60.89 61.20 58.40 58.37 59.68 58.70 60.13 59.95 58.06 56.84 56.61 54.82 53.48 52.39 51.17 50.23 51.71 51.18 50.25 49.75 49.84 49.50 49.95 48.70 49.24 48.94 48.93
64.17 63.17 61.09 64.16 60.47 60.93 60.60 63.99 64.23 61.40 58.34 61.86 61.10 57.29 56.19 59.90 61.51 60.19 59.62 59.58 57.98 57.20 57.54 58.78 57.71 56.31 56.25 54.15 53.00 51.53 49.62 50.25 50.52 50.38 49.47 49.57 48.80 49.66 49.17 49.06 48.71 48.00 47.82
64.49 61.75 61.24 63.11 63.68 62.84 63.86 63.36 58.82 56.49 61.21 61.15 60.30 60.12 59.85 60.80 60.82 58.35 58.65 58.44 57.62 56.95 56.46 58.86 57.47 55.59 54.60 53.46 52.92 51.03 49.56 49.72 49.11 47.87 47.90 47.37 47.98 48.76 49.04 49.12 48.72 48.09 48.13
62.98 61.18 63.00 62.97 61.61 60.65 61.46 58.87 60.70 61.27 61.03 61.04 60.91 61.00 60.57 60.02 58.92 58.35 58.90 58.50 57.03 57.59 56.88 56.32 56.66 56.45 54.83 53.56 50.64 44.64 35.08 35.83 42.43 36.66 46.03 47.38 47.23 48.88 49.77 47.31 48.29 47.57 48.72
61.64 60.66 61.12 60.82 58.99 58.46 59.69 61.00 60.76 59.77 57.67 60.03 60.57 60.62 60.39 60.12 58.21 58.25 57.34 56.84 57.36 56.64 57.08 56.91 56.23 56.15 54.88 52.57 47.76 36.29 30.72 34.10 39.07 33.97 40.82 44.12 45.64 48.63 48.23 47.34 48.51 47.13 47.99

GFSGL_sfc_wetblb_021.txt.gz
Wetbulb
75.45 74.92 75.74 76.26 75.38 75.13 74.39 73.43 72.66 72.29 71.18 71.40 71.50 70.84 69.00 68.76 69.27 68.09 65.98 65.65 67.11 65.26 66.23 65.85 65.45 64.20 63.00 62.37 63.47 62.18 61.63 61.82 59.24 58.59 59.77 60.62 62.90 61.48 63.04 62.94 64.09 63.76 63.37
76.17 75.62 74.98 75.73 75.90 74.81 74.34 74.30 73.95 72.10 71.76 72.33 71.75 70.86 69.44 67.70 68.74 68.51 65.85 66.54 65.54 65.94 65.47 64.44 64.16 65.99 63.83 63.57 63.91 62.87 62.78 61.90 59.42 57.80 60.42 60.53 61.54 62.81 63.24 62.95 64.67 66.30 63.76
76.18 75.77 75.50 75.03 75.53 75.40 74.58 74.78 75.17 73.28 72.98 72.06 72.17 70.74 69.34 68.52 68.40 69.07 66.80 65.43 65.35 65.73 66.15 65.10 64.50 64.34 64.05 64.77 65.22 63.99 62.95 62.86 61.68 59.95 58.97 60.59 60.23 61.12 60.00 60.39 61.36 61.80 64.24
76.04 75.52 75.15 75.28 75.42 75.65 75.83 74.72 74.97 75.09 73.23 71.45 71.57 70.76 69.59 68.42 68.50 67.85 66.28 65.33 65.58 65.70 65.56 65.84 65.42 64.81 63.79 65.71 64.99 64.56 63.41 62.44 61.80 60.81 59.59 59.55 59.51 60.26 59.99 58.24 57.71 59.11 59.92
75.02 75.16 74.68 75.36 75.85 75.80 75.42 75.93 74.91 74.96 74.07 72.58 71.13 70.35 69.46 68.15 68.52 66.51 66.64 66.01 65.64 65.76 65.64 65.76 66.29 67.29 67.72 67.02 66.17 64.64 64.20 62.60 61.90 61.11 59.41 57.70 58.37 58.80 57.17 58.10 57.73 58.07 58.46
74.27 74.25 74.69 74.40 74.82 74.62 74.97 74.81 75.55 74.32 74.67 72.79 70.94 70.49 69.19 69.01 65.83 65.36 66.99 66.51 65.96 65.82 65.00 66.18 66.27 67.99 67.41 65.70 65.20 63.95 63.78 62.19 60.73 59.81 58.16 57.18 58.42 59.73 58.79 58.23 57.54 56.40 55.31
72.50 73.74 73.86 73.91 73.83 74.12 74.39 74.27 74.80 74.90 75.08 74.02 72.39 70.55 69.93 69.20 63.79 63.52 66.10 65.76 65.88 65.57 65.44 66.53 66.64 67.79 66.08 65.62 63.58 63.58 63.57 63.27 62.92 60.84 57.69 57.69 57.65 58.89 59.67 57.43 56.76 56.42 55.86
71.02 72.13 73.28 73.27 73.48 74.14 74.16 74.28 74.20 75.28 74.64 74.50 73.41 71.18 70.46 69.36 63.06 62.65 65.00 65.12 65.35 65.55 66.36 66.54 64.52 62.97 64.05 64.35 63.91 63.46 63.23 63.41 62.91 62.23 59.64 60.61 59.98 60.80 60.37 59.57 57.95 56.04 54.85
69.98 70.56 72.22 72.95 73.17 73.50 73.71 73.80 74.66 74.49 74.72 74.76 73.54 71.51 70.52 67.29 60.28 60.59 62.70 63.81 64.47 64.43 64.85 64.80 61.28 61.65 62.69 61.58 62.58 61.15 60.97 61.88 62.08 60.53 60.92 60.93 59.94 59.60 60.59 56.56 54.32 53.09 51.31
70.05 71.57 72.30 72.78 73.09 73.39 74.07 74.06 74.84 74.87 74.33 73.28 71.08 70.59 66.85 67.16 59.20 58.53 60.43 63.33 62.80 62.86 63.47 64.40 61.64 62.52 59.94 58.90 62.09 60.20 60.46 60.33 59.76 59.43 59.57 58.79 57.85 57.26 58.91 56.44 56.78 53.36 51.98
72.51 72.71 73.45 74.30 74.02 74.72 74.51 75.03 74.71 73.20 71.11 69.79 68.98 68.56 67.61 66.58 62.64 57.02 56.92 63.68 63.16 61.90 62.63 64.33 63.83 58.75 56.06 55.79 56.94 60.55 59.58 57.80 57.74 55.27 55.32 55.43 54.98 54.94 56.89 57.30 57.14 55.56 53.05
75.36 74.77 76.66 76.64 76.79 76.88 75.49 74.07 72.61 71.21 69.99 68.38 67.25 65.94 66.29 66.44 61.20 55.98 55.97 57.76 61.88 63.23 62.08 61.84 62.42 57.38 54.58 54.78 55.62 57.04 54.33 54.81 53.83 53.33 53.33 52.94 52.90 54.18 53.71 53.43 54.31 56.02 56.74
75.23 75.45 75.57 75.13 75.73 74.56 72.79 71.09 69.93 69.60 68.28 67.34 66.49 65.70 65.40 66.30 64.99 56.86 54.61 55.23 57.56 61.94 61.71 57.53 55.04 54.83 53.50 53.39 54.82 56.00 53.99 52.52 52.56 51.80 52.34 53.17 52.94 54.23 54.12 51.11 51.35 50.10 49.24
74.44 74.06 72.94 72.73 71.63 71.64 71.00 70.04 68.78 67.54 66.66 65.91 65.07 64.90 64.81 65.32 63.58 59.30 57.73 56.90 56.66 58.60 57.24 56.52 55.38 54.87 54.40 55.49 54.38 53.30 52.44 52.40 52.09 53.01 54.97 52.93 52.09 49.23 48.62 49.06 47.10 46.36 44.46
72.02 70.99 70.29 69.12 65.69 60.33 54.40 59.76 66.75 61.07 64.13 66.26 65.44 65.19 64.92 63.80 63.38 59.66 58.83 59.48 59.27 58.71 56.74 57.12 55.86 54.79 53.55 53.39 53.52 55.03 52.53 53.08 53.04 54.74 55.96 51.60 48.46 47.95 47.86 47.05 45.89 44.04 42.59
68.60 68.40 66.64 65.96 63.66 61.77 59.69 55.75 46.77 46.56 46.25 48.34 53.12 60.95 56.13 54.27 52.62 49.60 49.74 51.12 52.71 52.76 56.44 57.71 54.98 55.02 54.56 54.67 54.20 54.15 55.88 56.36 55.53 55.65 53.49 48.68 47.42 47.35 45.35 45.49 44.79 43.59 43.67
67.20 66.64 66.35 64.93 64.64 63.38 62.22 59.79 56.06 50.60 45.84 44.48 45.49 49.60 51.55 47.15 46.56 45.00 44.48 45.67 48.64 51.41 56.74 57.14 57.06 57.14 56.12 56.54 56.46 57.09 56.19 55.31 55.34 50.80 49.40 47.76 45.57 44.76 45.40 44.35 43.38 43.74 43.30
67.49 60.34 65.85 65.14 65.18 64.23 63.04 60.64 58.65 57.09 55.99 53.95 45.97 46.61 43.83 43.03 42.78 42.70 43.33 48.07 51.36 51.02 54.40 54.60 53.68 53.78 53.00 52.46 50.80 50.32 49.61 49.61 47.97 45.08 44.09 43.80 43.45 44.25 43.66 42.99 42.90 42.03 41.76
67.32 66.55 66.54 65.76 65.21 64.10 64.63 62.88 61.10 60.24 58.03 53.69 48.27 46.31 42.73 41.66 41.94 42.83 44.41 53.57 53.91 53.17 52.77 52.32 53.56 51.46 50.26 50.47 50.19 49.70 48.09 46.78 45.35 44.39 43.30 43.60 45.06 42.69 42.24 42.30 42.79 44.43 44.19
64.24 64.04 65.01 66.23 65.27 65.44 65.17 64.23 61.76 61.13 57.53 54.21 52.93 51.46 47.01 46.07 47.91 48.51 50.07 52.03 52.82 52.79 52.79 52.19 51.74 50.55 49.94 49.80 49.28 48.00 46.77 46.21 45.36 45.31 45.06 44.20 42.82 42.55 41.71 42.27 42.53 41.30 42.07
63.09 60.76 62.63 62.62 62.49 62.40 61.63 61.70 62.78 61.08 58.25 56.55 55.87 53.24 48.35 51.86 51.99 52.06 51.97 53.21 53.46 53.72 51.71 51.25 50.44 49.91 49.78 48.88 47.90 46.19 44.73 44.01 43.11 43.38 42.30 41.41 41.86 42.13 42.70 42.16 41.54 42.86 41.99
62.19 61.20 60.65 60.30 60.15 60.61 60.76 60.64 60.95 61.28 59.35 57.88 57.06 52.85 46.38 53.41 54.82 54.49 54.45 54.31 55.23 55.53 55.47 52.42 50.14 48.97 48.84 46.95 45.66 43.98 42.47 41.92 42.47 42.02 41.80 41.58 41.66 42.22 42.31 41.48 42.55 42.33 41.19
60.01 61.33 59.64 59.34 60.09 58.78 59.21 57.98 56.81 59.51 58.80 57.85 55.54 52.92 50.98 53.13 55.25 55.97 55.93 55.21 55.60 54.97 54.55 53.30 49.93 47.96 47.29 44.88 43.93 42.65 40.75 42.00 42.18 42.31 41.69 41.12 40.79 41.38 41.95 41.56 41.90 41.09 39.97
59.92 60.55 60.43 59.55 59.72 59.59 58.54 57.38 56.72 55.08 56.71 56.49 55.56 54.49 53.19 54.14 56.11 55.54 56.00 54.62 54.62 54.55 54.55 53.22 50.92 47.29 45.93 44.35 42.37 40.35 41.53 41.30 40.07 39.52 39.28 39.29 39.87 40.59 41.80 42.18 40.64 41.04 40.67
59.98 59.46 59.59 58.91 58.35 57.94 57.42 57.45 58.54 57.39 57.88 56.89 56.43 55.28 54.77 55.17 54.59 55.28 55.45 54.85 53.05 53.07 53.78 53.19 49.90 48.60 46.91 41.40 39.10 36.96 35.65 35.91 36.33 37.13 38.19 38.49 38.31 39.49 40.76 40.02 39.62 40.88 41.06
59.01 59.47 57.96 58.49 58.22 57.90 56.88 55.78 57.28 57.75 57.87 56.66 56.64 56.08 55.65 54.82 54.39 53.88 53.20 52.78 52.08 52.80 52.72 50.96 50.05 49.50 47.48 43.38 39.91 35.07 31.79 34.22 34.86 33.63 34.55 35.43 36.74 38.61 40.97 40.26 40.61 41.23 40.70

GFSGL_sfc_wetblb_024.txt.gz
Wetbulb
73.34 73.63 73.67 73.28 72.87 73.73 73.94 72.57 71.81 69.95 69.72 69.77 70.72 69.36 68.00 66.67 66.14 67.01 65.52 65.67 64.19 64.07 65.53 64.47 63.81 62.87 62.06 60.71 62.47 60.70 60.16 60.45 58.71 58.78 58.96 58.78 61.52 60.24 61.38 63.07 62.83 61.98 62.67
74.01 74.13 73.95 73.89 73.72 73.15 73.49 73.45 72.48 70.94 70.07 70.14 70.30 69.80 68.72 67.61 66.65 67.05 66.16 66.02 65.45 64.36 63.79 64.49 63.64 65.16 63.83 62.52 62.14 61.65 61.24 60.67 59.64 57.64 58.85 59.71 59.85 60.63 60.65 61.04 62.24 64.29 63.21
73.74 73.70 74.19 74.36 74.02 73.39 72.91 73.45 72.63 72.04 70.44 70.60 70.23 70.05 68.75 67.84 67.62 67.27 67.08 65.70 64.77 64.89 64.96 63.92 63.48 62.39 62.26 62.11 63.04 62.61 62.96 63.56 61.93 60.59 58.33 59.50 59.59 59.79 59.62 59.18 60.16 60.45 62.53
74.07 73.60 73.02 73.96 74.67 74.41 73.94 73.24 73.19 72.97 70.92 70.58 70.35 70.14 69.50 68.00 66.99 68.08 67.63 65.81 64.85 64.58 64.82 65.05 64.28 63.51 62.98 63.67 63.83 64.49 63.59 63.00 61.92 61.08 60.56 60.72 60.07 59.99 60.48 58.11 57.22 57.73 58.48
73.86 73.84 73.41 73.84 74.43 74.98 74.31 73.64 73.18 73.77 72.55 71.03 70.61 70.20 69.54 68.60 67.85 66.85 67.25 66.18 64.58 64.31 64.53 64.92 64.98 65.53 66.05 63.96 64.87 64.07 64.09 62.59 61.61 60.86 60.18 60.35 59.51 57.62 58.26 58.98 57.21 57.45 58.49
73.96 73.97 74.42 74.37 74.03 74.01 74.37 74.32 73.42 72.89 74.11 71.24 70.17 70.00 68.52 68.63 65.51 65.33 67.27 66.18 65.46 64.91 64.18 64.08 64.80 66.61 66.38 65.26 64.80 64.54 63.66 62.16 61.12 60.30 60.04 59.11 58.82 58.40 58.09 57.84 56.62 55.34 54.27
73.78 74.28 74.23 74.13 74.04 74.09 74.24 74.11 74.30 73.23 72.88 71.95 69.70 69.53 68.46 68.75 63.66 63.84 65.71 65.80 65.26 65.85 65.43 63.96 64.67 66.82 66.02 65.16 63.33 63.28 63.23 63.06 63.14 61.95 59.90 59.25 57.17 57.43 57.58 56.82 56.02 55.20 54.60
72.97 73.47 74.19 73.78 73.62 73.97 74.09 73.83 73.82 74.67 73.09 72.91 71.14 70.09 69.83 69.23 62.98 62.07 64.96 66.76 66.58 66.44 65.90 65.80 64.82 65.43 63.93 64.33 63.53 62.03 62.70 63.35 63.14 63.02 61.90 61.18 59.49 59.03 58.75 58.71 57.39 55.60 54.38
71.50 72.72 73.49 73.76 72.99 73.40 72.89 73.23 73.74 74.03 74.24 73.71 73.41 70.88 69.91 69.34 61.36 60.23 64.03 65.91 66.00 65.83 66.29 66.65 66.54 63.89 61.15 60.95 61.99 60.97 61.59 61.78 62.26 60.34 60.52 59.93 59.16 59.12 59.78 57.34 56.10 52.59 51.36
70.86 71.33 73.26 73.70 73.09 72.67 73.07 73.10 73.87 74.11 74.03 74.22 73.78 71.88 68.26 70.37 58.74 58.38 63.75 65.35 64.05 63.53 64.66 64.73 61.02 61.10 58.19 57.53 60.63 59.91 58.61 59.39 60.19 59.68 58.26 57.98 58.28 57.87 58.72 58.07 55.54 53.36 51.51
71.18 71.32 71.60 73.02 72.83 73.00 72.95 73.41 73.50 73.41 73.68 73.57 72.40 70.57 69.82 67.19 60.75 56.52 58.33 64.08 64.03 62.45 62.55 61.96 62.95 57.81 55.13 54.59 56.32 61.15 60.11 58.67 59.16 57.21 54.98 54.78 54.62 53.56 54.19 55.13 55.76 54.64 51.43
70.13 69.85 69.81 71.32 72.45 72.57 72.69 73.17 73.18 73.17 72.56 70.23 68.26 67.43 67.61 66.26 59.18 55.38 56.20 58.86 60.90 61.72 60.18 61.89 62.93 56.38 54.05 53.40 54.56 56.34 56.06 57.02 55.57 54.16 52.32 51.57 51.70 52.59 52.59 51.87 51.94 53.97 56.14
69.27 68.96 70.33 70.83 71.51 72.73 72.72 73.05 73.01 71.72 70.39 68.42 67.72 66.27 65.64 65.80 63.17 56.26 54.80 55.58 57.99 62.39 63.49 60.87 56.58 52.83 50.66 54.00 54.93 56.38 54.37 54.66 53.53 50.76 49.94 50.72 52.04 52.04 50.93 48.78 48.95 48.12 47.40
70.12 71.01 73.07 73.50 73.66 74.02 73.80 73.00 71.94 70.23 68.45 67.32 66.84 65.75 65.55 65.37 64.78 61.37 58.49 55.77 56.56 60.12 58.70 56.32 55.56 55.22 54.15 54.74 54.80 53.92 53.65 52.42 51.31 50.35 50.43 52.26 51.83 48.53 46.96 47.21 45.70 44.68 42.52
73.26 73.70 73.85 72.67 71.12 65.42 58.25 64.37 68.65 64.85 66.57 66.53 66.04 65.59 65.06 64.14 62.65 58.23 56.92 57.77 57.91 57.84 56.60 55.50 54.62 54.32 53.38 53.10 52.90 52.52 51.47 51.00 51.30 52.13 52.43 52.25 50.29 46.48 46.35 45.24 44.07 42.34 40.85
70.80 68.76 66.79 64.40 62.59 60.96 60.46 56.48 50.36 51.20 51.20 51.02 54.28 60.46 57.89 56.06 50.48 48.30 46.49 47.21 48.66 50.66 56.54 55.62 54.07 53.09 52.94 52.82 52.34 51.98 52.28 53.23 51.82 52.12 52.21 50.11 46.57 45.75 44.65 43.40 42.53 41.08 40.17
67.93 66.14 64.78 63.86 64.02 63.49 62.77 61.12 57.44 52.90 46.13 45.55 48.81 50.34 53.87 52.29 47.21 46.12 45.04 45.04 46.85 51.52 55.98 55.46 55.48 54.43 54.50 54.21 53.75 53.01 53.14 53.96 53.07 52.04 47.78 46.74 44.90 42.96 42.70 42.63 41.08 40.58 40.90
66.08 59.72 65.58 64.96 64.08 63.81 63.61 60.89 59.97 60.65 58.59 52.85 45.12 47.09 44.49 45.04 44.55 43.50 43.84 47.54 51.23 51.51 54.15 54.90 54.26 53.75 53.08 52.05 51.24 49.45 49.85 49.15 46.24 43.89 43.09 42.54 41.86 42.32 42.43 40.84 39.97 39.32 39.86
65.17 64.38 64.93 64.38 63.93 61.91 60.95 59.90 59.16 58.73 57.44 52.99 49.71 47.79 43.54 42.00 42.35 42.81 45.87 54.38 53.08 52.54 51.69 51.72 51.41 49.66 49.02 48.43 47.96 47.39 46.63 45.72 44.71 43.41 41.67 41.66 42.36 41.57 40.29 39.72 39.98 42.81 42.06
64.44 61.70 62.61 63.74 63.57 62.97 61.25 60.13 59.28 57.69 55.15 53.76 53.74 51.89 46.87 49.92 51.70 50.87 50.47 52.24 52.67 52.08 51.79 50.09 48.98 48.53 48.54 48.34 47.30 46.31 45.19 44.38 43.40 42.87 42.63 42.23 41.17 40.48 39.27 39.87 40.29 38.99 39.67
62.99 64.07 62.04 63.97 63.92 63.55 62.61 60.97 60.45 59.19 55.39 53.65 54.08 51.43 47.19 54.08 51.65 50.47 49.78 50.61 51.53 51.72 49.67 49.45 48.49 48.21 47.98 47.65 45.67 44.60 43.39 42.48 40.57 40.96 41.02 40.10 39.50 39.42 39.90 39.45 39.31 40.21 39.78
60.03 61.48 62.27 62.55 62.81 63.07 62.52 62.12 60.27 59.61 57.75 55.56 54.52 49.94 43.94 51.80 51.74 51.23 51.18 52.04 52.54 52.41 51.10 50.65 48.94 48.22 47.96 47.59 45.93 44.06 41.87 40.52 40.61 40.55 39.58 39.25 39.21 39.78 40.03 39.52 39.81 39.65 38.82
59.62 59.36 59.44 59.64 58.53 57.55 58.18 59.45 61.41 59.89 58.05 56.92 54.58 50.70 50.47 52.17 53.23 52.94 53.05 53.07 53.17 52.64 51.55 50.04 47.72 45.88 44.82 44.58 43.56 42.06 40.13 41.03 40.87 40.74 40.22 39.49 38.42 38.58 39.22 39.05 39.33 38.61 37.82
59.29 59.02 58.58 58.34 57.83 57.73 57.70 58.26 58.42 55.50 58.03 56.09 54.60 53.14 52.32 53.93 54.19 54.05 54.38 54.13 52.92 51.88 52.79 50.62 49.63 46.86 44.00 41.83 40.25 39.99 41.38 40.76 39.73 39.88 39.41 38.26 37.55 37.58 37.91 38.39 38.03 38.00 38.46
59.26 58.75 58.42 58.03 58.20 57.42 57.32 57.47 57.52 57.56 57.61 56.35 55.37 55.06 53.29 52.74 53.13 54.65 54.20 53.19 53.33 53.45 52.95 51.03 48.83 45.66 44.07 41.61 39.38 39.35 37.50 35.93 36.29 35.70 36.95 37.30 36.70 36.87 37.89 38.46 37.56 38.27 38.91
58.83 59.00 58.68 58.47 57.93 58.06 58.18 57.85 57.75 56.80 56.83 56.04 54.60 53.51 54.59 53.99 53.67 53.44 52.21 51.39 51.57 51.09 51.17 49.96 48.17 45.86 43.12 40.61 39.63 37.22 32.48 33.34 35.59 33.91 34.25 33.93 34.44 36.45 37.41 38.99 38.22 38.41 37.84

GFSGL_sfc_wetblb_027.txt.gz
Wetbulb
71.26 71.87 71.97 72.03 71.96 71.63 71.11 70.99 70.89 69.71 69.05 69.64 70.22 69.28 67.79 66.35 66.44 66.14 65.20 64.31 63.38 63.74 63.71 62.94 61.99 61.45 60.82 61.54 60.72 59.48 58.75 57.09 55.22 58.73 60.01 59.62 59.99 59.60 60.42 61.50 63.65 61.58 61.26
71.53 71.40 71.34 71.62 72.08 72.15 71.80 71.52 71.51 70.09 68.96 69.19 69.86 68.99 68.07 67.06 65.65 66.86 65.78 65.70 63.80 62.40 62.97 63.77 63.30 63.95 62.09 61.38 61.00 60.14 58.82 59.82 59.30 57.89 59.40 60.31 60.14 59.86 60.03 59.93 61.84 63.46 62.78
71.53 71.70 71.60 71.56 71.45 71.38 72.14 72.71 71.87 71.18 69.18 69.31 69.33 69.31 68.12 67.14 66.01 65.75 66.66 65.82 64.81 64.38 62.80 62.86 63.48 62.73 61.66 61.56 60.36 60.30 60.64 62.35 62.01 60.03 59.50 60.38 60.27 59.85 60.52 59.94 59.81 59.79 61.59
71.61 71.76 71.55 71.94 72.14 71.99 71.91 71.88 72.46 72.26 70.09 69.26 69.01 69.57 69.07 68.09 67.24 66.49 65.72 65.38 64.39 64.63 64.54 64.05 63.23 63.01 61.98 61.36 61.33 61.01 61.27 61.21 62.14 61.08 60.63 60.56 60.61 60.55 60.40 59.11 58.66 58.65 59.21
71.59 71.82 71.84 72.45 72.84 72.68 72.24 71.91 72.15 72.14 71.24 70.27 69.25 69.30 69.28 68.47 68.12 67.24 66.40 65.75 64.56 64.39 64.34 64.73 64.58 64.85 65.35 63.22 62.53 62.08 61.81 61.07 60.86 60.19 59.95 59.59 59.10 59.06 58.27 58.76 57.79 57.15 57.46
71.57 71.58 72.34 72.70 72.99 73.01 72.74 72.24 71.80 71.65 71.91 70.35 69.66 69.18 68.94 68.87 65.45 64.91 67.40 66.78 65.16 64.85 64.22 64.47 64.44 66.51 65.87 64.30 64.08 64.06 63.62 62.00 59.10 58.31 59.57 58.92 59.15 58.68 59.31 58.77 57.38 55.87 54.45
71.89 72.04 72.07 72.16 72.15 73.04 73.31 72.94 72.00 71.39 72.04 70.27 70.13 69.74 68.81 68.76 63.48 63.44 65.60 66.83 65.42 64.99 64.52 65.63 64.98 66.11 65.36 64.49 63.64 63.56 63.36 62.70 62.86 60.54 59.09 59.93 59.11 59.65 58.64 55.42 55.19 54.77 54.13
71.73 71.98 72.56 72.30 71.92 72.29 72.71 72.98 72.72 72.19 71.78 72.09 70.20 69.86 69.38 68.87 62.80 61.47 64.45 66.18 65.17 65.60 66.25 65.98 65.38 65.20 65.51 63.65 62.31 61.45 61.72 62.86 61.70 62.37 61.71 61.20 60.33 60.43 59.08 57.60 56.89 55.29 54.47
71.51 71.99 72.62 73.10 72.52 72.49 72.07 72.52 72.99 73.08 72.04 71.90 71.22 69.72 69.22 69.18 60.85 59.80 62.63 66.61 66.04 65.88 66.49 66.14 65.76 65.16 62.30 60.89 62.89 60.81 60.27 60.37 61.40 60.26 60.10 59.72 59.50 59.33 59.29 56.81 55.48 53.33 51.87
71.64 72.23 72.94 73.33 73.18 72.61 72.86 72.81 73.21 73.37 73.38 72.87 72.01 70.93 68.22 70.32 59.45 58.31 62.62 66.92 65.81 65.60 65.79 65.88 62.33 63.74 58.25 57.93 62.04 60.22 59.45 59.14 58.99 59.58 58.76 57.92 57.98 57.54 58.63 57.85 56.35 53.08 50.12
71.91 72.65 72.61 73.38 73.07 73.13 73.01 73.31 73.17 73.01 73.20 73.50 72.79 72.74 70.94 70.01 64.58 56.59 59.38 66.76 66.17 65.33 64.96 63.97 63.77 57.09 54.28 54.63 56.45 59.63 58.21 60.19 59.39 58.17 56.65 55.43 53.38 52.65 53.01 53.37 54.05 53.33 50.60
70.16 70.87 71.58 72.46 73.17 72.99 72.59 72.69 72.75 72.55 72.71 72.95 72.91 71.93 71.32 67.56 57.80 55.32 57.41 60.48 62.69 64.65 63.19 61.96 61.03 55.17 52.03 51.83 54.13 55.91 54.55 57.61 56.81 55.11 53.16 51.06 50.24 51.02 52.35 50.12 51.11 51.67 53.18
69.27 69.60 70.11 71.27 72.69 72.74 71.89 71.99 71.82 72.43 72.18 72.18 71.11 69.51 66.59 64.94 60.93 55.60 56.11 58.74 58.13 61.44 61.01 59.50 57.53 53.27 51.00 52.72 53.30 53.77 54.33 56.03 54.04 52.63 50.96 49.73 50.77 52.35 50.33 47.66 48.00 46.58 45.62
67.06 68.35 69.19 69.17 70.97 72.03 72.24 72.29 72.14 72.45 72.16 70.82 68.63 67.09 67.04 65.26 63.95 61.07 60.99 58.68 57.01 60.25 57.86 57.13 56.55 55.47 54.92 54.75 54.30 54.50 54.76 54.32 52.88 51.12 49.67 49.99 50.93 49.76 46.56 46.20 45.20 43.56 41.85
66.23 67.14 68.09 68.76 68.93 67.99 58.73 67.43 72.59 70.67 70.38 69.85 68.97 67.34 65.60 64.74 63.64 59.58 58.58 59.72 59.24 57.72 57.15 57.57 56.85 54.37 53.91 53.07 52.64 52.80 51.97 52.06 51.44 49.77 50.05 50.46 50.14 47.81 45.51 44.89 42.94 41.54 40.14
68.39 67.85 69.46 66.80 62.90 61.39 62.48 58.58 49.82 56.01 55.64 56.01 55.28 61.36 63.05 56.89 52.38 48.94 48.39 47.85 48.57 50.39 58.49 58.06 57.21 54.96 54.07 52.93 52.24 51.38 50.88 52.47 50.32 50.15 50.06 50.11 49.28 45.88 44.62 42.24 41.58 40.38 38.86
63.96 65.03 63.22 62.70 63.54 64.31 65.23 63.86 60.29 54.84 52.38 50.75 51.29 52.38 52.20 54.74 49.30 45.67 44.58 45.13 46.40 51.88 57.62 56.93 55.61 53.70 53.00 52.42 52.04 51.65 52.03 51.97 51.36 51.14 50.76 48.02 45.97 43.76 42.08 41.49 40.20 39.09 38.72
62.94 59.63 65.62 65.55 65.62 65.13 64.05 63.91 63.86 63.35 62.78 59.21 47.00 47.65 46.03 45.67 44.22 42.77 42.95 48.16 53.90 54.09 55.07 54.78 54.58 54.38 54.00 53.80 52.86 52.20 51.48 50.65 49.81 48.58 44.77 42.61 41.43 41.13 41.54 39.69 38.68 37.42 37.90
65.21 64.43 66.27 65.32 64.92 62.79 63.16 62.23 62.35 63.44 63.37 54.92 51.62 47.92 44.09 42.18 42.75 43.46 46.29 58.13 56.15 53.62 53.18 53.13 53.45 52.59 51.31 50.42 48.59 48.30 47.44 45.45 43.36 42.36 41.52 40.81 41.18 41.16 39.27 38.86 38.38 41.79 40.73
63.79 61.25 62.64 63.23 61.87 61.11 61.30 61.12 60.23 58.09 57.21 57.51 56.99 53.40 49.04 52.09 54.50 53.39 52.61 53.66 53.29 52.88 52.10 51.94 50.15 48.78 48.11 47.95 46.81 46.15 44.91 43.61 42.55 41.89 41.31 40.23 40.55 39.61 38.43 38.53 38.56 37.77 38.15
63.38 63.49 61.38 63.18 61.67 61.47 61.13 60.94 59.39 58.10 57.16 57.02 56.37 53.30 49.74 58.40 54.94 53.27 51.73 52.75 52.95 51.66 50.97 49.17 48.11 48.09 47.73 47.02 46.09 45.24 44.21 42.71 41.31 40.27 40.25 40.84 38.80 38.27 38.62 38.41 37.93 38.49 38.15
62.62 62.69 62.96 62.45 62.18 61.35 60.32 60.24 58.83 57.68 57.20 55.59 53.49 48.45 44.64 52.72 53.05 52.18 51.48 51.98 51.43 50.80 50.41 49.80 48.63 48.49 48.40 47.24 45.67 44.12 42.74 40.93 39.43 40.05 39.08 38.30 38.26 38.90 38.96 38.47 38.27 38.00 36.98
60.16 60.69 60.54 60.00 60.24 58.19 59.74 59.17 59.27 58.69 57.34 56.46 53.12 49.93 49.89 52.05 51.91 52.10 52.02 51.85 51.70 50.44 49.10 48.80 48.38 47.04 47.04 47.12 45.76 43.92 41.57 40.51 40.86 39.99 38.91 38.59 37.78 37.69 38.26 37.61 37.89 36.85 36.37
57.95 58.07 58.36 58.19 59.28 59.87 59.73 59.51 58.61 54.27 56.72 55.02 53.78 52.32 52.68 53.33 52.92 52.68 52.13 52.02 51.78 50.90 49.62 48.66 49.69 49.25 47.92 44.31 42.45 40.65 40.03 40.27 39.95 40.10 39.71 38.47 37.37 37.36 36.71 37.09 37.28 36.46 37.07
58.74 57.63 57.27 57.64 57.60 55.26 56.07 56.73 57.47 58.05 57.97 56.75 55.06 52.63 52.55 53.61 53.22 53.21 53.02 52.68 51.84 50.97 51.07 50.02 49.39 48.56 46.32 43.78 40.59 39.86 38.06 36.99 38.65 36.63 36.56 36.20 35.70 35.39 35.90 37.35 37.15 36.92 37.30
57.45 57.83 57.47 57.70 56.05 56.17 55.93 56.33 56.37 57.14 56.42 56.54 57.08 55.22 53.87 52.99 52.31 53.06 52.86 52.18 51.79 51.31 51.60 49.24 47.04 45.71 45.46 43.35 41.28 38.70 33.65 34.19 35.40 33.78 35.15 34.57 33.84 33.51 36.04 38.01 38.44 37.30 36.32

GFSGL_sfc_wetblb_030.txt.gz
Wetbulb
71.33 71.55 71.48 71.50 71.85 71.98 71.00 71.20 71.06 71.49 71.63 71.43 72.00 72.02 71.25 69.71 68.38 67.78 67.08 66.42 66.27 66.13 65.94 65.21 65.21 65.17 63.75 63.99 64.02 62.57 61.91 61.20 60.68 62.49 62.02 63.48 63.57 65.41 65.36 65.91 66.30 66.78 66.31
71.23 71.68 71.60 71.73 71.81 71.64 71.20 71.53 71.73 70.96 71.14 71.25 71.53 71.59 71.01 69.98 68.85 67.79 67.13 67.07 65.95 65.72 66.12 65.59 65.21 64.42 64.62 64.86 63.76 64.00 63.73 63.83 62.94 63.38 63.26 62.39 63.64 62.92 63.82 63.94 64.67 65.41 65.88
70.46 71.40 71.56 71.32 71.34 71.34 71.43 71.78 71.68 71.26 70.68 70.75 71.07 70.81 70.09 69.56 68.37 68.47 67.99 67.38 66.94 66.53 66.06 66.09 66.15 65.81 65.35 64.61 64.14 63.39 63.67 64.48 64.49 62.94 63.33 62.75 64.14 64.37 63.83 62.17 64.83 64.86 63.78
70.04 70.42 70.66 71.15 71.43 71.70 72.23 72.23 71.85 71.95 70.39 70.33 70.46 70.72 70.32 69.67 69.13 68.25 68.13 67.83 67.38 67.10 66.88 66.15 66.18 66.04 65.78 65.37 64.74 64.75 64.72 65.02 64.65 64.43 63.88 64.00 63.54 64.24 63.23 60.25 61.27 61.89 61.40
69.84 69.98 70.33 71.02 71.51 71.75 71.86 72.30 72.52 72.39 71.48 70.54 70.45 70.47 70.57 69.78 69.16 68.48 67.81 67.63 67.21 66.99 67.42 67.19 66.61 65.95 65.87 65.25 65.03 65.12 65.05 64.80 64.30 63.61 62.58 62.03 61.62 61.28 60.49 61.27 59.16 60.35 61.82
69.76 69.74 70.81 71.18 71.34 71.32 71.58 71.58 71.90 72.34 72.53 71.15 70.27 70.11 69.98 69.91 65.80 64.99 67.73 67.49 67.21 66.92 66.34 66.79 67.38 66.75 66.13 64.00 63.74 63.98 65.28 64.78 64.38 63.57 62.70 62.05 63.01 62.43 62.03 61.56 59.72 60.66 58.31
69.96 70.21 70.81 71.26 71.34 71.65 72.07 71.70 71.33 71.47 72.05 71.48 70.83 70.54 70.01 70.26 63.00 63.58 65.72 68.61 67.47 67.10 66.99 66.89 66.39 67.42 66.31 67.05 63.83 63.20 63.15 63.03 63.87 64.75 63.20 62.64 63.56 63.93 63.29 61.33 60.69 60.21 59.58
69.94 70.22 71.17 71.54 71.39 71.90 72.13 71.89 71.84 71.74 71.47 71.54 71.23 70.98 70.44 70.45 61.76 61.73 64.88 69.04 68.36 67.93 67.42 67.19 67.52 67.26 66.35 66.41 66.97 65.66 65.37 65.79 65.19 65.62 65.41 65.67 65.10 64.63 64.22 63.25 61.67 60.97 60.64
70.32 70.30 71.31 71.98 71.63 71.98 72.02 72.21 72.31 72.08 71.68 71.63 71.74 71.02 70.42 70.71 60.85 60.66 62.94 68.25 67.36 67.00 67.20 67.46 66.86 66.42 63.13 61.36 65.19 65.04 64.82 64.06 61.93 60.41 60.77 59.88 59.48 59.46 61.71 61.81 60.25 58.92 58.39
70.88 71.15 71.87 72.20 71.88 71.65 72.00 72.45 73.09 73.11 72.32 72.25 72.10 71.88 68.58 70.95 60.50 58.44 62.62 68.21 66.64 66.70 67.47 66.88 62.70 65.86 58.72 58.36 65.97 64.45 63.02 62.92 63.91 63.26 64.46 61.53 60.56 61.43 59.60 62.26 61.15 58.51 57.21
71.22 71.98 72.39 72.69 72.40 72.35 72.27 72.55 72.64 72.97 72.95 72.27 72.09 71.86 71.39 70.43 68.57 56.95 58.32 68.56 67.72 66.97 66.09 66.00 66.27 59.10 55.44 54.66 59.05 65.24 63.99 63.65 61.50 61.97 61.90 61.53 59.75 58.66 58.15 59.22 60.44 58.97 56.98
71.43 71.80 72.15 72.67 72.96 73.05 72.69 72.83 72.85 72.77 72.68 72.54 72.23 71.72 71.52 71.76 63.23 56.62 56.56 62.80 64.38 67.11 66.16 66.98 65.39 55.64 53.20 53.09 56.70 56.28 54.53 58.92 61.47 61.68 60.03 59.22 57.38 56.90 57.83 57.35 58.39 58.92 59.29
69.20 70.51 71.70 72.50 73.19 73.49 72.66 72.39 72.15 72.67 72.30 72.16 71.74 71.14 71.32 71.57 65.24 55.25 55.64 58.11 59.58 66.63 66.37 63.01 56.56 51.32 50.46 52.30 54.58 53.99 54.71 62.15 61.05 59.46 58.85 58.01 56.51 57.66 57.41 56.02 54.96 55.26 54.80
67.68 68.42 69.98 71.02 71.79 73.09 73.09 72.87 72.21 72.02 71.86 71.76 71.56 70.99 71.09 66.44 64.43 60.20 61.07 62.03 59.46 60.77 58.78 58.71 57.63 57.05 57.07 57.74 56.40 55.82 60.26 60.93 59.82 59.10 58.00 57.02 56.45 56.31 55.53 53.78 53.59 51.60 51.01
66.24 66.48 67.76 69.28 69.59 71.91 68.03 69.04 72.51 73.20 70.96 72.19 71.95 71.78 68.68 64.41 62.05 58.88 59.22 63.14 63.00 59.58 58.36 59.19 59.63 59.25 58.47 57.99 58.04 58.74 58.76 58.86 58.05 56.81 56.02 55.41 55.77 55.43 54.57 52.50 51.60 50.20 49.26
67.89 68.41 67.09 67.99 66.22 63.28 63.48 60.61 50.40 54.41 52.59 53.32 55.31 62.14 63.59 56.95 51.69 51.14 52.41 48.24 48.97 51.69 59.47 59.95 60.09 59.34 59.04 57.87 57.66 56.72 56.77 56.57 56.97 56.09 55.84 55.56 55.39 55.38 53.67 50.45 49.52 49.08 48.20
64.98 65.24 64.88 63.66 64.82 64.46 65.22 63.92 60.52 54.17 50.06 50.60 50.42 53.86 55.50 56.56 51.14 49.69 46.25 46.07 49.51 52.67 60.97 60.55 60.50 59.53 59.27 58.15 57.21 56.48 56.24 56.49 56.44 55.58 55.44 55.58 55.47 53.64 50.40 49.24 48.65 47.69 46.99
63.82 56.22 65.27 64.93 66.13 65.95 66.29 64.62 63.10 62.33 62.43 60.65 52.23 53.86 51.33 51.51 47.52 44.98 43.89 47.84 53.55 57.02 61.08 60.69 60.32 59.53 58.74 57.76 56.87 56.55 56.84 56.37 55.55 55.74 55.37 55.24 52.87 50.08 48.45 48.35 47.11 46.70 46.95
61.77 63.87 66.34 66.83 65.88 63.57 64.35 63.06 62.23 62.18 61.81 60.82 56.66 50.73 47.08 44.26 42.43 42.97 47.70 61.69 59.86 59.29 58.90 59.70 60.43 59.22 58.28 57.79 57.35 56.79 56.56 55.97 54.68 53.62 52.45 50.03 48.57 48.76 48.47 47.88 47.02 43.87 44.83
62.31 59.62 62.08 63.81 62.60 62.19 61.57 62.03 61.05 60.65 57.87 57.27 58.25 56.02 50.62 51.95 53.51 56.28 59.31 60.60 60.27 59.48 58.21 58.29 57.77 57.55 57.08 56.00 54.29 53.49 52.12 50.30 50.00 49.91 49.34 48.47 48.73 48.43 47.79 47.13 47.17 46.91 47.20
64.69 63.83 60.85 63.16 62.07 61.86 61.22 60.75 59.80 60.18 59.52 60.18 59.19 55.28 50.60 60.95 58.72 58.23 57.83 57.11 57.65 57.85 57.06 56.29 55.02 54.44 54.19 53.23 52.60 51.89 51.40 50.70 50.16 50.02 49.18 48.31 47.95 47.11 47.18 47.61 47.00 46.89 46.95
63.90 64.20 63.96 62.77 62.25 62.27 61.69 60.31 60.31 60.13 59.57 56.91 54.24 51.65 48.43 59.59 58.87 58.13 57.37 57.14 57.40 57.70 57.16 55.71 54.28 54.22 53.80 53.21 52.88 52.36 51.80 50.81 49.78 48.75 48.30 47.77 47.06 46.67 46.87 46.99 46.73 46.79 46.11
62.62 62.93 62.47 62.01 60.98 58.33 60.19 59.68 59.30 59.22 58.91 57.72 55.77 54.66 56.75 57.38 57.38 57.29 56.36 56.44 56.41 55.55 54.67 54.72 53.97 53.14 53.32 53.49 53.57 53.09 51.40 50.22 49.65 48.37 47.32 46.34 45.95 46.66 46.97 46.61 46.34 46.04 46.03
60.81 61.07 61.02 60.25 60.43 60.80 60.35 59.60 58.51 53.29 56.40 56.42 55.83 55.59 55.98 56.14 57.08 56.75 56.69 56.43 56.13 54.94 53.97 53.85 54.24 54.13 53.19 52.94 52.25 51.65 50.65 49.86 48.51 47.96 47.69 46.56 46.14 43.91 46.03 45.85 46.10 45.06 46.13
59.74 59.02 59.32 59.50 60.02 60.30 59.94 59.68 58.41 58.39 58.06 57.54 56.44 55.73 55.62 56.10 56.13 56.18 55.78 55.93 56.02 54.61 53.66 53.90 53.99 53.19 52.45 51.89 51.67 50.66 44.33 37.49 46.09 42.02 46.86 46.72 45.76 45.34 44.67 45.21 45.93 45.32 45.60
59.13 59.42 58.47 57.74 57.56 57.72 57.92 58.52 58.38 58.21 57.97 57.51 56.48 55.56 55.18 55.35 55.65 54.62 54.80 55.50 55.63 55.28 54.52 53.85 52.86 51.20 49.91 51.37 50.63 43.14 33.60 34.77 40.64 36.81 45.00 44.52 43.64 43.16 43.35 44.94 45.95 45.63 45.15

GFSGL_sfc_wetblb_033.txt.gz
Wetbulb
74.39 74.72 74.82 74.80 75.39 75.93 75.77 76.17 76.44 76.86 76.67 76.65 76.41 76.29 76.45 76.20 75.75 74.54 74.00 72.98 71.57 71.59 71.12 70.75 70.74 71.53 69.30 69.17 68.94 68.52 67.39 66.49 64.32 66.30 67.45 69.41 68.65 69.39 69.65 70.95 69.88 70.23 69.38
74.32 74.63 74.65 75.16 75.35 75.47 75.53 76.04 76.72 76.40 76.50 77.22 76.62 76.30 76.27 76.05 75.55 74.48 73.60 72.73 71.85 71.29 71.05 70.76 70.12 69.55 70.26 70.19 68.78 69.25 68.54 68.50 66.37 66.81 68.34 67.63 68.05 69.81 69.42 69.49 68.81 68.31 68.31
74.43 74.38 74.62 74.73 75.02 75.12 75.63 76.07 76.46 76.54 76.60 75.89 76.37 76.16 75.74 75.88 75.28 74.66 74.52 73.22 72.57 72.05 71.65 70.93 70.59 70.16 69.16 69.03 68.76 68.34 68.09 68.53 68.31 66.58 66.05 67.69 68.03 68.60 68.44 68.98 68.71 68.58 67.60
73.77 74.30 74.40 74.80 74.92 75.28 75.90 76.12 76.14 76.43 76.39 76.37 76.56 76.43 75.98 75.51 75.38 74.90 74.56 73.79 73.19 72.64 72.32 71.52 71.21 70.64 70.00 69.85 68.89 69.26 69.10 68.15 68.16 66.89 66.36 66.66 67.46 68.44 67.40 65.59 65.16 65.96 66.49
73.54 73.72 74.28 75.19 75.83 75.80 75.80 76.02 76.21 76.44 76.31 76.58 76.31 76.51 76.03 75.31 74.61 74.85 74.44 73.76 73.17 72.68 72.41 71.82 71.63 71.05 68.36 69.24 69.74 70.07 69.85 68.29 67.45 66.73 66.06 66.30 65.90 65.74 65.10 65.10 64.88 65.51 65.83
73.26 73.02 74.34 75.32 75.62 75.35 75.64 75.73 75.98 76.00 76.11 76.11 76.01 75.93 75.56 74.65 68.39 66.96 72.47 74.09 73.88 73.21 72.56 72.17 72.51 68.92 67.84 65.12 65.16 66.51 69.44 68.88 68.22 66.89 66.22 65.50 66.82 66.53 65.78 65.47 64.55 62.07 62.21
73.07 73.73 74.12 74.73 74.94 75.23 75.72 75.84 75.66 75.58 76.09 75.71 75.54 75.70 75.29 75.60 64.46 64.42 66.78 74.09 73.57 73.76 73.77 72.80 71.66 71.05 68.53 69.92 64.35 63.69 64.24 64.52 66.40 69.68 67.73 67.35 67.90 67.77 68.11 66.28 65.30 65.03 64.20
73.02 73.60 74.06 74.13 74.39 74.86 75.13 75.00 75.53 75.65 75.75 75.62 75.37 75.39 75.49 75.31 62.97 62.55 65.27 73.40 74.27 74.20 73.53 73.45 72.73 71.98 70.76 70.61 70.66 69.09 68.72 68.88 68.10 68.61 69.84 70.31 69.71 69.46 68.35 67.16 67.28 66.41 66.00
73.07 73.53 73.96 73.41 73.08 74.71 74.43 74.73 75.00 75.07 75.33 75.54 76.00 75.82 75.36 75.46 61.70 60.89 64.39 72.25 73.54 73.29 73.24 72.96 72.62 72.28 67.19 62.75 69.86 69.66 69.46 69.45 64.17 62.40 63.12 61.90 60.92 61.77 64.67 66.74 65.57 63.10 61.32
73.50 73.76 74.56 74.84 74.61 74.65 74.92 75.11 75.63 75.45 75.03 75.25 75.58 76.23 72.34 75.60 61.23 59.09 64.06 72.73 72.87 72.04 73.31 73.11 63.97 70.47 61.33 58.98 69.72 70.07 68.71 68.84 68.68 67.34 66.83 62.90 62.48 63.38 60.13 67.02 66.21 61.82 60.05
73.96 74.33 75.20 75.79 75.16 75.43 76.01 76.09 76.29 75.03 75.06 74.72 75.09 75.78 75.72 74.20 73.50 57.94 58.57 72.89 73.18 72.04 71.95 71.27 71.96 59.81 56.28 56.00 60.76 70.44 69.02 69.01 66.53 68.28 67.65 66.88 66.44 65.78 65.59 65.70 66.28 62.97 60.11
74.62 74.86 75.98 76.12 74.87 74.97 75.79 75.05 75.44 75.52 75.68 74.95 74.70 74.42 74.52 75.45 65.25 57.55 56.42 60.39 68.17 72.41 71.54 71.74 69.68 56.20 54.73 53.93 58.28 59.85 56.34 62.50 67.75 66.43 65.55 64.58 64.57 64.39 63.99 63.36 64.15 63.96 63.24
74.37 75.05 75.27 75.95 75.95 76.74 75.53 74.65 74.18 75.51 74.53 73.86 73.71 73.08 73.35 73.66 73.67 59.16 56.46 57.32 59.81 70.80 72.36 66.57 59.20 53.36 53.54 55.33 56.86 55.23 56.44 67.12 66.11 64.80 64.21 64.39 64.99 64.90 63.90 62.54 62.38 62.80 62.56
73.87 74.81 75.16 75.06 74.79 76.11 75.08 72.90 73.73 74.14 74.07 74.25 73.98 72.97 73.09 73.05 71.46 63.00 61.74 59.63 58.35 63.83 60.39 61.07 59.68 59.12 59.87 61.55 59.47 57.15 66.21 67.31 65.94 65.26 65.00 64.90 63.86 61.69 61.00 61.19 59.56 59.10 58.32
72.59 72.66 73.10 74.06 74.01 75.17 75.89 75.53 74.81 76.14 74.15 74.53 74.70 74.42 74.00 68.16 62.80 58.74 59.78 63.52 61.73 57.69 61.35 62.23 61.93 61.93 62.19 62.19 63.95 62.36 64.80 65.63 64.77 65.53 64.19 62.68 61.57 60.61 60.33 60.68 60.16 58.87 56.97
72.83 71.65 71.01 71.85 72.63 73.65 73.68 69.19 52.45 51.65 54.45 55.54 57.03 69.08 71.57 57.29 50.82 49.37 48.28 50.10 51.55 53.36 61.87 61.17 60.91 61.63 62.22 62.63 62.34 62.59 63.15 63.22 65.03 64.09 63.40 62.39 60.80 59.92 60.35 59.50 58.98 57.53 56.36
69.43 69.58 68.85 67.62 70.79 70.02 69.80 69.35 68.50 62.06 48.47 49.19 50.28 51.37 53.72 53.36 49.55 49.73 49.01 50.46 51.37 55.72 62.35 62.07 61.70 62.17 62.39 61.71 61.38 61.67 62.31 63.65 64.39 62.90 62.39 61.38 60.50 60.75 59.08 58.62 56.84 55.68 54.70
68.06 58.05 66.81 68.23 67.58 67.77 68.05 68.54 66.93 65.89 63.90 57.35 49.52 52.78 49.01 48.28 48.10 48.47 48.10 52.27 55.98 60.65 62.62 62.25 62.32 62.79 62.96 62.43 62.56 62.29 62.92 62.35 62.15 61.81 61.54 61.37 61.08 60.41 58.73 57.34 55.88 54.78 53.27
66.29 66.77 66.90 65.39 63.51 62.84 63.75 63.23 63.62 63.98 64.68 60.84 58.23 53.36 48.79 45.56 43.75 45.02 46.83 62.25 60.05 62.37 62.77 63.28 63.56 64.04 64.33 64.39 63.25 63.21 62.75 61.68 61.32 61.30 61.19 61.04 60.51 59.08 57.32 56.06 54.47 47.94 49.09
67.06 60.15 63.51 64.78 63.33 61.92 62.53 61.77 61.83 60.74 60.90 60.44 60.58 58.59 52.70 53.63 55.70 56.22 61.61 62.04 62.15 62.65 63.19 64.72 64.48 65.18 65.94 64.91 63.08 62.74 62.14 60.40 60.69 60.66 60.33 59.41 58.31 57.26 55.56 54.00 52.57 51.57 51.02
65.45 65.99 61.65 68.11 67.02 65.26 63.53 62.10 62.80 60.90 60.22 60.63 60.00 57.83 49.19 59.51 58.20 58.84 62.29 62.18 62.19 63.29 64.56 65.15 65.36 64.92 64.16 62.52 61.81 60.83 60.27 60.06 59.26 58.60 57.58 56.95 56.41 54.82 54.43 53.03 52.26 51.74 51.30
64.91 64.50 65.81 64.87 64.56 64.10 64.33 63.70 62.99 61.87 61.04 58.89 57.03 53.22 46.65 60.75 60.67 61.93 62.78 63.67 65.36 65.40 64.85 63.93 63.36 62.74 61.97 61.00 60.57 59.69 58.58 57.93 57.72 57.16 56.52 55.85 55.02 54.06 53.22 52.40 51.73 51.48 50.83
67.08 65.21 64.43 64.92 65.23 60.54 64.20 63.32 63.12 62.22 61.06 58.81 58.28 58.33 58.77 62.15 62.68 62.68 63.12 62.78 62.31 62.59 63.57 63.07 62.42 61.22 61.27 61.00 60.42 59.67 58.61 57.88 57.69 57.02 55.67 54.50 53.56 52.91 52.54 51.69 51.15 50.69 50.04
66.32 66.21 65.40 64.63 64.55 63.82 62.99 62.06 60.28 55.56 59.39 59.06 59.08 60.68 61.93 62.50 62.04 62.11 61.62 62.01 61.43 61.93 61.94 61.92 62.04 61.15 60.16 59.66 59.66 59.54 58.85 57.89 57.11 56.16 55.31 53.69 52.73 50.37 52.32 51.56 50.92 49.99 49.58
63.90 63.99 64.32 64.32 63.69 62.85 62.61 63.57 62.55 61.54 60.93 59.61 59.92 59.63 60.04 59.93 61.18 61.60 61.06 61.85 61.92 60.95 60.72 60.97 60.86 60.45 59.76 59.81 59.34 58.74 47.27 41.67 53.57 47.73 54.29 53.41 52.61 52.55 51.57 50.61 49.58 49.21 49.50
61.93 62.68 61.74 60.30 60.67 61.28 60.64 60.04 60.18 61.19 60.54 59.12 58.17 57.83 59.60 59.79 61.03 60.58 60.73 61.59 61.51 60.67 60.38 60.20 60.48 60.28 60.48 59.29 58.76 46.82 34.10 36.01 45.84 39.49 52.58 52.67 51.97 51.25 50.11 49.49 48.70 48.73 49.03

GFSGL_sfc_wetblb_036.txt.gz
Wetbulb
77.81 78.45 78.45 77.75 78.22 78.56 78.95 79.77 80.01 79.28 80.20 78.92 78.90 77.99 77.72 77.99 78.62 78.36 78.16 77.13 75.80 75.33 74.18 73.06 73.28 73.93 70.64 70.51 70.62 70.06 69.18 68.45 65.92 67.24 69.37 71.74 71.67 71.12 70.86 71.40 71.76 71.14 70.43
77.82 78.68 78.35 78.40 78.55 77.98 78.67 79.37 80.40 79.91 80.02 79.73 79.52 78.52 78.07 77.73 78.25 78.11 77.22 76.58 75.62 74.88 74.49 73.49 72.69 72.16 72.62 73.27 70.75 73.46 71.23 71.91 67.92 68.64 70.73 69.40 70.83 71.90 72.00 71.77 70.29 69.97 69.99
77.30 76.54 76.79 77.11 77.44 78.39 79.33 79.32 79.95 79.89 80.23 78.34 79.14 79.75 78.47 77.93 78.29 78.16 77.63 77.03 76.39 75.78 75.12 74.10 73.21 72.39 72.30 71.24 71.18 70.65 70.20 69.97 70.09 68.09 67.60 69.68 69.20 70.42 70.60 71.38 71.03 70.92 69.74
75.64 75.89 77.16 77.64 78.12 78.31 79.19 79.41 79.64 80.09 79.96 79.73 80.02 80.00 79.38 78.40 78.13 77.75 77.48 77.10 76.94 76.29 75.99 75.14 74.18 72.56 72.54 72.32 70.88 71.36 71.42 69.89 70.35 68.47 67.80 67.75 68.62 70.70 69.73 67.78 67.47 69.09 68.02
76.90 75.54 77.16 78.21 78.93 79.08 79.14 79.36 79.73 79.94 79.86 80.16 80.00 79.93 80.15 78.45 76.98 78.47 78.49 77.21 77.46 76.62 76.18 75.73 74.89 73.37 69.57 70.58 70.89 72.60 73.17 70.14 68.57 68.24 67.73 67.60 67.55 67.41 67.71 67.92 66.77 67.00 68.81
77.23 76.87 77.94 78.66 79.12 78.97 79.07 79.29 79.71 79.60 79.69 79.88 79.64 79.49 79.31 77.78 69.76 68.22 75.46 77.65 78.06 77.55 76.72 76.18 76.25 71.49 70.10 66.29 66.06 66.90 71.58 72.23 71.47 68.19 67.78 68.03 70.33 68.92 68.41 67.43 66.05 65.81 63.30
76.65 77.68 78.06 78.90 78.69 78.98 79.42 79.43 79.16 79.07 79.52 79.28 79.43 79.53 79.32 79.37 65.78 65.57 68.31 77.49 77.49 77.84 77.81 76.62 75.11 74.59 71.63 73.14 66.35 65.04 65.56 65.63 67.23 72.24 70.37 70.37 70.33 70.44 70.57 69.10 68.30 66.77 65.62
76.72 77.17 77.97 78.26 78.42 79.15 79.04 78.63 78.98 79.26 79.00 78.97 79.12 79.32 79.26 79.18 65.24 63.35 66.60 76.93 78.07 78.62 78.09 77.43 77.11 76.75 75.29 73.52 73.09 70.85 69.76 71.30 70.91 70.37 71.60 71.35 72.95 72.02 71.04 69.92 69.45 68.90 68.27
76.41 76.96 77.70 78.08 77.07 77.69 78.36 78.48 78.56 77.89 78.20 78.53 78.32 79.26 79.00 78.93 63.65 61.60 66.01 75.79 76.00 77.91 78.51 77.89 77.99 77.33 70.03 64.25 73.04 72.51 71.10 71.10 66.43 63.10 63.98 63.87 63.85 64.24 67.15 68.51 66.07 65.91 63.65
76.14 76.47 77.70 78.15 78.14 77.71 78.51 78.79 78.96 78.08 77.74 77.42 77.62 79.21 75.19 79.09 63.80 60.04 65.62 75.11 75.16 75.02 77.88 78.61 66.46 74.18 63.41 60.73 72.31 73.56 71.03 71.40 71.39 70.23 69.41 65.77 64.89 65.73 61.64 68.64 67.46 64.32 63.27
75.50 75.72 77.27 78.48 78.55 78.75 79.29 79.09 78.67 78.14 77.53 77.91 78.33 78.79 79.29 77.73 77.45 58.33 59.34 75.29 75.51 75.48 75.05 75.83 76.18 62.01 57.86 57.24 62.90 72.11 70.25 71.66 69.22 70.86 68.69 69.09 69.36 68.95 68.00 67.77 68.92 66.83 63.65
76.63 75.98 77.47 78.42 76.66 76.54 79.00 79.11 78.83 78.04 77.67 77.66 76.82 75.48 77.58 78.17 68.41 59.55 58.14 63.83 69.92 75.58 75.29 75.65 75.24 58.10 56.18 54.92 59.93 62.05 58.29 62.84 69.78 67.50 67.65 67.20 67.34 67.35 67.51 68.10 69.05 68.14 65.66
76.41 77.02 77.29 77.40 77.41 78.23 78.05 77.40 76.39 77.16 75.49 75.69 75.48 74.59 75.42 76.71 78.33 61.40 56.36 58.12 61.69 71.70 76.04 71.63 61.73 53.93 54.05 55.09 57.17 57.79 58.86 67.56 68.28 66.91 65.45 67.17 67.13 67.78 69.46 67.74 67.17 67.35 66.65
75.96 76.43 77.09 76.97 76.63 77.30 76.73 76.82 76.15 75.59 75.23 74.64 74.40 72.98 75.28 76.76 77.60 77.60 67.62 62.30 59.99 64.76 63.22 66.33 61.62 60.40 59.74 60.70 59.68 60.59 66.82 66.77 67.86 67.45 66.15 67.47 68.05 66.90 65.71 65.33 63.25 62.98 61.85
76.01 76.13 76.36 76.34 76.30 76.73 77.47 76.60 76.23 77.52 74.37 75.30 75.74 75.62 75.16 75.80 76.35 69.95 63.62 64.52 66.75 63.75 60.73 62.29 61.79 61.99 61.93 61.79 63.24 63.88 66.95 67.44 67.06 67.29 66.72 66.71 65.79 64.84 64.39 64.21 62.89 62.42 60.82
74.38 74.21 73.92 74.56 75.62 75.58 75.87 76.08 56.54 55.21 50.88 48.18 48.83 60.71 75.35 59.76 52.51 51.99 50.72 50.36 51.26 52.71 62.79 62.47 62.27 62.95 62.92 62.91 62.36 62.31 64.94 65.61 67.03 67.13 66.66 66.08 65.00 63.68 63.21 62.88 62.83 62.15 60.58
72.35 73.39 74.11 69.54 72.89 73.35 74.13 74.49 74.19 65.81 49.78 47.97 45.83 47.82 53.60 53.34 48.73 47.46 46.91 48.91 50.36 54.23 62.39 61.47 62.06 62.41 63.11 63.84 64.30 63.22 62.65 65.95 68.48 67.25 66.02 65.60 65.11 64.23 61.75 62.26 62.31 61.54 60.07
69.67 59.05 70.72 69.68 69.74 70.10 69.25 69.18 69.56 69.43 69.49 72.01 54.06 47.28 45.83 45.46 46.73 46.91 47.82 51.79 55.60 58.69 64.00 63.57 63.20 63.66 64.03 63.92 64.41 63.88 65.15 66.28 66.68 66.11 65.56 65.15 64.30 62.97 62.18 62.19 61.44 60.01 58.94
70.30 69.44 68.03 69.22 68.97 66.80 66.97 64.25 62.74 62.44 61.47 60.18 58.45 52.58 51.39 46.19 47.20 45.83 46.19 62.66 61.55 63.93 66.78 66.64 65.75 65.14 64.59 64.78 65.11 66.05 66.67 66.21 65.95 65.33 64.65 63.66 63.55 63.07 62.09 61.24 60.25 51.50 52.92
68.52 61.94 64.67 68.24 68.36 67.02 67.70 66.29 63.87 62.68 61.13 61.15 60.37 58.07 57.79 57.48 58.37 59.33 59.05 59.08 61.34 64.86 66.42 66.11 66.19 66.12 66.27 65.54 66.27 66.08 65.60 64.46 64.50 64.01 63.10 63.52 63.26 62.39 60.90 60.30 58.88 56.49 54.40
68.46 67.98 62.19 68.93 68.56 67.14 67.75 67.41 66.63 64.85 62.77 62.82 61.38 59.66 49.63 60.97 58.40 59.26 59.88 60.23 61.99 63.49 66.16 66.65 67.49 67.82 66.47 67.45 66.79 65.72 64.92 64.29 64.33 64.10 63.44 62.82 62.43 60.73 60.37 59.03 57.18 55.41 54.51
67.87 68.59 68.23 67.65 67.96 67.29 67.02 66.91 67.08 68.10 66.66 65.35 64.50 56.96 46.01 63.52 60.40 60.03 60.85 62.67 63.61 65.04 65.80 66.53 67.06 67.11 66.82 66.56 66.16 64.61 63.84 63.84 63.88 63.45 62.40 61.56 60.73 59.89 58.34 56.70 55.27 54.64 53.74
68.49 68.04 68.08 67.52 66.59 61.13 66.16 66.58 64.83 63.46 62.94 63.41 62.34 63.44 62.26 62.02 61.99 61.88 62.21 63.50 64.04 64.56 65.50 66.09 67.54 66.79 66.71 65.85 65.46 64.70 63.26 62.70 62.28 61.99 60.96 60.21 59.03 57.83 56.82 55.18 54.45 53.71 53.11
68.32 67.81 67.12 65.55 65.07 66.31 65.85 64.59 62.79 56.18 59.32 60.12 61.49 62.74 63.19 62.32 62.40 62.51 63.05 64.03 65.32 65.15 65.43 65.58 65.09 64.52 64.29 64.21 63.95 63.71 62.80 62.71 62.34 61.41 61.11 59.71 58.24 54.70 55.71 54.85 54.38 53.94 53.16
65.78 65.19 64.78 65.10 65.14 65.16 65.19 64.76 64.70 63.71 62.81 61.05 60.59 61.50 62.69 63.47 63.45 64.17 63.64 63.39 63.51 63.67 63.69 63.85 64.03 63.94 63.73 63.10 62.74 62.15 47.99 46.36 57.64 51.90 59.31 58.24 57.09 56.53 54.86 54.35 53.96 53.21 52.48
62.85 62.49 62.22 60.79 60.32 60.96 61.19 62.88 62.96 63.33 63.45 63.88 64.10 64.35 64.16 63.69 63.41 63.49 64.07 63.97 63.39 63.60 63.95 63.70 63.95 63.69 63.11 62.50 61.69 45.89 36.71 38.64 50.90 42.40 56.44 56.71 55.88 55.13 54.42 53.96 53.21 51.83 51.63

GFSGL_sfc_wetblb_042.txt.gz
Wetbulb
77.89 78.08 78.00 78.31 77.84 77.57 77.05 77.39 78.56 77.64 80.28 77.95 79.36 78.39 78.10 77.92 78.10 78.57 77.12 77.04 77.39 76.29 76.13 75.34 74.36 73.28 72.19 72.69 71.88 71.79 70.72 69.92 66.65 67.89 71.56 72.36 71.55 69.70 69.71 70.79 71.13 70.84 68.71
78.26 78.37 77.86 78.31 78.76 78.08 77.29 77.53 78.14 78.80 78.31 79.75 79.04 78.30 77.96 77.63 78.22 77.47 77.11 75.69 76.73 76.03 75.05 75.11 74.70 73.52 73.16 73.66 73.97 71.30 70.75 71.49 69.44 68.58 70.65 70.91 71.56 71.43 71.60 71.78 70.64 70.49 70.94
78.07 78.46 78.30 78.28 78.09 78.25 78.21 77.72 78.29 77.80 78.98 78.07 79.13 78.74 77.56 77.79 77.60 77.93 77.32 76.70 74.97 76.73 76.25 74.66 74.27 73.62 72.49 70.83 71.95 71.57 71.35 72.00 72.58 68.74 68.83 71.51 71.58 71.85 70.64 71.14 71.95 70.69 71.33
77.67 77.91 77.64 78.38 78.44 78.56 78.76 78.83 78.12 78.62 77.62 78.51 78.26 78.11 78.36 78.00 77.91 77.63 77.70 77.48 76.80 76.07 77.10 76.28 75.10 73.89 72.42 72.74 71.21 70.69 71.18 70.92 69.84 70.05 68.73 68.20 70.47 70.72 70.30 68.47 68.83 69.92 69.00
75.88 77.11 77.06 77.91 78.87 78.69 78.57 78.87 79.29 78.70 78.87 78.45 78.27 78.82 78.40 78.45 78.24 77.63 77.41 77.27 77.18 76.28 76.58 77.00 76.24 74.72 71.62 71.45 72.45 72.10 70.00 70.13 69.91 67.61 67.52 68.22 68.08 69.24 67.04 68.31 67.46 68.04 68.73
76.52 76.38 77.30 77.55 77.91 78.48 78.40 78.37 78.77 78.97 78.73 79.12 78.39 77.84 78.13 78.37 72.21 69.66 75.15 77.19 77.17 76.77 76.14 76.46 76.56 72.97 71.53 68.40 68.31 69.22 71.11 69.17 67.89 67.19 67.24 66.32 67.27 69.07 69.75 67.74 66.78 66.50 63.72
76.57 77.53 77.49 77.66 77.74 78.09 78.40 78.44 77.99 78.39 78.86 78.62 78.62 78.50 77.71 78.21 68.71 67.38 69.39 77.18 76.74 76.98 76.90 76.44 76.32 76.53 72.82 73.35 67.53 66.78 66.53 66.44 68.08 69.39 67.57 68.96 70.35 70.77 70.74 69.67 68.83 67.46 65.58
77.96 76.95 78.21 78.37 77.68 78.40 78.39 78.12 78.38 78.32 78.41 78.18 78.38 78.57 78.25 78.14 68.11 65.19 67.17 75.97 76.52 76.81 76.93 76.91 76.39 76.05 75.51 74.20 72.62 70.10 70.06 69.15 67.76 69.79 70.75 69.98 71.62 72.87 71.04 71.24 70.13 69.01 68.50
76.20 77.93 77.22 78.62 77.89 78.11 78.10 77.93 78.32 78.39 78.27 78.48 78.72 78.52 78.28 78.30 66.13 63.99 65.22 74.59 75.52 75.79 76.74 76.92 76.80 76.20 71.87 65.81 73.31 70.96 69.45 69.49 65.97 64.28 65.80 66.78 66.35 65.84 70.01 69.78 67.72 65.79 64.36
76.19 76.38 78.48 77.27 78.15 77.99 78.20 78.34 78.76 78.83 78.57 78.62 78.53 78.86 75.38 78.46 68.44 62.41 64.81 75.77 74.55 74.77 75.48 76.20 67.89 74.15 66.39 61.68 72.44 72.49 70.49 69.62 69.78 68.83 67.26 64.72 64.96 65.87 64.63 70.14 68.31 65.12 63.95
77.21 77.52 77.67 78.70 77.64 78.53 78.81 79.19 78.97 78.63 78.60 78.40 78.31 78.70 78.86 77.52 77.54 61.70 59.73 76.00 75.86 74.79 74.48 74.52 75.32 63.24 60.91 58.97 62.52 73.15 71.82 71.79 68.67 69.96 68.43 67.88 67.61 68.29 66.47 67.88 69.19 67.43 64.72
77.88 78.12 78.19 79.03 78.19 78.26 78.93 79.39 79.29 78.82 78.19 77.88 77.64 77.81 78.59 78.96 68.91 65.18 58.39 60.79 71.41 75.90 74.94 74.99 74.53 62.19 58.13 57.61 59.84 65.91 60.47 65.82 72.17 69.84 68.62 67.30 66.46 66.62 67.70 67.23 68.17 68.19 66.86
81.18 80.32 78.53 79.26 79.15 78.39 78.72 78.53 78.37 78.75 77.83 77.37 77.00 76.88 77.09 78.11 78.82 62.76 58.68 57.99 59.76 69.39 76.61 72.72 61.03 55.65 55.85 58.80 58.81 61.35 60.03 71.22 71.59 69.09 68.36 67.36 67.28 67.50 67.97 68.05 67.23 66.76 66.49
79.60 81.04 79.77 79.06 78.43 78.67 78.67 78.41 77.86 77.64 77.51 77.33 76.79 76.29 76.63 77.55 77.74 77.81 72.07 65.09 60.70 64.36 68.31 71.53 68.98 65.35 62.48 64.34 64.89 62.15 70.31 72.44 71.55 69.69 68.90 68.56 68.36 67.79 66.98 67.14 65.90 65.84 64.90
80.02 79.40 79.27 78.44 77.97 78.50 77.95 77.20 77.74 78.37 74.86 77.37 76.99 76.41 76.11 76.04 74.67 64.16 68.61 75.02 73.37 68.92 70.00 74.27 73.86 73.29 72.50 70.45 69.16 67.50 70.13 71.26 70.07 70.18 69.33 67.05 66.87 66.66 65.98 66.42 65.38 64.64 62.99
78.20 77.45 76.96 76.73 77.55 77.31 77.53 76.61 51.00 53.57 50.61 48.37 49.98 62.73 70.47 54.59 49.09 50.91 54.89 56.65 55.16 52.86 67.96 72.14 73.07 73.11 70.65 68.98 67.16 67.70 69.14 69.21 70.16 69.82 68.20 67.16 65.78 65.10 64.90 64.86 64.44 63.10 61.56
78.45 78.26 76.64 74.40 76.99 76.76 76.97 76.69 74.65 55.91 46.34 47.28 46.19 47.06 46.37 45.76 44.74 45.83 43.47 44.92 46.92 55.08 72.11 70.28 70.74 69.42 67.57 67.84 67.12 67.86 68.13 69.44 70.02 68.78 67.54 65.58 64.75 64.84 63.20 63.10 62.72 62.27 60.53
75.44 60.34 76.69 76.54 75.23 75.27 76.10 76.11 76.62 73.41 71.72 70.38 50.55 51.04 44.64 43.84 43.29 42.20 43.65 49.27 64.86 61.77 69.43 68.31 68.15 68.72 68.27 67.02 67.12 67.03 68.13 69.19 68.87 68.06 66.46 64.96 65.02 64.34 62.89 62.40 61.78 60.98 60.46
75.17 73.46 73.82 71.61 70.56 69.09 71.35 70.55 70.14 69.41 68.93 68.40 67.92 58.02 52.30 44.38 43.84 43.11 42.75 63.24 62.76 62.02 63.24 63.02 63.29 63.70 64.17 64.57 64.73 64.57 64.85 64.57 64.96 65.52 64.94 64.69 64.18 63.30 62.25 62.50 61.58 57.00 58.28
70.38 64.46 67.29 70.44 69.87 69.28 69.25 67.68 67.49 67.39 67.10 66.86 66.33 65.19 65.40 63.39 62.91 62.28 63.51 63.45 62.94 62.81 62.53 61.92 63.65 64.81 64.60 65.03 63.44 63.60 64.21 64.03 64.69 64.23 64.76 64.88 64.15 63.40 62.71 61.84 61.23 60.22 59.62
69.17 69.72 66.18 69.78 69.11 69.22 68.47 67.05 66.97 66.83 67.01 67.49 65.62 60.59 47.26 62.95 63.43 62.54 63.00 63.81 64.58 65.08 65.76 66.07 65.98 66.20 65.67 64.67 64.10 64.10 65.48 64.40 64.90 65.02 64.72 64.34 64.07 62.87 62.08 61.44 61.26 59.15 58.19
69.80 69.82 69.20 67.70 68.65 67.97 68.45 68.37 67.82 66.80 66.24 65.60 65.25 59.83 49.46 63.92 64.79 64.49 63.81 64.25 65.88 66.52 66.39 67.27 66.97 67.07 66.87 65.65 64.86 64.97 63.84 64.02 64.36 64.27 63.82 63.95 63.82 63.10 62.23 61.66 60.66 59.38 57.82
67.15 67.33 68.05 67.79 67.43 63.63 65.52 65.44 64.41 63.43 63.17 63.10 63.38 63.75 64.02 64.64 65.13 64.90 65.23 65.49 66.68 67.85 68.37 67.48 66.54 65.69 65.43 65.18 64.70 64.96 63.47 63.96 65.14 65.16 64.01 63.48 62.70 61.82 60.88 59.70 58.86 57.56 56.13
66.18 66.02 66.02 64.90 63.63 65.23 65.26 63.85 63.13 59.23 62.86 63.54 63.38 63.50 64.12 64.65 65.07 65.17 65.47 67.07 67.43 66.87 67.75 68.05 67.43 64.84 66.38 65.02 65.14 65.02 64.68 65.58 65.85 65.00 64.19 62.90 61.39 58.22 59.80 58.99 57.89 56.84 55.23
61.40 61.72 62.04 61.98 61.77 61.77 62.24 62.24 61.61 60.57 60.70 59.50 59.23 59.86 61.58 63.77 63.92 64.03 65.79 66.19 66.39 66.67 67.11 67.02 67.13 66.93 66.59 66.08 65.54 65.07 55.84 50.93 62.15 55.99 63.45 62.22 61.30 60.16 59.37 58.09 57.13 55.60 54.72
57.56 59.90 59.83 59.97 58.94 58.31 57.98 57.72 58.08 57.53 57.29 56.94 56.81 56.11 56.31 56.33 58.77 61.10 61.87 61.31 60.95 64.03 65.52 66.64 66.86 67.11 66.88 65.88 56.41 42.23 35.71 41.64 48.40 46.67 61.04 61.26 60.32 59.80 58.06 57.57 57.24 54.72 54.42

GFSGL_sfc_wetblb_045.txt.gz
Wetbulb
74.43 74.18 74.87 74.65 73.93 73.80 73.94 71.85 73.48 73.28 74.33 73.69 75.09 74.83 75.02 75.13 75.47 74.64 74.23 73.94 74.02 73.35 72.58 72.25 71.43 70.43 66.81 66.16 66.54 65.98 63.96 63.51 60.31 61.96 65.10 65.63 65.87 66.64 67.05 66.33 68.45 67.01 65.06
74.93 74.77 74.58 75.32 75.27 73.68 73.85 74.14 72.26 74.48 74.19 75.21 75.92 75.52 75.61 75.24 75.17 75.08 74.34 74.75 72.97 73.05 72.77 71.45 71.82 72.13 68.14 67.37 68.85 65.01 65.05 65.56 62.76 60.45 65.28 66.40 65.25 65.40 65.37 65.72 67.32 68.96 67.50
74.83 74.97 74.90 74.86 75.19 74.75 74.40 73.95 74.71 73.35 75.49 74.42 75.62 75.48 75.46 75.47 75.14 75.01 75.46 74.49 72.99 73.83 73.44 72.69 71.83 71.50 69.38 68.60 67.61 67.51 66.89 66.03 66.56 63.47 64.24 66.24 66.90 66.91 66.72 67.30 66.44 65.89 67.87
74.69 75.10 74.96 75.22 75.30 75.67 75.75 75.34 73.79 75.23 74.54 75.80 74.36 75.70 75.43 75.63 75.40 75.50 75.17 75.01 74.23 73.04 74.17 73.79 72.85 72.14 70.77 69.35 67.20 67.12 66.97 66.07 65.15 64.88 63.35 63.74 65.92 67.52 66.09 65.33 65.23 67.35 66.15
74.46 75.03 75.27 75.88 75.91 75.94 75.83 76.17 76.08 74.69 75.49 74.99 75.77 75.11 76.20 75.41 75.83 75.27 75.66 75.16 74.72 74.15 73.13 74.71 74.31 73.11 70.99 69.94 69.97 67.85 66.87 66.14 65.45 64.56 64.03 63.62 63.06 65.27 66.12 65.45 64.94 65.41 66.32
73.52 74.39 75.54 75.75 76.16 75.87 76.02 75.96 76.26 76.12 75.14 75.79 74.93 75.20 75.35 76.49 70.83 69.36 73.87 75.19 75.19 74.92 74.09 73.15 74.72 72.30 70.97 67.84 68.27 68.40 68.98 66.38 65.29 66.35 64.87 64.67 65.38 64.51 65.82 65.84 65.62 63.36 62.07
72.62 73.29 74.80 75.56 75.56 75.87 76.31 76.22 76.05 76.17 76.57 75.37 75.69 75.49 75.28 75.79 67.86 67.18 69.30 75.50 74.82 75.17 74.99 74.87 73.60 75.02 71.81 72.48 67.42 67.04 66.99 66.85 66.50 66.40 66.19 65.39 65.35 66.36 66.78 65.19 65.37 63.84 62.73
72.75 72.94 73.47 74.83 75.01 75.54 75.74 75.71 75.97 76.23 76.24 76.41 76.03 76.34 75.94 76.06 67.21 64.94 67.49 75.06 75.29 75.06 75.34 75.32 74.75 74.34 74.10 73.37 72.26 69.96 69.77 69.33 68.47 67.71 66.85 67.34 67.41 67.66 68.51 67.90 66.20 65.09 65.36
73.25 73.48 73.97 74.57 74.59 74.97 74.97 75.59 76.05 75.97 75.79 76.09 76.67 76.52 76.26 76.50 65.21 64.03 65.50 73.63 74.84 74.90 75.20 75.45 75.41 74.94 70.94 65.76 72.90 71.25 69.86 69.67 66.46 63.98 65.17 64.51 64.52 66.15 68.34 68.16 65.32 63.59 61.98
72.84 74.12 74.98 75.17 75.25 74.92 75.45 75.67 76.26 76.29 76.06 76.25 76.24 76.77 73.59 76.67 66.32 62.08 64.58 74.44 74.06 74.36 74.97 75.02 67.38 73.07 66.32 62.44 72.20 72.38 70.31 70.16 69.88 67.65 65.92 64.26 65.08 66.36 65.91 68.74 66.61 63.61 62.15
73.23 73.39 74.88 75.16 75.38 75.89 75.70 76.31 76.20 76.23 76.19 76.01 76.01 76.68 76.87 75.62 75.38 61.25 60.09 74.30 75.13 74.52 74.23 74.06 74.59 63.37 60.84 59.46 62.04 73.63 72.04 71.86 69.25 68.94 68.10 67.55 66.47 66.72 67.12 68.19 67.85 66.36 63.48
72.47 72.81 72.82 74.59 74.79 75.66 75.40 76.03 76.36 76.08 75.73 75.44 75.56 75.86 76.79 76.95 66.97 62.76 59.14 61.18 70.19 75.15 74.83 75.18 74.24 61.16 58.46 58.57 59.88 65.45 62.42 63.68 72.10 68.95 68.31 67.03 65.98 65.92 66.54 68.02 68.33 67.81 67.34
72.32 73.12 73.49 74.07 75.32 73.41 75.56 75.03 75.99 76.02 75.89 75.31 75.41 75.21 75.66 76.61 76.78 62.27 58.86 58.70 60.58 71.46 76.39 73.24 65.92 60.05 56.13 58.50 58.78 60.96 60.36 69.07 72.08 70.85 68.48 68.27 67.30 67.62 67.88 66.52 67.28 67.62 66.25
73.42 72.40 74.49 74.73 74.95 74.34 75.49 76.08 76.19 76.19 75.72 75.62 75.32 74.97 75.24 75.06 75.74 76.38 71.81 64.36 60.63 63.71 67.51 71.19 68.80 66.36 64.90 64.96 62.73 61.10 64.67 70.25 72.04 71.84 71.25 70.65 69.57 67.55 66.44 66.76 65.52 65.63 64.84
73.90 75.41 75.20 74.93 74.75 75.05 70.95 65.11 74.34 75.75 73.36 75.66 75.77 75.17 74.60 74.56 70.74 59.16 61.33 70.53 69.77 66.27 67.75 71.13 72.54 72.61 71.71 71.82 66.79 66.78 65.63 66.74 69.53 71.31 71.38 71.02 69.11 67.09 66.42 66.71 66.08 65.09 63.79
74.20 74.62 74.53 73.87 74.34 74.89 69.81 61.48 49.58 49.98 49.27 49.74 49.56 65.19 60.11 51.84 46.70 46.54 46.90 49.26 50.71 51.98 63.51 68.70 70.37 71.66 72.40 72.53 72.20 71.89 67.28 66.24 68.09 69.78 70.59 71.18 69.42 67.12 66.51 66.10 66.11 64.43 63.44
70.46 73.72 73.22 71.47 73.09 73.86 74.63 72.48 62.42 54.86 46.88 45.26 46.39 46.79 48.46 46.88 45.99 45.81 45.09 45.45 47.08 52.16 67.39 68.27 69.17 70.05 71.07 70.03 70.19 69.63 68.79 69.01 68.95 68.97 69.92 70.03 70.01 68.45 65.97 66.17 64.40 63.93 63.16
69.23 62.46 69.98 72.20 70.56 72.89 72.87 73.23 68.30 63.17 62.64 57.37 49.89 50.25 45.05 43.44 42.91 43.46 45.45 49.98 62.72 61.54 64.43 63.91 64.11 65.96 67.39 67.43 67.55 67.86 68.00 68.13 68.41 67.41 65.94 65.37 65.06 64.38 64.19 63.93 63.57 62.99 62.49
70.77 69.46 67.02 66.95 67.17 66.45 67.01 67.10 68.27 67.66 65.45 62.62 58.41 51.41 46.72 44.54 44.54 46.36 48.89 62.00 61.64 62.02 62.88 62.92 63.13 63.15 63.71 64.22 63.59 64.51 64.81 64.67 64.45 63.77 62.63 62.71 63.26 63.17 61.29 62.34 62.72 58.26 59.29
67.42 63.44 64.67 66.19 65.76 65.38 65.44 64.86 64.16 63.66 62.95 62.46 61.30 60.44 59.08 57.51 57.93 58.33 59.20 59.38 59.38 58.97 59.33 59.62 60.60 62.16 62.44 62.21 62.32 61.78 62.59 61.88 62.38 61.00 61.06 62.39 62.86 63.19 62.79 62.45 61.79 60.20 59.72
66.45 65.52 65.91 67.41 65.72 64.87 63.99 63.56 63.40 63.35 62.75 61.66 58.41 54.54 47.81 59.68 58.53 58.30 58.57 59.47 59.85 60.31 60.84 61.44 61.52 61.49 61.09 61.39 62.32 61.15 61.89 61.85 62.11 62.87 63.77 63.29 62.98 62.30 62.68 61.90 60.79 60.20 59.98
65.71 65.88 65.21 64.27 64.45 64.53 63.63 63.33 62.37 61.74 61.24 60.39 57.60 56.07 47.26 61.00 61.24 59.76 59.75 60.93 61.41 61.99 62.19 62.24 62.45 62.27 62.58 62.46 63.34 63.57 63.16 63.36 63.72 63.59 63.38 63.45 62.66 62.57 62.18 61.54 60.63 59.79 58.87
65.12 63.57 64.69 64.00 62.87 61.15 61.78 61.63 61.15 60.88 61.17 61.81 62.18 62.16 62.67 63.02 63.04 62.49 61.47 62.17 62.17 63.17 63.82 63.30 62.50 62.76 62.05 61.97 62.65 62.74 62.45 62.71 62.49 63.69 63.01 62.63 61.41 61.61 59.82 59.87 58.02 57.06 55.23
62.81 62.78 62.39 62.80 62.15 61.75 61.04 60.72 58.93 55.83 59.46 59.29 58.53 58.95 59.20 61.38 60.99 59.74 60.22 60.12 62.82 63.82 63.96 63.37 63.45 63.55 62.43 62.02 62.35 62.29 62.49 63.22 63.54 63.20 62.61 62.02 61.57 58.71 58.28 57.21 56.61 56.12 54.58
59.88 59.43 59.45 59.11 59.01 58.37 57.62 57.13 57.74 57.30 56.57 56.05 55.80 55.63 55.83 55.71 55.78 55.42 54.68 55.42 56.10 54.72 55.29 60.15 63.48 62.20 61.93 61.74 62.72 63.64 54.78 47.97 59.55 56.47 61.59 60.24 58.85 57.49 56.48 55.32 54.20 52.00 49.99
52.04 53.77 56.67 55.87 55.20 55.46 54.34 53.78 53.45 53.67 53.27 53.70 52.88 52.30 51.83 52.01 51.58 51.11 50.71 51.20 52.59 52.55 50.96 49.62 48.28 48.74 56.81 61.27 57.47 46.07 39.14 42.46 53.30 48.80 58.48 58.29 57.44 56.17 55.48 54.51 53.28 50.39 49.24

GFSGL_sfc_wetblb_048.txt.gz
Wetbulb
71.49 72.63 72.35 71.57 71.24 73.59 71.68 70.03 70.39 71.36 69.93 71.01 73.11 73.54 74.23 74.01 73.60 72.92 72.47 73.43 72.60 72.64 72.25 71.03 70.13 69.52 68.63 65.91 65.11 63.89 61.74 61.22 58.97 59.57 63.01 63.85 64.06 64.79 65.17 65.21 63.28 62.67 62.96
72.17 72.29 72.74 72.82 72.31 70.98 73.21 72.20 71.14 70.83 71.83 71.10 72.96 73.09 73.83 74.03 73.98 73.23 72.76 73.44 73.26 72.55 72.76 71.63 70.98 71.39 68.82 66.94 65.00 64.66 63.61 62.32 60.37 58.63 60.56 64.97 63.82 64.66 64.80 64.76 64.10 65.47 64.99
72.24 72.31 72.63 73.15 73.14 72.44 71.50 73.17 72.81 71.27 71.49 72.13 73.86 73.55 73.82 73.86 74.13 74.26 73.58 73.01 73.14 73.21 73.11 72.14 71.91 71.42 70.57 69.23 65.78 65.90 65.27 64.01 63.11 60.36 60.25 64.05 64.05 64.27 63.28 63.98 64.09 65.12 66.58
72.77 72.69 72.26 72.93 73.71 73.83 73.38 72.31 73.07 73.16 70.82 72.46 73.26 74.59 74.23 74.61 74.28 74.20 74.31 74.00 73.57 73.39 73.34 73.11 72.73 71.55 71.51 70.11 67.76 66.58 65.53 65.64 63.78 63.37 61.07 63.93 64.20 65.64 64.12 63.49 63.41 64.66 64.46
72.97 72.92 73.10 73.36 73.96 74.50 74.31 73.58 73.16 72.86 73.66 72.09 72.75 73.16 74.91 74.78 74.90 74.46 74.18 73.91 74.03 73.38 72.73 73.50 73.37 72.55 70.75 70.16 70.44 68.69 65.66 65.08 63.91 63.24 62.38 61.63 62.51 64.29 64.24 63.59 63.81 64.90 65.88
72.68 72.96 73.52 73.88 73.94 73.91 74.53 74.48 73.93 73.51 72.50 73.45 73.42 73.44 73.43 75.19 69.82 68.74 73.11 74.20 73.93 73.44 72.76 72.23 73.19 71.73 70.55 68.03 67.38 68.05 68.27 66.55 65.19 65.12 65.07 63.96 64.33 64.33 65.18 65.48 64.56 61.94 61.59
72.43 72.90 73.56 73.74 74.15 74.33 74.49 74.55 74.41 74.31 74.01 72.41 73.27 73.80 73.39 74.09 66.77 66.68 68.76 74.38 74.08 73.78 73.56 73.26 72.89 73.50 71.16 72.52 67.36 66.30 66.41 65.51 66.82 66.27 65.02 65.56 64.81 65.71 64.50 64.56 64.95 64.02 63.86
70.81 72.76 73.43 74.05 74.13 74.75 74.52 74.27 74.45 74.98 74.96 74.63 73.54 73.77 74.07 74.08 65.58 64.42 66.84 73.71 74.27 74.12 74.31 74.31 73.83 73.70 72.81 72.85 72.85 70.51 69.27 69.81 67.86 67.39 67.23 66.36 67.20 67.56 66.69 66.57 66.06 65.81 63.84
70.29 70.70 73.01 73.71 74.38 74.51 74.30 74.55 74.95 75.10 75.00 75.29 75.46 74.97 74.15 74.79 64.06 62.96 65.06 72.14 73.77 74.22 74.55 74.49 74.58 74.27 70.23 65.22 72.39 72.13 71.55 70.84 67.75 63.92 65.16 64.33 62.57 62.88 65.16 66.40 63.47 62.28 61.96
70.62 71.02 71.80 72.81 73.99 74.18 74.53 74.64 75.47 75.40 75.24 75.64 75.41 76.06 72.73 75.16 65.13 61.67 64.46 73.25 73.04 73.65 74.80 74.98 67.36 71.97 65.31 62.36 70.51 72.41 71.54 71.96 71.50 70.77 66.41 65.65 63.28 64.15 63.26 67.27 66.77 63.92 63.57
71.84 72.18 72.54 72.48 72.73 74.14 74.34 74.86 74.81 74.92 75.10 74.78 74.88 75.34 75.65 74.53 74.51 60.54 60.09 73.93 74.24 74.16 73.83 74.08 74.86 63.21 60.84 59.37 61.37 73.34 72.37 72.89 71.43 71.26 71.06 69.07 68.49 68.29 66.88 67.89 68.97 67.50 64.97
71.57 71.67 72.52 73.48 73.47 74.06 73.68 74.08 74.40 74.43 74.33 74.14 74.19 74.44 75.33 75.67 66.12 60.47 59.19 61.69 70.11 74.64 74.45 75.00 74.31 62.21 58.02 58.14 60.01 64.11 62.68 63.41 73.33 73.28 71.42 70.37 69.34 68.25 67.60 68.26 69.02 68.89 68.35
68.55 70.00 70.80 72.39 72.99 73.56 73.66 73.45 73.68 74.27 74.21 73.88 74.08 73.93 74.58 75.50 75.40 61.15 58.86 59.17 60.73 71.22 75.83 72.64 65.22 60.10 57.18 58.59 57.92 60.41 59.92 69.34 71.86 72.33 72.22 71.96 70.35 71.00 69.68 67.99 69.04 69.17 68.41
69.92 69.74 70.92 71.09 70.97 71.93 74.06 74.23 74.33 74.38 74.28 74.11 74.14 73.95 74.53 74.44 75.12 75.50 69.37 64.69 60.74 63.32 66.45 71.23 68.66 65.12 62.30 66.12 64.51 61.45 63.91 68.28 70.09 71.12 71.75 72.99 73.63 71.19 68.78 67.59 66.75 67.43 66.23
71.76 72.37 72.01 72.28 70.60 71.44 63.13 63.51 71.93 72.18 71.44 74.74 74.74 75.04 74.63 74.26 74.49 67.18 68.71 71.18 70.14 66.70 67.78 70.07 70.93 71.94 72.37 72.57 72.21 68.04 66.36 66.07 66.39 68.56 70.05 71.01 71.24 71.55 69.35 68.08 66.84 66.23 65.32
69.36 70.57 72.46 73.07 71.85 68.89 61.97 58.17 49.14 47.89 46.35 49.97 56.68 66.76 58.56 52.87 49.07 48.70 47.98 47.98 49.97 53.24 64.82 66.92 68.46 69.35 69.98 71.42 72.43 72.64 68.80 66.88 67.88 67.72 68.46 69.37 69.57 70.23 69.98 68.96 66.97 65.66 64.87
68.12 68.17 67.64 69.73 72.67 71.86 65.96 63.97 60.06 54.55 48.67 45.42 45.26 46.71 49.77 49.41 46.33 46.53 46.71 47.43 48.70 53.42 65.55 65.60 66.43 66.97 68.03 68.83 70.43 71.18 70.64 68.46 67.97 67.42 67.70 68.31 68.65 68.89 67.40 68.19 67.51 65.75 65.12
67.61 62.70 67.52 69.48 71.15 72.44 72.79 67.09 62.22 61.12 58.66 56.88 51.00 48.50 45.06 43.99 44.35 45.44 47.07 52.49 61.61 61.17 63.01 61.95 63.19 64.27 65.85 66.36 66.23 66.27 67.31 67.56 67.40 66.86 64.10 63.74 63.94 63.48 62.90 63.24 62.63 61.74 61.58
67.00 67.09 66.20 66.01 65.49 66.52 68.35 68.80 65.06 64.49 60.29 58.14 54.97 51.69 46.95 43.45 44.53 46.71 48.34 60.68 61.47 60.77 62.12 60.78 60.95 60.75 60.43 60.33 60.38 61.00 61.79 63.62 64.34 63.80 62.64 61.47 62.66 60.14 61.46 61.04 59.70 56.50 58.59
66.04 63.30 64.20 66.42 65.91 64.81 65.33 65.60 66.23 64.27 61.86 61.34 61.16 60.03 57.97 54.26 56.86 56.94 57.58 57.79 57.88 57.32 57.16 57.44 57.64 58.14 58.18 58.75 59.31 59.80 61.25 62.27 62.31 63.10 61.29 61.39 61.72 61.66 60.65 61.24 61.86 60.70 60.24
65.32 64.60 64.53 65.16 65.48 65.35 65.24 64.61 64.45 63.62 62.30 60.29 58.42 57.26 49.97 58.68 57.52 57.00 57.38 57.64 57.96 58.08 58.58 58.98 59.09 59.53 60.04 60.14 60.00 61.27 61.61 61.25 60.96 61.18 60.63 62.63 63.06 62.69 62.25 61.04 61.09 59.77 58.48
65.64 64.11 64.35 63.88 63.00 62.24 62.35 62.63 62.56 61.95 60.00 58.82 57.85 53.21 44.72 59.26 58.70 58.42 58.18 58.84 59.70 60.11 60.57 59.70 59.87 60.56 61.00 60.90 62.47 63.17 62.27 62.25 62.52 61.84 61.93 62.69 61.93 61.91 61.49 60.90 60.35 59.85 58.71
63.88 63.52 62.65 61.79 61.24 58.92 60.14 60.21 60.40 60.27 59.49 59.09 59.43 59.65 61.20 59.57 57.10 58.50 57.92 57.24 58.66 61.10 62.16 61.33 61.09 61.10 61.72 60.78 61.14 62.27 61.07 61.36 62.64 63.57 62.93 62.23 61.12 60.92 59.75 58.26 58.60 59.20 56.21
61.80 62.38 61.54 61.32 60.88 60.21 58.77 57.80 56.96 53.88 56.16 56.12 56.14 56.24 56.28 55.15 53.24 54.01 54.02 53.62 53.25 53.66 52.58 54.59 55.05 56.91 61.46 61.60 61.42 61.49 61.29 61.59 61.92 62.26 61.94 60.86 59.75 57.16 57.65 56.57 55.31 54.43 53.06
57.65 58.47 59.59 58.89 58.26 57.27 56.28 55.56 55.09 54.18 53.77 53.18 52.39 52.44 52.07 51.57 51.03 50.78 50.28 51.22 50.96 49.33 48.42 48.05 46.94 44.93 45.90 48.29 47.02 46.86 43.41 37.23 51.85 54.50 61.94 61.03 60.45 59.84 58.52 56.39 55.49 55.58 54.08
51.83 52.46 54.33 54.71 54.33 54.06 52.75 51.91 51.13 50.58 49.52 48.72 47.85 47.55 47.65 47.56 47.51 47.74 48.16 47.89 47.82 47.64 47.00 46.79 46.54 42.67 40.70 40.62 38.77 35.33 32.23 33.57 45.70 43.59 60.69 60.13 59.36 57.51 56.75 54.56 54.26 53.66 52.46

GFSGL_sfc_wetblb_051.txt.gz
Wetbulb
70.46 70.70 70.72 70.71 70.74 70.78 69.96 69.53 69.81 68.68 68.63 70.37 71.07 72.18 73.04 72.76 72.91 72.31 71.90 72.11 71.73 71.65 71.33 69.89 69.14 68.67 68.07 66.28 64.79 63.64 60.79 59.56 57.56 58.98 61.22 62.75 63.10 63.88 65.23 66.35 65.07 62.99 62.79
70.68 70.71 70.73 70.85 71.37 71.59 70.87 69.79 69.80 69.96 69.44 69.34 71.20 71.68 72.71 73.31 73.05 72.36 71.69 72.29 72.19 71.47 71.86 71.04 70.71 70.68 68.30 67.04 65.25 63.60 62.96 61.08 59.67 58.26 58.83 62.84 62.48 63.40 64.72 64.66 65.50 64.48 62.61
70.07 70.58 70.84 70.45 70.08 70.29 72.44 72.52 70.36 69.31 69.13 70.51 70.00 71.70 72.00 72.74 72.87 72.73 72.68 71.99 71.98 72.56 72.47 71.77 72.05 70.70 69.80 68.93 66.90 65.30 63.84 63.34 61.36 59.43 60.06 60.92 63.57 62.77 62.46 62.99 63.01 63.15 63.22
70.23 70.18 70.44 71.01 71.12 70.81 70.34 71.41 72.54 71.53 70.28 70.26 71.37 71.56 72.12 72.75 73.02 73.17 72.93 72.31 72.13 72.36 72.78 72.85 72.64 71.83 71.43 70.81 69.21 67.76 66.03 63.81 62.26 61.76 60.72 61.20 62.45 63.31 62.93 61.84 61.80 62.43 63.56
70.12 70.30 70.35 71.58 72.12 72.18 71.74 70.90 71.21 72.44 72.33 71.36 71.19 71.87 72.91 73.16 73.45 73.17 73.27 72.85 72.25 72.09 72.43 72.69 73.06 72.96 71.11 70.95 71.37 70.38 67.70 66.27 64.96 63.20 62.76 60.69 61.60 62.28 62.35 62.41 63.27 63.55 63.60
70.40 70.17 70.97 71.18 71.96 72.30 72.45 72.38 71.43 70.92 72.24 72.30 70.80 71.04 72.18 73.54 69.26 68.32 72.19 73.12 73.01 72.63 72.13 72.32 72.89 71.42 70.69 68.00 67.61 68.64 69.52 67.96 66.65 64.82 65.63 64.10 64.16 63.35 65.57 64.48 63.07 60.05 60.12
70.80 71.11 71.28 71.68 71.46 72.15 72.99 72.98 72.58 71.79 71.53 71.45 72.07 71.79 70.97 72.35 66.10 66.57 68.69 73.70 73.02 72.85 72.80 72.60 72.40 73.05 70.59 72.34 68.07 66.48 66.61 65.58 67.88 69.20 66.28 66.73 65.52 66.47 65.62 63.42 64.67 63.62 63.28
71.04 71.42 72.14 72.33 72.25 72.43 72.52 72.96 73.19 73.33 72.46 72.01 71.39 71.64 72.13 72.36 65.35 64.32 66.75 72.87 73.61 73.39 73.37 73.17 72.92 72.81 72.28 71.49 72.03 71.40 69.88 69.95 68.19 68.17 70.19 70.21 68.88 68.83 66.37 66.25 64.98 65.45 64.89
70.17 71.24 71.99 72.69 72.26 72.72 72.67 72.74 73.36 73.59 73.58 73.32 73.37 72.13 71.84 72.55 63.08 62.89 65.03 71.89 72.92 73.22 73.65 73.79 73.77 73.37 69.29 64.70 71.20 71.40 71.51 71.72 67.87 64.28 64.61 65.34 64.47 63.46 65.25 66.00 64.36 62.41 62.58
69.50 71.18 72.21 72.78 72.96 72.75 73.49 73.57 73.69 74.02 73.74 74.24 74.26 74.46 70.94 73.00 64.18 60.89 63.64 72.18 71.87 72.40 73.34 74.02 66.79 71.14 65.03 62.41 69.88 71.52 71.05 71.81 72.40 72.05 69.88 66.06 64.09 66.37 62.59 65.37 67.01 64.55 63.76
69.18 69.77 70.71 73.02 73.11 73.77 73.88 74.13 74.22 73.84 74.24 73.99 73.99 74.59 74.94 73.61 73.22 60.29 59.44 72.16 72.87 72.85 72.90 73.35 74.17 63.54 60.59 59.49 61.05 73.25 72.16 72.63 72.13 72.23 72.87 72.45 72.11 70.30 69.33 68.56 66.73 66.84 65.44
69.85 69.39 69.38 70.44 72.20 73.54 73.51 73.81 73.99 73.82 73.58 73.43 73.47 73.65 74.47 74.89 66.10 60.68 59.01 60.88 69.55 73.72 73.54 74.32 73.76 62.25 58.16 58.28 60.31 63.85 61.66 63.33 72.48 73.03 73.02 73.07 72.71 72.03 70.79 69.94 69.31 67.46 68.56
68.73 69.37 70.44 71.27 71.71 71.93 72.60 72.68 72.85 73.15 72.95 72.83 73.00 72.73 73.19 74.03 74.30 61.25 58.71 58.83 60.43 70.31 75.13 72.07 64.69 59.13 57.32 57.98 57.36 59.02 58.91 68.05 70.06 71.30 71.77 72.42 73.36 74.21 74.41 72.08 69.82 69.22 68.60
71.14 69.96 69.41 69.75 70.52 71.32 72.10 72.40 72.32 72.40 72.58 72.58 72.48 72.60 73.08 73.01 74.08 74.09 67.28 64.63 60.82 64.08 66.67 70.62 68.09 64.51 62.52 65.55 65.01 62.59 63.39 66.97 68.61 69.94 70.92 72.06 73.01 72.95 73.10 71.93 69.49 68.16 67.23
69.44 69.98 70.61 70.93 68.72 69.58 64.79 64.09 71.03 72.15 69.65 72.97 73.27 73.46 73.10 72.66 73.58 68.57 69.76 72.84 71.46 67.80 68.39 70.15 70.51 71.37 72.21 72.77 72.43 70.51 67.96 67.12 66.69 68.16 68.97 69.83 70.15 70.67 70.71 71.68 69.83 68.14 66.53
66.55 67.62 67.08 68.43 70.62 68.75 62.50 57.68 48.65 47.07 45.39 46.75 52.18 66.21 65.53 55.99 55.08 53.45 52.00 52.73 53.27 53.45 66.84 69.31 69.95 69.63 69.88 69.59 69.25 69.92 69.27 67.52 68.50 68.32 68.16 68.16 67.96 68.30 68.82 69.22 69.63 67.78 66.51
64.96 66.12 66.50 64.68 69.02 67.37 64.04 63.03 60.46 54.32 47.11 44.03 43.48 49.10 52.73 53.27 46.20 45.29 45.29 46.56 48.20 55.27 68.32 66.03 65.81 65.92 65.86 66.08 67.28 68.91 69.61 69.36 68.32 67.30 66.78 67.25 65.83 63.51 63.51 63.08 63.80 63.71 61.32
65.70 60.34 65.98 66.43 67.33 70.33 66.73 64.88 61.40 60.39 61.27 58.32 50.01 46.38 43.66 44.03 44.75 44.03 45.11 52.55 61.91 60.84 64.11 63.89 64.45 64.95 64.77 65.31 63.71 62.85 63.03 62.98 63.19 63.82 64.34 63.74 62.78 62.72 60.74 62.19 61.42 60.82 60.07
65.82 65.46 64.90 65.01 64.42 65.47 70.72 64.34 62.90 61.01 59.91 58.31 57.98 53.43 48.36 43.84 44.21 44.39 45.66 62.94 62.68 62.21 63.02 61.70 59.33 59.13 59.11 58.90 58.86 59.13 59.35 61.53 61.98 63.59 63.35 62.76 61.23 57.56 58.54 58.04 58.32 54.72 56.51
65.15 62.69 62.26 64.08 63.79 64.05 66.78 65.78 64.96 61.68 60.06 59.62 59.85 59.09 57.78 56.91 59.04 59.44 59.67 59.65 58.20 57.42 56.94 56.80 56.88 57.44 57.74 57.60 57.30 57.52 60.22 61.38 61.40 61.50 62.69 62.12 59.36 59.22 58.40 59.95 60.03 60.28 59.35
64.68 64.74 62.61 63.99 63.72 63.47 63.57 64.58 64.68 62.28 61.86 61.51 60.59 58.48 50.91 60.16 59.26 58.71 57.60 56.68 57.06 57.18 57.34 57.78 58.04 58.12 58.44 58.67 58.95 61.85 61.88 62.16 59.17 59.27 58.65 58.84 60.55 61.50 61.63 61.07 60.61 60.31 59.27
63.92 64.51 63.44 62.98 61.96 61.51 61.11 62.20 62.05 61.68 60.05 59.47 58.35 54.50 47.47 60.46 59.50 58.34 57.22 57.64 58.55 58.62 59.43 58.83 58.54 58.97 59.25 60.06 61.12 60.56 61.92 60.81 60.51 60.25 61.20 62.20 62.33 62.21 62.01 61.62 60.24 59.19 57.33
61.86 63.06 61.99 60.85 60.12 57.84 59.37 59.31 58.92 58.74 58.54 58.68 59.29 58.42 56.84 55.42 55.10 54.66 53.96 54.21 54.64 53.00 54.76 57.28 58.04 58.28 60.86 60.92 60.33 60.24 61.00 60.26 61.06 63.12 62.78 62.44 61.78 61.60 61.02 60.15 59.68 58.95 56.62
60.67 61.49 61.15 60.19 60.00 59.98 59.47 58.28 56.46 53.26 56.26 55.76 54.61 53.19 51.97 51.26 51.30 50.80 50.79 49.91 48.91 48.60 48.85 48.49 47.63 45.66 47.52 49.04 50.74 51.73 55.36 51.49 55.24 60.56 62.97 61.86 60.09 56.47 60.31 58.30 58.35 57.83 54.65
57.00 58.02 59.10 59.11 58.54 57.31 56.71 55.90 54.91 53.90 52.37 51.39 50.31 49.75 49.71 49.30 49.04 48.70 47.79 47.70 47.23 46.91 46.57 45.83 43.14 41.89 43.14 42.51 40.97 39.55 36.23 33.25 38.66 43.29 60.01 60.89 60.47 58.52 57.54 56.72 54.61 54.26 52.60
51.01 51.96 51.60 51.12 50.48 50.64 50.42 49.16 48.22 47.82 47.20 46.91 46.66 46.56 46.59 46.22 46.40 46.59 47.05 47.28 47.12 46.71 46.31 45.85 44.96 43.38 41.15 40.71 38.74 36.06 32.56 33.24 36.79 34.75 56.11 60.33 59.99 59.23 58.46 57.01 55.41 54.81 53.51

GFSGL_sfc_wetblb_054.txt.gz
Wetbulb
69.18 69.46 69.68 69.86 70.13 70.25 69.64 69.60 69.59 69.14 69.54 71.21 71.93 72.35 72.79 73.20 73.62 73.47 73.65 73.69 72.97 73.31 72.91 71.80 71.40 71.45 70.90 69.81 68.32 67.51 65.27 64.05 63.25 65.00 64.64 67.43 68.15 68.51 68.98 69.66 68.75 68.25 68.16
69.58 69.78 69.85 70.37 70.50 70.13 70.19 69.98 70.22 69.53 69.44 70.54 71.78 72.04 72.83 73.66 73.67 73.40 73.32 73.70 73.16 72.98 73.17 73.08 72.79 72.22 71.69 71.58 69.89 68.76 67.28 65.83 64.73 64.61 65.53 66.17 67.16 68.72 68.70 68.63 68.56 68.06 67.83
70.01 69.79 69.94 70.10 70.25 70.15 70.32 70.68 70.79 70.77 70.54 70.07 70.77 71.39 72.04 73.28 73.81 73.76 73.68 73.45 73.37 73.44 73.57 73.33 73.27 73.41 72.90 72.23 71.07 69.86 68.64 67.58 65.68 64.48 65.43 65.31 66.85 67.43 67.30 67.37 67.92 68.57 68.34
69.68 70.01 69.76 70.00 70.47 70.82 71.33 71.45 70.59 70.66 70.71 71.02 70.88 71.41 72.25 72.90 73.67 73.94 73.83 73.71 73.39 73.35 73.98 73.70 73.68 73.47 73.36 73.43 72.68 72.08 70.94 69.23 67.36 66.23 66.48 66.12 66.39 67.76 66.77 66.58 66.10 66.24 66.85
68.88 69.67 69.74 70.49 70.79 71.01 71.37 72.22 72.57 71.19 70.81 70.91 70.92 71.41 72.02 72.67 73.33 73.56 73.94 73.61 73.50 73.24 73.57 73.80 74.13 73.50 71.26 71.76 73.29 73.04 72.65 70.20 69.69 67.01 67.26 66.93 66.54 66.41 65.98 68.28 65.73 67.68 67.59
68.80 69.02 70.28 70.77 70.91 70.76 70.67 70.56 71.41 72.54 72.47 72.02 71.15 71.41 71.70 72.10 67.88 67.48 71.98 73.61 73.64 73.26 72.80 73.31 73.90 71.71 71.24 68.04 67.66 68.63 71.92 71.78 70.85 69.90 69.08 68.73 69.03 69.03 68.70 67.15 66.05 65.77 64.68
69.40 69.70 69.91 70.45 71.01 71.25 71.70 71.42 70.66 70.45 71.85 72.17 72.20 72.05 71.56 72.42 65.65 65.68 67.77 73.61 73.61 73.70 73.72 73.58 73.56 73.79 71.55 73.85 68.99 66.52 66.90 66.01 68.40 72.64 70.31 69.98 69.79 70.79 70.00 68.52 67.12 66.51 66.26
69.49 69.74 70.47 70.68 70.68 71.64 71.93 71.84 71.98 71.74 70.99 71.24 72.02 72.39 71.59 71.70 64.74 63.87 66.28 72.85 73.54 73.96 74.03 74.13 74.06 74.01 73.95 73.34 73.62 73.34 72.58 72.11 70.65 70.27 71.92 72.94 73.45 73.40 72.50 70.97 69.61 68.08 67.50
69.69 70.03 70.65 71.21 71.06 71.49 71.65 72.32 72.87 72.82 72.57 71.99 72.00 72.19 72.33 72.62 62.85 62.55 64.80 72.23 73.18 73.45 74.33 74.76 74.48 74.23 69.32 64.53 72.99 72.75 73.02 73.48 68.63 64.62 65.23 65.48 64.59 63.97 66.80 71.64 68.75 65.21 64.00
70.27 70.82 71.80 72.15 72.09 71.87 72.04 72.27 73.24 73.56 73.56 73.78 73.30 73.37 69.58 72.50 63.63 60.72 63.50 72.00 71.91 72.62 73.81 74.53 66.70 71.79 65.04 62.30 71.34 72.97 72.18 72.98 74.08 74.41 73.03 68.10 65.43 68.09 63.54 66.95 68.84 67.35 66.11
70.88 71.94 72.32 72.96 72.58 73.13 73.34 73.59 73.37 73.46 73.75 73.87 74.12 74.44 74.61 72.26 72.27 59.84 58.86 71.79 72.49 72.52 72.74 73.31 74.41 63.27 60.31 59.54 60.75 73.90 72.74 73.71 73.18 73.46 74.41 74.52 74.01 73.46 72.36 70.44 69.08 68.81 68.25
69.81 70.97 71.87 72.54 73.25 73.43 73.26 73.64 74.19 73.73 73.42 73.47 73.60 73.90 74.88 75.50 65.60 61.58 58.55 59.76 68.39 73.11 73.36 74.38 74.28 62.05 58.33 57.63 59.48 63.03 61.52 62.24 72.19 72.96 73.02 73.02 73.41 74.08 74.88 74.26 72.26 70.48 69.90
69.12 69.42 69.95 72.06 72.89 73.44 73.37 73.63 73.44 73.91 73.49 73.42 73.25 73.56 73.92 75.33 75.56 61.27 58.55 58.35 59.25 69.40 74.79 71.70 64.74 58.75 57.12 58.64 57.54 58.61 58.27 67.46 69.20 69.95 70.98 71.92 73.37 74.58 74.76 74.49 74.82 71.81 70.65
70.16 70.33 71.21 70.48 70.57 71.98 73.20 73.65 73.51 73.43 73.17 73.33 73.34 73.27 73.71 74.12 74.67 74.78 70.12 65.55 60.32 63.70 65.49 70.14 67.57 64.92 63.10 66.44 66.67 63.78 64.13 66.65 68.09 69.67 70.64 72.14 73.09 72.54 72.09 72.63 71.89 71.30 68.77
70.41 71.24 71.93 71.84 70.58 72.04 71.15 69.18 72.72 73.54 70.36 73.31 73.44 73.59 73.49 73.17 73.61 68.67 69.31 73.10 72.47 69.02 68.81 71.89 71.26 71.75 72.23 73.23 73.37 72.66 71.67 69.22 67.68 68.68 69.27 69.76 69.92 69.95 70.24 72.32 70.91 70.37 68.00
67.41 68.24 67.91 69.65 72.19 70.12 65.53 60.99 49.02 49.16 47.33 47.15 48.60 61.55 73.04 58.80 57.30 53.50 52.05 52.41 53.13 54.04 67.89 71.23 71.08 71.23 70.87 71.84 72.41 72.35 72.58 68.79 69.63 69.47 69.13 69.11 68.70 68.79 68.81 68.09 67.31 66.52 66.00
67.22 67.89 67.97 66.21 69.10 68.93 67.17 65.19 64.36 56.64 45.48 43.87 44.07 48.42 50.78 58.55 52.41 50.23 47.70 47.88 48.96 53.13 71.51 71.33 70.19 70.71 71.31 70.57 70.47 70.72 70.26 69.79 70.10 69.49 68.81 67.42 67.73 67.22 64.50 64.58 65.30 65.36 63.64
67.19 57.26 67.19 67.10 68.02 69.59 69.29 67.64 66.57 65.12 64.89 64.14 48.20 47.68 43.85 44.61 43.89 43.34 44.07 52.21 63.54 61.73 67.75 67.78 67.94 67.60 67.78 68.50 67.62 66.95 66.84 66.41 66.19 66.50 66.06 66.19 66.48 64.15 64.21 64.32 64.39 63.94 63.38
66.17 67.17 66.89 67.01 67.13 65.17 70.28 68.50 66.61 65.61 65.72 63.33 59.48 52.33 46.48 42.98 43.34 43.53 44.98 65.62 66.02 65.18 65.09 64.44 63.67 64.95 65.20 64.91 64.55 64.22 64.02 63.49 63.03 64.26 65.16 65.78 64.82 63.36 63.71 63.14 63.05 55.59 57.86
65.05 62.05 62.20 67.08 67.13 67.30 68.68 67.26 65.73 65.00 63.59 62.55 62.54 61.28 58.91 58.34 61.86 61.63 62.32 62.24 62.07 62.18 62.18 63.11 62.84 62.69 63.06 63.22 63.29 63.13 62.85 62.36 63.00 63.09 63.12 64.23 65.07 63.24 62.81 62.36 63.60 61.73 62.40
61.00 65.30 62.25 66.18 66.23 66.68 66.75 67.08 66.77 63.36 62.62 62.60 61.74 60.13 50.05 62.36 60.65 60.56 60.00 60.41 60.67 60.54 61.95 62.63 62.86 63.19 63.70 63.80 63.23 62.95 62.95 63.60 63.42 64.17 63.78 64.47 64.25 63.74 64.54 64.05 63.23 62.85 61.92
58.74 61.87 65.40 65.62 65.34 64.81 65.17 65.32 64.94 63.85 62.46 61.48 59.14 55.16 50.23 61.74 59.87 58.88 57.94 58.52 59.42 59.56 59.42 62.37 62.82 62.29 62.79 62.74 62.54 63.14 63.46 63.35 63.72 64.31 64.74 64.87 64.92 64.60 64.61 63.88 62.18 60.88 60.67
57.88 60.91 63.86 64.95 64.04 59.13 61.94 62.27 61.87 61.66 61.04 60.96 59.70 57.42 56.83 56.84 56.20 54.95 53.37 52.60 51.46 51.41 51.07 51.50 51.38 51.95 51.26 52.38 52.76 54.14 59.66 60.58 61.80 63.73 64.14 64.30 64.24 64.33 62.89 62.26 61.26 60.12 59.41
57.99 61.01 63.21 63.49 62.20 62.14 61.47 60.08 58.98 54.76 57.94 56.61 55.03 53.55 53.31 53.31 52.07 50.93 49.91 49.15 48.93 48.12 47.19 46.09 45.74 45.41 45.89 45.86 45.52 45.57 47.09 45.90 47.62 56.69 61.93 64.21 63.82 60.12 62.44 61.54 61.32 60.72 58.89
55.86 58.61 60.04 60.24 59.91 58.84 57.47 56.93 55.27 53.64 52.21 51.38 50.31 50.19 50.40 50.43 49.46 48.82 48.39 48.34 48.23 47.97 47.36 47.02 45.95 45.13 45.42 45.09 44.31 43.86 38.35 33.33 41.42 40.52 51.89 62.81 65.51 63.55 62.57 61.94 60.36 61.53 58.04
49.73 49.17 48.66 48.61 48.38 48.38 47.64 46.87 46.26 46.23 45.73 45.26 45.35 45.91 46.58 46.25 46.67 46.51 47.03 47.01 46.73 46.33 46.12 45.74 45.54 44.55 44.43 43.63 40.90 36.49 32.62 34.06 39.75 34.74 53.44 61.86 63.97 64.33 63.94 63.22 62.40 61.11 60.84

GFSGL_sfc_wetblb_057.txt.gz
Wetbulb
73.27 73.49 73.71 73.90 73.93 74.28 74.17 74.50 75.38 74.93 74.97 75.09 75.67 75.95 76.31 76.48 77.06 77.20 76.96 77.09 76.72 76.91 76.97 76.20 76.13 76.64 75.20 74.99 73.78 73.01 71.49 70.62 68.16 70.03 71.32 72.74 72.99 73.71 73.96 74.02 73.54 73.49 72.80
73.52 73.68 73.48 73.90 74.34 73.63 74.16 74.34 75.55 75.52 74.84 75.06 75.62 75.92 76.18 76.06 76.56 76.45 76.13 75.81 76.10 76.45 76.92 76.83 76.12 75.83 76.50 76.68 75.16 74.79 73.74 73.45 70.64 71.56 72.58 71.65 73.06 74.88 74.60 74.23 73.25 72.71 72.93
73.38 72.65 73.04 73.13 73.38 74.14 74.43 74.62 75.07 75.21 75.21 74.47 74.87 75.39 75.51 75.75 76.17 76.39 76.35 76.28 76.31 76.62 77.01 77.00 76.92 76.90 76.24 75.79 76.03 75.25 74.86 74.54 73.41 71.27 71.24 72.48 72.06 72.21 72.90 73.81 73.21 74.07 73.16
72.62 72.43 73.24 73.71 74.01 74.04 75.16 75.23 74.67 75.39 75.09 74.94 75.03 75.31 75.37 75.69 75.97 76.00 76.18 76.36 76.39 76.67 77.12 77.29 77.29 77.12 76.73 76.86 76.37 76.32 75.97 75.06 75.18 73.26 72.38 72.49 73.05 74.77 72.64 70.72 70.71 72.31 71.77
72.96 73.06 73.20 74.23 74.62 75.01 75.06 75.34 75.15 75.50 75.57 75.91 75.27 75.04 75.31 74.87 74.72 75.84 75.75 76.15 76.28 76.45 76.82 77.23 77.48 76.19 72.40 73.98 76.33 77.62 77.49 75.11 73.97 72.72 71.98 71.70 71.59 71.59 71.50 71.93 71.10 71.79 73.02
73.18 73.14 74.12 74.48 74.76 74.78 75.17 75.25 75.63 75.25 75.34 75.60 74.79 74.99 74.92 74.33 68.18 67.19 73.47 75.66 76.59 76.46 76.13 76.79 77.18 73.82 73.07 68.37 67.84 68.76 74.01 76.73 75.24 73.76 73.14 72.86 75.30 74.37 74.29 73.26 72.65 71.53 70.41
72.99 73.74 74.33 74.61 74.53 74.70 75.33 75.43 75.61 75.74 75.04 74.67 74.56 74.94 75.31 76.24 65.42 65.05 67.55 75.11 75.95 76.70 76.92 76.62 76.37 76.30 73.99 76.67 70.48 66.57 67.04 66.10 68.29 75.89 75.68 75.83 75.91 76.98 77.16 75.52 75.07 73.93 72.66
72.95 73.39 74.27 74.60 74.37 74.86 75.05 74.87 75.22 75.42 75.98 75.70 75.47 75.92 75.58 76.00 65.10 63.44 65.47 73.95 75.90 76.84 77.12 77.29 77.50 77.62 77.62 76.22 76.54 76.51 76.98 77.01 75.33 73.65 75.05 76.03 77.68 78.62 78.51 77.52 77.09 76.16 75.02
72.88 73.18 73.79 74.44 74.53 74.90 74.69 74.97 75.34 74.69 74.64 74.82 75.14 75.44 75.53 76.20 63.33 62.57 65.61 74.07 74.87 76.23 76.93 77.60 77.54 77.36 71.19 65.36 75.62 75.89 77.00 77.26 71.55 65.96 66.72 66.21 64.81 64.36 67.85 73.72 71.06 70.39 69.03
73.30 73.73 74.49 74.61 74.62 74.59 75.18 75.63 76.17 75.82 74.87 74.78 74.53 75.57 71.84 76.20 65.27 60.61 64.36 73.70 74.53 74.06 76.63 77.50 67.55 73.19 65.65 62.40 74.81 75.38 75.68 75.81 76.68 77.43 77.73 71.42 66.99 71.37 64.44 70.09 71.68 69.47 69.90
74.11 73.94 74.96 75.35 75.44 75.74 76.04 76.42 75.85 75.58 75.97 75.84 75.44 76.21 76.00 74.44 74.88 60.15 58.75 73.63 74.09 74.46 74.43 74.82 75.96 63.04 60.75 59.89 60.89 76.46 75.66 75.67 74.85 76.79 76.78 76.53 76.61 76.69 76.81 77.23 72.73 70.60 69.33
75.29 74.56 75.33 75.82 74.81 74.89 76.37 75.88 76.33 76.26 75.94 76.01 76.03 75.82 76.56 77.05 66.72 62.42 58.22 59.98 69.68 75.06 75.40 76.40 76.68 62.14 58.26 57.41 60.35 63.47 61.65 63.40 74.40 74.79 74.65 74.06 74.54 75.11 76.41 76.68 76.00 73.37 71.56
75.31 75.61 75.46 76.15 75.80 77.01 76.29 75.83 74.90 75.86 75.03 74.90 74.93 75.04 75.54 77.00 77.48 61.32 57.96 57.21 59.07 71.19 76.18 72.65 64.79 59.06 57.05 60.01 57.78 59.16 58.26 68.32 69.69 70.46 71.38 72.78 74.61 75.80 75.27 74.71 75.18 75.36 76.00
74.35 75.13 75.36 75.16 74.91 76.33 75.76 75.64 75.25 75.14 74.72 74.86 75.08 75.19 75.76 76.66 77.34 78.09 74.53 69.45 60.16 64.37 66.32 72.17 70.57 65.74 63.83 68.41 70.06 65.83 69.06 71.21 70.59 71.91 73.08 72.42 73.78 73.30 73.07 73.61 72.50 72.85 72.45
73.66 73.57 73.72 73.90 74.26 75.23 75.92 74.67 75.51 77.03 73.02 75.61 75.80 76.31 75.89 75.95 76.50 71.27 72.38 77.24 76.29 71.61 71.05 75.14 74.03 74.02 74.36 74.87 74.37 73.85 73.45 70.80 68.65 69.04 69.85 70.62 71.78 71.90 71.57 71.99 71.64 70.35 68.18
72.08 73.25 71.48 75.09 72.97 74.18 74.15 69.47 49.29 50.65 48.89 49.08 50.34 63.64 76.07 62.61 56.61 54.15 52.52 52.88 54.15 54.51 70.76 73.90 73.85 74.37 73.78 73.78 73.66 73.75 73.63 70.64 73.03 73.77 73.69 72.00 70.89 70.40 70.41 69.74 69.23 68.05 65.93
70.84 70.77 68.79 68.35 74.25 72.40 72.29 72.63 71.91 60.99 46.86 45.45 44.72 47.62 49.44 53.96 53.79 49.62 48.17 47.62 49.44 53.79 72.57 73.51 73.64 73.66 73.17 72.99 72.96 73.13 73.23 74.26 74.01 72.67 72.72 71.56 70.69 69.17 67.97 67.50 67.47 66.52 66.66
69.60 58.78 69.06 70.13 71.83 73.47 72.38 71.74 72.29 73.17 72.55 71.91 50.02 48.53 45.79 46.17 47.81 47.26 45.63 53.21 65.47 59.79 71.72 73.71 72.83 72.80 71.31 71.47 71.18 70.92 72.26 72.01 71.21 70.82 70.22 69.13 68.60 68.25 66.99 66.87 66.91 66.53 65.88
66.25 69.73 71.08 71.60 72.11 70.80 73.84 73.44 73.62 73.67 73.71 73.51 66.97 55.87 48.86 42.01 42.19 42.73 45.09 70.39 72.82 71.06 69.38 67.48 67.57 67.88 68.26 68.46 69.79 70.52 70.06 69.34 67.89 67.21 67.30 67.25 67.25 66.32 66.64 66.81 66.76 57.83 60.03
62.80 60.52 63.42 70.42 71.50 72.69 73.98 72.47 71.07 70.86 71.49 71.97 71.38 70.99 61.78 59.24 67.22 66.43 67.95 67.50 67.53 66.61 65.91 65.96 65.88 65.89 66.39 68.38 68.19 68.20 67.21 66.23 66.80 65.87 65.65 65.37 65.29 66.58 66.56 66.54 66.02 64.90 63.98
60.39 62.71 61.09 68.97 70.15 70.33 71.28 72.48 71.71 69.94 68.47 68.67 70.67 66.40 51.58 68.45 68.62 67.99 66.89 66.35 64.62 63.99 64.61 65.27 65.80 66.57 67.64 67.24 66.58 66.50 66.44 66.51 66.44 65.58 64.94 65.17 66.85 65.91 66.24 66.60 66.16 65.46 65.19
58.87 60.81 64.03 66.07 68.90 69.39 69.75 71.09 70.99 69.68 68.31 67.53 62.68 59.86 48.71 65.02 66.22 65.03 63.26 62.30 61.36 60.45 62.02 65.87 64.59 63.17 62.03 63.28 64.50 64.92 64.82 65.23 65.40 64.96 64.85 65.96 66.79 66.14 65.95 66.02 65.94 64.73 64.48
57.70 59.02 62.82 64.96 66.84 64.21 68.15 69.58 69.78 69.28 67.62 66.76 63.20 62.34 63.09 62.01 62.35 61.02 58.65 57.88 56.76 56.48 55.90 56.81 58.21 55.72 52.64 51.76 51.71 53.78 58.16 61.31 62.11 63.68 64.83 65.52 65.51 65.43 65.55 65.12 65.77 64.74 64.17
56.94 58.19 62.82 64.82 66.12 67.22 67.91 68.06 67.78 59.65 65.75 64.93 63.28 62.86 62.42 60.73 57.02 56.86 57.39 56.18 54.40 52.11 51.29 50.34 49.84 49.22 49.79 48.69 50.19 51.13 51.07 53.53 55.79 61.14 65.01 65.45 64.93 62.54 64.74 64.39 64.99 64.37 63.90
53.22 52.85 51.87 53.63 59.16 62.09 61.50 61.59 60.46 58.56 57.07 56.03 55.05 55.17 54.52 54.09 53.04 52.81 52.88 51.36 50.59 50.12 49.91 49.45 49.30 49.69 49.86 51.24 51.92 50.85 40.59 33.83 42.87 41.45 57.25 62.86 65.99 65.92 64.66 64.55 64.12 62.99 63.06
47.19 46.65 46.35 45.81 45.07 45.33 45.84 45.77 45.92 47.20 47.36 47.63 47.93 48.19 48.97 48.96 49.22 49.83 50.78 50.74 49.06 48.75 50.24 51.39 51.20 51.95 51.46 49.88 45.98 36.87 32.28 33.44 44.69 34.38 54.80 64.43 65.94 65.72 65.93 65.46 65.10 63.84 62.61

GFSGL_sfc_wetblb_060.txt.gz
Wetbulb
75.56 76.44 76.41 75.91 76.10 76.51 76.06 76.58 76.90 77.01 77.27 77.12 76.63 76.32 76.31 77.30 78.19 78.42 78.32 77.72 77.99 78.36 78.18 77.33 77.43 78.33 76.14 75.14 74.80 74.06 73.08 72.31 69.80 70.87 72.16 74.93 76.51 75.87 75.96 76.37 75.81 75.74 74.73
76.20 77.19 76.34 76.67 76.76 75.55 76.11 76.66 77.32 77.11 77.42 77.45 77.44 76.68 76.13 76.62 77.75 77.84 77.33 76.85 77.05 77.20 77.73 77.72 77.38 76.69 77.66 77.79 75.97 76.96 75.59 76.09 72.27 74.20 74.39 73.03 75.97 77.84 77.11 76.08 75.42 74.76 74.67
75.63 74.92 75.27 75.42 75.43 76.26 76.68 76.78 77.57 77.04 77.44 77.21 77.24 76.99 76.49 76.31 77.08 77.86 77.74 77.39 77.02 77.11 77.39 77.78 77.81 78.22 77.66 77.11 77.15 75.91 75.73 75.83 76.22 74.30 73.64 74.46 74.61 75.66 76.33 77.72 77.32 76.92 75.36
74.65 74.51 75.56 75.78 76.05 75.84 77.52 77.72 76.87 78.11 77.37 77.32 77.50 77.16 76.98 76.63 76.28 76.68 77.11 77.35 77.17 77.07 77.85 78.07 78.35 78.30 78.40 78.63 78.18 78.21 77.88 76.78 76.44 74.44 73.32 73.22 73.65 75.89 74.69 73.27 73.14 74.49 73.79
76.29 74.47 75.67 77.30 77.43 77.34 77.80 78.09 77.84 77.99 77.31 77.60 77.46 77.41 77.27 76.56 75.30 76.37 76.43 76.31 76.94 77.08 77.53 78.26 78.48 77.46 73.24 74.91 77.86 79.81 80.44 77.37 75.11 73.90 72.96 72.98 72.74 72.94 73.95 73.90 73.76 74.72 76.44
76.99 75.96 77.10 77.78 77.91 77.99 78.36 78.40 78.74 78.48 77.99 77.86 77.22 77.26 76.77 76.14 68.66 66.81 72.91 75.38 76.41 76.69 76.89 77.81 78.58 74.93 74.16 69.19 68.38 68.63 72.88 78.54 78.81 75.46 74.24 73.68 77.75 76.97 76.20 75.57 74.87 74.24 73.73
76.94 76.98 77.53 78.03 77.92 78.04 78.41 78.63 78.57 78.35 78.17 77.82 77.28 77.30 77.60 78.13 65.98 64.84 67.24 74.94 75.29 76.95 78.40 77.60 77.03 76.49 75.25 77.94 70.70 67.53 68.22 66.69 68.02 75.99 76.98 77.56 77.65 79.12 79.77 79.18 77.76 77.18 76.06
77.16 77.25 77.76 78.11 77.75 78.29 78.41 78.57 78.84 78.12 78.04 77.82 77.33 78.34 78.30 78.05 65.21 63.67 65.64 75.35 76.53 77.61 78.32 78.10 79.00 78.73 78.32 76.89 77.47 77.34 77.53 78.38 77.31 75.37 76.06 76.38 77.37 78.23 79.02 78.48 79.19 78.02 77.51
76.78 77.05 77.71 78.11 77.61 77.67 77.59 78.06 78.26 77.42 77.70 77.72 77.35 77.87 78.24 78.23 63.72 62.83 66.33 75.43 75.38 77.42 77.53 78.56 78.85 78.99 72.28 65.89 76.70 76.86 77.49 77.87 71.81 65.31 66.78 66.90 66.25 65.69 69.35 75.59 73.12 73.28 72.92
76.32 76.89 78.03 78.44 78.19 77.79 77.98 78.21 78.52 77.38 76.93 76.98 77.10 78.24 73.73 78.39 65.75 61.04 66.10 75.31 75.67 74.92 78.08 79.26 68.06 73.62 65.90 62.60 76.53 76.56 76.70 75.87 76.54 77.72 78.70 73.50 67.05 71.52 64.69 73.37 75.78 73.52 73.42
75.81 76.01 77.53 77.93 78.48 78.57 79.07 78.74 78.24 77.54 77.77 77.96 77.30 78.41 78.84 76.83 76.87 59.92 59.09 75.66 74.92 74.90 74.77 74.93 76.07 63.43 61.96 60.99 60.75 77.12 75.91 75.50 75.17 77.94 78.30 78.87 79.04 79.33 78.95 79.25 79.65 78.41 73.75
77.02 76.35 77.80 78.33 76.70 76.73 79.12 78.48 78.18 78.21 77.89 78.30 77.60 77.23 77.22 78.14 66.83 61.13 58.11 60.94 69.82 75.77 75.94 76.06 77.37 60.61 57.44 58.05 61.85 64.27 61.17 64.28 75.89 75.36 76.22 76.51 77.02 77.59 77.84 78.83 79.72 77.43 74.54
77.14 77.39 77.32 77.21 76.88 78.46 77.26 77.40 76.50 77.65 76.61 76.21 76.09 76.03 76.59 77.94 78.61 61.93 57.61 57.61 60.19 72.23 77.01 73.05 62.74 58.96 55.26 59.72 57.27 59.43 58.85 74.31 75.66 75.31 75.11 75.66 75.34 76.60 77.91 76.25 75.93 76.57 76.55
76.66 76.98 76.84 76.44 76.33 77.04 77.11 77.24 76.61 76.21 75.97 76.03 76.13 76.21 76.78 77.68 78.40 79.49 75.94 69.28 60.46 65.96 68.48 73.60 71.89 67.14 63.17 68.47 71.32 70.09 75.03 76.53 76.17 75.04 74.27 75.06 76.32 75.02 73.73 74.94 73.54 73.37 73.65
76.05 76.27 76.56 76.63 76.37 76.92 77.76 76.55 77.11 78.67 73.82 76.83 76.90 77.45 77.08 77.12 77.72 72.25 73.65 79.26 78.10 72.95 73.25 76.61 76.61 76.16 75.52 75.60 76.18 77.56 77.82 77.33 74.99 75.31 73.81 72.20 72.10 72.58 74.14 73.84 72.01 73.15 70.62
74.81 75.15 75.19 75.78 76.45 76.69 76.69 75.53 50.64 53.25 50.94 52.03 52.58 63.78 77.72 65.17 60.33 56.81 56.93 56.20 53.48 55.09 73.75 76.53 76.17 74.59 74.49 74.90 75.92 75.76 76.42 73.41 74.41 72.98 72.03 73.16 73.76 73.57 72.84 73.10 72.41 70.59 69.39
73.21 74.98 75.30 74.73 75.49 75.77 75.87 75.78 74.07 64.06 49.11 47.32 49.31 49.49 51.13 53.73 52.39 50.94 47.50 48.04 50.58 57.95 75.64 76.43 76.61 77.24 77.06 76.30 75.84 75.89 75.16 75.34 75.40 74.32 74.99 74.01 73.30 72.23 71.24 71.03 70.21 70.15 68.97
68.96 59.74 72.93 72.84 72.82 71.98 72.98 72.48 74.14 74.43 74.04 74.79 52.48 53.43 47.37 46.77 47.50 48.04 47.68 53.94 69.86 63.50 73.88 74.94 75.61 76.10 75.26 74.44 75.13 74.78 74.36 73.86 73.05 73.41 73.85 73.06 72.30 71.17 70.37 69.50 69.51 68.92 68.83
70.13 70.27 70.55 73.55 73.22 71.07 71.76 71.84 73.10 73.49 74.57 75.90 77.18 57.99 50.59 42.01 43.87 44.24 44.60 75.34 76.24 75.73 73.97 74.21 73.71 71.96 72.29 73.02 72.82 72.28 72.40 72.83 73.05 73.46 72.01 71.41 70.74 70.00 69.41 69.29 69.11 60.56 61.34
67.02 61.55 63.59 69.60 70.22 72.83 73.50 72.87 72.90 73.42 74.52 75.25 75.40 75.74 68.58 62.01 67.93 67.67 66.00 69.53 72.27 75.91 76.00 73.86 71.99 70.48 72.76 70.34 70.65 71.23 71.51 70.69 70.43 69.66 69.44 69.25 69.27 69.31 68.81 69.11 68.89 67.40 64.51
63.22 65.27 60.97 70.61 71.90 72.17 72.95 72.80 73.45 72.60 72.35 75.37 75.11 69.86 54.33 74.64 74.09 71.31 70.63 72.32 73.06 73.31 72.75 73.02 72.61 71.62 70.86 71.41 71.58 71.13 70.37 69.84 69.69 69.32 69.13 68.43 68.79 68.36 68.42 68.12 66.55 66.23 65.84
61.95 63.12 65.51 68.49 71.42 71.19 70.97 70.64 71.45 72.60 73.14 74.05 74.02 67.23 50.56 71.64 73.51 72.57 71.51 69.80 66.58 66.63 65.89 67.73 68.40 67.09 65.41 66.93 68.25 68.74 68.79 68.37 68.88 68.64 67.61 67.30 67.73 66.80 66.69 66.17 66.06 65.83 65.42
61.47 61.71 63.38 65.50 66.98 65.07 69.98 69.63 69.97 70.77 70.94 72.06 72.95 69.89 69.12 70.32 68.71 67.53 65.60 65.90 64.55 63.34 62.75 63.25 63.96 64.96 63.80 64.25 64.81 65.16 65.41 65.74 66.82 67.21 66.55 66.33 66.25 66.09 65.88 65.36 65.53 65.28 64.88
58.85 59.94 60.19 63.81 66.14 66.76 68.21 68.32 69.95 63.13 67.64 70.19 70.70 70.17 69.60 68.38 66.74 64.23 62.98 61.71 58.19 58.14 57.43 57.33 58.52 58.75 59.38 60.03 60.12 58.87 55.88 53.79 56.62 64.65 66.07 65.80 65.70 64.17 66.09 65.62 66.55 65.42 65.37
51.40 51.40 51.05 50.18 52.31 55.22 59.20 58.93 59.22 59.30 57.42 57.21 60.16 62.23 62.32 62.30 62.36 61.73 60.62 58.98 57.53 55.07 53.73 53.70 53.05 53.52 53.68 53.34 53.59 52.57 42.81 33.74 44.22 42.50 57.99 65.21 66.72 66.46 65.58 66.44 66.14 65.52 65.21
44.74 44.95 44.84 44.45 44.09 43.77 43.86 43.78 43.53 44.22 44.27 44.46 45.65 47.69 50.27 51.25 53.18 54.04 52.94 52.01 52.57 52.19 51.33 51.12 51.14 50.99 50.15 47.40 42.64 37.21 31.88 32.88 43.53 34.69 52.09 62.37 65.10 66.22 66.87 66.30 65.94 64.87 65.15

GFSGL_sfc_wetblb_063.txt.gz
Wetbulb
77.48 77.97 77.36 77.37 76.97 77.87 78.46 79.10 79.21 79.24 80.17 79.36 79.11 78.18 77.57 77.70 78.79 80.06 79.98 78.85 78.79 78.92 78.95 78.11 78.95 80.34 75.97 74.87 74.50 74.00 72.96 72.50 69.67 71.16 72.49 76.46 80.06 79.06 78.12 78.29 76.50 77.57 75.56
77.17 77.98 77.56 78.30 77.45 76.97 77.66 78.36 79.94 79.62 79.57 80.00 79.26 79.02 77.76 77.34 78.98 79.49 77.68 77.90 77.22 77.50 78.12 79.17 77.40 76.36 79.38 79.37 76.42 79.70 76.42 77.32 72.30 74.72 74.79 74.37 77.41 78.82 78.81 79.11 76.25 75.93 76.19
76.76 76.30 77.38 77.44 77.77 77.13 78.14 78.49 79.35 79.71 79.87 78.02 79.12 79.43 78.57 77.77 78.59 79.63 79.83 78.71 78.43 78.34 78.53 78.72 78.50 78.99 79.57 77.29 78.71 76.01 75.00 76.30 76.02 74.07 74.34 76.01 76.53 76.33 77.27 79.01 78.88 78.43 77.28
75.20 75.20 76.22 77.12 77.55 77.31 78.40 78.88 79.03 79.74 79.76 79.40 79.95 79.78 79.08 78.37 78.15 77.92 78.66 78.85 79.05 78.21 78.76 78.82 79.04 79.18 79.67 80.22 78.92 80.17 78.74 77.47 76.08 74.91 74.58 74.67 75.40 78.08 76.95 74.76 74.81 76.59 76.18
76.25 75.65 76.34 77.92 78.11 78.34 77.82 78.97 79.16 79.64 79.70 80.16 80.05 79.84 79.82 78.16 76.61 77.96 78.47 78.63 79.04 78.28 78.79 78.72 78.82 78.05 73.31 76.09 77.81 79.22 79.33 77.66 75.58 74.78 74.30 74.52 74.36 74.21 75.22 75.94 74.74 76.34 78.15
76.87 75.74 76.79 78.02 78.18 78.02 78.23 78.49 79.38 79.49 79.83 79.92 79.81 79.74 79.25 76.75 69.60 67.48 74.64 77.22 78.21 78.62 78.44 79.39 79.65 75.19 74.05 69.57 68.73 69.17 73.40 78.26 78.77 75.44 74.51 73.85 76.28 76.29 76.51 75.99 76.67 75.29 74.61
77.74 77.22 77.43 78.01 77.89 78.02 78.26 78.76 79.04 79.36 80.15 79.97 79.79 79.81 79.55 79.79 66.38 65.15 67.35 76.13 77.34 77.92 78.50 79.23 78.43 76.23 75.69 79.46 71.59 68.61 69.10 67.28 68.58 76.05 75.94 76.48 76.65 78.20 79.10 78.64 76.81 76.67 76.30
77.19 78.77 77.97 78.56 78.34 78.77 78.90 78.64 79.19 79.57 79.55 79.52 79.69 80.00 80.07 79.60 66.54 63.13 65.64 76.68 76.56 77.38 78.82 79.19 79.14 78.88 79.00 79.06 79.75 78.88 78.54 78.79 77.67 75.36 76.37 77.16 78.48 79.25 79.19 78.61 78.65 78.00 78.07
78.31 77.72 78.81 78.75 78.69 78.83 78.62 78.96 79.48 79.63 79.52 79.39 79.93 80.11 80.17 79.79 64.79 62.85 66.09 76.35 76.24 77.53 78.15 78.26 78.58 79.44 73.04 67.21 77.56 76.95 77.39 77.88 72.52 64.57 65.62 66.36 66.40 66.10 69.86 74.34 72.90 74.11 74.64
78.31 78.43 79.36 79.43 79.47 79.16 79.46 79.66 80.03 80.21 79.70 78.44 79.21 80.32 75.87 80.39 66.34 61.39 66.15 75.88 76.10 75.64 78.22 78.90 68.55 74.04 66.80 63.09 77.18 77.70 76.68 77.58 78.29 77.94 78.56 75.05 67.50 71.69 64.61 72.88 76.36 74.95 75.25
78.49 79.27 79.88 79.85 79.87 80.23 80.45 80.45 80.28 79.89 78.68 79.52 79.43 79.94 80.27 78.54 78.96 60.71 59.38 76.74 75.56 75.28 75.18 75.23 76.28 64.14 62.15 61.03 61.62 77.20 76.40 77.11 75.58 77.52 77.71 78.26 79.17 80.21 80.30 79.25 79.83 79.05 76.74
78.99 78.84 79.39 80.08 79.04 79.23 80.17 80.34 80.31 80.08 79.24 79.91 79.28 79.37 78.62 80.82 68.68 61.18 58.51 61.86 70.80 76.43 76.00 74.39 75.36 60.66 58.07 59.01 61.86 63.86 61.56 63.65 74.99 75.56 76.07 76.44 76.89 76.88 77.96 80.30 81.16 80.72 79.56
79.13 78.80 79.22 79.79 79.77 79.91 79.52 79.64 78.38 79.35 77.18 76.79 76.62 75.93 76.10 77.19 78.66 61.92 57.90 58.40 61.08 72.76 76.59 70.49 62.15 58.23 55.54 58.59 57.00 59.70 59.42 74.45 75.44 75.69 76.18 77.06 77.88 78.26 80.17 79.14 78.71 78.09 76.85
78.82 79.19 79.19 78.87 78.53 79.28 78.37 78.20 77.10 76.58 76.56 76.48 76.33 76.22 75.78 76.02 76.07 77.92 73.57 67.04 61.15 66.76 69.17 73.67 71.53 66.91 61.50 68.32 72.50 67.47 74.49 76.97 76.77 77.05 77.27 77.51 77.79 77.75 76.92 76.55 73.88 74.15 74.20
78.13 77.86 78.29 77.19 77.18 78.04 78.21 77.79 77.14 78.15 74.11 76.23 75.24 75.31 74.87 75.98 76.38 72.24 73.37 77.70 76.24 72.13 73.24 76.16 75.65 75.73 76.02 76.81 77.59 77.93 77.92 78.38 76.75 77.45 76.63 76.91 76.02 74.41 73.59 75.28 74.44 74.43 73.31
75.21 76.14 75.99 76.43 76.50 76.54 76.94 75.27 52.87 58.14 51.91 52.63 51.54 65.25 74.91 58.35 55.81 52.38 52.45 54.81 58.07 57.44 73.24 75.76 75.97 76.65 76.46 76.94 76.61 76.60 77.14 75.55 77.94 77.39 76.62 75.01 73.95 74.50 74.92 74.28 74.22 74.03 71.51
75.05 75.55 76.66 74.09 76.72 77.04 76.81 76.16 75.07 63.33 51.72 50.09 52.09 51.72 52.27 50.61 52.45 51.18 52.09 50.82 52.45 59.67 76.96 76.97 76.56 76.80 77.38 76.88 75.88 76.02 76.02 76.84 78.43 76.86 75.68 75.31 75.30 74.90 73.01 72.70 73.02 71.63 70.57
70.06 61.32 74.93 75.89 76.24 77.16 77.00 76.68 76.82 75.54 74.81 75.20 57.20 55.71 49.04 48.28 50.27 49.19 49.91 54.33 74.64 70.56 76.67 76.69 76.58 77.39 77.40 78.00 77.64 76.89 76.94 77.16 76.86 76.42 75.90 75.32 75.41 74.03 73.15 72.25 71.57 70.88 70.14
66.13 67.64 68.56 73.54 74.50 73.99 74.96 73.72 74.84 75.96 75.33 74.25 71.10 58.99 51.43 44.11 46.65 47.37 47.01 74.98 75.65 76.75 76.75 76.45 76.61 76.65 76.87 77.67 76.82 76.28 77.25 76.61 75.24 74.69 74.47 74.91 75.02 74.15 71.90 71.09 70.28 59.58 63.74
65.32 63.23 64.69 71.72 72.63 72.03 72.18 71.70 71.75 72.48 73.12 74.22 72.77 73.14 64.81 64.85 70.06 72.48 69.91 73.04 74.91 76.89 78.21 77.68 77.16 76.86 76.39 75.20 74.25 75.12 74.48 73.06 72.64 72.85 73.45 72.65 71.68 70.82 69.74 69.77 69.55 69.25 69.47
64.02 67.12 65.45 66.32 70.50 68.85 68.42 70.51 70.50 70.59 72.38 72.62 72.77 64.94 58.05 73.26 74.99 74.92 72.61 73.28 74.51 73.79 73.35 75.10 72.56 72.61 73.14 71.80 73.19 72.87 72.77 72.82 73.15 72.09 70.88 70.63 70.08 69.03 69.52 69.74 69.54 69.70 68.93
61.60 61.88 63.02 65.00 69.22 72.27 71.03 70.89 69.02 69.89 71.91 72.66 73.09 64.22 54.59 73.35 72.25 74.83 74.38 72.78 72.40 72.17 73.02 74.13 73.77 72.49 71.25 70.82 70.47 71.48 70.68 70.13 70.22 70.30 69.86 69.70 68.91 68.78 68.91 68.08 68.31 67.26 66.58
59.72 60.43 61.85 64.47 66.86 63.84 69.77 70.15 69.93 70.90 70.73 71.14 73.55 73.00 71.31 68.53 68.49 68.38 69.07 70.25 69.47 69.15 69.55 70.74 71.34 69.00 68.48 68.38 68.03 67.80 66.79 67.68 68.48 67.99 67.12 66.82 66.48 66.99 66.97 66.38 66.20 65.96 65.73
54.55 53.25 54.91 56.91 57.77 61.87 62.70 64.62 69.35 62.30 65.68 66.51 68.07 70.38 69.95 68.46 66.44 65.11 63.43 63.17 63.39 63.74 64.24 64.01 63.42 62.86 63.13 63.77 63.63 63.44 55.34 53.72 54.75 59.11 63.22 65.20 66.10 64.53 65.88 65.84 65.66 66.40 65.82
47.65 47.85 47.47 47.05 50.52 50.00 50.97 52.55 54.88 54.54 55.59 56.57 57.95 58.21 58.90 61.72 63.39 62.48 62.21 61.89 60.78 60.39 58.94 58.29 57.96 56.94 54.42 52.07 51.73 50.49 39.82 33.03 44.05 41.05 53.67 61.92 64.86 65.77 65.94 65.73 66.56 66.11 65.69
43.01 43.15 43.49 43.49 43.36 43.20 43.01 42.80 42.15 42.70 43.56 44.53 44.41 44.24 46.11 49.37 51.43 53.40 53.91 52.45 52.58 51.06 48.95 50.16 49.90 50.07 48.87 46.53 43.12 35.92 31.51 32.52 40.66 32.71 47.57 58.14 62.16 64.79 64.02 63.78 65.31 65.80 65.02

GFSGL_sfc_wetblb_066.txt.gz
Wetbulb
76.24 75.83 75.63 75.02 74.61 74.36 75.24 74.72 76.33 76.86 80.45 79.04 79.96 78.68 78.14 77.69 79.31 78.84 77.71 77.09 76.67 76.48 77.68 77.83 76.95 77.08 76.44 76.29 75.67 74.42 73.32 73.56 70.26 71.29 73.66 74.36 76.33 76.57 75.02 75.66 76.29 75.37 74.60
76.65 76.27 75.77 76.52 75.46 74.63 73.28 76.29 77.61 78.50 78.22 80.79 78.73 79.54 78.00 77.75 78.12 77.88 77.18 75.93 76.82 76.27 77.09 77.38 77.35 77.06 77.51 77.17 76.54 76.31 76.45 77.20 74.65 72.18 74.03 73.63 73.74 74.62 76.29 76.87 76.86 75.54 74.37
76.71 76.35 76.19 75.82 75.99 75.27 73.84 75.20 77.11 76.49 77.71 77.53 79.32 77.74 78.09 77.36 77.14 77.50 77.90 77.32 76.91 77.44 77.41 77.75 77.39 77.89 77.69 76.83 76.91 75.19 74.41 75.16 74.80 73.24 72.29 74.96 75.43 76.29 75.11 76.56 77.17 75.79 75.75
76.30 76.17 75.75 75.63 75.95 75.47 75.80 74.30 76.05 77.80 77.06 77.32 77.44 78.13 77.94 77.61 76.97 76.91 78.05 77.44 77.55 77.16 78.08 77.49 77.80 77.63 77.64 77.83 77.26 76.91 76.92 76.58 75.67 74.94 73.32 72.97 73.66 74.75 75.48 73.96 73.64 75.58 75.06
75.15 75.07 75.50 76.36 76.31 76.37 75.66 76.05 75.91 76.08 76.94 77.80 77.44 77.80 78.08 77.72 77.17 76.24 76.44 77.18 77.26 77.41 77.63 77.49 77.89 76.98 73.84 75.18 77.13 77.50 76.99 76.40 75.55 74.72 73.82 73.46 73.35 73.61 72.77 73.68 73.04 74.38 75.55
74.44 74.62 75.71 75.87 76.22 76.30 76.10 76.05 76.35 76.39 76.95 77.50 77.49 77.44 77.42 77.64 70.50 68.38 74.03 75.43 77.35 76.66 76.26 76.93 78.06 73.59 73.01 69.33 68.41 69.08 72.96 75.87 75.01 75.09 74.58 73.09 73.29 74.24 75.05 74.35 73.85 72.45 71.78
74.94 75.29 75.13 75.96 75.66 75.88 76.41 75.50 76.42 76.06 76.89 76.95 77.25 77.66 77.47 77.96 67.31 65.94 68.47 75.47 75.18 75.84 76.84 76.50 76.86 76.74 73.66 77.13 70.61 67.82 68.19 67.36 68.87 74.21 73.47 73.32 72.97 73.86 74.27 74.64 74.44 74.34 73.77
74.87 75.92 75.44 75.93 75.36 76.21 75.98 76.05 75.45 76.62 76.24 76.90 77.26 77.65 77.80 78.11 67.86 63.77 66.02 73.97 75.08 75.85 76.29 76.17 76.57 76.43 76.49 77.15 77.20 76.57 75.71 75.81 74.89 72.97 72.92 74.16 75.13 76.22 76.64 76.36 75.92 75.89 75.49
76.26 75.39 76.09 75.47 75.77 75.94 75.80 75.82 75.95 76.09 76.65 76.60 77.18 77.57 77.53 77.83 65.86 64.31 64.90 72.97 73.81 74.30 75.11 75.71 76.77 76.90 71.37 67.22 74.07 74.00 74.57 75.44 71.82 66.38 68.51 68.52 68.28 67.49 70.45 75.24 73.33 71.21 70.93
75.24 76.81 77.18 76.16 76.30 76.05 76.15 76.14 76.62 76.68 76.49 77.15 77.19 77.77 74.44 77.79 67.40 62.61 64.90 74.75 73.66 73.92 75.25 75.68 67.67 71.96 66.38 62.48 73.69 75.57 74.49 75.04 75.74 75.80 76.19 73.67 67.37 70.03 63.66 68.18 71.58 71.49 73.38
77.07 76.80 77.56 78.42 76.61 77.42 77.33 77.39 77.17 77.00 77.13 77.25 77.19 77.83 78.25 77.10 77.10 61.39 59.43 75.00 74.55 74.43 74.17 74.55 75.79 64.79 61.30 60.12 61.38 74.55 73.58 74.15 73.98 75.97 76.05 75.62 76.49 77.79 78.12 78.15 76.75 76.11 75.34
78.06 77.14 78.38 77.40 78.26 77.98 77.84 77.97 77.87 77.59 77.17 76.92 76.99 77.27 77.76 78.73 68.68 62.34 58.59 61.88 69.77 74.99 74.31 75.31 74.87 62.73 59.58 59.78 61.35 63.65 62.18 62.74 73.82 73.72 73.46 73.70 74.97 76.09 76.91 78.94 79.88 78.81 78.15
77.93 77.16 77.66 78.92 78.22 78.21 77.93 77.77 77.53 77.59 76.87 76.52 76.55 76.30 77.04 78.08 78.67 63.15 58.71 58.55 60.99 72.74 75.78 71.18 61.36 58.55 54.72 56.04 57.02 59.62 59.24 69.97 72.23 72.99 73.81 74.83 76.26 77.24 79.34 79.04 79.00 77.71 76.39
76.66 78.02 77.61 78.42 77.66 77.95 78.03 78.02 77.50 77.19 76.83 76.69 75.94 76.35 76.60 76.99 77.47 78.39 70.08 65.11 61.06 65.84 68.25 72.91 69.42 67.63 63.20 68.06 70.58 62.35 69.68 74.23 75.07 75.40 75.60 76.84 77.79 77.60 77.33 77.81 76.10 74.80 73.74
78.25 77.79 77.30 77.65 76.78 77.52 77.26 77.67 77.55 78.10 76.35 76.77 76.68 76.24 76.34 75.69 75.66 70.58 72.51 74.49 73.18 69.55 71.59 74.73 74.60 74.29 73.39 74.46 76.29 77.38 75.54 75.58 75.42 76.02 75.94 76.11 76.38 76.97 75.30 75.51 74.12 74.40 72.85
76.06 76.83 76.74 76.60 77.02 76.92 76.60 73.99 53.12 57.03 52.67 56.35 59.27 69.66 68.47 55.00 50.05 49.54 48.80 59.43 60.38 57.08 71.29 74.22 74.11 74.33 74.40 74.57 74.95 75.84 76.96 75.17 77.32 77.73 77.83 77.44 75.96 73.91 73.99 74.70 74.82 73.54 71.86
70.86 71.47 76.06 73.53 75.88 75.94 76.24 75.86 73.28 63.28 50.09 49.18 49.00 53.17 58.18 55.27 49.72 49.72 52.08 52.26 52.63 58.61 74.21 73.49 74.73 75.86 75.92 76.38 77.05 77.57 76.71 77.46 77.91 76.18 76.86 74.67 73.83 74.02 73.87 73.47 73.33 72.56 72.26
66.88 59.89 70.65 71.77 74.75 76.18 76.31 75.57 75.96 73.71 72.29 70.57 53.56 56.90 50.81 51.54 50.45 49.18 52.44 57.86 70.57 67.15 74.01 75.51 75.99 76.52 76.63 76.47 77.55 76.89 77.05 77.20 77.47 76.95 76.28 76.15 75.58 74.13 73.07 73.05 73.28 72.66 71.02
62.70 65.10 65.65 70.07 70.12 70.50 76.76 76.13 76.49 76.16 75.35 75.39 66.63 56.39 50.78 46.82 49.72 48.46 51.54 73.94 75.05 72.86 73.17 73.72 74.53 76.44 78.59 77.88 77.12 77.68 77.05 77.15 77.17 76.97 76.09 73.87 73.56 73.98 73.00 72.08 70.23 61.81 63.60
60.45 61.88 62.62 66.82 70.72 70.35 70.86 71.78 71.21 71.91 70.13 72.36 72.08 72.17 69.57 64.59 69.76 69.51 68.89 69.72 72.81 73.10 75.48 75.28 77.48 76.79 77.20 77.73 75.78 77.25 75.91 75.29 74.49 74.07 73.09 72.30 72.59 70.84 68.45 69.20 69.16 68.71 68.74
59.24 62.47 62.27 66.80 67.84 69.32 70.08 69.09 67.49 69.74 70.01 69.88 70.96 69.93 56.61 70.00 72.88 73.10 71.30 71.47 72.25 73.23 74.42 75.72 76.23 76.07 73.67 74.81 75.38 73.51 73.96 72.55 73.54 73.34 71.00 70.31 71.01 69.60 70.39 69.46 68.47 68.20 68.34
59.66 60.98 61.65 61.61 62.33 63.98 64.69 67.30 69.35 69.11 68.62 69.28 72.35 67.36 54.62 68.64 74.51 74.31 73.33 72.24 70.46 68.98 69.58 71.79 71.61 71.14 70.63 71.05 71.62 71.35 71.26 70.26 71.10 70.45 70.70 70.12 69.78 69.31 68.59 67.94 67.89 67.34 66.69
54.43 53.52 56.43 56.99 56.51 55.92 59.03 59.95 59.92 61.47 66.26 66.03 67.57 69.99 70.20 67.40 66.43 65.25 64.87 65.00 64.58 64.03 64.56 62.14 61.37 63.63 62.62 64.80 63.88 58.61 57.05 55.49 56.68 59.81 64.60 67.12 66.68 66.69 66.88 66.35 66.26 65.41 64.73
49.41 48.59 48.43 50.39 51.31 52.45 52.52 53.52 53.84 51.22 53.41 58.64 61.47 62.55 63.70 62.23 61.44 61.05 61.01 59.89 58.71 59.72 58.35 57.00 53.78 50.65 49.74 50.34 49.76 50.54 45.14 43.87 49.24 55.87 57.89 60.08 64.19 63.56 65.28 65.32 65.51 65.61 64.32
44.60 44.51 43.63 43.47 44.09 45.13 45.98 45.71 46.49 47.57 48.88 50.43 50.74 54.51 55.84 58.72 57.51 56.01 56.30 54.08 52.86 51.64 49.63 49.42 51.29 49.33 45.66 43.40 41.29 39.90 35.03 32.96 41.81 38.53 53.16 57.83 59.53 63.47 64.36 64.55 65.49 65.50 65.48
42.10 41.61 41.44 41.46 41.37 41.45 41.01 40.60 40.94 41.09 41.83 43.48 44.80 46.63 46.01 45.45 45.88 47.09 47.75 47.56 46.24 43.57 41.92 40.96 40.83 41.93 41.63 40.71 38.16 34.21 31.49 32.94 37.21 33.16 44.89 53.92 57.50 59.30 58.34 59.39 61.85 63.01 63.77

GFSGL_sfc_wetblb_069.txt.gz
Wetbulb
71.61 72.53 70.86 69.98 72.50 71.96 70.82 70.31 72.38 72.27 73.45 75.20 75.22 74.84 74.61 75.16 74.67 74.13 72.31 73.42 72.31 72.47 72.47 73.02 72.92 72.54 70.93 71.53 73.32 71.56 69.06 67.41 64.81 65.92 68.43 70.11 70.67 71.02 72.08 71.67 71.83 71.54 70.92
72.48 72.57 72.63 70.83 71.21 72.21 70.94 70.09 71.93 71.41 72.31 74.64 75.50 75.33 74.56 73.77 74.19 74.23 72.57 73.00 73.47 72.54 72.78 72.72 73.09 73.97 72.22 72.29 72.69 71.28 71.63 71.96 69.24 67.03 68.86 68.65 69.04 70.33 70.61 71.22 73.38 75.38 73.13
73.30 72.30 72.85 72.54 70.28 71.14 71.00 70.93 70.64 73.98 72.04 73.16 74.34 74.14 73.86 74.27 73.82 73.96 74.37 73.41 73.02 73.02 72.75 73.23 73.11 73.22 72.11 72.59 71.55 71.41 71.09 70.97 70.95 69.30 68.42 70.56 71.63 72.20 72.28 71.86 72.78 73.87 74.74
73.47 73.32 72.48 72.72 72.87 70.70 71.18 70.17 72.73 73.38 74.05 74.00 74.42 74.17 74.54 73.84 73.52 73.65 73.99 74.11 73.84 73.86 74.41 74.22 74.39 74.06 73.47 73.45 74.14 73.21 72.92 72.20 71.90 71.19 70.86 70.40 70.27 72.04 71.11 71.09 70.19 70.76 71.24
73.74 73.67 73.38 73.48 73.57 73.71 72.20 71.30 70.00 73.70 73.11 73.44 73.77 74.34 74.64 74.88 74.86 73.27 73.65 74.42 74.19 73.80 73.66 74.12 74.59 74.19 73.08 73.31 74.76 73.76 73.57 72.51 72.48 71.97 71.22 70.78 70.25 69.23 69.55 70.60 70.63 71.14 71.66
73.51 73.69 74.18 73.84 73.75 73.58 73.33 72.93 70.49 71.04 74.07 73.42 73.23 74.17 74.52 75.61 70.70 69.26 72.46 73.13 74.46 74.24 74.04 74.03 74.59 72.95 72.27 69.60 69.40 70.17 73.62 73.57 72.59 71.93 71.22 70.57 70.18 70.29 71.05 70.63 70.56 69.71 69.10
72.40 73.59 73.79 73.82 73.69 73.50 73.78 72.96 72.65 70.71 71.60 73.03 74.16 74.54 74.25 75.09 67.83 67.23 69.41 73.33 72.42 73.92 74.20 73.99 73.86 75.40 72.03 73.62 69.76 67.19 67.42 66.77 68.64 72.25 70.37 70.76 70.71 71.64 71.25 70.43 70.99 71.61 71.63
71.60 72.36 73.37 73.46 73.44 73.66 73.54 73.29 73.14 73.35 72.59 72.68 73.28 74.46 74.77 74.97 67.37 65.38 67.23 72.39 72.66 72.55 73.74 74.47 73.93 73.75 72.75 72.55 73.18 73.36 72.50 71.85 70.77 70.02 70.12 72.11 72.83 73.25 72.62 73.19 72.77 72.88 73.81
70.57 72.05 72.79 73.35 73.30 73.51 72.93 73.31 73.29 73.60 73.67 73.19 74.30 74.45 74.53 75.05 66.08 65.01 64.69 68.14 71.53 72.12 72.88 73.28 73.56 73.61 69.90 66.67 71.66 72.08 72.62 73.86 71.63 66.08 66.76 66.89 66.80 66.76 69.04 72.40 72.69 71.27 70.70
69.93 72.75 73.19 73.31 73.60 73.00 73.57 73.35 73.98 73.41 73.27 74.30 73.75 74.63 72.26 75.00 66.21 63.76 64.77 72.38 69.40 70.43 71.33 71.50 66.85 71.65 66.50 64.70 71.09 71.73 70.11 70.55 70.38 71.34 71.43 67.93 65.47 68.23 65.16 69.17 71.87 69.29 68.60
72.81 73.37 73.80 73.45 73.49 73.69 73.74 74.21 73.74 73.87 73.46 73.10 73.89 74.44 74.99 74.36 74.49 62.48 60.41 73.80 73.16 71.56 71.11 71.40 72.76 63.73 59.92 58.94 61.07 71.64 71.47 72.82 71.33 71.96 72.76 73.62 73.15 73.11 74.29 71.76 69.53 70.92 71.68
69.20 73.10 73.56 74.24 73.75 74.51 73.87 74.00 73.95 73.67 73.27 72.96 73.05 73.78 74.85 75.50 67.37 63.57 59.87 61.23 69.61 73.21 72.05 72.64 72.03 63.36 59.27 59.28 60.71 62.26 61.42 62.06 69.77 70.86 70.59 70.37 70.39 71.69 73.47 74.29 75.25 75.76 75.81
66.19 71.07 72.74 74.57 74.05 74.20 74.05 73.76 73.72 73.95 73.48 73.16 73.35 73.31 74.01 75.33 75.90 63.08 59.34 58.61 60.70 71.64 74.26 70.46 65.38 61.03 57.05 57.67 58.29 59.83 59.37 65.28 68.51 68.65 69.71 70.36 71.81 73.92 74.27 75.28 75.22 74.76 74.23
64.45 69.96 74.23 74.58 74.42 74.35 75.48 74.98 74.68 74.29 73.85 73.71 73.55 73.55 74.32 74.67 75.38 76.25 68.87 64.11 60.79 63.76 67.64 69.05 64.67 65.92 65.94 67.55 66.52 59.36 62.42 66.99 68.40 69.05 69.79 71.89 73.76 73.79 74.80 75.11 72.90 72.08 71.41
62.10 68.20 74.44 74.53 73.34 74.85 75.43 75.10 75.28 75.90 74.23 74.63 74.60 74.76 73.95 74.18 74.65 71.14 71.65 72.64 71.54 67.61 69.01 72.06 70.77 70.82 71.74 70.72 70.89 71.68 66.04 68.68 70.19 72.06 72.88 72.69 73.18 73.31 72.36 72.44 71.52 70.80 70.51
60.33 67.19 72.55 74.67 74.66 75.18 74.58 69.67 52.46 54.83 56.33 57.44 61.50 70.68 69.85 59.74 61.43 60.21 56.27 58.06 58.62 57.19 67.71 71.41 70.96 71.49 71.39 71.35 70.64 71.13 73.75 71.34 72.25 73.05 73.60 73.57 73.13 73.40 72.56 72.49 71.41 71.73 70.35
58.92 62.21 66.43 70.43 73.76 74.47 74.46 74.11 69.79 60.68 51.38 48.15 49.98 58.11 58.06 59.73 48.90 49.08 49.57 51.09 50.53 59.23 70.07 71.52 71.60 71.90 72.13 72.25 72.36 72.11 72.05 74.39 75.20 74.71 74.37 74.12 73.08 72.74 71.80 71.03 72.23 72.09 69.88
58.11 58.07 63.61 68.72 70.47 71.54 73.95 74.11 73.76 68.72 68.47 67.44 53.25 53.25 49.44 50.15 50.35 51.07 49.98 54.48 62.18 65.08 71.34 70.97 71.47 71.29 72.82 73.53 73.52 73.98 73.71 73.79 74.00 73.82 73.19 73.19 72.18 71.45 71.05 71.01 70.64 70.08 69.99
56.83 58.60 61.68 64.55 69.81 67.64 72.79 73.81 73.61 71.18 70.19 68.30 60.53 57.03 50.27 46.36 46.18 46.90 49.98 70.59 70.16 70.43 71.27 71.12 71.64 71.90 72.37 72.74 72.89 73.16 72.95 72.15 72.79 73.53 73.49 72.90 72.18 70.87 70.12 70.46 70.85 63.71 63.29
56.81 58.59 60.68 64.59 67.95 68.25 69.06 69.33 71.89 72.34 71.99 66.60 66.33 65.97 61.46 60.05 64.96 65.65 64.68 66.36 69.15 71.14 72.26 72.10 71.18 70.59 67.71 65.12 67.46 71.98 71.52 70.44 70.28 70.42 71.14 71.36 70.82 70.62 68.45 66.58 65.51 64.02 63.60
56.25 58.49 57.59 59.54 62.32 62.93 63.45 67.03 67.35 67.84 68.72 68.25 68.36 65.88 57.05 66.29 67.42 66.58 64.75 67.01 68.09 69.17 68.25 71.12 71.75 69.58 70.44 71.57 71.50 71.41 70.69 70.69 70.65 69.95 69.35 68.63 68.77 66.54 65.08 64.73 64.34 64.29 63.55
53.21 54.21 55.81 55.31 56.93 59.24 59.02 59.64 63.86 65.97 66.69 66.78 67.93 59.69 54.15 67.05 66.89 69.72 67.87 65.31 63.64 60.92 59.99 63.84 57.96 59.19 58.20 57.28 57.44 59.76 57.78 57.27 56.84 59.35 63.64 64.34 64.39 64.02 63.88 63.70 63.39 62.77 62.31
48.54 50.67 50.15 51.55 52.43 53.51 55.21 55.17 54.89 56.39 58.59 63.64 66.29 65.63 62.58 60.86 60.91 59.67 58.83 58.64 57.68 54.80 52.94 52.00 51.08 48.85 49.58 49.93 48.87 47.67 48.44 48.75 50.41 55.35 57.48 59.18 62.37 63.69 63.58 62.39 62.23 61.58 61.36
46.07 45.21 46.73 45.26 46.96 46.91 47.77 49.07 50.28 49.29 49.90 50.30 53.04 55.21 55.99 57.27 56.97 56.31 54.19 52.49 49.45 49.95 49.83 47.04 44.64 44.12 44.76 44.36 43.68 46.77 43.80 40.21 45.78 51.08 51.61 54.66 56.58 56.14 60.46 61.63 61.93 63.04 63.53
41.91 42.60 41.88 42.06 42.09 42.06 42.14 42.33 43.10 44.54 45.08 47.36 45.79 45.40 45.87 46.17 47.98 48.95 46.30 45.22 44.38 41.68 41.01 41.29 41.52 39.68 38.42 38.04 36.50 36.37 34.84 33.82 39.91 36.49 45.52 50.86 54.14 55.94 58.23 58.81 59.39 62.28 63.04
40.92 40.52 40.33 40.15 39.91 40.01 39.78 39.16 38.98 39.31 39.96 40.37 40.75 41.75 42.90 41.39 40.43 40.51 42.02 42.05 39.73 38.83 38.19 37.85 37.01 37.38 37.06 36.38 35.33 33.32 31.90 33.64 37.11 36.47 46.20 49.95 48.67 52.83 54.41 55.77 56.87 57.39 58.17

GFSGL_sfc_wetblb_072.txt.gz
Wetbulb
70.69 70.01 68.97 69.12 70.02 70.20 69.43 69.81 70.56 70.29 71.42 72.02 73.73 73.31 73.06 73.18 72.44 72.28 71.24 71.08 71.33 70.68 70.69 70.41 70.50 71.10 70.12 69.46 70.73 70.54 68.81 65.94 63.45 64.59 66.07 68.70 69.49 69.42 69.39 69.63 71.11 69.94 70.59
71.11 70.72 69.59 68.76 69.62 70.70 70.22 69.21 70.15 70.63 71.54 73.25 73.81 73.76 73.68 73.88 72.52 72.15 71.12 71.84 71.77 70.91 71.02 70.94 71.35 73.19 71.30 70.17 70.63 70.15 69.35 69.48 67.22 66.33 66.46 67.36 67.93 69.73 70.74 70.62 72.49 73.84 72.72
70.86 70.79 70.76 69.10 68.43 69.59 71.13 70.66 68.51 70.61 70.51 73.20 73.53 73.71 73.71 73.70 73.72 73.41 72.62 71.50 71.66 72.30 71.45 71.17 71.44 71.72 71.15 70.20 70.43 70.56 69.87 70.39 69.12 68.26 69.23 69.10 70.74 71.29 70.85 70.56 70.57 71.18 73.25
70.91 70.68 70.70 70.88 69.43 68.52 70.45 70.56 70.15 69.13 70.42 70.95 73.41 73.58 73.63 73.50 73.13 73.48 73.49 72.57 71.72 71.96 72.33 71.87 71.97 72.10 71.70 71.67 71.67 71.44 71.41 71.21 70.33 69.36 68.87 69.05 69.66 71.04 70.01 69.67 69.76 69.56 70.51
71.12 70.97 70.52 71.92 71.95 70.30 68.76 70.39 69.78 70.55 70.63 72.02 71.92 73.21 73.41 73.47 73.62 72.71 72.86 72.59 72.12 71.96 72.47 73.05 73.20 73.07 71.73 71.54 72.88 72.15 71.85 70.89 70.33 70.06 69.59 69.55 70.02 69.75 69.45 69.92 69.05 70.45 70.02
71.33 71.29 71.71 71.26 72.22 71.95 70.23 69.14 69.46 69.16 71.23 71.31 72.76 72.76 72.93 73.87 69.08 68.45 71.52 72.41 72.52 72.28 72.06 72.23 72.74 71.94 71.38 68.95 68.70 69.63 71.95 71.80 71.16 70.79 70.90 71.10 71.22 69.30 69.34 69.03 68.49 67.27 67.27
71.06 72.20 72.26 72.32 71.78 72.00 72.38 70.76 69.92 68.99 68.77 71.37 71.17 72.55 72.86 73.81 66.71 66.52 68.77 72.47 72.39 72.98 72.84 72.82 72.74 74.64 71.41 72.97 68.75 66.71 66.65 67.30 69.22 72.97 71.31 71.18 69.83 70.87 69.84 68.75 69.13 68.89 69.23
69.70 71.57 73.11 73.05 72.72 72.51 72.38 72.27 71.66 71.12 68.89 69.20 72.29 71.57 71.76 73.09 65.95 64.85 67.14 72.34 72.09 71.33 72.74 73.62 73.21 73.16 72.21 71.76 71.74 71.64 71.36 71.12 68.93 68.62 69.54 71.03 71.61 72.06 71.43 72.19 71.36 70.46 71.62
67.33 67.35 70.18 73.43 73.14 72.88 72.24 72.27 72.55 72.11 71.14 69.76 70.30 72.79 73.14 72.91 64.28 63.95 65.49 71.70 72.19 71.85 71.47 72.16 73.19 73.11 68.84 65.20 71.34 70.89 70.97 71.84 69.58 64.69 65.11 65.28 64.80 64.78 67.44 69.79 70.46 69.84 69.61
67.34 67.23 69.56 71.06 72.90 72.84 73.11 72.88 73.13 72.92 72.40 72.41 71.41 71.39 69.44 72.82 65.27 62.61 64.12 72.46 70.73 71.13 71.56 71.38 66.02 70.81 64.96 62.86 70.40 71.26 70.22 71.26 70.62 69.12 69.52 66.65 64.32 67.56 64.62 68.19 70.98 69.12 69.16
65.12 65.62 66.95 69.05 72.59 73.50 73.61 73.32 73.38 73.17 72.75 72.58 72.36 72.59 73.02 72.49 72.77 61.52 60.58 72.89 72.84 71.23 70.39 70.53 71.25 62.88 60.60 59.24 60.90 71.46 70.40 71.01 69.83 69.97 70.86 71.73 72.33 72.68 72.84 71.41 69.20 70.18 68.76
63.60 64.25 65.49 68.09 73.01 73.46 73.25 73.35 73.08 72.92 72.42 71.81 71.95 72.56 73.17 73.67 66.40 62.93 59.99 61.73 69.56 73.22 72.29 71.92 71.24 61.33 57.99 57.54 58.32 61.70 61.09 61.50 67.94 68.61 69.25 70.50 70.67 70.93 71.57 71.76 72.62 71.06 72.34
61.52 63.35 64.51 66.85 71.67 73.09 72.76 72.53 72.38 72.56 72.24 71.84 71.33 71.13 72.26 73.63 74.08 62.25 59.76 59.23 60.84 71.24 74.60 70.73 63.70 59.18 56.69 58.51 57.96 59.65 58.17 63.44 66.50 67.04 68.19 69.51 70.77 71.01 71.28 72.03 73.56 75.21 75.13
59.92 61.43 63.67 66.48 70.56 72.67 73.37 72.96 72.62 72.30 71.87 71.76 71.68 71.50 71.90 72.72 73.80 74.60 69.39 64.97 61.36 63.57 68.32 70.55 67.30 64.18 62.41 64.86 63.25 61.37 61.64 64.89 66.71 67.57 68.45 69.75 69.23 70.56 71.19 72.91 74.26 73.58 71.94
58.58 60.25 62.18 66.91 70.09 73.25 72.72 72.45 72.88 73.46 72.03 72.51 72.51 72.72 72.32 72.21 72.98 69.35 70.36 72.65 71.66 67.99 68.37 71.21 67.29 66.68 67.83 67.74 68.28 69.41 66.45 64.11 65.31 66.91 67.54 68.45 69.84 70.79 71.42 72.56 71.99 71.45 70.07
56.96 58.46 60.33 62.62 65.60 73.19 72.85 67.38 52.87 55.46 56.58 57.24 58.51 68.49 73.27 65.38 60.47 58.38 56.44 55.95 57.04 54.50 64.97 71.02 70.52 70.85 70.28 70.91 71.21 70.35 71.10 68.26 68.67 68.73 69.75 70.74 71.31 71.61 72.75 72.58 72.17 69.91 69.16
54.96 57.14 58.86 60.50 64.58 71.42 73.40 70.97 70.16 61.21 52.25 51.06 52.69 55.91 57.14 63.33 52.69 51.78 52.87 52.33 48.88 54.69 71.75 70.45 71.03 70.94 71.07 71.18 71.40 71.35 71.14 71.47 72.08 70.89 71.43 72.14 72.60 72.67 70.61 71.11 69.59 69.66 69.46
54.36 54.84 58.25 60.22 62.43 67.40 71.40 73.51 72.13 70.06 70.11 68.17 52.33 56.68 50.70 49.79 53.24 50.15 47.80 53.22 58.47 59.34 70.76 70.83 70.76 71.37 71.41 71.52 71.59 71.61 71.79 71.36 72.62 72.24 72.08 72.33 71.67 70.88 69.98 69.96 69.82 69.66 69.07
54.16 56.86 58.66 60.07 63.27 65.55 68.44 71.72 71.15 70.25 70.04 69.32 61.31 54.50 49.61 47.43 46.35 45.44 47.98 66.51 66.83 66.78 69.82 71.26 71.43 71.97 71.87 71.74 71.87 72.24 72.05 71.04 70.00 71.02 70.70 69.77 70.38 70.14 70.15 69.71 69.30 61.03 64.55
54.24 55.30 56.42 57.22 60.29 62.86 65.32 68.28 70.88 71.20 70.20 68.10 66.65 68.15 60.18 59.54 65.81 65.95 66.52 67.13 68.37 68.46 70.11 71.12 70.76 69.77 69.16 66.37 64.87 66.62 68.76 68.62 69.21 70.15 70.25 69.96 67.81 65.77 64.24 69.01 66.65 64.49 63.57
52.04 53.02 53.52 54.54 54.72 58.22 59.79 64.15 66.90 70.59 70.27 67.36 67.49 64.93 54.32 69.28 69.88 69.32 65.58 64.94 65.45 64.46 65.75 68.33 67.90 66.03 65.42 65.72 66.66 65.74 65.07 67.90 68.51 69.53 68.35 64.77 65.06 65.22 67.56 64.92 63.76 63.34 62.91
48.95 50.53 49.99 50.15 50.46 49.76 53.28 55.50 58.79 64.08 67.74 67.97 64.16 62.03 53.60 66.92 68.24 66.02 61.38 57.94 56.04 55.00 54.02 52.59 50.44 49.79 51.25 52.69 55.13 59.45 60.25 57.88 58.17 60.78 62.98 64.72 64.97 64.68 64.49 63.38 63.03 61.90 61.28
46.25 47.04 46.97 46.01 47.56 46.43 45.69 49.54 51.29 51.65 57.60 63.93 63.00 61.98 60.88 59.85 57.38 55.42 53.51 51.29 49.86 48.27 47.83 47.73 48.15 45.89 46.27 47.18 46.81 46.11 49.14 50.07 52.00 56.12 58.00 59.99 62.37 62.99 63.26 62.75 62.46 60.90 60.21
43.89 43.25 43.70 44.32 44.14 44.16 43.75 42.13 44.06 47.38 48.73 48.71 49.67 51.31 51.06 49.56 48.19 46.41 44.46 43.64 43.74 43.63 42.95 42.66 42.48 42.61 43.10 42.61 42.68 42.03 42.09 43.44 48.32 50.84 54.45 56.48 56.85 56.73 58.42 59.36 60.54 59.99 60.40
41.32 41.29 41.08 41.03 41.06 40.92 41.08 41.05 40.57 41.57 42.44 45.18 44.96 43.81 43.55 44.41 43.32 41.68 41.53 40.92 40.24 39.03 38.84 39.04 39.50 39.63 39.83 40.02 39.50 39.66 38.99 39.04 44.36 41.41 51.13 54.00 55.65 55.01 54.70 54.23 54.68 56.32 58.80
40.43 40.03 39.79 39.66 39.54 39.31 38.64 38.76 38.72 39.52 39.69 40.05 40.34 40.79 41.00 40.61 40.90 40.51 40.52 40.03 39.16 39.20 38.84 38.25 38.04 38.17 37.70 37.24 37.01 36.66 33.65 35.60 41.68 38.18 46.68 45.50 45.81 45.23 49.87 52.49 53.67 53.83 54.69

GFSGL_sfc_wetblb_075.txt.gz
Wetbulb
69.04 69.36 69.15 68.90 69.26 69.05 68.30 68.84 69.71 70.79 70.72 70.75 72.38 72.41 70.84 71.83 71.91 71.10 70.62 70.50 70.28 70.13 69.42 69.54 69.27 69.40 69.80 68.72 69.06 69.19 67.57 64.99 62.87 64.92 64.57 67.65 68.56 68.16 69.67 70.18 70.80 70.72 70.53
69.24 69.08 68.49 68.53 68.62 69.26 69.03 68.55 68.90 69.32 69.87 71.21 71.42 72.34 71.94 71.89 71.96 71.37 70.98 71.54 70.19 69.86 70.37 69.72 69.80 71.42 70.39 69.68 69.10 68.86 68.24 67.95 66.70 65.34 66.12 67.46 68.13 69.65 70.72 70.69 72.58 72.99 71.83
69.42 69.01 68.48 68.11 67.92 68.19 69.28 69.60 68.29 68.97 69.46 70.76 71.95 72.19 72.10 72.33 72.16 71.65 71.30 70.75 70.59 70.76 70.86 70.38 70.19 70.07 69.72 69.71 68.99 69.10 69.35 69.57 68.23 67.03 68.34 68.83 69.64 70.14 70.19 70.67 70.47 70.71 72.23
69.35 69.46 68.84 68.36 67.84 68.31 68.62 69.13 69.77 68.45 69.18 69.92 72.06 72.51 72.76 72.83 72.96 72.70 71.95 71.35 70.66 70.97 71.47 71.38 71.06 70.83 70.38 70.00 69.98 69.75 69.91 69.49 69.76 68.93 68.00 67.78 68.47 70.09 69.64 69.13 70.43 69.61 70.99
68.68 69.22 69.44 69.60 69.08 68.26 67.96 68.53 68.90 69.51 69.18 69.38 70.49 72.19 72.43 72.95 73.12 72.64 72.96 72.60 72.21 71.25 71.26 71.58 71.45 71.46 70.49 70.00 71.51 70.64 70.54 70.01 69.49 68.81 68.11 68.25 68.86 68.79 68.99 69.13 68.18 69.29 69.61
69.47 69.08 69.86 70.03 70.14 68.93 67.88 67.57 68.44 68.60 69.33 68.35 69.31 70.28 71.72 73.17 68.50 67.68 71.32 72.24 71.65 71.71 70.99 71.18 71.74 71.18 70.54 68.33 67.98 68.49 70.96 70.61 69.46 68.79 69.02 69.26 69.59 69.20 68.84 68.18 67.12 66.54 68.25
70.00 70.00 70.07 69.49 69.59 70.32 69.64 67.69 67.22 68.12 68.23 68.45 69.12 70.43 70.23 71.88 66.07 65.87 68.10 72.38 71.71 71.51 71.37 71.28 71.05 73.01 70.61 72.15 68.67 66.70 66.52 66.36 68.02 71.38 70.53 70.31 70.13 70.54 68.82 67.08 67.48 67.28 67.60
68.33 69.61 70.69 70.82 69.64 70.45 71.01 69.86 68.37 68.06 68.04 67.67 67.99 69.35 71.01 71.44 65.41 64.10 66.32 71.54 71.51 71.51 71.75 71.88 71.79 71.78 71.44 71.74 71.81 71.34 71.12 70.81 69.11 68.88 70.20 72.20 72.26 72.40 69.78 70.30 69.83 69.15 69.81
67.33 67.46 69.06 71.54 71.33 70.66 70.58 70.99 70.99 69.78 68.85 68.75 68.31 67.97 69.14 70.01 63.94 63.41 64.60 70.30 71.35 71.50 71.42 71.22 72.18 72.35 68.36 64.61 71.12 70.73 70.34 70.80 68.43 64.02 64.72 64.66 63.93 63.53 65.14 68.32 69.10 67.57 68.41
64.79 67.22 68.65 69.98 71.97 72.48 72.15 71.31 71.85 71.97 71.07 70.89 69.66 69.05 67.62 70.61 62.37 61.60 64.05 72.13 71.32 71.58 72.35 71.64 65.14 69.57 64.25 61.68 69.03 70.54 69.56 70.68 70.81 70.01 69.43 66.47 64.33 66.70 63.94 67.55 69.79 68.50 68.38
62.68 64.08 65.45 66.76 68.72 69.51 71.80 73.02 72.45 71.84 72.17 71.42 71.09 70.64 69.65 69.94 71.17 60.16 59.84 71.07 71.35 71.14 71.26 71.33 71.54 62.23 59.92 58.69 60.30 71.34 70.15 70.55 69.37 68.76 68.52 68.52 69.37 70.45 71.32 69.72 68.95 69.90 68.20
60.29 62.53 63.67 65.22 67.35 69.96 71.08 72.35 72.85 72.27 71.41 71.13 71.13 71.14 71.67 71.08 63.45 60.81 59.20 61.39 68.25 72.04 71.23 71.77 71.01 60.51 58.27 57.37 58.14 60.68 60.27 61.38 68.49 67.78 67.17 68.44 69.31 69.77 71.18 71.83 71.72 70.44 71.41
58.55 58.94 61.10 63.32 65.31 67.46 70.78 71.32 71.96 72.18 71.83 71.40 71.02 70.87 71.39 72.36 72.32 60.72 58.30 58.56 60.48 69.76 73.27 70.11 63.49 58.78 56.05 56.97 56.89 58.93 58.60 64.89 66.97 65.62 66.60 67.39 68.90 70.23 70.17 69.98 70.56 71.17 71.67
57.21 57.49 58.89 61.17 62.66 66.70 70.12 72.14 71.89 71.67 71.46 71.48 71.27 70.77 71.16 71.98 72.45 73.01 68.07 63.78 60.35 63.28 67.21 69.98 67.53 64.40 62.21 64.15 62.93 61.11 62.78 64.92 65.41 66.30 67.48 68.77 68.25 67.78 68.11 69.24 70.21 71.82 72.21
54.59 55.04 57.67 60.44 61.31 63.35 66.30 72.04 71.96 72.58 71.22 71.73 71.67 71.95 71.11 70.55 71.30 68.28 69.36 71.42 70.98 67.42 67.73 70.43 71.41 67.55 69.61 69.05 67.71 67.95 66.77 63.78 64.26 65.83 65.84 65.56 66.24 66.96 68.11 70.30 72.02 71.96 71.96
51.28 53.37 55.75 57.35 59.35 61.87 65.09 70.39 54.17 56.43 56.17 55.08 55.81 66.18 71.71 63.80 57.80 54.46 53.63 53.45 55.26 53.81 65.51 70.68 70.87 70.98 70.53 70.63 70.71 69.60 68.75 66.22 66.37 66.67 66.35 66.80 67.28 68.07 69.17 70.80 71.57 71.96 70.71
50.93 51.84 54.49 56.05 59.16 60.77 62.60 66.16 71.53 63.56 50.55 49.28 50.19 52.91 54.54 63.35 52.00 51.27 51.27 50.91 49.46 52.72 70.80 70.99 71.05 71.47 71.36 71.17 70.85 70.95 70.54 70.53 71.03 69.93 69.13 68.88 69.58 70.21 69.36 71.28 70.22 69.24 67.79
50.56 51.35 54.99 57.50 58.39 60.17 62.40 65.52 69.31 70.68 69.47 69.98 55.62 53.09 52.00 51.09 50.55 50.91 47.83 50.73 59.21 56.11 70.71 71.72 71.48 71.54 71.85 71.27 71.17 71.06 71.21 71.18 70.35 70.87 70.03 70.46 71.16 71.25 70.58 69.67 68.88 68.52 68.04
49.80 52.71 55.36 55.55 56.97 57.58 61.11 65.38 68.14 71.55 71.34 71.26 66.28 55.81 52.18 47.83 46.74 45.11 46.20 69.37 69.87 68.05 67.14 70.30 71.16 71.63 71.27 71.66 71.61 71.81 71.90 71.00 70.33 71.28 72.02 71.93 71.23 70.28 68.23 66.83 65.77 58.58 60.34
49.19 51.94 53.54 53.57 54.67 55.59 58.68 60.53 63.96 68.27 70.28 70.48 68.72 69.72 59.59 57.70 62.45 63.47 59.49 64.63 68.45 69.87 68.81 69.08 70.86 71.72 71.43 70.48 70.55 71.10 70.13 68.56 70.15 70.33 69.99 67.32 68.09 67.15 64.94 63.14 63.45 62.60 63.72
47.05 49.42 51.74 51.56 52.02 51.09 52.81 55.43 57.07 60.69 66.67 69.88 69.54 67.32 55.99 66.21 68.32 69.58 67.52 66.85 66.21 65.33 65.83 67.34 67.77 67.64 66.41 65.42 64.34 65.11 65.50 65.84 66.33 67.28 68.59 67.50 65.20 62.91 63.34 65.73 65.80 65.12 64.10
46.91 47.86 48.90 47.99 48.58 48.26 47.25 49.79 52.26 52.68 55.11 65.67 64.99 59.53 50.73 66.53 66.19 60.49 56.49 54.52 52.38 51.51 51.68 51.97 52.13 52.01 50.87 52.17 56.39 61.62 63.86 63.57 63.10 63.14 65.01 64.84 63.83 64.43 64.27 63.91 63.24 62.59 62.23
45.17 45.33 45.76 45.74 45.70 46.10 45.60 44.77 45.50 48.94 48.24 50.98 56.63 57.40 56.53 52.98 51.31 49.81 47.94 46.62 46.46 46.08 45.77 46.19 46.66 46.91 46.78 48.35 49.08 49.99 53.87 53.14 51.07 54.33 58.44 60.81 62.12 62.44 62.83 62.63 62.93 62.67 61.73
42.46 42.27 42.36 42.37 42.99 42.99 43.26 43.25 42.80 42.52 45.79 45.25 45.18 46.64 46.74 46.38 45.05 44.44 43.86 43.02 43.35 43.63 46.55 44.27 42.00 41.49 43.95 43.90 43.75 43.51 40.21 41.76 47.47 52.27 53.92 57.55 58.17 56.29 59.80 60.35 60.57 60.76 61.42
40.41 40.57 40.24 40.02 40.11 39.82 40.46 40.67 41.98 41.44 41.16 41.56 42.46 43.19 43.36 43.14 42.03 41.52 41.24 41.03 40.89 41.77 40.87 41.10 39.35 39.05 38.98 38.98 38.71 37.83 34.62 35.93 41.88 43.21 51.63 54.98 57.16 58.33 57.22 56.88 57.92 57.86 58.97
40.16 39.57 39.21 39.13 38.89 38.75 38.46 38.26 38.64 39.52 40.07 39.84 39.54 39.41 40.46 41.85 41.53 40.92 41.30 41.00 40.44 40.49 39.44 39.25 39.05 38.83 38.26 37.98 36.49 34.21 32.85 34.09 37.95 36.74 47.27 48.72 48.90 48.71 51.54 54.27 54.61 54.25 53.27

GFSGL_sfc_wetblb_078.txt.gz
Wetbulb
68.84 69.46 69.30 69.04 68.79 68.25 68.90 70.22 71.34 72.22 72.16 72.40 73.39 74.12 73.75 72.63 72.72 72.49 72.52 72.93 72.33 72.44 72.39 72.34 72.28 72.36 71.89 72.06 71.32 71.79 70.48 68.03 68.02 70.39 68.64 71.52 73.13 73.98 75.56 75.66 75.38 75.99 75.41
68.90 69.27 69.34 69.49 69.78 69.10 68.56 69.25 70.20 71.27 72.06 72.50 72.75 73.44 73.75 73.22 73.16 73.19 72.13 73.28 72.18 71.91 72.43 72.14 72.07 72.12 72.43 73.23 72.34 72.08 71.55 71.29 70.41 69.93 70.90 71.37 73.09 74.59 74.82 74.85 75.37 75.75 75.57
68.98 69.09 69.22 68.98 68.70 69.64 69.72 69.57 69.81 70.29 70.82 71.66 72.55 72.54 73.07 73.33 73.32 73.47 72.93 73.10 72.90 72.71 72.52 72.36 72.67 72.54 72.39 72.42 72.53 72.05 71.94 72.04 71.50 70.55 71.01 73.05 73.31 73.47 74.56 75.39 75.45 75.67 75.08
68.59 68.62 68.42 68.52 68.47 68.88 69.78 70.03 69.68 70.09 70.26 70.73 71.85 72.61 73.26 73.54 73.67 73.59 73.29 72.93 72.83 72.87 73.12 73.10 73.37 72.94 73.16 73.21 72.58 72.75 72.77 72.23 72.48 72.08 72.07 71.81 72.21 73.78 73.53 72.66 73.71 75.15 73.94
68.54 68.80 68.54 69.03 69.05 69.05 69.03 69.27 70.35 69.93 70.13 70.67 70.99 72.39 73.28 73.70 73.43 73.71 73.67 73.22 72.91 72.66 72.97 73.12 73.45 73.20 70.47 71.45 73.48 73.84 73.19 72.68 72.71 72.31 72.27 72.17 72.76 72.75 72.97 73.81 72.30 72.96 73.58
68.47 68.53 69.58 69.73 69.53 68.73 68.65 68.77 69.11 69.98 69.92 69.72 70.24 71.27 72.39 73.31 68.55 67.77 72.01 73.58 73.74 73.48 73.24 73.61 73.92 71.51 71.20 67.63 67.16 67.87 72.20 74.05 73.44 72.65 72.91 71.84 73.07 73.02 73.90 72.72 71.98 71.24 70.54
69.19 69.19 69.42 70.12 69.87 69.84 68.94 68.57 68.15 68.63 69.77 69.30 69.61 70.12 70.88 72.24 65.88 65.97 67.80 73.73 73.48 73.50 73.63 73.59 73.06 73.40 71.42 74.21 69.54 66.55 66.71 65.96 68.50 74.42 73.20 73.36 73.41 74.55 74.50 73.47 72.51 71.19 71.27
68.43 69.71 69.68 69.72 69.71 70.34 70.40 68.71 68.21 68.34 68.55 68.96 69.38 69.92 70.05 70.77 64.22 64.35 66.44 72.74 73.31 73.33 73.23 73.36 73.18 73.56 73.32 73.45 73.73 73.51 73.73 73.93 72.59 70.81 72.24 73.98 74.95 75.65 75.12 74.48 73.27 72.49 73.18
65.03 67.58 69.63 71.20 70.11 70.18 70.21 70.73 69.98 68.84 68.11 68.46 68.98 69.06 69.87 70.34 62.34 62.42 65.01 72.04 72.32 72.91 73.31 73.48 73.58 73.28 68.49 64.43 73.27 73.24 73.49 73.68 69.37 64.32 65.66 65.57 64.84 64.08 66.97 71.28 71.14 71.23 70.72
60.61 62.17 64.25 66.35 69.06 70.80 70.34 70.70 71.39 71.26 69.80 69.36 69.12 69.22 66.53 69.48 62.19 60.63 63.28 70.92 70.45 71.23 72.81 73.44 65.32 70.86 64.18 61.47 71.78 72.88 72.08 72.61 73.73 73.65 73.09 68.49 65.27 68.89 62.90 69.84 71.87 70.60 71.50
59.98 61.13 63.35 64.80 66.11 68.43 70.18 72.58 71.84 71.93 71.54 71.08 70.25 70.57 69.83 68.25 69.02 58.86 59.37 71.00 71.26 70.99 71.34 71.76 73.46 61.88 59.72 57.82 60.88 73.03 71.54 72.79 71.60 72.52 73.16 72.73 72.64 72.57 72.67 71.79 72.27 72.37 72.21
58.93 60.51 61.84 63.16 64.69 66.66 67.63 69.43 71.72 72.59 71.63 71.59 71.35 71.31 71.50 70.89 62.76 60.09 57.68 60.59 67.26 71.49 71.04 71.92 71.93 60.07 57.40 57.16 58.25 60.96 59.94 61.33 71.75 72.12 71.68 71.23 71.75 72.26 73.34 74.05 75.27 73.82 74.69
57.11 58.52 59.61 61.84 63.45 65.67 66.34 67.26 68.75 71.82 72.16 71.24 71.31 71.28 71.58 72.42 71.73 59.77 57.65 57.45 59.65 69.36 72.61 69.44 63.47 58.14 57.15 57.67 57.02 58.60 58.06 66.00 68.42 69.47 69.44 70.32 71.85 72.65 73.73 73.64 74.11 74.55 74.54
54.52 56.17 57.03 59.10 60.18 62.11 65.33 67.01 67.20 70.78 71.86 71.38 71.38 71.33 71.85 72.27 72.59 72.88 66.95 63.21 59.82 62.82 66.70 70.11 67.35 65.26 63.12 66.06 65.26 62.31 65.13 68.04 68.91 69.23 69.99 70.89 71.45 71.42 71.71 72.62 72.46 73.26 73.61
53.35 53.34 54.84 57.13 57.99 59.64 61.94 64.19 65.66 68.41 70.65 71.89 72.57 72.69 72.07 71.41 72.14 68.25 68.76 70.74 69.76 66.18 67.13 70.55 71.32 71.48 71.49 71.73 70.60 70.73 70.35 68.88 67.92 69.04 69.47 69.75 70.16 71.25 71.16 72.09 72.37 73.20 73.72
50.64 51.54 53.25 54.69 57.21 58.21 59.70 61.33 58.00 55.00 54.30 53.75 54.84 65.86 72.66 64.13 59.25 53.75 54.11 52.48 53.93 52.66 66.70 70.29 70.56 70.86 70.90 70.46 71.33 72.43 72.16 69.06 70.36 70.83 70.22 70.33 69.97 69.92 70.36 72.16 73.07 73.88 73.57
49.60 50.31 51.42 52.71 55.85 57.47 58.57 59.50 61.75 63.35 53.57 50.85 49.58 50.49 52.30 63.09 50.13 50.49 49.95 50.49 48.86 53.75 71.27 71.11 70.62 71.51 71.53 70.83 71.26 71.50 72.51 72.20 72.53 71.09 70.42 70.38 70.49 70.84 70.26 72.06 72.79 73.36 72.85
48.48 48.64 50.94 53.72 55.73 55.84 57.85 58.94 60.79 63.60 65.97 68.01 55.56 53.57 50.67 49.95 47.95 49.95 48.86 51.40 60.92 56.05 70.45 71.27 71.90 71.84 71.95 71.83 71.84 71.91 72.72 73.67 72.62 72.74 72.12 71.99 71.66 71.13 70.85 70.96 72.53 73.01 73.09
46.35 48.12 50.09 52.12 53.70 53.68 55.06 58.06 59.06 61.64 64.58 67.47 71.35 57.88 52.26 47.23 49.04 48.86 47.77 69.31 69.81 70.03 67.99 70.40 72.46 73.06 72.61 72.34 72.31 72.63 73.28 73.45 73.38 72.77 72.27 71.95 71.60 71.42 71.21 71.97 72.72 64.45 66.52
47.20 48.33 49.53 51.06 51.97 52.06 53.41 55.15 56.59 58.40 59.84 62.42 68.26 70.42 63.36 58.40 61.74 60.65 58.99 64.89 69.86 72.11 72.27 70.69 71.42 72.82 73.19 72.95 72.18 72.77 72.41 72.03 72.32 72.27 72.86 72.72 72.62 72.05 71.71 71.67 71.59 69.40 67.38
47.39 47.14 48.75 50.03 49.66 50.92 51.61 51.23 52.69 54.23 55.35 58.40 61.06 66.05 56.29 66.74 68.71 69.47 68.53 66.59 68.03 69.96 71.34 70.81 70.87 71.84 72.36 72.52 72.37 72.50 72.35 72.37 71.99 71.67 72.15 72.30 71.68 70.02 68.91 68.65 67.63 67.21 66.91
45.81 46.44 47.16 48.28 48.01 48.21 48.86 48.69 48.72 50.27 51.73 52.55 55.61 61.98 49.40 63.53 67.58 65.27 58.95 54.88 51.82 51.29 52.42 54.12 51.99 51.97 52.47 53.44 55.67 61.78 66.29 67.78 67.92 68.98 71.07 70.28 68.87 68.48 68.14 67.78 67.81 68.01 67.61
43.71 44.51 44.93 44.81 45.38 45.53 46.10 46.51 45.88 45.77 47.97 48.31 49.43 50.98 50.06 48.33 47.73 46.63 46.92 46.07 45.93 45.22 45.07 45.91 47.97 46.92 47.39 47.84 49.75 47.97 51.41 54.27 54.64 56.91 61.04 64.31 67.29 67.38 67.03 66.83 66.46 66.34 66.75
41.94 42.12 42.06 42.09 42.35 42.38 42.49 43.52 43.55 42.41 43.72 44.98 45.14 44.97 44.52 43.98 43.40 43.01 43.04 43.04 43.15 43.08 44.90 43.88 42.78 42.75 43.76 44.80 45.30 47.12 49.19 48.14 51.84 53.98 56.57 60.98 64.27 62.08 66.27 65.66 65.98 66.43 65.04
40.16 40.28 39.99 39.97 39.78 39.74 39.92 40.37 40.24 41.53 41.27 41.58 42.14 42.83 42.76 42.26 41.50 41.32 41.09 40.92 41.07 40.91 40.84 41.43 41.63 41.31 40.97 40.78 42.04 41.95 38.91 39.63 46.33 47.50 54.37 55.22 56.51 58.06 58.88 58.32 58.13 59.02 60.96
40.12 39.48 39.17 39.19 38.86 39.02 38.73 38.33 38.37 38.55 38.71 39.65 40.02 40.02 40.53 40.53 40.12 40.12 40.28 40.02 39.35 39.51 38.37 38.66 39.40 40.02 39.38 39.84 39.29 38.10 35.93 35.31 39.22 38.16 48.48 49.04 48.32 47.71 49.48 51.42 54.35 55.55 55.53

GFSGL_sfc_wetblb_081.txt.gz
Wetbulb
72.61 73.78 73.70 73.45 73.12 73.73 73.45 74.42 75.55 76.21 76.81 76.83 77.19 77.11 77.36 77.03 77.43 77.18 76.89 76.36 76.21 76.09 76.43 76.08 76.02 76.89 75.05 75.00 75.34 74.78 73.89 73.20 70.70 72.06 74.84 76.10 77.21 77.98 78.26 78.94 78.02 77.99 76.88
72.41 72.74 73.05 73.61 73.45 72.84 73.15 73.73 75.11 75.63 76.44 76.78 77.22 76.99 77.19 77.17 77.35 76.71 76.38 76.11 75.84 75.64 75.86 75.99 75.51 75.10 76.04 76.61 75.44 76.19 75.54 75.82 73.44 72.80 75.49 74.94 76.72 78.07 78.22 78.39 77.56 76.84 78.21
71.92 70.85 71.31 71.63 72.51 72.90 73.34 73.65 74.20 74.47 75.42 75.66 76.55 76.68 76.91 77.00 77.16 77.18 77.20 76.59 76.58 76.44 75.96 75.88 75.83 76.16 75.93 75.66 76.17 75.37 75.33 75.60 75.60 74.11 73.86 75.45 76.24 76.93 77.17 77.91 77.64 78.29 77.34
72.00 71.82 71.73 71.65 71.63 72.08 74.39 74.25 73.90 74.24 74.63 74.56 75.55 75.86 76.52 77.41 77.20 77.08 77.00 76.96 76.97 76.86 76.74 76.57 76.46 76.33 76.32 77.32 76.46 76.79 76.39 75.69 75.54 74.61 74.04 74.42 75.10 76.74 76.79 74.53 74.24 75.29 76.00
71.33 71.55 71.65 73.51 73.70 72.45 71.63 74.16 74.30 74.35 74.11 74.72 74.83 75.08 75.68 75.75 75.86 76.89 77.00 76.78 76.60 76.58 76.83 76.83 76.65 75.53 72.19 73.37 75.81 76.58 76.84 75.77 74.87 74.25 73.55 73.81 73.68 73.77 74.08 74.65 73.75 74.82 76.65
70.77 70.88 72.90 72.93 73.74 73.52 73.46 73.04 74.69 74.23 73.95 74.12 73.97 74.36 74.75 74.18 68.11 67.75 74.11 76.55 76.81 76.52 76.10 76.75 77.08 73.03 72.31 68.06 67.62 68.21 72.66 75.94 75.08 73.76 72.84 72.78 74.58 75.02 74.88 74.31 73.79 73.18 71.26
69.93 71.37 72.41 72.87 72.72 73.20 73.38 73.46 73.87 73.79 74.27 73.69 73.80 74.16 74.81 75.83 65.49 65.63 68.24 75.69 76.43 76.80 76.80 76.78 76.37 76.23 74.10 77.06 69.73 66.53 66.97 65.90 68.13 75.66 74.68 74.89 75.13 76.08 76.63 75.93 75.71 74.69 73.80
69.58 70.43 72.22 72.41 72.42 73.29 73.19 72.74 73.35 73.02 73.15 73.55 73.28 74.28 74.57 74.61 64.59 63.73 66.19 75.11 76.44 76.71 76.99 77.25 77.08 77.06 76.93 76.33 76.65 76.30 76.44 76.72 76.03 74.14 75.16 76.27 77.22 77.72 77.99 77.34 76.66 76.16 76.02
61.27 64.70 65.65 66.88 71.26 72.63 72.69 72.85 72.99 72.71 72.56 72.46 72.94 73.50 73.88 74.39 62.86 62.20 65.66 73.92 74.42 76.52 77.16 77.22 77.25 77.06 71.06 65.41 75.44 75.44 75.86 76.21 70.94 66.21 66.77 66.19 65.90 64.97 68.49 75.09 73.89 73.21 72.12
58.01 60.13 63.67 66.03 67.18 67.60 72.47 73.63 74.06 74.05 73.03 72.96 72.60 73.69 69.97 74.25 64.77 60.19 63.65 72.20 72.99 73.05 75.55 77.20 66.83 73.36 65.37 61.98 74.25 75.02 74.45 74.86 75.23 75.61 76.37 71.82 67.48 72.14 63.67 72.88 75.07 73.13 72.52
58.75 59.06 61.24 63.44 64.89 66.91 68.39 69.92 73.05 74.02 74.42 74.15 73.19 73.89 74.10 72.94 72.98 59.80 58.45 72.28 72.66 72.81 72.74 73.08 73.50 62.50 60.86 58.38 62.30 75.96 74.84 74.66 72.77 75.18 74.92 75.38 76.04 76.47 76.48 75.81 75.91 75.06 73.47
57.96 58.05 59.58 61.84 63.10 65.12 66.21 68.02 68.77 69.79 72.29 74.00 73.63 73.25 74.00 74.52 65.21 62.15 57.54 59.19 68.19 73.26 73.91 74.11 74.37 59.67 57.67 57.59 59.67 64.04 61.25 63.36 74.38 73.62 73.27 73.42 74.02 74.41 75.45 76.45 77.88 77.70 77.11
55.47 57.19 58.43 59.88 61.03 63.65 64.04 65.42 67.73 69.07 69.77 71.44 72.49 71.96 71.89 74.72 75.17 60.02 57.16 56.92 58.85 70.82 74.38 71.20 63.62 56.81 55.55 58.45 57.23 59.66 58.62 71.09 72.71 72.59 72.39 72.68 73.85 75.04 77.00 76.97 77.08 77.60 77.90
54.53 54.99 56.88 57.46 58.41 61.03 64.70 65.17 66.08 68.25 68.64 69.81 71.98 71.28 71.92 72.77 74.97 75.64 71.84 66.72 59.18 63.42 67.00 71.64 69.19 66.08 64.11 68.41 68.95 64.21 70.19 73.43 73.15 73.10 72.94 73.71 74.89 75.13 74.89 75.86 74.95 75.43 74.94
55.63 55.07 54.96 55.63 57.35 58.40 61.08 62.48 64.81 66.79 66.10 67.60 69.20 72.08 71.79 72.31 74.20 69.34 70.44 74.14 72.60 68.70 69.66 72.90 73.07 72.99 72.99 73.11 73.52 74.36 74.77 74.03 72.96 73.76 74.00 73.86 73.93 74.53 74.62 75.95 75.40 74.88 73.76
52.95 53.80 54.76 54.75 55.32 55.82 58.11 59.44 55.27 53.75 53.18 50.30 49.40 55.16 68.07 63.96 58.96 54.09 54.47 53.39 53.39 54.27 68.58 72.40 72.70 73.17 71.93 72.02 71.83 72.40 73.41 71.87 74.55 73.96 73.97 73.99 73.64 73.97 74.34 75.26 75.25 74.40 73.52
51.41 50.90 52.96 52.32 53.95 55.21 56.83 58.52 58.41 58.85 53.35 51.03 49.40 48.85 47.58 56.13 53.02 49.58 49.76 49.94 51.57 55.44 71.65 72.60 72.32 72.12 71.98 72.23 72.43 72.36 72.38 74.75 76.61 74.14 73.93 73.93 74.18 74.43 73.65 74.33 74.80 74.50 73.97
51.46 49.22 50.08 51.08 52.18 54.31 55.01 56.32 58.02 58.20 59.71 62.19 59.20 54.29 53.20 47.77 48.31 50.12 48.85 51.01 62.37 56.55 72.19 72.49 73.61 72.95 73.76 73.87 73.19 73.08 73.75 73.32 73.67 74.32 74.56 74.74 74.93 74.85 74.66 74.31 74.36 74.27 73.91
48.61 49.72 49.27 49.95 50.99 52.64 53.81 55.14 56.35 58.92 60.28 60.79 62.26 60.90 61.16 49.22 48.85 47.95 49.03 69.90 71.77 72.33 69.66 71.73 73.43 73.87 74.80 74.93 75.59 75.54 74.98 73.46 72.73 73.53 73.35 73.50 73.75 74.20 73.33 73.45 73.44 64.26 67.40
47.75 48.06 48.56 48.32 49.58 51.48 52.77 53.27 53.90 56.48 57.37 58.90 59.78 62.21 64.70 59.49 62.73 60.87 60.07 65.30 71.52 73.16 73.82 73.55 74.18 74.73 75.53 75.74 75.08 75.66 75.87 74.39 73.10 73.04 73.24 73.21 73.74 73.57 72.24 72.87 72.90 72.17 71.78
47.88 47.53 47.84 47.94 47.99 49.95 51.00 51.57 52.71 52.70 53.38 55.15 56.85 59.04 47.58 55.74 65.57 68.05 67.44 65.73 67.83 71.43 72.49 73.48 72.69 72.91 74.15 74.37 74.45 74.00 73.84 73.63 73.23 73.10 72.63 72.62 73.49 73.17 73.08 73.85 73.58 72.70 74.14
47.13 46.14 46.48 46.94 47.95 48.73 49.37 49.92 49.60 50.28 50.15 51.73 53.41 54.34 46.68 56.83 59.22 56.43 56.29 54.98 53.90 52.09 53.13 57.19 58.16 57.25 55.32 56.55 56.55 62.25 68.21 70.08 70.01 69.02 71.05 71.94 72.48 72.41 72.23 71.66 71.64 71.34 72.82
45.32 45.37 45.61 46.00 46.56 46.12 46.42 47.09 47.78 47.72 47.29 48.75 50.00 49.81 49.57 49.01 48.18 48.13 48.54 48.94 47.40 47.80 48.38 49.57 51.05 50.11 51.29 49.39 49.32 50.32 53.73 56.09 56.71 58.33 61.24 64.05 66.74 68.79 69.49 69.40 70.24 70.73 70.42
42.29 42.28 43.01 43.44 43.67 43.40 43.78 43.44 43.63 42.99 43.79 45.28 46.27 45.70 45.10 44.50 43.78 43.87 44.75 43.71 43.74 44.86 46.25 47.10 47.24 44.94 46.77 46.18 47.94 46.72 45.15 49.05 54.49 57.90 59.48 62.20 64.42 63.26 66.30 67.89 69.44 68.90 68.87
40.56 40.53 40.76 40.96 41.15 41.46 41.70 41.64 41.48 42.00 41.83 42.33 42.74 43.15 43.04 42.62 42.16 41.84 42.23 42.59 41.95 41.69 41.44 42.21 42.54 41.96 41.21 41.44 40.33 41.83 36.06 38.59 50.01 48.31 58.24 57.22 57.42 56.98 57.64 56.13 58.15 59.48 58.85
38.94 39.53 39.77 39.69 39.56 39.82 39.72 39.53 39.45 39.48 39.08 39.46 40.31 40.70 40.88 40.31 40.13 40.08 40.31 40.05 39.87 39.51 39.48 39.35 39.87 39.69 39.97 39.77 37.54 35.38 33.29 35.48 42.03 38.88 51.88 52.62 51.79 51.62 51.68 51.76 51.80 52.27 51.68

GFSGL_sfc_wetblb_084.txt.gz
Wetbulb
75.75 75.77 75.94 75.93 76.20 76.58 76.09 76.22 76.31 77.02 77.66 78.30 78.49 78.45 77.41 77.76 78.47 78.45 77.65 77.30 76.45 76.49 76.94 77.04 77.29 77.80 75.53 74.32 74.76 74.49 73.54 73.06 70.67 71.72 73.58 75.80 78.05 77.96 78.86 79.62 78.99 78.31 75.94
75.99 75.84 75.78 76.22 76.38 75.67 75.74 75.98 76.35 76.60 77.05 77.97 78.57 78.51 78.10 77.44 78.33 78.27 76.95 76.27 76.61 76.36 76.31 76.90 76.75 76.32 77.18 76.99 74.98 76.54 75.99 75.74 73.25 74.00 75.78 74.12 77.09 78.07 78.72 79.14 78.00 76.99 77.49
75.08 74.37 74.96 74.96 75.53 74.74 75.38 76.10 76.35 76.36 76.78 76.85 77.50 77.87 77.90 77.31 77.86 78.90 78.12 77.55 77.47 77.12 77.25 77.03 76.65 76.88 76.79 75.93 76.15 75.19 75.35 75.66 75.58 73.90 73.09 74.62 75.29 76.53 77.73 79.48 78.41 78.79 76.19
74.49 74.43 74.02 73.95 73.75 74.20 74.63 75.91 76.07 76.52 76.30 76.16 76.67 77.15 77.53 77.75 77.13 77.82 78.32 78.10 77.78 78.04 78.20 77.91 77.50 76.83 77.14 77.49 76.61 76.99 76.99 76.19 76.95 74.70 73.89 73.74 74.63 77.48 76.85 75.16 73.65 74.68 74.69
73.11 73.87 74.42 75.37 75.29 74.42 75.10 74.80 75.69 76.22 76.46 76.44 76.06 76.17 76.64 76.86 76.70 77.02 77.43 78.01 78.39 78.26 78.30 78.46 78.20 76.35 72.34 73.66 76.11 78.26 78.27 76.44 74.60 73.61 73.16 73.37 73.32 73.71 74.92 73.88 73.22 73.59 76.45
72.10 72.95 74.33 75.15 75.49 75.61 75.80 75.37 75.08 75.95 76.40 76.62 76.19 75.87 75.31 74.33 68.65 67.31 74.14 78.05 77.66 77.96 77.50 78.26 78.61 74.19 73.63 69.04 68.67 68.75 72.82 76.69 75.66 73.47 71.80 72.01 76.53 75.40 74.51 73.42 73.04 72.25 71.09
65.67 71.95 72.65 74.11 74.22 74.83 75.42 75.67 75.63 75.18 75.59 76.65 76.06 76.17 76.40 76.53 65.73 64.59 68.19 75.89 76.43 77.53 77.92 77.56 77.36 76.84 75.30 78.04 70.15 67.48 67.68 66.21 67.83 75.82 75.34 75.37 76.35 76.57 77.64 76.49 77.47 75.23 74.34
60.53 61.69 64.67 69.85 72.01 74.52 74.89 75.09 75.49 75.59 75.49 75.54 75.74 76.54 76.55 76.56 65.00 63.86 65.76 75.29 76.48 77.91 78.03 77.72 78.13 78.14 77.24 76.93 77.63 77.21 77.30 77.68 76.41 75.42 75.82 76.52 77.82 78.16 78.49 78.36 78.30 77.72 77.11
59.36 59.33 60.34 62.29 65.89 69.28 72.94 74.49 75.38 74.61 75.37 75.34 75.61 75.98 76.44 76.32 63.51 62.74 66.36 74.57 74.21 76.41 77.76 78.78 79.06 78.68 72.48 65.65 76.75 76.28 76.89 77.15 71.17 66.37 66.97 66.59 65.34 64.67 69.12 75.76 74.06 72.88 71.28
60.01 60.93 60.48 61.62 63.47 64.23 69.16 72.95 75.35 77.22 75.02 74.85 75.11 76.09 72.16 76.21 65.80 60.60 64.84 73.87 73.65 73.34 75.88 78.15 68.20 74.22 66.51 63.20 76.94 77.22 75.99 75.53 74.70 75.67 76.23 72.81 68.98 73.87 65.02 74.66 75.66 73.32 72.21
61.71 62.00 62.07 61.15 61.45 62.84 64.12 68.47 72.90 75.43 76.06 76.22 75.80 76.02 76.81 75.07 75.19 60.06 58.80 74.06 73.78 73.73 73.50 73.39 74.04 63.19 61.81 59.27 62.18 78.00 75.96 74.87 72.52 74.73 74.64 74.64 75.18 75.79 76.76 77.36 78.31 76.23 73.67
61.75 61.55 61.45 62.14 62.92 62.74 64.03 65.51 67.29 71.16 73.00 74.01 74.66 75.40 76.20 77.07 67.00 63.82 57.96 59.36 69.18 74.02 74.72 74.82 75.43 60.55 57.64 58.46 61.34 65.02 60.80 63.83 73.53 71.93 71.70 72.29 72.42 72.67 74.21 76.33 80.57 79.96 78.83
60.66 60.89 61.39 60.70 61.12 62.65 62.94 64.58 65.25 68.27 70.02 71.54 69.83 70.61 74.13 75.73 76.08 61.62 58.80 57.36 58.64 69.50 75.13 71.71 62.03 57.12 54.19 58.03 57.23 59.85 60.12 72.40 72.76 71.94 71.33 72.22 73.23 73.10 77.97 79.24 79.58 81.85 80.74
59.23 59.82 60.29 60.31 56.92 60.37 62.23 63.21 64.04 66.63 67.37 68.95 70.18 69.78 72.67 75.89 75.41 76.80 75.49 70.10 60.23 64.30 66.53 70.79 69.72 67.00 62.08 67.21 69.85 65.44 71.27 73.99 73.46 72.90 72.90 73.74 74.23 73.22 72.94 74.67 74.65 74.98 75.35
58.07 58.47 58.53 59.16 60.30 56.75 59.55 61.45 62.13 63.97 63.41 64.14 68.02 69.80 70.15 71.05 74.47 63.89 64.58 75.24 77.47 71.89 69.62 73.70 74.05 73.98 74.12 74.85 74.90 74.84 75.06 74.72 73.62 74.27 74.22 74.15 73.64 73.21 73.00 74.25 74.41 74.36 73.78
56.21 56.79 56.86 57.05 57.91 58.59 56.41 58.89 54.73 51.91 50.18 48.77 48.12 54.13 65.03 58.62 55.01 54.47 53.92 53.02 53.92 55.55 70.43 72.79 73.62 74.65 74.74 74.99 74.84 74.62 74.93 72.87 74.94 74.97 74.75 74.39 73.64 73.20 72.83 73.53 74.08 74.05 73.97
53.69 56.50 56.20 54.75 56.69 57.43 57.93 58.53 58.11 57.96 52.28 50.05 47.58 47.94 47.94 50.80 50.30 49.39 47.22 47.40 49.21 56.46 72.75 74.38 73.89 74.58 75.07 75.81 74.77 73.86 73.83 75.64 77.98 75.69 75.15 74.57 74.01 73.68 72.60 72.84 73.36 74.06 74.21
53.70 51.17 54.04 55.23 56.00 56.09 56.74 57.72 58.22 57.94 57.16 57.58 56.27 51.73 51.33 49.21 47.76 46.13 44.68 46.65 63.93 55.86 70.38 72.35 73.97 74.89 75.58 74.94 74.01 74.49 75.60 75.84 76.04 76.26 76.23 75.48 74.79 74.13 73.73 73.79 74.42 74.85 74.68
49.89 50.82 52.41 54.47 54.66 53.71 54.68 55.90 56.39 55.70 56.19 57.47 59.96 58.38 58.34 51.37 48.30 45.22 42.68 58.76 67.35 71.32 70.52 72.50 74.19 75.21 75.57 75.80 76.05 76.00 76.54 76.08 75.72 75.76 75.80 76.04 75.98 76.09 75.28 75.34 75.19 66.12 69.55
49.53 50.49 49.85 49.92 50.03 51.21 51.98 52.65 53.48 54.34 55.54 56.46 58.82 59.13 62.45 59.98 60.93 63.97 63.53 60.34 65.00 71.11 74.11 74.37 73.85 75.36 76.01 76.34 78.66 78.06 77.85 77.60 78.19 77.66 76.15 75.38 74.77 74.14 73.60 73.90 74.45 74.72 74.42
48.41 49.89 49.73 49.17 49.12 49.74 51.01 50.85 52.18 52.93 53.83 55.56 56.21 57.50 45.37 54.82 57.30 59.90 64.03 64.66 65.27 67.59 71.57 74.57 74.85 75.94 76.26 76.98 78.29 77.31 77.00 77.00 76.67 75.56 75.75 75.47 74.95 73.32 73.46 73.51 74.08 74.76 74.30
46.19 46.41 47.03 47.60 48.16 48.44 48.95 50.24 51.69 53.59 53.51 53.65 54.65 54.80 46.71 55.28 55.61 54.59 54.28 52.94 53.48 54.30 54.31 57.23 58.51 55.68 56.44 59.56 60.37 63.46 62.91 64.05 69.33 71.97 73.29 73.45 73.46 73.32 73.32 73.01 73.31 73.75 73.22
45.39 44.78 44.92 45.73 46.76 47.60 48.26 48.84 49.54 51.08 51.95 51.86 51.83 51.51 51.12 51.36 49.75 48.67 48.24 48.33 49.33 49.71 50.68 51.71 53.78 52.81 52.23 52.18 52.20 52.85 55.72 57.77 57.37 58.97 61.86 64.90 66.41 67.95 70.35 71.07 71.30 71.07 71.19
42.49 42.17 42.01 42.54 43.49 44.61 45.78 46.51 48.07 46.06 46.43 47.96 49.30 48.35 47.41 47.23 45.86 44.97 45.06 45.36 46.15 46.53 47.23 47.47 47.51 48.28 49.43 49.88 51.34 51.72 50.53 51.44 54.66 57.67 60.12 63.33 65.41 63.93 65.35 65.61 66.17 67.12 66.10
40.12 40.04 40.47 40.68 41.01 41.55 42.72 43.60 44.26 45.11 45.25 45.33 45.35 45.08 44.69 44.35 43.46 43.13 42.44 42.20 42.40 42.01 42.47 43.32 44.04 44.18 44.27 43.60 43.87 42.97 37.71 38.38 51.13 51.33 60.60 61.06 59.68 60.25 59.04 59.91 59.69 58.45 59.17
39.06 38.46 38.67 38.69 39.44 39.91 40.27 40.50 40.92 41.23 41.39 41.60 42.16 42.03 41.99 41.14 41.04 40.78 40.72 40.13 40.03 39.83 39.72 40.24 40.68 40.64 40.10 40.20 38.34 35.58 33.05 35.44 45.29 40.69 57.23 58.86 56.78 55.96 56.36 56.62 56.35 56.12 56.27

GFSGL_sfc_wetblb_087.txt.gz
Wetbulb
77.03 77.37 77.34 77.03 77.43 77.66 77.03 76.94 77.19 77.11 77.55 77.63 78.85 77.70 78.05 77.83 78.11 78.81 79.20 77.76 77.14 77.31 77.67 77.19 78.07 79.69 75.50 73.83 73.98 73.75 72.99 72.67 70.21 71.74 73.33 76.35 80.25 79.50 79.13 79.84 78.86 79.77 77.44
76.86 77.35 76.98 77.02 77.35 76.74 77.25 77.22 78.02 78.04 77.44 77.54 77.64 78.04 77.53 77.88 79.11 78.45 76.83 76.43 76.29 76.06 76.24 76.84 76.36 75.66 78.97 78.81 75.04 78.47 75.75 76.78 73.11 75.08 75.32 73.95 77.47 79.77 80.25 80.96 78.73 77.49 77.70
76.13 76.34 76.75 76.61 76.52 76.54 77.10 77.38 78.31 77.81 77.68 76.66 77.47 78.84 77.09 77.57 78.40 78.57 78.02 77.82 76.83 76.90 76.86 77.19 76.96 77.47 78.08 76.78 78.02 75.07 74.22 75.30 75.90 73.69 73.40 74.37 75.21 76.06 76.96 79.98 80.55 79.48 77.72
71.99 74.68 75.92 76.15 76.72 76.74 77.81 77.86 77.02 78.45 78.07 77.80 78.05 78.79 78.30 77.83 77.56 77.47 77.92 78.19 78.33 77.68 78.02 77.97 77.72 77.38 78.66 78.71 77.48 79.01 77.77 76.71 76.21 73.70 73.07 73.46 74.25 77.88 76.30 74.95 74.66 75.27 74.94
71.94 73.11 72.02 76.31 76.73 76.65 76.91 76.96 76.71 78.43 78.10 78.15 78.29 78.05 78.44 77.07 76.54 78.40 78.33 77.82 78.70 77.78 78.97 78.99 78.91 76.88 72.97 74.57 75.84 78.28 78.78 76.91 74.18 73.11 72.21 72.66 72.72 73.90 74.97 74.41 73.59 74.41 76.57
68.41 68.48 71.50 73.49 74.45 76.39 76.99 76.39 76.64 76.16 78.04 79.21 78.22 78.00 77.61 75.13 68.77 67.60 74.63 77.61 78.50 78.28 77.71 78.96 80.06 74.72 73.87 69.29 68.66 68.84 72.73 77.23 78.17 73.31 71.59 71.41 77.00 74.97 73.48 72.90 73.36 71.99 70.79
62.78 62.56 66.27 68.85 69.38 70.39 74.52 76.34 76.88 77.21 77.05 78.42 78.69 78.32 78.39 78.60 66.86 64.69 67.84 75.93 77.52 78.44 78.92 78.72 78.62 76.36 75.47 78.95 70.68 68.24 68.61 67.09 68.00 76.51 76.76 76.68 76.71 78.43 78.51 78.27 76.25 76.09 74.05
60.83 61.34 62.52 64.47 66.61 67.91 70.10 74.20 76.17 76.17 75.79 77.32 77.16 78.69 78.80 78.50 66.29 63.71 65.44 76.11 76.72 77.69 78.56 79.66 79.30 79.23 79.29 78.44 78.75 77.89 77.54 77.95 76.86 74.88 75.82 76.86 78.09 79.21 79.27 78.48 78.72 79.16 77.84
62.71 62.91 62.11 61.82 62.35 64.60 67.32 68.17 72.79 75.60 76.99 75.87 76.61 77.19 78.17 78.64 65.28 62.72 65.79 75.13 74.47 76.11 77.47 78.30 78.61 79.58 73.33 67.70 77.70 78.05 78.50 78.82 71.77 68.09 69.45 69.16 68.86 67.15 69.77 75.85 73.62 72.21 70.98
63.12 63.62 64.64 64.70 63.11 61.61 62.71 64.93 67.65 71.77 74.88 76.90 76.10 77.15 73.13 77.89 67.55 61.82 64.66 74.85 75.08 74.89 76.85 77.19 68.27 73.28 67.54 63.66 77.45 77.79 76.94 77.51 78.50 76.94 76.56 72.20 69.11 73.32 65.78 73.56 74.83 72.75 71.97
62.47 63.13 64.04 64.52 64.68 64.36 63.51 64.56 65.20 66.88 70.05 73.54 75.52 77.26 77.25 75.86 76.94 60.63 59.47 75.71 74.65 74.88 75.02 75.30 76.23 63.87 61.95 60.86 61.20 78.21 76.50 77.36 75.87 76.79 76.50 75.77 75.48 76.90 77.45 77.94 78.23 75.96 73.72
61.42 62.09 63.01 63.78 63.73 63.63 64.88 66.17 65.55 66.26 67.13 70.30 73.87 74.66 75.72 78.38 68.72 64.98 58.47 60.18 70.41 74.96 75.47 75.65 75.74 60.98 57.73 58.84 61.82 65.63 63.13 65.85 76.21 75.02 73.69 72.50 72.59 73.24 74.00 76.09 79.41 79.61 78.89
59.97 60.48 61.88 62.75 63.05 63.98 63.07 64.51 63.95 67.03 67.22 67.63 69.41 70.72 72.70 75.50 76.89 64.51 58.87 57.99 60.07 70.25 75.71 72.43 59.54 58.13 55.16 57.00 56.32 58.30 59.44 72.28 74.07 73.80 73.56 73.64 73.86 74.16 75.77 77.24 78.97 82.29 81.44
58.48 58.96 60.00 60.95 60.75 62.01 62.75 62.28 62.46 62.91 64.53 65.11 65.27 67.08 65.96 67.14 74.41 77.68 75.27 70.54 63.13 66.30 67.35 72.01 69.74 66.29 60.20 64.90 69.18 64.86 70.47 73.79 74.24 74.34 74.32 74.84 75.63 74.58 73.70 75.19 73.95 73.98 74.37
57.40 57.54 58.18 59.45 60.08 61.62 62.41 61.91 61.52 62.74 60.29 61.32 62.18 63.04 62.93 64.02 67.14 57.26 56.72 63.01 65.37 63.06 60.68 69.58 74.24 74.83 73.68 75.10 75.92 76.49 76.03 75.53 74.23 74.43 74.91 74.94 74.87 74.54 74.43 75.41 74.14 73.68 73.32
56.37 56.72 56.76 57.77 58.46 58.61 58.73 59.22 52.48 51.69 49.97 49.78 47.82 53.42 60.86 55.42 51.97 49.71 48.28 48.46 49.37 51.36 62.91 70.34 70.95 74.67 74.62 75.06 75.46 76.27 76.00 74.18 76.28 76.04 75.51 75.26 74.76 74.95 74.91 75.32 74.76 73.68 73.19
54.54 55.18 56.03 55.52 57.59 57.77 58.12 57.95 57.45 57.40 49.42 48.44 46.73 46.65 44.98 48.95 45.90 45.20 44.29 45.02 47.37 51.00 64.55 69.75 71.54 72.63 74.06 75.57 74.96 74.56 74.85 77.28 77.44 75.99 75.65 76.09 75.61 75.34 74.03 74.36 74.36 74.22 73.63
52.23 49.54 51.78 53.29 55.59 56.07 56.47 57.25 57.74 57.59 57.77 59.04 52.27 51.14 51.92 46.67 45.56 44.65 43.93 46.09 61.32 58.97 64.83 69.08 71.84 72.64 74.05 74.68 75.08 76.06 76.14 77.12 76.46 76.61 76.88 76.84 77.06 75.93 75.08 74.79 74.48 74.42 74.02
49.50 50.29 51.44 51.60 52.77 53.70 54.98 55.60 56.02 56.43 57.18 57.94 59.28 56.22 55.79 48.82 45.56 45.02 44.64 57.74 62.82 65.40 67.90 68.66 71.73 73.27 71.96 72.04 74.87 75.15 77.00 77.05 76.57 77.00 76.99 76.77 77.04 76.49 75.69 75.83 75.27 65.18 68.93
48.84 49.44 50.24 50.88 51.60 51.57 52.62 53.64 54.86 55.63 56.35 57.33 58.20 59.31 61.28 60.06 61.79 61.43 61.62 63.43 63.47 64.10 65.38 69.10 74.03 73.83 72.91 74.38 76.14 74.61 75.39 75.41 76.65 76.85 75.97 76.88 76.84 76.90 75.88 76.16 75.93 74.77 76.03
45.80 47.39 48.16 47.93 48.15 49.13 50.00 50.80 52.58 54.21 54.74 55.78 57.32 58.23 44.84 58.83 59.35 59.17 59.20 59.64 58.76 57.96 58.86 61.76 64.00 72.46 72.68 73.19 74.44 75.82 74.78 75.05 76.25 76.50 77.20 77.38 77.28 76.25 75.92 76.12 75.37 75.12 74.52
46.00 46.27 46.62 46.16 46.69 46.73 47.39 48.93 49.53 50.24 52.89 54.93 56.88 57.67 47.35 57.54 57.83 56.93 56.93 54.95 54.32 53.32 53.47 53.75 55.57 57.74 59.83 61.34 61.07 63.83 66.08 68.85 69.15 70.67 73.88 75.38 74.88 74.47 74.44 74.07 74.06 73.08 72.58
44.28 43.85 44.27 44.39 44.73 44.78 45.33 46.35 47.19 48.41 49.71 52.84 54.05 54.12 55.12 55.67 55.54 54.22 52.30 51.13 49.76 49.53 49.82 50.04 51.51 53.77 54.21 55.06 55.08 55.05 57.20 60.41 60.99 62.41 63.96 64.70 65.71 66.44 67.39 68.72 70.73 70.66 70.84
41.69 40.86 40.64 41.34 41.90 42.10 42.24 42.87 44.32 44.19 45.98 48.01 49.92 49.81 50.87 51.42 50.98 49.93 48.59 47.12 46.33 46.62 46.30 46.29 46.15 46.22 48.40 49.58 50.56 50.36 51.05 50.69 52.04 58.06 61.46 62.59 63.61 63.22 66.34 66.67 64.66 63.25 64.01
40.36 39.60 39.53 39.61 39.90 40.41 40.38 40.76 41.57 42.69 43.80 45.23 46.00 46.95 47.62 47.68 46.69 45.77 45.23 43.97 43.53 43.08 42.35 42.60 43.42 42.67 42.97 42.68 43.50 43.47 40.88 35.28 44.78 47.41 58.26 61.40 62.65 62.15 62.51 62.87 60.99 59.76 60.00
41.50 39.61 38.86 38.16 37.89 38.26 38.76 39.12 39.30 40.27 41.15 41.72 42.74 43.42 43.88 44.04 43.22 42.88 42.43 41.91 41.40 40.56 40.38 40.54 40.20 39.48 39.26 39.55 39.28 36.48 33.85 37.18 46.55 41.03 58.41 59.41 59.18 58.16 58.10 57.03 56.52 56.36 57.01

GFSGL_sfc_wetblb_090.txt.gz
Wetbulb
77.15 77.41 77.11 77.17 77.73 78.49 78.24 79.37 79.20 80.20 74.58 72.72 67.57 68.23 75.61 77.99 78.52 78.57 76.73 75.11 76.22 76.36 77.58 76.68 77.00 77.45 75.74 75.49 75.10 74.47 74.17 73.37 70.85 71.69 74.79 75.03 75.79 76.00 75.94 77.31 77.90 77.62 76.88
76.75 77.50 77.38 77.44 77.66 77.47 77.73 78.21 79.22 78.95 79.47 77.17 73.85 75.15 76.85 78.54 77.21 76.74 77.36 76.56 75.84 76.14 76.85 76.62 76.09 75.95 77.28 77.28 75.68 74.93 74.77 75.35 73.10 71.16 72.71 72.57 73.26 74.04 77.22 77.91 77.36 77.29 76.29
75.06 76.91 77.24 77.00 77.25 77.20 77.81 77.93 78.83 78.90 78.53 77.65 77.85 78.45 78.12 77.64 78.32 77.22 76.66 77.55 76.72 76.74 77.20 77.04 76.57 76.75 76.26 75.48 76.83 75.70 74.60 74.69 74.62 73.17 71.66 75.18 74.05 74.43 74.55 76.74 77.73 77.72 78.81
70.48 73.80 73.11 76.48 76.64 77.03 78.18 77.80 78.18 78.70 77.99 77.61 78.06 78.18 77.52 77.36 77.93 78.15 78.05 76.76 76.79 76.56 77.54 77.41 77.51 76.77 76.84 77.00 76.19 76.08 75.72 75.45 74.90 74.14 72.70 72.10 73.02 74.23 76.15 74.87 73.91 73.38 73.24
68.58 68.56 71.14 72.07 75.61 78.77 78.83 77.58 78.57 79.27 78.18 78.23 78.05 77.70 78.43 77.34 77.19 76.87 77.20 77.75 76.94 76.60 77.32 77.63 77.31 76.64 74.26 75.39 76.28 76.17 75.95 75.30 74.11 72.90 72.34 72.94 72.72 73.55 72.27 73.13 71.85 73.84 73.27
65.97 65.69 68.09 69.39 71.28 72.96 74.84 77.05 77.55 78.02 77.85 77.86 77.35 77.56 76.94 76.21 69.80 67.74 74.67 76.36 77.56 77.13 75.81 76.79 77.56 75.18 73.46 69.06 68.69 68.96 72.42 75.66 74.80 75.01 73.43 71.11 72.14 74.13 74.30 73.74 72.89 70.67 69.15
64.49 64.67 65.68 67.46 68.33 69.30 70.74 73.01 75.63 76.67 77.70 76.94 76.42 77.62 76.85 77.47 68.57 65.20 66.70 75.48 76.89 76.74 77.25 76.37 75.87 75.80 73.14 76.48 69.59 67.69 68.05 66.73 68.55 72.59 72.47 73.43 73.78 74.66 75.68 74.85 74.62 74.19 73.16
63.69 63.67 64.33 64.33 64.86 66.12 67.47 69.05 69.94 72.28 75.66 76.76 76.22 76.53 76.53 76.81 67.74 66.03 65.96 72.57 74.50 75.53 76.93 77.26 77.02 76.12 76.00 76.87 77.06 76.58 75.28 75.04 73.92 71.66 71.63 72.33 73.39 74.71 75.37 74.99 74.48 74.98 75.74
63.76 64.61 64.63 64.37 64.36 64.38 64.04 65.31 67.44 68.66 70.43 74.32 75.61 76.23 76.58 76.37 65.49 63.19 65.76 74.05 74.03 73.96 74.89 75.98 76.08 76.74 72.27 67.86 74.66 75.34 76.28 76.65 72.16 68.47 68.78 68.48 67.92 67.52 70.02 74.46 72.89 71.58 69.89
62.17 63.34 64.88 65.83 65.40 65.25 65.35 64.81 66.68 68.26 69.30 71.72 72.34 75.38 72.37 75.33 67.66 61.81 64.43 74.58 74.33 74.20 74.50 74.59 67.58 71.01 65.93 63.93 72.94 74.97 73.46 74.01 75.25 75.98 74.89 69.86 67.77 70.44 65.64 71.61 73.98 71.70 70.48
61.77 62.47 63.88 64.75 65.19 66.37 66.57 67.02 66.10 66.04 67.83 69.18 70.83 73.29 75.09 73.91 74.50 62.11 59.64 74.09 74.83 74.25 74.15 74.24 75.23 64.22 61.19 60.45 60.72 73.50 73.96 74.88 73.82 75.19 75.51 75.25 74.76 74.95 75.48 74.36 73.97 72.87 71.13
61.21 61.44 62.35 63.82 63.36 63.19 65.92 65.30 65.64 66.73 66.89 68.02 69.49 70.74 72.97 74.64 66.80 66.13 59.74 60.04 66.06 73.59 74.15 75.04 74.78 60.22 55.63 55.73 59.26 62.82 62.14 65.21 73.85 74.12 74.07 73.54 72.85 72.37 72.65 73.09 75.12 75.61 75.53
60.07 59.93 60.67 61.66 62.57 63.97 64.34 63.52 63.54 64.30 67.15 67.02 66.89 66.85 68.18 67.89 69.08 60.82 58.83 58.47 59.17 63.92 67.79 68.22 59.45 59.18 57.10 59.86 56.60 57.31 57.74 67.76 70.07 71.03 71.53 72.30 73.29 73.89 73.57 72.82 72.93 76.39 77.20
58.57 59.48 59.72 59.55 59.53 61.49 61.89 61.83 62.68 62.06 62.32 63.58 64.20 64.52 64.52 64.85 67.89 68.15 65.40 63.77 61.67 64.67 64.82 68.08 64.48 60.83 60.66 64.29 65.69 69.41 64.91 69.62 70.64 71.05 71.41 72.47 73.43 73.38 72.88 73.32 71.42 70.85 70.94
55.89 57.52 58.23 58.40 59.09 59.82 61.77 61.64 61.43 62.91 61.14 60.60 61.03 61.48 60.41 60.49 61.87 54.15 54.74 61.01 62.83 59.65 56.01 61.47 66.72 69.46 71.46 73.75 73.75 73.75 74.19 71.38 71.32 72.44 72.60 72.91 73.14 73.26 72.83 73.12 72.25 71.16 70.75
51.71 53.13 54.90 55.73 56.90 57.53 57.97 58.83 55.30 51.23 49.12 48.54 48.33 53.76 60.81 54.34 49.77 48.66 44.71 44.69 45.23 47.75 56.25 61.07 65.80 68.53 69.05 71.13 73.44 74.22 74.21 72.61 74.19 73.63 73.35 73.12 72.45 72.30 72.62 73.35 73.15 71.76 70.89
49.20 50.12 51.18 51.54 53.86 54.48 56.11 56.23 55.75 56.55 50.82 46.77 45.57 46.27 46.17 50.96 47.56 45.21 43.06 42.70 43.59 47.59 56.94 61.42 64.99 67.50 68.59 70.99 72.02 72.37 72.66 74.24 74.83 74.51 74.01 74.18 73.78 73.25 71.68 72.19 72.14 71.89 72.14
49.94 49.07 49.69 51.20 51.68 53.27 54.09 54.68 55.39 54.90 55.23 57.54 52.93 48.26 46.90 45.10 44.74 43.24 42.52 45.38 60.96 56.21 60.98 62.65 64.84 67.41 68.40 68.84 70.67 72.49 72.97 73.60 73.51 74.19 74.34 72.87 72.83 73.81 73.30 72.54 72.44 71.99 71.74
49.90 49.01 48.71 48.42 49.14 50.17 51.18 53.18 53.58 54.16 54.70 55.55 57.07 54.82 53.72 45.37 44.62 43.68 42.88 60.08 61.54 62.31 63.93 64.74 66.11 67.19 69.00 70.49 71.70 73.06 72.89 72.21 72.92 73.43 72.72 73.21 73.57 73.62 73.00 73.21 73.16 64.75 66.89
48.08 48.65 48.09 47.49 47.85 48.53 49.31 49.32 50.16 51.21 51.95 53.47 54.99 56.37 58.43 57.92 59.62 61.04 62.68 62.84 61.90 62.73 61.97 61.67 61.91 62.00 62.81 64.18 70.46 72.52 72.39 72.89 73.93 73.33 72.88 72.43 72.61 73.13 72.42 72.67 72.81 72.17 71.69
46.79 46.67 47.39 46.44 45.94 46.11 46.48 47.32 47.32 47.69 48.66 50.34 51.56 53.63 47.76 54.24 56.72 57.96 59.02 59.60 60.15 58.20 56.70 55.72 55.68 55.89 56.84 58.76 60.99 66.62 71.86 72.94 73.68 73.87 71.49 71.44 72.14 72.17 72.85 72.77 72.65 72.59 72.58
45.70 45.19 44.49 43.68 44.39 44.91 45.04 45.48 46.15 46.60 46.43 46.41 47.91 50.17 46.90 51.94 55.97 57.48 58.23 57.74 55.53 54.35 53.28 52.99 51.69 52.07 53.91 55.09 55.39 56.98 59.90 66.16 67.53 67.15 67.06 66.65 67.47 69.50 71.26 71.43 70.99 71.31 71.11
44.10 43.00 42.08 41.42 41.70 41.57 41.96 42.93 42.71 43.45 44.67 45.33 46.43 47.76 49.13 49.90 51.77 52.91 53.35 53.03 51.95 50.89 50.18 49.46 48.73 48.42 49.41 50.69 52.69 54.19 54.11 57.16 59.19 60.69 61.88 63.17 64.10 66.20 67.29 67.40 68.28 69.57 70.43
43.28 41.78 40.18 39.77 39.98 39.80 39.48 39.43 40.01 40.00 41.34 42.29 43.52 45.86 46.20 47.51 48.48 49.36 50.30 50.79 49.36 47.59 47.09 45.84 45.43 45.63 45.20 44.70 45.99 47.10 48.62 50.87 49.96 51.74 56.26 60.03 62.19 61.94 64.44 65.33 65.98 65.55 65.23
43.30 41.32 40.57 39.98 38.84 38.35 37.61 37.72 37.90 38.69 39.51 40.56 41.25 42.38 43.75 44.90 45.69 46.37 47.36 46.89 45.75 44.47 43.74 43.16 43.15 42.68 42.54 41.74 41.44 41.56 40.35 35.26 37.99 42.97 52.46 57.50 60.09 62.27 62.90 62.79 62.36 60.93 61.13
44.07 42.88 41.23 40.54 38.89 38.08 36.90 36.47 36.74 37.03 37.62 38.68 40.00 40.69 41.24 42.04 42.98 43.72 43.74 43.25 42.51 42.31 41.49 41.12 40.02 39.54 39.51 39.67 38.75 35.55 32.89 32.89 39.40 38.35 49.47 58.36 59.55 58.89 59.48 58.56 58.55 57.90 57.13

GFSGL_sfc_wetblb_093.txt.gz
Wetbulb
72.76 73.83 73.36 73.84 74.07 73.97 73.47 73.95 73.27 71.02 72.02 70.79 69.78 69.92 70.49 72.66 73.74 73.12 72.58 72.13 71.31 71.68 72.25 72.02 71.13 71.86 71.40 71.66 72.41 71.23 70.32 69.47 66.01 67.65 70.96 70.72 69.27 68.75 70.04 71.30 73.89 74.11 73.88
70.01 70.86 74.26 74.41 73.90 73.04 73.90 74.40 73.36 72.04 71.80 70.64 67.07 65.65 67.56 72.21 74.05 73.47 72.70 73.14 71.60 71.37 71.86 71.91 71.33 73.24 71.54 72.66 71.09 70.93 71.08 69.64 68.00 65.58 67.37 68.37 69.60 70.61 71.02 72.72 75.36 76.11 74.25
69.51 69.76 71.24 73.38 74.42 72.81 73.75 74.38 74.72 74.20 72.89 72.05 71.40 69.62 72.18 73.27 73.95 73.31 73.08 72.66 72.77 72.55 72.64 72.42 72.53 72.28 71.34 71.31 70.24 71.01 71.02 72.20 71.38 69.87 69.82 70.83 71.23 70.64 70.30 71.07 72.20 74.07 74.31
68.52 69.11 69.31 69.54 70.59 72.38 74.54 74.62 75.06 75.07 74.57 73.83 73.75 73.47 74.49 74.13 73.90 74.39 73.27 72.77 72.70 72.86 73.85 73.87 73.55 72.66 72.01 72.07 71.61 71.17 71.12 70.93 70.73 70.53 69.67 69.40 69.51 71.62 71.39 70.87 68.51 69.54 70.54
66.72 67.85 68.23 69.54 70.24 69.62 70.28 73.22 74.31 73.87 75.14 74.45 73.63 73.90 74.82 74.30 74.73 73.97 73.95 73.61 72.40 72.36 73.10 73.97 74.14 74.35 73.30 72.65 73.60 72.16 71.84 71.26 71.15 70.05 69.42 69.47 68.18 69.03 69.40 70.61 69.66 69.84 68.94
64.37 65.86 67.73 67.78 68.21 68.48 69.43 69.99 72.92 72.70 73.12 73.77 74.11 74.19 73.75 75.28 70.71 69.17 72.59 73.21 74.38 73.10 72.41 73.31 74.00 73.33 72.64 70.03 69.49 70.30 72.59 71.27 69.95 69.91 70.10 69.62 68.70 68.70 70.50 70.32 70.34 69.35 68.12
63.50 64.03 64.98 65.80 65.58 65.87 67.71 68.12 68.30 68.73 72.02 72.34 72.73 72.21 73.30 74.29 68.59 66.72 66.67 70.42 72.92 73.00 73.57 73.11 73.32 75.27 71.94 73.77 69.47 67.28 66.89 66.71 68.44 69.62 68.23 67.96 68.40 69.66 70.32 69.86 69.45 69.96 70.10
62.04 62.65 63.43 64.29 64.38 64.58 64.96 65.51 65.91 66.99 67.91 69.20 71.21 73.23 73.11 73.74 68.03 64.31 66.37 68.50 69.24 70.81 72.95 74.25 73.63 73.06 72.26 72.43 73.76 73.39 71.57 71.44 69.99 68.87 69.69 70.58 70.03 70.54 70.29 71.04 70.49 70.94 72.09
58.68 60.05 61.89 62.94 62.77 63.71 63.57 64.43 64.78 65.75 66.59 67.74 69.36 70.37 72.33 72.14 65.68 63.69 65.09 69.88 69.43 70.27 71.30 72.34 73.49 74.09 70.67 67.13 70.86 70.97 72.53 73.85 70.99 66.69 67.32 67.12 66.46 66.56 68.29 71.60 70.19 68.86 69.13
56.97 57.63 59.86 60.42 60.13 60.90 62.22 62.47 63.64 64.21 64.86 67.26 67.11 69.10 68.41 72.01 66.39 62.64 63.44 69.67 70.98 71.06 71.66 71.40 66.16 69.36 65.63 63.75 70.51 71.76 71.61 72.36 72.31 73.70 70.52 68.01 66.68 69.21 65.46 69.12 71.17 68.88 69.40
56.66 57.08 58.15 58.69 59.61 58.77 60.40 60.45 60.67 61.46 63.74 64.59 65.99 67.29 69.69 70.05 68.79 58.82 59.12 67.42 71.19 72.14 72.04 72.33 72.60 62.12 57.62 56.60 58.05 69.60 70.08 69.77 70.66 72.09 72.78 72.91 73.08 72.18 72.28 70.69 71.05 71.32 70.49
55.71 55.56 56.01 56.62 57.84 58.80 59.00 59.99 60.51 59.75 60.37 63.05 64.89 66.21 67.80 66.77 59.91 57.90 56.83 57.19 59.81 64.54 67.42 70.53 71.07 56.81 54.65 55.92 58.96 59.40 58.85 61.61 67.78 69.17 70.70 71.36 71.92 72.39 72.84 72.21 73.40 72.67 72.96
53.85 54.51 55.39 55.57 56.23 57.22 57.45 56.77 56.50 58.25 57.19 60.17 62.57 62.06 62.75 64.30 65.36 57.19 56.83 58.39 60.36 63.56 65.88 63.67 57.92 55.74 57.01 61.45 57.51 58.25 57.71 61.60 63.84 65.86 67.60 69.29 70.79 72.00 72.66 70.89 70.42 69.26 72.23
49.29 50.40 52.03 53.36 53.67 53.94 55.37 56.64 56.20 55.41 55.81 56.31 55.67 56.44 56.83 57.65 59.16 64.67 60.54 61.09 59.94 62.69 63.33 63.42 61.95 60.05 59.91 62.22 62.65 66.44 68.46 69.61 68.89 67.47 67.47 68.81 70.13 70.74 71.03 71.80 71.28 71.47 70.46
47.31 48.15 49.15 50.26 50.26 51.57 53.49 53.76 54.82 55.12 52.79 51.18 53.09 55.69 54.93 54.73 56.17 54.12 51.63 55.20 58.64 58.32 54.14 60.41 62.36 65.22 66.65 67.44 68.08 70.38 72.26 71.58 67.61 68.87 69.16 69.19 69.49 70.07 70.54 71.44 71.31 70.83 69.63
46.38 46.99 47.45 47.43 48.49 49.72 50.92 51.60 51.88 49.88 48.72 46.64 45.44 47.39 54.78 52.81 49.33 47.36 46.23 43.62 43.58 45.92 55.40 58.68 60.50 62.63 64.42 66.34 67.33 67.89 69.37 70.45 71.72 69.83 69.91 70.32 70.25 70.34 70.71 71.41 71.39 70.55 69.53
45.23 46.03 45.58 46.47 47.11 47.43 48.11 48.97 49.02 51.19 49.78 47.88 46.57 46.06 44.05 45.31 44.81 44.59 44.80 41.96 43.38 45.77 54.15 58.32 59.05 60.62 62.56 64.98 66.70 67.20 67.65 70.33 71.15 71.76 72.22 71.21 70.64 70.06 68.39 69.89 70.35 70.00 69.75
45.64 47.99 44.40 44.06 44.61 45.05 46.26 46.97 47.76 48.32 48.64 50.12 50.12 48.50 47.76 45.04 43.48 42.98 42.72 44.81 53.70 49.69 56.05 59.13 60.35 61.32 63.18 64.73 66.39 66.91 67.82 68.46 69.12 71.08 71.82 71.75 71.63 71.88 71.50 70.90 70.10 69.97 70.08
43.23 42.77 42.96 42.66 42.96 44.91 45.14 45.97 46.47 46.84 47.50 48.33 49.13 49.07 49.99 47.17 46.16 44.74 41.01 48.45 55.01 57.73 58.75 60.31 61.64 61.53 61.52 61.70 62.02 62.27 63.23 64.35 65.96 70.52 70.67 70.75 70.83 70.72 68.95 67.24 66.28 60.73 64.23
42.18 47.45 46.09 42.15 42.47 42.11 42.93 43.44 44.43 44.87 44.70 45.61 47.36 47.85 49.30 48.67 48.02 49.48 51.77 54.66 58.29 59.27 56.85 56.39 57.14 55.87 54.85 54.40 54.68 56.05 58.01 59.91 62.99 66.95 70.46 70.91 70.87 70.42 69.98 69.55 69.58 69.60 70.05
41.55 40.93 44.88 40.58 40.31 40.63 41.18 41.38 41.86 42.34 43.64 44.43 44.74 46.13 44.78 45.53 46.07 47.78 50.38 52.50 54.15 53.24 52.07 51.09 52.43 51.98 51.63 52.08 52.75 53.03 53.42 54.86 58.45 61.33 66.46 69.70 68.84 68.54 68.79 69.50 70.02 70.40 70.33
39.52 39.19 39.20 38.68 39.13 38.94 38.77 39.19 39.28 39.82 40.50 40.98 42.44 43.94 42.86 45.22 47.14 47.83 49.01 50.37 52.46 51.63 51.81 50.97 49.89 48.95 49.83 49.64 49.73 50.36 50.86 52.47 54.85 57.39 60.18 63.00 66.45 67.42 68.16 67.44 66.72 66.15 64.40
39.15 38.59 37.68 37.35 37.65 39.03 37.54 37.41 37.21 37.55 38.59 39.37 40.12 40.85 41.94 42.67 43.98 44.79 45.34 48.23 50.43 50.30 49.05 48.16 46.76 47.04 47.35 47.55 47.85 47.33 46.79 48.32 50.72 52.38 52.56 54.61 58.69 61.73 65.82 66.63 66.67 67.10 67.10
38.99 38.06 37.32 37.13 37.50 38.51 37.53 36.65 36.56 37.11 37.06 37.15 37.80 39.05 39.59 40.64 42.25 43.21 44.94 46.95 46.86 47.45 46.90 45.62 44.65 44.73 44.35 44.35 44.60 44.82 44.54 45.36 46.20 46.39 46.70 49.08 53.21 57.29 61.73 63.20 64.77 66.17 67.26
39.22 38.27 37.45 37.23 36.73 35.87 36.77 36.57 35.61 35.55 35.91 36.04 36.47 36.99 37.70 39.22 40.41 41.75 42.75 44.19 44.94 45.61 44.92 44.45 43.80 43.00 42.49 41.55 40.92 41.08 39.64 35.49 35.86 36.62 40.07 45.44 50.66 55.35 60.00 62.09 63.84 62.68 61.88
40.18 39.53 38.57 38.27 38.53 35.83 35.43 36.49 35.69 35.66 35.13 35.35 35.31 35.37 36.64 38.27 39.05 40.21 41.59 42.16 42.18 42.36 42.42 42.41 41.93 40.93 39.58 39.06 38.93 36.88 33.13 32.58 34.76 33.34 37.44 44.92 49.96 54.85 59.32 60.95 60.39 59.00 58.35

GFSGL_sfc_wetblb_096.txt.gz
Wetbulb
70.07 69.90 70.09 72.24 72.12 71.29 71.99 72.09 71.22 71.28 71.21 71.43 71.60 71.99 72.06 72.67 72.78 71.47 71.13 71.54 70.66 70.81 70.60 70.95 70.54 69.88 69.83 70.33 71.41 69.40 68.70 67.97 64.50 65.66 68.74 69.04 68.34 68.39 70.61 71.25 71.98 72.33 73.85
69.59 70.04 70.62 71.61 71.41 72.00 72.40 72.54 72.06 70.69 70.79 70.15 69.79 69.43 69.68 70.52 71.75 72.39 71.46 72.12 70.80 69.76 70.20 70.22 70.47 71.47 69.29 70.31 70.10 68.93 69.43 68.53 67.75 66.35 66.98 68.16 69.11 70.47 70.86 69.92 72.14 74.40 73.06
69.07 69.23 69.25 69.46 71.54 71.76 72.10 72.70 72.44 70.39 70.27 69.89 67.89 65.67 64.81 68.08 71.16 72.57 72.66 72.29 72.17 71.48 70.32 70.64 70.95 70.74 69.94 69.70 69.37 68.99 69.12 70.28 69.82 68.86 68.50 69.52 69.43 69.96 69.79 70.45 70.82 70.49 72.13
69.00 68.12 67.94 69.09 69.41 69.05 70.20 71.73 71.93 72.35 71.31 70.77 70.67 69.76 69.29 71.02 72.02 72.99 72.58 71.36 71.16 72.14 72.24 72.34 71.82 71.57 71.04 70.45 70.27 69.79 69.35 69.05 68.63 68.51 68.12 68.12 68.56 70.06 69.70 69.09 69.43 69.19 69.83
67.99 67.74 67.74 68.17 69.14 67.65 68.37 69.12 70.40 72.29 72.67 72.93 72.41 72.51 72.58 73.38 73.96 72.52 73.09 72.45 71.15 70.89 71.56 72.13 72.84 73.05 71.07 70.17 71.73 70.78 70.32 69.69 69.14 68.82 68.60 68.26 68.19 67.97 67.76 69.29 68.44 68.48 68.12
65.60 66.20 67.49 66.93 66.95 67.36 68.03 68.37 68.69 68.89 71.61 72.38 72.99 71.99 71.84 73.77 69.93 68.01 71.28 72.30 72.84 71.88 71.27 71.44 72.16 71.97 71.30 68.78 68.29 69.00 70.91 70.48 69.51 68.51 67.74 67.52 67.56 67.54 68.64 68.71 67.74 66.82 65.43
62.67 63.84 64.75 64.69 64.53 64.92 65.26 65.61 66.30 66.77 67.97 68.39 70.51 71.70 71.50 72.41 66.87 65.22 67.13 69.78 71.43 72.00 72.52 72.23 72.08 73.83 71.29 72.77 70.04 67.51 66.62 66.71 68.21 69.29 67.91 67.48 66.98 67.46 67.36 66.71 66.82 67.36 67.25
62.25 63.17 64.15 64.55 64.40 63.83 64.29 64.06 64.35 65.83 66.54 67.24 67.90 69.07 69.86 72.29 66.01 64.23 65.43 68.53 68.69 68.98 70.83 72.27 72.39 72.59 71.91 71.51 71.20 71.07 71.82 70.94 68.56 68.34 69.47 70.46 69.47 70.47 67.39 68.48 67.63 68.37 69.70
56.32 58.39 60.56 61.68 61.72 63.67 63.29 63.73 64.28 64.20 64.61 65.44 67.07 67.56 68.37 69.41 63.50 61.68 64.03 69.78 69.86 69.51 70.16 70.36 71.44 72.46 68.94 65.39 69.92 70.69 70.81 71.09 69.60 64.75 65.15 65.15 64.97 64.66 66.22 69.49 68.46 67.38 68.39
54.05 55.65 56.76 57.83 58.41 59.57 60.09 61.12 62.94 63.48 64.55 65.42 65.76 66.55 65.49 68.44 60.03 58.76 62.23 68.87 69.00 69.95 70.84 71.11 65.46 68.10 64.26 62.54 69.73 71.34 70.81 71.44 71.56 71.80 72.23 67.78 65.25 67.77 63.80 68.25 70.63 68.10 68.34
54.29 54.91 55.02 54.80 55.71 56.33 56.83 58.07 59.77 59.27 59.50 61.14 63.92 65.68 67.34 65.65 62.79 56.59 57.86 66.38 66.63 68.10 70.16 71.32 70.02 57.84 55.34 55.52 56.09 63.07 66.22 67.00 66.37 67.49 69.82 71.45 72.08 70.89 71.09 69.35 69.82 70.51 69.29
51.62 51.61 52.13 53.72 54.76 55.69 54.82 55.49 55.29 55.49 56.64 57.75 61.33 62.86 65.39 65.06 58.80 56.31 55.86 57.68 60.97 62.74 63.75 65.89 66.29 57.33 54.98 56.59 57.80 60.21 57.55 58.07 63.17 65.44 66.70 67.79 69.10 70.43 71.94 72.66 71.84 70.98 72.05
48.01 48.14 49.21 49.86 50.80 51.84 52.01 53.01 54.28 54.49 54.34 54.39 54.12 55.50 56.11 57.46 61.92 55.70 56.17 56.75 58.31 60.83 63.76 62.23 56.97 55.52 54.98 57.33 59.33 58.40 58.42 63.67 64.60 63.78 65.44 66.82 68.52 70.21 71.12 71.29 70.98 71.58 72.43
45.41 45.78 46.75 47.05 47.26 48.11 50.61 51.50 51.36 51.05 50.69 50.73 50.76 51.18 52.96 54.26 55.08 56.70 59.22 55.83 56.30 58.82 60.79 60.73 59.25 57.33 56.73 58.24 59.80 64.15 65.80 66.62 67.22 68.00 68.93 69.99 70.32 69.14 68.80 69.91 69.41 69.89 69.72
45.21 45.23 44.65 44.89 44.91 46.57 48.28 48.78 49.93 49.66 47.31 47.84 48.76 48.53 49.17 50.77 53.20 50.18 49.63 53.14 51.90 50.91 50.55 55.99 58.66 61.02 61.75 63.64 65.15 66.67 67.34 68.86 69.31 69.57 69.09 69.38 69.59 69.35 68.64 69.27 69.16 69.29 68.53
43.47 44.29 44.26 43.70 44.21 44.80 44.91 46.24 47.79 46.96 46.52 44.73 43.73 44.97 49.33 47.65 45.22 43.87 42.62 42.42 42.61 45.30 52.63 54.92 56.89 58.81 59.01 60.20 61.58 63.25 65.11 66.11 67.70 69.27 69.16 68.94 69.06 69.41 69.46 69.84 69.59 69.12 68.91
42.30 43.28 42.48 42.76 42.32 42.35 43.18 43.32 43.40 46.13 46.52 45.14 44.29 44.53 44.36 43.42 43.21 42.56 42.11 41.66 43.25 45.14 51.45 54.99 56.19 58.87 59.25 60.58 61.99 63.78 64.87 66.01 67.00 67.52 68.37 69.13 70.03 69.91 68.87 69.52 69.83 69.65 69.43
40.76 45.10 40.53 40.73 40.92 41.31 42.05 42.60 43.33 43.38 43.31 44.83 45.61 45.04 44.68 43.31 42.71 42.29 41.60 45.22 50.00 49.41 52.36 54.40 56.49 58.73 60.99 59.67 57.23 57.27 57.52 58.53 59.22 60.93 62.80 64.78 67.85 70.01 70.11 70.18 70.09 69.88 69.77
40.23 40.28 40.70 40.31 40.52 42.17 41.12 41.97 42.57 42.63 42.71 42.95 44.04 44.44 45.09 43.89 43.12 42.57 41.86 46.98 48.85 51.58 54.00 56.90 58.88 58.36 55.20 53.51 53.38 53.39 53.17 53.89 55.03 56.65 58.00 60.89 64.35 67.90 69.00 69.49 69.43 61.68 63.75
40.03 45.31 42.72 38.28 38.30 38.38 38.90 39.49 39.59 38.98 38.71 39.62 40.48 41.56 43.47 43.32 42.67 44.05 45.77 46.52 47.50 51.20 53.72 52.76 52.50 51.75 52.40 51.59 51.53 51.19 51.19 51.67 52.83 53.89 54.46 56.47 59.16 63.54 67.07 68.71 68.91 67.88 66.57
38.70 38.27 42.04 37.18 36.71 36.90 37.02 36.80 37.06 37.49 37.48 37.78 38.25 40.14 41.16 40.44 40.42 42.28 43.15 45.09 47.44 49.91 51.12 51.85 51.74 51.57 50.89 49.52 49.72 48.63 48.40 49.48 50.56 51.90 53.15 54.28 57.13 57.75 59.01 63.15 67.88 69.14 69.07
37.59 37.16 36.66 35.77 35.98 36.17 35.84 35.97 35.66 36.12 36.20 36.03 36.31 37.81 39.17 39.12 39.43 40.42 42.20 42.46 43.83 45.72 47.53 50.15 50.15 49.19 48.19 46.70 47.09 47.56 47.06 46.20 47.47 49.00 50.10 51.20 51.74 52.97 55.29 58.91 62.68 66.44 66.12
37.36 36.91 36.09 35.91 36.20 37.36 34.88 34.62 35.12 37.03 36.39 36.22 36.23 36.33 36.66 37.10 37.93 39.17 39.96 41.16 42.70 44.29 46.85 48.78 48.24 46.39 46.43 46.61 46.32 46.27 45.47 45.36 45.52 46.45 45.76 46.28 47.20 48.48 50.44 53.29 57.95 62.04 65.21
37.29 36.91 36.44 35.93 36.17 36.06 34.90 34.56 34.70 36.13 36.17 35.88 35.74 35.66 36.03 36.49 36.46 36.70 38.52 40.13 41.43 42.61 43.68 44.97 45.58 45.32 43.70 44.33 44.34 44.54 44.58 44.53 44.40 43.79 42.38 41.03 41.93 43.62 46.63 50.21 54.49 59.43 62.66
37.06 36.79 36.20 36.20 35.93 35.22 34.95 34.26 33.94 36.26 35.79 34.90 34.46 35.03 35.34 35.34 35.01 35.86 37.32 38.56 39.57 40.39 41.95 43.64 43.50 43.22 43.01 43.04 42.41 41.75 39.88 37.02 38.22 37.73 37.87 37.76 38.59 40.81 43.33 46.77 50.69 55.71 60.22
37.47 37.33 36.87 36.46 35.66 35.36 34.34 33.09 32.97 33.70 35.15 34.51 33.89 34.35 34.71 34.44 34.86 35.23 36.02 36.97 37.60 38.21 38.88 39.72 41.15 41.49 41.70 40.90 39.91 37.73 33.60 32.40 33.81 32.84 35.31 36.55 37.81 40.68 44.45 47.35 50.73 54.19 57.81

GFSGL_sfc_wetblb_099.txt.gz
Wetbulb
70.35 69.72 69.89 70.75 70.22 69.94 70.46 70.92 71.51 71.08 71.27 71.38 71.84 72.02 72.27 72.14 72.16 71.27 70.76 70.56 70.05 69.36 69.69 69.58 69.82 69.38 69.18 69.48 69.97 68.54 68.28 66.28 64.53 66.31 66.64 68.06 67.96 69.16 70.79 70.65 71.53 71.86 71.52
68.82 69.63 70.38 70.77 70.77 70.61 70.34 70.76 71.92 71.15 70.78 71.14 70.87 70.54 70.97 71.42 71.74 71.59 70.59 71.28 70.73 69.98 69.04 69.05 69.26 70.93 68.95 68.71 69.22 68.08 68.63 68.03 66.84 65.42 66.89 67.76 68.73 69.21 69.94 70.11 71.05 72.30 70.29
68.35 68.08 69.14 69.57 69.39 70.13 70.35 70.35 71.77 71.01 69.84 70.18 69.41 68.52 68.69 68.99 69.74 71.20 72.00 71.31 70.85 70.78 71.03 69.03 69.07 69.67 69.03 68.68 68.43 68.12 68.05 69.22 68.55 67.34 67.22 68.30 68.63 68.63 69.10 69.87 70.23 69.85 71.24
68.85 67.90 67.47 68.51 66.05 66.81 67.83 69.09 70.27 71.72 69.70 69.69 69.21 67.75 66.81 65.69 67.24 70.17 71.47 71.51 71.27 71.31 71.44 70.81 70.39 70.62 70.05 69.91 69.41 68.84 68.47 68.10 67.65 67.34 67.02 67.40 67.74 69.29 68.90 67.98 68.27 68.53 69.30
68.19 67.76 67.38 67.58 68.19 67.81 67.38 67.72 68.21 69.52 71.51 70.72 70.43 70.25 69.80 69.77 71.10 70.78 71.53 72.12 70.97 70.34 70.67 71.28 71.71 72.06 70.84 69.86 71.23 70.43 69.41 68.80 68.28 67.79 67.27 67.06 66.89 66.60 66.24 67.61 67.51 67.40 67.54
66.59 67.20 67.33 67.26 67.20 66.95 66.30 66.48 66.55 66.98 68.03 68.85 70.18 71.29 70.79 72.67 69.05 66.98 70.92 71.63 71.93 71.36 70.77 70.95 71.15 70.80 70.32 68.02 67.36 67.54 70.11 69.74 68.95 67.83 67.92 66.91 66.93 66.91 67.05 67.34 66.24 65.11 64.53
63.64 64.39 64.32 64.67 64.19 64.06 64.48 64.57 64.62 64.94 66.16 66.73 67.72 69.05 69.66 70.40 65.06 63.80 65.89 69.52 70.71 70.93 71.22 71.54 71.59 72.98 70.33 71.64 68.99 66.69 66.64 65.82 67.56 70.39 68.93 68.67 67.60 67.40 66.95 65.64 65.30 65.63 65.61
59.58 61.01 61.62 62.66 63.78 63.99 63.59 63.36 63.52 64.09 64.34 65.39 66.21 67.29 67.83 69.81 62.73 62.34 64.03 67.26 68.87 68.61 69.00 70.40 70.97 71.45 71.54 71.19 71.20 70.81 70.55 70.55 69.22 67.79 69.23 70.71 70.39 70.21 68.06 68.22 67.39 66.55 67.43
55.27 55.85 57.18 58.86 61.18 60.22 59.51 61.00 62.67 63.18 63.78 64.08 65.70 65.92 66.45 67.27 61.42 59.72 62.48 67.72 68.73 68.96 69.34 69.27 69.84 70.00 67.25 63.32 69.00 69.96 70.35 70.90 68.84 63.88 64.62 64.62 64.09 63.83 65.86 67.85 67.74 66.56 68.47
53.08 54.05 54.82 55.48 56.07 56.12 57.84 58.42 60.23 60.30 60.81 62.39 63.34 65.34 64.46 67.33 57.43 57.83 61.82 67.67 67.63 68.39 69.23 69.97 63.91 61.54 57.33 57.27 64.92 68.15 68.55 69.58 69.53 68.96 69.50 68.12 64.56 66.55 63.62 67.60 69.55 68.05 68.60
51.07 51.05 51.38 51.50 53.08 53.12 54.40 55.14 55.51 57.18 57.69 59.02 61.91 66.03 66.03 64.02 62.05 56.06 57.43 62.98 62.33 63.15 64.43 64.99 67.18 59.49 55.32 54.41 55.12 63.99 64.87 65.33 66.17 66.51 66.73 67.86 68.78 69.73 70.33 68.08 68.75 69.56 69.00
48.92 49.01 48.80 48.47 49.95 51.31 50.81 52.87 53.30 52.90 52.58 52.40 52.99 55.39 55.97 58.07 57.29 56.47 54.82 55.43 57.79 59.00 59.62 62.89 64.47 57.85 54.23 54.05 55.84 58.94 57.49 57.87 63.87 65.46 66.35 67.35 67.68 68.59 69.65 70.30 71.01 70.33 71.29
46.22 46.13 46.15 46.77 47.66 48.18 48.96 48.87 50.10 50.36 50.06 50.17 50.51 50.54 51.71 53.79 54.84 52.96 53.31 54.25 55.53 56.92 58.89 58.36 54.88 53.34 53.14 55.98 56.57 56.36 56.36 62.40 64.03 65.23 65.78 67.22 68.94 69.71 69.84 69.60 70.09 71.15 71.32
44.32 44.18 44.55 44.40 44.89 45.90 47.58 48.96 48.31 46.96 47.29 48.20 48.31 48.13 49.04 50.61 50.85 49.52 49.33 49.82 51.90 52.43 53.55 53.25 55.19 55.63 55.60 57.15 59.98 62.63 64.12 64.21 64.57 65.63 67.00 68.53 69.81 69.97 69.08 69.16 68.34 68.52 67.79
43.66 43.66 43.03 43.24 42.74 43.19 44.06 45.51 46.60 46.18 46.02 45.69 45.66 45.90 46.97 47.12 48.52 44.84 43.68 46.11 45.50 46.00 46.04 51.97 54.23 55.49 57.43 58.09 59.67 61.08 62.57 63.90 64.37 65.55 66.61 67.67 68.32 68.98 69.25 69.05 68.14 67.87 67.37
41.71 42.14 42.12 40.70 40.78 41.57 41.69 41.93 45.24 45.31 44.85 43.39 42.94 43.56 45.93 46.09 43.65 42.40 41.68 42.15 42.72 44.12 49.22 50.07 52.14 53.52 55.34 57.67 58.91 60.33 61.53 62.34 60.85 61.60 62.97 63.45 64.26 65.53 67.56 69.14 68.80 68.30 67.79
39.84 39.77 39.40 40.33 39.89 40.12 40.28 40.40 40.49 42.58 44.36 43.27 42.38 42.52 42.61 41.97 41.76 41.07 41.04 40.71 43.41 45.59 47.50 50.00 51.83 53.94 55.72 58.66 60.85 58.33 57.18 57.10 55.77 55.81 57.31 57.56 58.76 61.13 63.34 66.30 67.87 68.98 67.86
38.77 44.05 38.62 38.75 39.06 39.11 39.16 39.51 40.32 39.73 39.19 39.21 41.59 41.82 41.70 40.79 40.42 40.20 40.63 42.08 44.72 45.97 47.86 50.48 53.11 55.53 57.01 56.95 54.97 53.52 52.08 51.46 51.54 52.19 52.96 54.62 55.73 57.27 58.93 60.94 64.29 67.04 67.92
39.15 38.60 37.16 36.99 37.56 38.38 37.49 37.74 37.70 36.96 36.70 36.93 38.26 39.69 40.51 39.80 39.60 39.84 41.07 42.22 43.22 44.17 45.78 48.96 51.30 52.26 52.53 52.84 51.70 51.35 51.23 50.84 50.83 51.12 51.92 52.48 52.65 53.86 54.58 57.06 60.71 58.03 61.25
39.31 44.07 39.85 36.15 35.93 35.91 36.04 35.76 35.86 35.78 35.64 35.73 36.10 36.44 37.71 37.71 36.91 37.65 39.24 40.39 41.23 42.28 44.68 46.67 48.14 50.40 51.61 51.98 51.02 50.42 49.13 49.04 48.83 49.25 49.11 50.15 51.03 53.03 53.22 54.80 55.25 56.35 58.95
37.57 38.22 41.31 35.91 35.38 35.40 35.32 34.92 34.52 34.53 34.40 34.77 34.75 36.62 38.86 35.90 35.76 36.39 37.38 38.51 39.47 40.51 41.48 42.35 44.69 46.13 47.63 50.30 49.22 48.58 48.08 47.81 47.66 47.44 47.32 48.28 48.76 48.96 50.36 51.92 52.75 53.81 56.39
36.87 36.18 35.47 35.08 34.98 35.21 34.65 34.53 34.02 33.70 34.10 34.58 35.03 35.71 37.79 35.94 35.66 35.96 36.32 36.54 37.39 38.48 39.81 41.87 42.88 43.87 46.16 48.58 47.65 46.66 45.63 45.51 45.85 46.04 45.46 45.67 46.27 46.18 46.59 48.18 50.22 51.30 53.01
36.69 36.11 35.59 35.16 35.30 37.14 34.72 34.10 33.56 33.61 33.59 33.70 34.74 34.63 34.53 34.53 35.21 34.85 35.55 35.94 36.00 37.36 40.35 41.09 41.51 41.68 43.18 44.71 45.85 45.61 44.63 44.04 43.88 44.90 43.54 43.70 43.99 44.25 44.48 43.96 45.79 46.73 48.94
36.88 36.26 35.56 35.15 35.47 35.20 34.87 34.31 33.80 35.08 34.35 33.67 33.64 33.92 33.94 34.67 35.00 35.08 35.15 35.61 36.03 36.67 37.59 38.45 39.07 39.63 40.53 42.00 43.73 44.14 44.07 44.14 44.02 43.39 43.18 42.75 41.94 41.86 42.22 42.46 43.76 45.62 47.47
36.83 35.99 35.51 35.36 35.31 35.65 34.90 34.58 33.58 33.20 33.53 33.43 33.13 33.93 34.70 34.70 34.35 34.70 34.75 35.48 35.43 35.60 36.71 38.00 38.33 38.37 38.23 39.60 40.85 41.82 40.77 37.58 39.11 39.01 40.13 39.60 39.09 38.94 39.29 40.18 41.34 42.69 44.56
37.00 36.63 36.10 35.49 35.36 35.06 34.25 33.91 33.53 32.61 32.33 32.49 32.51 34.24 34.87 35.03 34.97 35.04 35.15 35.06 35.30 35.73 36.18 37.29 38.08 38.44 39.00 39.71 39.76 37.89 34.70 33.85 35.52 33.98 35.69 36.08 36.01 36.95 38.38 39.53 40.94 42.58 44.31

GFSGL_sfc_wetblb_102.txt.gz
Wetbulb
69.92 69.79 70.37 70.43 70.99 71.39 71.10 71.08 71.62 72.78 72.26 72.17 72.45 72.82 73.28 73.16 73.54 73.17 72.56 73.04 72.48 72.30 72.24 72.31 72.56 72.75 71.80 71.97 73.56 71.63 71.55 69.67 68.79 70.95 70.13 72.40 72.90 73.49 74.73 75.21 75.18 75.98 74.53
70.07 70.67 70.86 71.43 71.85 70.97 71.30 71.49 72.52 72.70 72.57 72.05 72.51 73.06 73.30 72.97 73.84 73.24 72.77 72.39 72.32 72.04 72.12 71.59 71.83 71.89 72.07 72.03 72.09 72.11 71.89 71.68 70.49 69.71 70.78 71.41 72.52 73.89 73.85 74.08 74.56 74.38 74.15
68.98 68.73 69.04 67.99 68.66 68.96 70.24 71.31 72.18 72.44 72.41 71.30 71.49 71.95 72.02 72.14 72.35 72.35 72.83 73.18 72.01 72.03 71.96 71.54 71.88 71.91 72.20 71.84 71.51 70.99 70.83 71.19 71.16 70.54 70.33 71.84 72.17 72.65 73.37 74.19 73.84 74.23 73.28
68.41 67.94 68.08 66.97 67.69 68.30 68.77 69.07 69.58 71.54 72.50 71.44 71.37 70.71 70.24 70.31 70.34 71.00 72.16 72.84 73.33 73.26 72.54 72.45 72.32 71.91 72.34 73.00 72.22 72.29 72.28 71.23 71.25 70.59 70.53 70.69 71.27 73.06 72.17 70.84 71.74 73.26 72.40
68.41 68.14 67.40 68.17 68.19 67.96 67.65 67.85 68.21 69.00 69.72 71.85 71.71 71.52 71.35 70.17 69.86 70.41 70.97 72.16 73.19 72.95 72.87 72.96 73.43 72.65 69.71 70.82 73.61 74.27 73.08 72.35 71.96 71.38 71.22 71.11 71.38 71.51 71.63 71.94 70.99 71.46 72.28
68.17 67.67 67.60 67.12 67.06 66.10 66.30 66.40 66.75 67.27 67.87 68.70 69.67 71.25 71.63 72.51 66.97 65.53 68.63 72.69 73.54 73.37 73.13 74.00 73.90 71.54 71.67 67.45 66.66 67.51 71.16 73.45 73.03 71.58 71.78 71.13 72.17 71.27 71.88 71.40 71.16 70.36 69.68
63.36 64.24 64.78 64.97 64.50 63.86 64.62 64.49 64.98 65.47 66.73 66.73 67.54 68.63 69.11 70.89 62.21 62.53 65.57 70.01 72.10 73.19 73.00 73.37 73.38 73.88 72.02 73.76 70.09 66.51 66.71 65.47 67.96 73.75 72.27 72.51 72.19 73.26 72.53 71.83 71.07 69.92 70.60
57.26 58.29 61.53 63.39 61.94 62.11 62.28 62.94 63.07 63.67 65.13 65.67 66.44 67.36 68.12 69.04 60.53 59.95 62.94 70.06 70.43 70.87 70.53 70.94 71.26 72.06 72.16 70.90 72.72 72.96 73.41 73.74 72.91 70.77 71.54 73.19 74.03 74.43 73.13 73.34 72.45 71.50 71.46
54.86 55.05 56.62 58.82 58.85 58.90 58.51 59.98 61.72 61.08 60.97 63.62 65.39 66.46 68.08 62.82 57.76 59.29 65.39 69.54 68.99 69.31 70.63 70.66 69.79 70.16 60.95 60.59 68.43 70.74 71.74 72.38 69.15 64.20 64.37 64.24 63.73 63.29 65.71 70.13 70.70 70.70 70.23
52.42 52.80 54.71 55.53 55.75 57.12 58.12 58.92 60.19 60.02 60.05 62.79 65.99 65.68 62.26 63.71 55.06 55.97 60.97 63.09 61.36 62.93 65.84 66.84 61.62 61.92 57.98 58.40 63.85 67.08 68.14 69.82 70.33 70.42 71.27 70.10 67.63 69.79 63.52 69.19 71.36 70.18 70.25
51.56 51.09 51.18 52.10 52.74 53.36 54.46 55.30 56.07 57.24 57.30 56.79 56.79 57.31 57.47 55.39 53.59 52.57 53.70 58.83 58.82 61.05 62.03 62.84 64.99 58.38 54.96 54.43 55.18 61.35 64.44 64.39 65.28 67.52 68.84 69.72 70.72 71.21 71.78 71.90 71.56 71.26 70.74
49.44 49.35 49.86 50.28 51.29 51.49 52.01 52.41 52.37 52.82 52.67 52.86 52.77 53.27 54.53 55.94 51.82 50.83 50.68 51.94 54.33 57.45 58.55 61.34 61.38 53.71 51.15 52.06 56.59 58.06 55.78 56.65 63.78 65.42 66.31 67.02 68.03 69.49 71.24 72.08 73.56 72.64 73.21
46.89 46.75 47.30 48.27 48.61 50.21 49.97 49.37 48.81 49.87 50.29 50.57 50.61 50.08 50.44 52.10 50.90 49.80 49.61 50.35 51.34 53.31 54.81 53.74 52.31 51.23 52.07 56.59 56.79 56.05 56.77 65.17 65.99 65.53 66.09 66.95 68.69 70.50 71.82 72.39 73.39 73.90 73.75
45.36 45.36 45.32 45.75 45.49 46.69 48.12 48.24 47.69 47.46 47.66 47.80 47.75 47.58 48.59 49.73 48.91 47.92 47.81 48.25 48.93 50.61 50.93 52.32 54.23 54.40 54.12 56.67 59.58 61.82 64.31 65.45 65.74 65.46 65.55 67.68 69.25 68.88 69.89 71.52 70.72 71.92 70.41
44.58 43.95 43.27 43.34 43.61 44.08 44.97 45.36 46.27 46.65 46.35 46.50 45.71 45.97 45.85 46.10 45.89 44.15 43.04 45.31 46.67 47.01 47.17 54.39 55.91 56.92 57.77 59.12 60.25 61.05 62.52 63.17 59.69 60.20 60.26 59.71 59.70 61.05 62.07 65.77 66.53 68.35 68.19
42.75 42.76 42.48 42.40 42.85 43.00 43.04 43.15 44.04 44.30 43.30 41.96 41.58 42.92 45.14 43.30 41.67 40.61 39.64 40.59 42.05 43.79 50.36 52.01 52.86 54.09 55.22 56.59 57.93 59.99 61.00 58.30 55.96 57.02 57.22 56.13 55.77 56.39 57.31 58.59 61.94 63.98 65.06
41.62 41.67 41.85 41.94 41.53 41.14 41.17 40.89 39.73 41.65 42.99 40.94 40.27 40.69 40.53 39.90 39.45 38.86 38.83 39.67 42.33 45.24 47.95 49.60 51.81 53.18 53.76 55.47 57.29 55.59 55.12 54.73 53.92 54.32 54.29 54.32 54.72 54.37 55.19 55.61 56.45 58.63 60.04
43.17 42.15 40.57 40.51 40.26 40.08 40.17 39.80 39.65 38.71 38.13 38.57 40.19 40.05 39.37 38.48 38.29 38.08 38.64 41.04 42.89 44.15 44.87 45.34 46.85 49.87 51.86 52.86 53.14 52.79 52.48 52.96 52.77 52.27 52.09 52.85 53.20 53.70 53.30 53.52 54.56 55.14 57.19
40.77 39.60 39.37 39.56 39.73 39.43 39.17 38.82 38.59 38.30 37.86 37.67 38.48 38.65 38.95 38.02 37.85 38.04 38.88 40.44 40.31 40.91 42.23 42.72 44.23 44.15 46.20 47.11 49.26 51.62 51.62 51.09 50.74 50.53 50.24 50.55 50.28 50.43 50.98 52.58 54.15 51.30 52.32
41.95 41.81 39.69 38.56 38.54 38.08 38.11 37.81 37.37 37.32 37.26 37.17 36.97 37.16 38.33 38.26 37.17 37.53 38.54 38.77 38.80 39.00 39.64 40.17 41.24 44.02 44.51 46.05 45.90 47.09 49.25 49.22 48.87 48.54 48.40 48.56 48.38 48.22 48.30 49.87 50.57 50.49 52.21
41.81 42.47 41.22 38.69 38.39 38.24 38.04 37.48 37.23 37.15 36.96 36.81 36.93 38.08 38.05 36.82 36.54 36.75 37.12 37.49 37.19 36.55 36.45 38.02 39.52 40.74 41.55 43.30 44.99 46.45 47.65 46.77 47.10 46.34 45.54 45.87 46.70 46.15 46.81 46.89 46.73 47.15 48.53
40.40 40.42 38.98 38.78 38.59 38.56 38.51 38.34 38.07 37.84 37.38 37.04 37.10 37.72 37.16 36.98 36.51 36.35 36.53 36.86 36.75 37.52 37.63 37.66 38.39 39.99 41.24 41.95 42.88 43.27 43.36 42.99 44.34 44.70 44.14 44.25 43.63 43.97 44.47 45.02 45.14 45.07 46.22
39.94 39.35 38.85 38.79 38.85 39.11 39.31 38.74 38.50 38.39 38.02 37.75 37.44 36.89 36.60 36.06 36.26 36.15 36.20 36.23 36.66 36.62 37.17 37.63 38.58 38.85 39.50 39.75 40.82 40.69 39.56 39.93 42.09 43.16 42.75 42.66 42.36 42.30 42.64 42.66 42.31 42.23 42.48
40.31 39.84 39.03 38.62 38.74 38.92 39.03 39.31 39.22 37.70 38.35 38.09 37.63 36.97 36.55 36.53 36.56 36.36 36.49 36.58 36.41 36.37 36.47 36.95 37.32 37.42 38.08 38.65 39.21 39.20 39.59 40.75 42.40 42.26 41.91 41.76 41.32 40.80 41.17 40.98 41.01 41.19 41.57
40.75 39.90 39.35 39.21 38.69 39.94 39.78 39.72 39.22 39.09 38.53 38.03 37.69 37.11 36.78 37.10 36.87 37.10 37.33 37.29 36.92 36.28 36.01 36.34 36.52 36.76 37.38 37.59 37.97 39.22 38.28 34.91 36.53 36.33 37.66 38.25 38.34 38.88 39.00 39.05 39.43 39.95 40.46
41.12 40.45 40.18 39.51 39.47 39.59 39.42 39.50 39.29 38.97 38.48 38.24 37.73 37.31 36.81 36.97 37.20 37.45 37.65 37.65 37.10 36.69 36.50 35.92 35.57 35.71 36.49 36.66 37.06 35.94 33.89 33.32 34.79 33.32 34.69 35.02 34.98 35.70 36.77 37.06 37.79 38.63 39.75

GFSGL_sfc_wetblb_105.txt.gz
Wetbulb
72.86 74.16 74.55 74.56 74.86 75.28 75.05 75.23 75.38 75.65 75.72 75.53 75.79 75.64 76.05 76.42 76.88 76.91 76.69 76.81 76.31 76.34 76.12 76.02 75.92 76.91 75.17 75.56 76.11 75.94 74.53 73.90 70.74 71.86 74.50 75.79 76.80 77.08 77.39 78.16 77.42 76.89 75.30
72.67 73.63 73.58 74.37 74.66 74.44 74.62 75.29 75.57 75.32 76.17 76.08 76.19 76.34 76.62 76.43 76.75 76.84 76.02 75.98 75.91 75.54 75.59 75.71 75.59 75.16 75.67 76.17 75.16 75.75 74.66 75.33 73.13 72.86 75.08 75.18 76.50 77.78 77.87 78.10 76.56 76.90 77.68
72.50 72.29 73.43 74.20 74.33 74.73 74.74 75.05 76.06 75.82 76.26 76.06 75.21 75.74 76.21 76.43 76.41 76.65 76.77 76.40 76.26 75.99 76.01 75.45 75.32 75.82 75.77 75.79 76.08 75.22 74.57 75.09 74.99 73.85 73.89 75.61 76.18 76.88 77.11 77.79 77.65 78.29 77.06
69.85 69.93 70.27 72.28 72.62 72.50 73.22 73.44 74.39 75.87 76.17 75.91 75.55 75.28 75.41 75.30 74.70 74.95 74.95 75.18 75.92 75.74 76.34 76.33 76.26 75.87 75.67 76.33 75.48 76.32 76.59 76.38 76.12 75.02 74.05 74.15 74.92 76.90 76.23 74.82 74.39 75.96 75.66
68.62 68.28 67.65 68.73 70.71 71.21 71.58 71.78 72.65 73.79 74.30 75.58 75.65 75.53 75.32 73.95 73.69 74.40 74.71 74.79 74.57 75.40 76.32 76.45 77.10 75.00 70.64 72.33 76.00 77.35 76.50 75.86 73.77 72.61 72.96 73.51 73.58 73.48 73.66 74.67 74.13 74.62 75.61
68.40 67.92 68.84 68.82 70.36 69.33 70.19 70.19 70.69 71.51 72.30 73.53 74.22 74.73 74.28 73.68 63.35 65.00 70.69 75.73 76.41 76.37 76.16 77.05 77.38 73.46 72.62 67.02 66.96 67.14 71.29 75.81 76.21 75.66 74.61 73.22 74.96 75.01 74.79 74.34 74.12 72.91 71.17
65.42 66.59 67.27 65.73 65.65 66.53 67.87 68.43 68.84 69.52 70.52 70.52 71.54 72.64 72.29 69.87 60.71 61.78 65.69 75.32 75.32 75.33 75.60 75.47 75.59 75.59 73.99 75.88 70.86 67.63 67.43 65.31 67.74 75.67 74.85 75.58 75.42 76.17 76.25 75.33 74.95 74.21 73.57
60.20 61.91 63.06 63.51 63.77 65.17 64.77 63.80 64.73 66.72 67.74 69.26 70.77 71.40 67.11 62.77 58.02 60.01 63.99 74.41 74.21 73.23 73.08 72.95 72.95 70.40 64.17 66.35 73.14 74.80 75.87 76.76 76.98 75.62 75.87 75.94 76.70 77.13 76.80 76.52 75.62 75.04 75.32
56.78 57.29 58.61 60.89 61.56 62.86 61.57 61.53 62.90 63.90 65.52 68.47 69.14 66.27 62.81 59.48 54.49 56.43 64.55 67.68 67.59 67.79 68.91 66.90 66.30 64.30 60.42 59.86 68.59 69.72 71.88 74.40 70.40 65.55 64.05 62.77 62.67 62.78 66.11 72.74 73.17 73.10 72.67
53.69 54.82 56.78 58.97 60.98 61.15 62.16 62.53 62.23 63.30 61.77 59.85 59.78 59.39 55.56 55.87 51.92 52.85 59.42 63.81 63.55 64.30 65.35 66.32 61.07 59.87 55.30 55.81 63.65 64.75 64.90 68.03 69.53 70.48 72.55 72.33 69.43 73.37 64.76 73.19 74.02 72.49 72.89
53.95 53.61 54.62 56.64 56.35 57.28 57.95 59.03 59.72 59.31 57.71 57.77 57.10 56.87 54.49 53.50 50.49 50.77 51.64 58.26 59.88 61.07 61.41 61.91 62.90 55.10 51.95 51.32 53.29 65.06 64.02 62.34 65.27 67.59 69.32 70.50 71.32 72.07 72.95 74.55 75.33 73.69 72.25
55.15 55.53 56.04 56.79 56.44 56.58 55.95 55.59 57.11 58.66 57.72 57.30 56.73 56.02 54.47 54.91 50.05 49.67 49.99 50.75 52.58 57.75 58.10 59.78 60.27 51.05 50.30 50.78 56.75 54.14 54.38 57.94 67.27 67.21 67.42 67.91 68.60 69.63 71.23 72.50 73.95 74.45 74.90
53.74 53.38 53.44 54.35 54.80 55.03 55.03 54.83 54.43 56.07 53.98 53.61 54.98 54.09 53.39 53.24 52.67 49.23 48.69 49.35 50.33 53.68 53.75 52.83 52.29 51.09 52.54 56.39 55.66 55.14 57.79 66.23 66.73 66.02 64.60 64.72 65.77 66.27 68.13 69.64 71.25 73.47 75.39
51.46 51.22 51.65 51.67 51.63 52.81 52.87 52.81 52.36 52.19 51.88 51.52 51.05 49.23 50.52 50.30 48.08 48.05 48.18 49.84 50.38 52.10 52.81 54.20 54.87 54.97 54.18 56.93 59.95 61.73 63.83 64.76 63.97 63.32 62.54 62.99 63.61 63.62 63.56 64.80 64.24 65.57 66.58
49.61 49.36 49.52 49.55 49.76 49.12 49.30 50.12 49.32 47.31 47.47 48.47 48.53 49.03 48.12 45.11 42.89 42.10 41.93 45.16 47.79 47.57 48.70 55.05 55.61 56.36 56.76 57.93 59.09 61.18 63.03 63.14 61.61 61.29 60.86 60.72 60.78 61.04 60.95 61.35 60.97 61.12 61.85
48.61 48.37 48.14 48.32 48.38 48.17 47.46 46.44 43.48 42.44 41.44 40.65 40.52 43.39 46.09 41.00 40.25 39.44 38.62 39.24 41.38 43.52 50.55 50.75 51.36 53.52 54.46 54.93 55.39 56.31 58.91 58.72 58.98 58.98 59.12 58.87 58.71 59.07 59.15 59.29 59.84 59.60 58.77
48.12 47.96 46.70 46.77 46.84 46.60 46.65 46.11 44.21 42.96 41.42 40.01 39.56 39.45 39.31 38.46 38.65 38.05 38.06 38.94 42.12 44.40 47.28 48.14 48.64 50.14 51.36 52.75 53.83 54.91 52.95 54.33 56.18 56.77 56.25 56.37 56.93 57.07 56.09 56.91 58.09 58.11 58.01
47.52 45.20 46.80 46.30 46.32 46.09 46.05 45.61 45.92 45.18 44.15 44.07 40.36 39.75 38.59 37.96 37.94 37.85 38.35 41.77 46.16 46.32 46.48 45.22 44.17 45.50 45.57 47.93 49.38 49.82 50.39 50.56 51.32 51.41 51.45 52.48 52.63 52.86 53.17 52.62 54.16 54.86 55.43
46.96 46.30 46.38 46.01 45.59 45.13 45.36 45.10 45.14 44.64 44.35 44.25 44.97 42.45 41.56 38.56 38.08 38.14 39.31 44.27 43.66 43.73 43.93 44.23 44.80 44.68 44.80 45.45 46.07 46.30 46.66 47.68 48.93 50.39 50.67 49.17 48.83 48.91 48.40 48.47 48.52 48.11 49.15
46.41 45.01 45.86 45.61 44.96 45.07 45.11 44.66 44.40 44.22 43.93 43.96 43.54 42.84 43.64 43.92 43.62 43.36 43.76 43.44 43.16 42.57 42.46 42.35 42.76 43.62 44.22 44.91 45.23 45.64 45.28 44.11 44.63 44.72 46.33 47.71 47.69 46.81 46.31 46.82 46.79 46.43 46.91
46.36 45.72 44.66 45.61 45.18 45.36 45.34 44.64 44.66 44.64 44.41 44.08 43.79 41.59 36.69 42.66 42.50 42.54 42.53 42.62 42.19 42.04 41.91 41.83 41.97 42.49 42.91 42.67 42.83 42.89 42.87 43.49 43.74 44.83 45.42 46.71 46.92 44.86 45.24 44.97 44.44 43.95 44.19
47.28 46.71 45.90 45.65 45.50 45.14 45.63 45.66 45.64 45.58 45.49 45.17 44.96 42.87 37.44 44.15 43.34 42.81 42.62 42.30 42.23 41.42 41.32 39.89 38.97 39.29 39.60 39.67 39.79 39.99 39.17 38.74 39.92 41.95 42.86 41.83 41.81 42.64 43.54 43.37 42.80 42.80 43.24
47.80 47.09 46.15 46.09 46.23 45.11 44.79 46.20 46.16 46.34 46.69 47.30 47.09 46.25 44.87 43.89 43.52 43.16 42.67 42.79 42.37 40.66 40.13 38.94 38.67 38.62 39.49 39.90 40.21 40.32 39.44 39.41 40.04 40.06 39.69 40.16 40.69 40.61 40.99 41.27 41.57 41.39 41.08
48.51 47.66 46.97 46.55 46.03 46.20 46.48 46.70 46.88 42.69 46.49 47.14 47.74 47.14 46.76 45.16 44.01 43.28 43.35 43.41 43.25 42.91 42.18 40.80 39.16 38.13 37.89 38.23 38.88 39.27 39.19 40.02 40.44 39.45 38.84 38.66 37.96 38.32 38.63 38.39 39.19 40.01 40.61
49.17 48.34 47.95 47.47 46.62 45.86 46.37 46.51 47.12 47.40 47.15 47.09 47.21 47.23 47.03 46.28 44.53 44.08 43.97 43.72 43.46 42.97 41.65 40.23 40.26 39.20 38.48 37.92 37.84 37.80 36.96 33.98 35.82 35.29 37.08 37.54 36.84 36.71 36.50 36.76 37.38 37.91 38.67
48.54 47.79 48.28 48.29 47.65 47.42 47.36 47.28 47.42 47.62 47.17 47.15 47.11 47.27 47.03 46.41 45.50 44.27 44.14 43.77 43.29 42.97 41.32 39.96 40.06 39.28 38.34 37.77 37.56 35.51 33.22 32.51 34.50 33.02 35.10 35.01 34.61 35.23 36.11 36.16 36.56 36.97 37.34

GFSGL_sfc_wetblb_108.txt.gz
Wetbulb
75.27 75.50 75.38 75.37 75.07 76.53 76.42 75.83 76.67 77.14 78.27 76.79 77.00 76.97 76.51 76.82 77.70 77.93 77.20 76.40 76.31 76.69 76.52 76.50 76.46 77.17 74.83 74.47 74.80 74.56 73.70 73.47 71.24 72.00 73.94 76.00 77.49 77.57 78.16 79.03 78.04 77.05 75.85
75.03 75.01 75.67 75.38 75.26 74.67 75.40 75.50 76.38 75.93 77.63 77.23 77.01 77.39 76.74 76.80 77.54 76.93 76.41 76.40 76.17 75.86 75.98 76.21 75.88 75.56 76.94 77.19 75.19 76.02 75.73 75.95 73.32 73.86 76.12 74.47 76.63 78.25 78.08 78.94 77.55 76.72 76.91
75.04 74.84 75.13 75.24 74.53 74.81 75.22 75.97 76.21 76.48 76.19 76.52 77.17 76.35 75.82 76.40 76.37 76.56 76.69 76.59 76.26 75.95 75.79 75.89 75.88 76.03 76.04 75.91 76.42 75.10 74.71 74.71 75.31 73.83 73.31 74.26 75.15 76.53 77.04 78.76 77.91 78.22 76.01
73.93 74.13 74.75 74.81 74.59 75.23 75.73 76.30 75.81 76.10 76.42 76.01 76.07 76.64 76.47 76.71 76.30 76.52 76.40 76.00 76.01 76.10 76.17 76.08 76.11 75.95 76.20 76.35 75.95 76.66 76.17 75.19 75.08 74.12 73.15 73.28 73.73 77.09 76.28 73.78 73.29 74.70 74.77
70.11 72.58 73.37 74.90 75.49 75.43 75.54 75.68 75.93 76.43 76.50 76.85 76.26 76.35 76.93 76.94 75.59 76.88 76.94 76.73 76.88 76.38 76.85 76.61 76.45 75.52 71.75 72.36 75.40 76.38 76.65 75.72 73.85 73.20 72.66 72.73 72.78 74.61 74.29 74.17 73.19 73.64 75.52
69.18 68.70 68.37 69.98 70.37 72.45 73.99 74.20 74.42 74.81 76.28 76.40 76.14 76.07 76.05 74.87 62.59 64.42 70.67 76.92 76.91 76.60 76.12 76.63 77.05 74.18 73.38 68.65 67.83 67.63 71.26 76.00 75.02 73.76 72.85 73.09 75.11 75.51 74.92 73.97 74.37 73.42 72.27
69.39 68.73 67.99 68.19 67.26 68.10 69.07 71.19 72.67 73.11 73.81 73.92 74.87 74.41 71.58 70.66 59.45 61.98 65.06 76.08 76.78 76.34 76.26 76.53 76.41 74.09 72.63 75.03 71.27 67.25 67.72 66.15 67.83 76.32 75.02 75.37 75.28 78.26 78.28 76.20 76.20 75.18 74.83
65.20 66.30 67.11 67.02 66.87 66.09 66.73 67.20 68.82 71.53 72.43 73.23 70.15 70.14 68.04 63.27 56.85 59.50 65.32 75.23 73.04 71.10 72.11 71.31 70.04 67.46 65.20 66.39 73.40 75.39 76.25 76.79 77.23 76.23 77.31 76.81 77.61 76.92 76.90 77.56 76.54 76.50 76.28
61.23 62.05 63.45 63.79 65.13 66.49 66.23 66.92 67.31 66.20 69.89 67.17 67.83 67.06 63.33 59.38 53.39 54.74 65.62 72.03 71.23 71.17 69.73 66.58 67.98 66.81 56.96 57.58 69.55 71.70 72.60 74.15 69.83 65.48 65.77 64.60 64.34 64.23 67.38 74.40 74.05 74.72 72.70
57.66 60.60 62.60 63.16 64.08 64.45 65.04 66.66 68.36 65.40 62.69 62.01 61.79 60.66 56.62 58.11 50.85 51.55 58.84 68.73 68.04 68.23 68.61 67.71 57.25 58.80 53.65 53.71 66.06 67.40 68.31 69.83 68.83 69.58 71.76 71.87 69.34 72.90 65.09 75.01 75.60 72.74 74.42
55.49 58.06 59.77 62.57 63.25 64.75 65.03 67.15 65.69 61.50 60.41 59.33 58.34 57.84 56.20 57.05 53.31 49.72 50.25 59.94 63.31 64.66 64.81 64.31 64.19 54.24 52.20 51.55 53.33 65.69 64.68 63.84 66.91 69.17 70.63 71.71 72.80 73.20 73.34 74.33 74.89 73.16 71.67
57.40 57.06 58.19 60.05 61.12 61.36 62.89 63.61 62.68 61.07 60.17 60.42 59.94 59.79 58.63 56.43 49.76 49.17 49.40 50.38 52.39 60.45 60.42 61.07 60.96 51.40 50.45 51.62 56.50 54.55 54.31 57.72 67.77 68.10 68.22 68.58 68.28 68.81 69.66 70.44 72.09 72.89 73.28
59.00 59.11 59.83 60.13 60.52 61.25 61.01 61.47 60.42 61.44 59.91 58.78 58.70 57.99 57.80 57.85 56.44 49.23 49.34 50.00 51.11 56.19 56.24 53.63 51.86 50.68 51.89 56.34 55.35 55.94 55.90 65.23 65.65 64.67 64.55 65.15 65.78 66.44 67.68 68.57 68.99 71.54 72.28
57.44 57.32 57.94 58.25 57.91 58.16 58.26 58.33 58.58 58.78 58.13 57.25 56.44 55.76 53.70 51.77 47.68 48.31 51.22 52.48 51.77 52.78 53.15 57.16 56.17 54.82 53.54 56.94 59.85 61.57 63.38 64.85 63.54 63.30 62.69 63.44 64.17 63.80 63.72 64.69 63.56 64.00 63.51
56.10 55.75 55.15 55.45 55.78 54.83 51.87 53.28 51.85 48.24 49.07 54.88 54.26 53.08 52.72 49.97 45.48 41.96 41.61 46.54 48.40 48.91 48.25 56.07 55.73 56.51 57.71 58.06 59.19 60.14 61.09 61.29 61.10 61.27 60.39 60.54 60.92 61.23 61.29 62.76 61.91 61.86 60.94
53.70 53.64 53.52 53.49 53.35 52.51 50.37 46.60 42.22 42.27 40.85 39.65 39.38 44.66 45.67 41.22 40.06 39.43 38.57 39.26 40.87 42.74 52.87 53.32 52.85 53.03 53.77 54.14 54.57 56.09 57.94 57.41 57.39 57.84 58.82 58.77 58.17 58.33 58.59 58.66 59.19 58.60 58.86
53.28 53.11 51.88 51.71 51.95 51.41 50.82 48.99 45.23 42.46 41.17 39.70 38.97 39.21 39.02 38.40 38.98 38.15 38.09 38.73 40.68 45.09 50.99 49.97 49.03 48.95 48.91 50.78 51.32 52.31 52.78 53.82 54.95 54.74 54.84 54.65 54.73 55.08 54.81 55.39 56.31 56.12 55.71
53.14 47.03 51.72 51.34 51.36 51.23 50.98 51.05 50.68 50.08 48.84 46.74 40.16 41.36 39.37 38.75 38.62 38.38 38.87 42.33 50.18 49.73 49.90 49.71 49.69 49.66 49.49 48.54 49.73 49.04 49.57 50.00 51.70 51.74 53.14 54.16 54.45 53.55 52.23 52.08 52.12 51.58 51.39
50.74 50.53 51.26 50.99 50.90 50.39 50.48 50.12 49.87 49.76 49.52 49.22 49.21 42.31 43.09 39.76 39.27 39.81 40.00 49.32 48.42 48.03 47.90 48.12 48.47 48.45 48.60 48.81 49.30 49.66 49.54 49.41 47.70 48.78 47.58 48.55 49.28 48.75 49.56 49.89 49.75 46.64 47.03
50.24 49.37 50.38 49.97 48.98 50.08 50.24 49.82 49.67 49.54 49.30 49.28 48.66 48.07 50.09 48.93 49.39 48.87 49.11 48.70 48.31 47.98 47.81 47.53 47.54 47.83 47.82 47.70 47.37 47.29 47.47 47.18 47.61 47.86 47.95 47.17 46.94 46.75 45.72 46.38 46.55 45.88 45.48
49.98 49.36 49.96 50.23 50.05 50.11 50.05 49.67 49.61 49.67 49.44 49.39 48.10 43.26 36.09 48.26 48.60 48.65 48.54 48.17 47.80 47.57 47.10 46.77 46.34 46.06 46.18 45.97 45.84 45.40 45.42 45.51 45.49 45.50 45.31 45.37 45.16 44.58 45.27 46.51 45.75 44.79 44.83
50.42 49.93 49.17 49.45 49.90 49.73 49.76 49.86 49.65 49.70 49.71 49.52 49.11 45.60 39.54 47.39 50.35 50.06 49.82 49.93 49.00 48.30 47.35 45.77 45.23 44.91 45.40 44.97 44.62 44.26 43.32 42.64 42.60 42.53 42.02 41.30 41.20 41.19 42.27 42.87 43.51 44.21 43.38
50.61 50.07 49.90 49.82 49.93 48.56 48.92 49.77 49.48 49.60 49.71 50.12 50.27 49.96 49.04 50.46 50.25 50.04 49.65 50.31 50.24 49.06 49.36 47.44 46.18 44.99 44.80 42.85 42.40 41.55 40.76 40.34 40.27 40.62 39.21 38.70 38.60 38.43 39.01 38.87 39.54 40.72 41.37
52.06 51.23 50.61 50.09 49.66 49.81 49.59 49.98 50.25 46.14 49.76 50.34 50.39 50.13 50.00 50.68 50.36 49.48 48.73 50.14 49.21 48.95 48.70 47.98 46.93 45.52 45.19 43.43 42.35 41.79 40.98 40.57 39.32 38.52 38.73 37.90 36.84 37.04 37.62 37.99 38.15 38.85 39.02
52.95 52.30 51.93 51.24 50.58 49.25 49.91 49.83 50.54 50.70 50.41 50.35 50.49 50.41 50.61 50.60 50.02 49.44 49.58 49.66 49.21 48.44 47.84 47.56 46.87 45.99 45.10 44.21 43.32 41.86 38.04 33.70 36.87 35.64 37.36 38.10 37.27 37.25 37.09 37.05 36.94 37.14 37.64
50.19 50.24 51.13 52.17 51.93 51.27 50.42 50.00 50.05 50.63 50.66 50.97 51.00 51.08 51.01 50.70 50.50 49.95 49.47 49.25 48.79 48.65 48.14 47.64 46.45 45.42 45.12 44.67 43.82 37.20 32.77 32.45 36.64 32.96 36.65 37.41 36.77 36.65 36.56 36.56 36.74 36.47 36.28

GFSGL_sfc_wetblb_111.txt.gz
Wetbulb
75.55 75.95 75.66 75.11 75.20 75.96 75.87 76.13 76.79 76.98 77.03 77.23 77.47 77.08 76.92 77.01 77.37 77.28 78.32 77.85 76.56 76.75 76.86 76.51 76.32 78.40 75.03 74.10 74.40 73.93 73.04 72.34 70.41 72.27 73.00 75.31 78.96 79.30 78.01 79.15 77.09 78.83 75.79
76.56 77.14 75.80 76.11 75.64 74.58 75.08 75.73 76.94 76.80 77.06 77.20 77.60 77.16 76.85 76.82 78.10 77.14 76.32 76.57 76.39 75.43 76.03 76.19 75.48 74.54 77.86 79.20 74.31 78.00 75.64 76.27 71.96 74.57 73.86 74.09 77.82 80.16 80.09 80.66 76.68 75.90 76.53
76.20 75.68 75.48 76.64 75.03 74.96 74.91 75.32 76.32 77.11 77.21 76.77 76.88 77.23 77.55 77.07 77.70 77.59 77.17 76.86 76.40 76.44 76.29 76.79 75.83 76.08 76.02 76.15 76.83 75.65 74.79 74.79 75.53 73.31 72.63 73.67 74.96 75.79 77.70 79.43 80.22 79.70 75.30
73.95 73.64 76.35 76.42 75.84 75.20 76.01 75.66 75.66 76.54 76.64 76.88 77.20 76.85 76.89 77.08 77.27 76.79 76.60 76.60 76.54 76.21 76.22 76.15 76.54 76.06 76.52 76.66 76.18 77.86 77.40 75.70 76.09 73.55 72.89 72.63 73.52 78.07 76.98 73.92 73.77 74.72 74.57
70.98 72.49 72.74 76.40 77.25 76.97 76.52 76.47 75.84 76.00 76.38 76.45 76.64 76.67 76.70 76.15 74.50 74.93 76.79 76.69 76.72 76.25 76.56 76.62 76.70 75.75 71.67 72.30 74.29 77.48 78.12 75.67 73.94 73.16 72.30 72.13 72.03 73.46 72.96 73.68 73.83 74.51 76.58
71.03 71.16 72.69 74.71 73.09 75.75 75.77 74.34 76.46 75.98 76.12 76.23 76.00 76.16 76.41 71.11 62.64 63.27 69.46 75.99 76.59 76.34 75.94 76.67 76.60 75.92 74.34 69.40 68.78 68.14 71.07 75.20 75.95 75.08 73.17 72.66 75.74 75.08 74.66 74.48 74.24 73.33 71.97
71.27 70.99 69.66 71.14 68.80 69.70 70.63 73.44 74.56 74.04 75.26 75.11 75.15 73.39 71.55 67.67 57.78 60.00 65.25 74.24 76.42 76.09 76.56 76.38 76.32 74.02 71.72 73.99 71.34 68.23 68.17 66.76 67.81 74.63 74.21 75.00 75.34 76.97 77.42 75.76 75.72 75.02 73.83
70.14 69.63 69.12 68.23 67.07 67.07 67.25 67.36 68.22 70.67 73.21 73.64 71.50 70.16 68.07 62.15 55.41 57.22 61.55 75.83 73.72 73.76 73.42 73.41 72.67 70.25 62.96 63.72 69.04 74.24 75.24 75.80 77.07 75.92 76.48 76.13 76.13 75.76 75.38 76.04 76.38 76.36 76.26
64.22 65.29 67.47 68.11 68.17 67.92 66.13 65.67 67.18 69.07 67.97 68.49 68.46 65.20 63.05 58.44 52.86 55.05 65.25 74.08 72.83 71.09 67.26 65.47 67.62 65.18 56.45 56.91 68.11 69.81 70.76 72.60 68.52 65.32 66.10 64.72 63.96 63.98 66.91 73.47 74.01 74.32 73.30
61.94 63.08 64.64 65.73 65.82 67.45 69.06 69.26 69.99 67.72 65.60 63.96 60.42 60.88 57.80 58.13 50.88 51.76 59.16 70.14 70.57 69.89 70.26 62.98 56.76 58.86 54.61 54.75 65.98 66.92 65.55 66.00 66.85 69.08 70.92 71.79 68.26 72.17 65.22 72.96 74.46 72.15 70.56
57.94 61.32 63.95 65.89 66.43 66.66 67.50 67.97 65.48 62.42 62.10 61.24 57.97 57.21 55.93 56.41 52.54 50.38 50.90 60.37 58.96 64.19 67.04 66.35 63.11 54.02 52.29 52.22 53.53 64.75 61.63 61.52 65.31 69.09 70.33 71.00 70.90 72.35 72.42 71.95 73.44 70.26 68.45
58.43 58.88 60.42 63.39 63.86 65.14 66.52 65.79 63.71 61.19 59.89 59.20 59.40 61.13 60.54 58.58 50.78 50.01 49.73 50.82 52.42 55.89 58.77 61.41 60.15 50.84 50.36 51.34 56.19 54.71 54.55 57.39 66.12 66.62 66.33 66.35 66.48 66.60 66.83 67.66 71.66 72.42 69.38
58.74 58.72 59.98 60.89 62.45 64.34 64.03 63.89 62.00 63.15 63.22 63.39 62.68 61.32 59.80 58.48 55.41 50.62 49.50 49.97 51.34 52.26 52.79 52.53 51.34 50.40 50.48 55.03 54.97 55.39 55.96 64.56 64.96 63.43 63.18 63.47 63.94 64.72 68.61 67.49 68.69 70.65 69.68
59.39 59.72 60.43 60.45 60.71 61.92 62.18 62.54 61.65 61.50 61.38 60.35 59.86 59.16 58.46 55.95 52.20 51.48 51.58 53.30 52.53 54.06 54.66 58.13 55.94 54.57 54.16 55.24 59.25 61.37 63.02 62.64 61.72 61.76 61.54 62.03 62.74 62.74 61.82 62.77 61.92 61.80 61.68
58.90 58.78 59.17 57.92 59.19 54.36 49.88 51.28 54.18 47.10 45.05 58.32 55.76 55.29 52.58 52.71 46.29 42.20 43.16 48.56 50.08 50.19 48.32 57.37 55.99 56.72 56.95 56.96 57.13 58.38 59.75 58.87 58.31 57.66 57.96 58.91 59.03 59.27 59.03 59.90 59.03 59.02 57.90
56.83 56.78 56.64 56.83 56.57 55.25 52.33 46.78 41.51 41.35 40.59 39.60 39.91 45.63 46.63 41.41 40.62 39.84 39.04 39.39 40.36 42.08 52.99 53.90 53.20 52.99 52.69 52.99 53.17 53.04 54.86 54.33 53.39 53.97 54.42 55.14 55.24 55.59 55.59 55.59 56.88 56.37 56.02
56.30 55.74 55.09 54.55 54.99 54.02 51.89 49.99 46.25 42.48 41.02 39.68 39.35 39.63 39.64 38.94 39.49 38.72 38.44 39.13 41.54 44.47 53.49 52.53 51.59 51.91 51.08 51.30 51.73 51.74 51.11 52.05 54.85 52.03 51.27 51.32 52.20 53.77 53.77 53.05 53.18 53.36 52.84
55.54 48.95 54.39 54.76 54.40 53.83 53.49 52.56 50.94 49.97 48.64 46.28 40.14 42.72 39.31 39.44 39.21 39.05 38.91 41.20 52.17 51.48 51.58 51.18 50.96 51.22 51.24 50.96 51.01 50.84 50.94 50.91 50.16 50.40 50.85 51.19 51.20 50.41 49.84 49.50 50.03 50.25 49.87
53.03 52.56 53.82 54.59 54.44 53.54 53.76 53.55 53.36 52.71 52.06 51.12 49.47 43.19 42.84 41.12 41.24 40.13 40.54 51.84 50.68 50.24 50.33 50.05 49.69 49.74 50.05 50.18 50.09 49.89 49.97 49.29 48.86 49.02 48.77 48.62 48.60 49.03 48.14 47.13 47.64 45.33 45.73
51.81 50.20 50.56 53.92 52.18 51.99 52.48 52.39 51.97 51.99 51.62 51.55 51.20 51.01 51.23 47.81 50.47 51.31 51.55 51.50 50.71 50.25 50.37 50.11 49.69 49.56 49.16 48.92 48.46 48.32 47.79 47.62 47.66 47.37 47.09 47.17 47.09 46.51 45.59 45.63 45.48 45.03 45.16
51.13 50.16 50.86 49.83 50.31 51.60 51.47 51.02 51.21 51.24 50.27 50.24 50.29 45.67 37.96 49.45 51.33 50.87 51.40 50.57 50.60 50.01 49.52 49.14 49.00 48.68 48.58 48.41 48.00 47.42 47.14 46.80 46.65 46.16 45.59 45.19 44.61 42.97 43.71 43.93 43.79 44.05 44.12
50.92 50.14 49.13 50.07 51.37 50.94 50.93 50.98 50.76 51.05 51.30 51.05 50.56 46.50 40.97 47.97 51.05 51.24 51.40 51.45 51.53 51.16 50.81 50.02 48.85 48.06 47.78 47.09 46.42 45.89 45.21 45.04 44.99 44.36 43.42 42.64 42.11 42.12 42.30 42.11 42.05 42.19 42.16
51.70 51.00 50.34 49.86 50.78 49.95 50.19 50.83 50.47 50.82 50.82 51.21 51.40 50.57 49.54 50.22 51.37 50.77 51.01 51.01 51.62 51.03 51.61 50.31 50.02 48.93 49.23 48.37 46.81 45.39 43.81 43.21 43.14 42.41 39.99 39.02 38.83 39.62 40.16 39.61 39.71 39.74 39.90
51.52 51.08 51.00 50.78 50.79 50.97 50.54 50.55 50.92 47.74 50.69 51.54 51.65 51.23 50.95 51.19 50.94 50.71 50.51 50.84 50.88 50.90 51.14 50.70 50.00 48.51 48.42 48.00 47.90 47.30 46.51 45.25 43.08 41.11 39.85 38.78 37.64 37.54 38.35 37.59 37.49 38.56 38.97
50.99 51.74 52.86 52.34 51.89 50.76 51.43 51.01 51.12 51.74 51.30 50.92 51.32 51.69 51.87 51.85 51.56 51.32 51.14 50.89 50.66 50.56 50.27 50.43 50.16 48.93 48.13 47.54 47.50 47.14 35.82 34.02 39.14 36.32 38.99 39.13 38.27 38.41 37.94 38.01 37.56 37.35 37.82
52.66 52.01 50.05 52.01 52.33 52.27 52.05 51.53 51.45 51.89 51.84 52.03 52.17 52.51 52.28 52.23 52.20 52.20 51.86 51.22 50.73 50.64 50.66 50.67 50.28 49.14 48.26 48.00 46.88 36.50 32.77 33.26 37.72 32.86 37.97 39.21 38.21 38.41 38.08 37.63 37.72 37.93 37.71

GFSGL_sfc_wetblb_114.txt.gz
Wetbulb
75.24 75.35 75.71 75.22 75.80 77.29 77.07 77.79 77.89 72.93 70.78 75.64 77.75 77.85 77.58 78.01 78.29 77.98 77.92 76.80 75.66 77.43 77.47 76.94 76.64 77.31 75.78 74.91 74.30 73.64 72.16 72.61 70.09 71.07 72.25 73.38 74.15 75.02 76.97 77.56 78.41 76.16 75.42
75.29 74.62 75.95 75.61 76.04 75.73 76.40 76.98 76.87 77.11 76.48 76.45 78.00 78.73 78.47 78.44 77.27 78.45 77.39 76.20 76.01 75.72 76.58 76.84 76.45 75.23 76.36 76.84 75.94 75.44 75.07 74.30 73.97 71.53 74.36 73.94 74.36 75.14 78.02 77.77 77.24 76.18 75.50
73.82 75.88 74.16 74.77 75.31 76.48 76.03 76.98 77.74 77.59 78.32 77.18 77.47 78.28 77.55 77.51 77.10 76.70 77.59 77.52 76.86 76.73 76.16 75.53 73.72 75.38 75.83 76.25 76.71 76.04 74.98 75.17 74.13 73.60 72.65 73.63 73.49 74.39 73.64 76.03 74.46 76.53 74.99
75.39 75.00 75.41 75.34 73.64 73.68 75.70 77.04 76.79 78.20 77.19 77.02 76.91 77.07 77.97 76.67 76.73 76.52 76.51 75.98 77.13 76.45 77.20 76.66 76.92 75.68 74.65 77.02 75.26 75.34 75.31 74.27 73.56 73.21 70.65 70.70 72.89 73.95 74.42 72.86 72.32 74.78 74.18
70.82 70.50 73.78 73.50 73.05 73.97 73.39 75.07 77.71 76.57 77.51 77.12 76.29 76.44 76.81 72.95 68.12 68.52 71.17 73.40 75.27 75.27 76.54 75.11 76.06 73.24 71.43 71.91 74.13 75.67 76.21 75.06 74.31 72.28 71.71 71.80 72.39 72.60 72.18 73.98 73.01 73.87 74.65
69.28 70.98 72.67 73.95 73.79 71.71 72.02 72.68 75.69 77.28 76.60 76.93 76.25 75.39 71.58 65.95 61.49 63.03 67.91 72.96 74.17 73.05 74.52 75.48 72.69 70.29 71.53 69.36 69.07 69.33 70.41 74.06 73.51 72.97 71.83 71.23 72.21 73.38 73.74 73.70 73.36 72.57 70.78
71.32 72.20 72.46 71.89 70.93 70.73 70.17 71.16 69.99 74.04 75.17 73.95 73.13 71.16 65.75 61.70 56.79 58.82 64.66 74.06 76.05 75.11 73.99 73.89 72.76 67.41 64.50 67.70 68.48 69.19 69.19 66.82 67.48 72.51 72.69 72.60 72.40 72.91 74.35 72.55 71.72 72.62 72.26
71.27 70.68 70.51 69.55 68.29 67.71 67.53 67.76 68.73 69.92 70.96 69.17 68.95 66.97 63.71 57.47 54.86 57.04 62.68 74.89 74.72 72.58 71.09 72.85 67.87 63.61 59.66 60.75 66.44 71.49 71.87 73.32 74.28 72.01 73.13 71.91 71.37 72.04 72.26 72.25 72.71 73.13 73.37
68.45 69.32 69.45 69.50 68.33 67.05 65.79 66.46 67.73 67.05 65.09 63.94 63.18 60.55 60.42 53.55 52.74 54.70 64.07 74.74 70.26 66.18 63.92 63.57 64.18 61.82 56.45 56.80 68.02 67.28 67.55 67.63 64.58 63.57 64.23 63.31 62.73 62.55 64.17 69.34 71.48 70.40 69.55
63.13 65.39 66.48 66.97 68.10 68.81 68.31 67.62 67.51 65.46 61.90 60.06 58.61 57.96 55.73 51.71 51.25 52.29 59.59 67.90 69.54 66.98 62.25 58.98 56.48 56.68 54.48 54.35 62.29 64.63 61.79 62.10 62.13 64.31 67.31 70.26 68.88 68.75 65.83 71.72 70.06 65.96 66.18
60.49 61.37 64.79 64.84 65.19 66.02 66.14 66.81 65.19 63.83 61.42 60.96 58.32 56.51 53.66 53.24 49.69 50.39 50.89 57.03 60.96 60.68 61.87 61.88 58.38 53.63 51.82 51.65 53.14 63.30 60.76 58.10 61.34 63.71 67.08 69.18 67.69 66.38 66.20 66.27 68.01 68.15 64.01
58.87 59.54 60.72 62.24 64.57 64.98 63.62 63.16 63.03 62.20 60.73 59.83 58.51 58.77 56.40 53.47 50.89 50.31 50.16 51.19 54.58 56.62 53.70 53.31 55.03 50.73 49.58 50.49 54.32 54.46 54.10 56.60 64.65 63.13 61.73 61.35 61.22 62.01 63.42 65.21 68.20 68.80 67.60
58.97 59.70 59.53 60.79 62.46 63.87 63.32 63.69 60.90 60.98 58.63 58.60 58.70 59.78 58.43 56.85 54.95 50.62 50.38 50.49 52.49 54.63 55.11 53.31 52.37 50.88 50.89 55.42 55.67 55.52 56.72 60.46 60.50 60.52 60.14 59.70 61.55 62.96 63.48 61.45 61.70 61.76 60.84
58.10 58.75 58.95 59.00 53.34 50.90 53.68 60.80 55.63 54.64 60.84 63.46 61.81 60.64 58.77 55.26 50.32 49.48 51.02 53.91 53.32 55.41 54.49 57.86 56.25 55.87 54.30 55.79 57.26 57.33 56.96 56.73 55.76 54.83 55.83 57.22 57.53 57.04 56.59 57.04 55.76 56.56 57.11
58.05 58.85 57.55 57.72 54.75 49.15 43.10 44.05 47.64 42.46 42.60 55.15 53.81 50.95 52.52 50.97 44.00 42.12 41.79 45.51 46.02 46.86 45.82 56.76 58.21 57.16 55.57 55.93 55.30 55.22 54.24 53.56 52.33 53.23 53.20 53.46 54.32 55.04 54.95 55.53 55.38 54.29 53.15
57.78 57.13 57.34 58.49 57.48 55.38 51.02 44.57 41.57 41.38 40.80 40.09 40.56 45.91 43.17 41.93 40.87 40.17 39.24 39.50 40.59 42.17 52.40 52.75 52.64 52.45 51.95 52.43 52.28 52.06 52.60 52.42 52.80 51.64 50.93 50.79 50.49 50.37 50.19 51.52 52.12 51.08 50.69
56.13 59.47 56.07 56.26 54.89 53.78 51.81 48.48 43.99 42.27 41.58 40.14 39.85 40.31 39.99 39.60 39.63 39.03 38.93 39.45 41.85 45.93 53.66 53.95 53.43 51.84 51.92 51.80 51.37 51.22 50.39 52.00 51.23 49.58 50.29 50.49 50.31 49.06 48.51 48.76 48.45 48.18 47.47
56.35 51.29 53.01 54.47 56.23 55.19 53.40 51.74 49.04 47.37 45.84 44.54 41.22 42.29 39.88 40.05 39.78 39.42 39.26 41.43 52.01 50.60 51.98 51.20 51.27 51.86 50.93 50.67 49.77 49.24 48.92 49.10 48.76 48.69 48.25 48.16 47.98 46.82 45.92 45.53 45.86 45.48 45.32
56.27 55.97 57.74 56.22 53.85 55.17 56.26 54.00 52.88 53.42 50.91 47.96 45.19 42.38 42.07 41.53 41.01 39.90 40.11 53.47 52.43 50.68 51.57 50.32 51.12 50.28 49.66 49.75 49.69 49.38 49.65 48.02 48.11 47.50 46.71 46.40 46.12 45.27 44.23 44.36 44.01 43.52 43.61
53.27 52.09 52.13 55.04 52.56 54.92 54.20 53.66 53.14 54.19 53.40 52.28 51.81 50.96 49.27 46.90 49.07 52.79 54.41 54.32 52.24 50.67 50.93 50.33 50.37 50.19 50.02 49.78 49.19 49.14 48.48 47.82 46.75 45.89 45.35 44.86 44.25 43.84 42.52 42.15 42.29 41.44 41.67
52.20 51.73 52.45 52.31 50.88 51.85 52.36 51.83 52.14 52.79 50.74 51.39 50.38 45.07 39.64 48.25 52.61 52.53 52.15 51.94 51.05 50.29 50.47 49.82 50.81 50.81 50.05 49.09 48.11 47.10 46.24 45.86 45.57 44.63 43.66 43.10 42.59 41.24 41.68 41.55 41.52 41.63 41.49
52.02 51.54 49.91 49.97 51.04 52.21 52.44 52.79 52.71 52.42 52.10 50.74 47.11 44.16 41.91 46.81 50.89 51.23 51.89 51.61 50.94 51.31 50.39 50.95 49.54 49.19 48.33 48.20 47.49 45.21 44.43 43.73 43.62 42.96 41.91 41.16 40.70 40.26 40.23 40.03 39.75 39.49 39.57
51.97 51.32 50.59 50.53 51.80 51.70 51.30 51.45 51.33 50.54 50.71 51.84 50.93 46.83 46.54 48.27 50.02 51.07 51.60 51.46 51.90 51.70 51.83 51.14 51.12 50.20 50.61 49.79 48.72 46.86 44.67 43.85 43.35 42.13 40.35 39.80 39.41 39.14 38.48 37.39 37.10 36.73 36.78
52.08 51.55 51.39 50.70 51.22 51.31 50.91 51.03 51.23 48.37 50.76 51.36 51.74 50.40 50.52 51.06 50.57 50.61 50.39 51.81 52.02 51.84 52.05 51.56 51.30 49.26 49.91 49.35 49.33 48.76 47.43 46.08 44.24 42.41 41.57 39.56 37.92 37.75 37.91 36.83 36.72 36.96 36.81
52.09 52.19 52.25 51.98 51.56 50.69 51.54 51.36 51.30 51.59 51.61 50.55 51.20 51.85 51.08 51.00 51.24 51.61 51.18 50.77 50.87 50.78 51.18 50.91 50.75 50.70 50.15 48.89 47.94 45.22 36.90 35.19 40.24 35.05 39.42 39.99 39.28 38.89 38.03 37.88 37.56 37.25 37.27
52.10 49.30 50.31 50.91 51.21 52.26 51.47 51.04 51.42 51.40 51.27 51.98 51.76 51.87 52.34 53.16 52.61 52.46 52.50 52.27 51.70 51.55 51.72 51.64 51.59 51.04 50.05 49.01 46.71 38.53 32.29 33.61 38.23 33.31 37.31 38.03 38.34 39.16 39.00 38.32 38.30 38.05 38.03

GFSGL_sfc_wetblb_117.txt.gz
Wetbulb
72.24 72.13 71.61 72.16 72.67 72.55 72.88 72.65 72.74 70.62 67.45 66.54 67.68 71.22 72.63 72.64 73.04 72.80 72.31 71.95 71.66 71.45 72.10 71.83 71.56 70.34 70.23 71.10 72.00 71.56 69.73 69.87 65.90 67.65 69.45 70.81 70.41 71.41 73.11 74.57 75.81 74.63 72.78
71.63 72.12 72.05 72.03 71.64 72.59 71.96 72.55 72.34 68.24 68.62 72.26 72.80 73.08 72.92 73.37 73.68 73.08 72.87 72.48 71.61 71.38 71.87 71.44 71.19 73.21 71.44 72.12 70.72 70.49 70.76 70.79 69.12 67.31 68.85 69.72 70.06 71.91 72.18 71.90 73.70 75.32 72.97
71.81 71.81 71.67 71.44 71.65 71.66 72.08 71.85 72.58 72.21 72.39 73.36 73.06 73.44 73.43 73.31 72.94 72.64 72.71 72.61 72.45 71.90 71.01 71.34 72.07 72.35 71.96 70.38 70.57 69.47 71.06 71.54 70.11 69.34 68.98 69.42 69.40 71.87 71.22 71.86 72.01 72.92 75.23
67.67 69.19 69.99 70.02 70.04 70.87 71.65 71.90 72.25 73.09 72.88 72.99 73.09 73.07 72.94 71.87 71.28 72.20 72.35 72.74 72.09 72.28 72.09 72.45 71.91 71.47 72.06 71.13 70.49 70.65 71.72 70.70 70.45 69.57 69.37 69.03 69.69 71.23 70.98 71.22 71.16 73.04 72.80
69.81 69.88 69.26 70.42 70.94 70.90 72.12 71.55 71.92 72.71 72.63 72.23 72.05 71.17 68.43 66.54 65.35 67.41 71.98 70.66 70.84 69.49 68.80 72.53 69.32 70.49 69.90 68.84 70.39 70.06 70.28 69.80 70.19 69.28 68.54 68.16 68.92 70.30 70.39 71.39 70.41 71.22 71.64
69.55 68.43 70.00 69.47 69.52 69.28 69.55 70.18 71.43 71.46 71.09 70.92 70.01 66.70 64.09 62.10 62.10 61.77 66.63 69.53 70.92 69.81 68.53 69.80 67.98 65.05 66.12 66.90 66.93 67.57 68.11 68.91 68.20 68.59 68.45 68.45 68.45 68.95 70.89 70.58 69.40 69.08 68.29
68.30 69.65 69.87 67.95 67.00 66.82 68.41 68.74 69.83 70.89 70.80 68.68 65.48 61.00 56.56 55.63 57.46 58.77 64.30 68.90 70.23 67.66 68.20 69.04 64.08 62.31 59.45 61.78 65.18 68.03 67.81 67.39 67.17 68.65 68.18 68.54 68.43 68.26 68.92 67.35 67.96 68.56 68.63
69.31 68.07 67.69 67.08 66.49 66.33 66.28 68.13 69.40 68.90 67.23 64.88 62.87 58.09 53.01 52.41 55.20 57.70 63.70 69.42 64.17 64.26 64.56 62.54 59.17 56.31 56.79 59.53 64.80 63.84 64.67 62.32 61.63 65.26 64.37 64.89 65.67 65.49 65.45 67.50 68.83 69.15 69.62
67.19 66.90 66.69 66.15 65.16 65.64 66.46 66.55 64.74 62.75 60.91 60.53 57.97 54.34 50.98 49.70 53.63 57.94 66.60 65.98 61.55 58.61 58.27 58.11 55.81 53.76 56.13 58.06 62.17 58.40 57.03 57.91 60.33 60.94 61.99 62.92 63.15 63.61 64.83 65.77 64.64 63.58 62.51
64.81 65.87 66.88 66.61 65.84 65.36 64.82 65.87 64.30 61.91 59.60 58.41 55.82 52.51 52.02 49.03 52.04 55.17 60.77 65.59 59.46 55.92 54.85 53.76 55.99 53.39 53.78 53.98 56.37 56.85 53.91 55.32 56.17 59.96 63.15 65.12 65.39 63.68 62.85 62.59 63.05 61.64 59.37
61.86 64.39 64.25 64.90 64.86 65.09 65.33 64.34 62.33 59.07 56.88 55.07 53.30 51.82 51.16 50.71 50.01 51.54 54.20 56.99 58.78 58.08 54.02 52.42 52.89 52.83 51.31 51.40 53.00 55.27 53.48 54.20 58.40 59.32 58.31 58.52 58.43 59.20 60.23 60.29 59.95 59.51 57.05
60.33 60.94 62.15 64.05 65.08 63.44 62.30 62.18 61.50 59.03 56.72 54.66 54.19 52.57 51.49 49.41 50.85 50.57 51.35 52.54 54.09 50.95 50.69 52.13 52.42 51.03 51.73 53.44 55.46 54.55 55.51 57.16 56.87 55.66 55.19 54.82 54.76 54.81 56.28 55.28 55.46 55.36 55.61
59.61 59.68 59.81 55.02 54.55 60.12 61.68 61.04 60.15 59.14 58.44 57.74 57.34 54.17 52.57 50.73 48.17 50.08 50.76 51.89 53.28 50.62 52.47 54.26 53.03 52.08 53.06 54.15 54.30 54.09 53.83 52.30 51.42 51.04 51.24 51.37 52.59 53.70 54.02 54.01 54.18 54.34 54.13
57.69 58.01 53.80 49.92 47.48 47.68 50.67 48.05 47.90 47.48 52.30 59.01 57.51 53.88 49.91 44.30 42.99 43.02 44.79 45.70 49.46 46.90 46.98 50.01 54.49 53.74 53.21 53.06 52.92 51.17 50.93 51.09 49.43 48.70 48.26 48.88 50.03 50.81 49.26 50.95 50.23 50.46 49.03
57.86 56.98 55.40 50.12 45.79 41.69 40.89 44.79 44.72 41.16 41.61 49.58 46.61 45.67 46.70 41.84 38.56 40.27 39.52 39.38 39.62 41.67 44.14 49.42 48.11 47.91 48.29 49.35 49.23 50.04 48.42 49.07 47.58 45.52 45.30 45.58 46.07 46.94 46.72 47.75 47.64 46.94 46.09
56.36 56.03 56.45 54.51 51.68 48.88 45.60 42.16 42.81 42.28 42.24 41.19 41.88 41.41 39.62 40.83 40.81 39.88 39.02 39.40 40.50 42.36 46.87 46.10 45.48 45.65 45.99 45.59 45.49 46.04 46.92 46.72 45.57 46.20 46.29 46.19 44.86 44.66 45.10 44.76 44.79 43.21 42.81
56.28 56.16 56.52 55.51 53.20 48.11 46.09 44.01 41.72 42.17 42.36 40.82 40.01 40.09 41.05 40.11 39.95 39.21 38.78 39.71 42.77 45.77 47.69 47.52 46.56 46.15 45.52 44.92 44.32 43.92 44.25 44.14 45.86 46.05 45.63 45.28 45.17 44.41 43.30 42.87 42.84 42.15 41.39
48.33 51.18 49.66 51.19 51.15 49.57 47.65 45.47 43.35 42.79 41.71 40.34 40.96 40.86 39.88 39.88 39.98 39.66 39.32 42.99 45.80 45.83 44.23 44.21 44.60 44.96 44.97 43.86 43.17 42.45 42.83 42.77 42.58 42.38 41.93 42.45 41.85 41.19 40.55 40.41 40.57 40.10 40.17
49.34 50.95 50.67 48.45 49.78 50.41 49.06 46.89 44.09 45.73 43.03 40.96 38.74 40.41 40.29 40.31 39.63 39.70 39.62 44.94 43.95 43.94 43.61 43.78 43.99 43.61 43.55 43.62 43.44 43.19 42.82 42.42 41.69 40.86 40.47 40.33 40.09 39.71 38.62 38.75 39.13 40.70 40.58
47.01 51.09 50.40 47.27 46.76 47.37 47.89 48.59 46.76 47.07 44.65 40.85 41.09 42.91 42.11 42.46 44.07 46.37 45.52 45.41 45.07 44.41 43.87 43.60 43.39 43.69 43.60 43.13 42.44 41.90 41.51 41.12 39.94 39.51 38.93 38.41 38.05 37.83 37.41 37.73 37.74 37.25 37.25
46.99 45.55 50.69 46.39 44.92 46.27 46.65 45.58 45.83 48.46 46.68 46.64 45.89 45.62 44.76 45.08 44.70 46.35 46.19 46.28 45.43 44.35 43.60 43.61 43.44 43.15 43.35 42.34 41.72 40.62 40.06 39.97 38.96 38.45 37.83 36.76 36.56 35.84 36.04 36.13 36.48 36.22 36.23
47.12 45.72 44.73 45.39 46.25 45.11 45.75 46.71 46.77 46.37 45.96 44.38 41.98 40.14 42.58 43.71 45.06 46.49 46.05 45.76 46.05 45.50 44.56 43.41 42.47 42.91 42.76 41.78 40.85 40.30 39.10 38.27 38.05 37.32 36.47 35.84 35.58 35.45 35.28 35.21 35.21 36.15 36.72
46.82 46.90 45.04 45.12 46.11 47.79 46.01 45.85 45.75 45.43 45.15 44.16 42.08 40.45 40.47 41.81 43.71 46.23 46.26 46.47 46.15 46.00 45.68 45.19 44.57 43.50 43.27 42.75 41.99 41.16 39.24 38.23 37.65 37.22 35.96 35.41 34.89 34.30 34.23 35.73 36.93 36.35 36.35
46.64 45.93 45.39 44.63 44.72 44.82 45.40 45.54 45.83 45.22 45.79 45.83 44.19 42.82 43.10 43.87 44.34 46.24 45.92 46.28 45.95 46.01 46.54 45.37 44.83 43.80 43.38 43.01 42.12 41.45 41.45 40.23 39.01 37.80 36.67 35.28 34.23 34.55 35.18 36.69 36.88 37.01 36.93
46.70 46.07 45.90 45.43 45.42 44.80 45.30 45.19 45.26 45.28 46.16 45.90 46.09 44.71 44.59 45.56 45.42 45.91 44.85 45.07 45.67 45.44 45.97 45.73 45.47 44.98 44.72 43.28 42.30 39.14 36.08 37.52 38.12 36.17 36.42 36.06 35.34 34.93 34.92 34.97 36.97 37.49 37.54
48.25 47.30 47.25 47.44 47.89 48.10 45.85 45.19 46.61 46.17 45.67 46.48 46.32 46.00 47.23 46.77 46.30 46.24 45.75 45.28 44.95 44.96 44.97 44.94 45.20 45.13 44.62 44.16 43.15 38.27 32.63 33.88 35.78 33.96 36.29 34.97 33.80 33.78 34.56 35.16 37.05 37.88 38.03

GFSGL_sfc_wetblb_120.txt.gz
Wetbulb
70.69 70.94 69.97 70.22 71.38 71.55 71.28 69.27 70.27 70.26 67.85 67.59 66.68 68.53 71.64 71.77 71.67 71.63 71.02 70.46 70.27 70.40 70.51 70.73 70.36 70.05 69.00 69.90 70.17 70.01 69.28 67.85 64.79 66.51 67.87 69.76 69.65 70.38 71.98 72.76 73.60 73.24 72.85
70.95 70.99 70.26 70.43 71.43 70.64 70.98 71.71 71.91 69.87 69.21 67.81 67.04 70.63 71.03 72.07 71.80 71.67 71.22 72.05 70.75 70.18 70.42 70.46 69.89 72.29 70.24 70.60 69.43 69.19 69.16 69.45 67.82 66.01 67.66 69.09 68.87 71.86 71.96 72.25 73.04 74.40 72.91
70.79 70.66 70.16 70.09 70.22 70.27 70.55 70.98 71.78 68.94 68.02 68.35 71.63 71.80 72.06 72.50 72.15 72.01 72.25 72.05 71.84 71.12 70.66 70.08 70.03 70.97 70.99 69.58 69.32 68.69 69.86 69.86 68.86 68.18 67.89 68.59 68.63 71.05 70.63 71.56 71.58 71.50 73.26
69.53 70.06 70.41 69.65 70.39 69.75 70.65 70.60 70.80 70.72 70.62 70.92 72.04 71.54 71.10 71.33 70.66 71.33 72.14 71.99 71.64 71.05 71.25 70.93 70.50 70.19 69.87 69.45 69.76 69.17 70.04 68.94 68.95 67.42 67.76 67.94 68.43 70.37 70.21 69.79 69.30 70.37 70.37
67.65 67.76 68.31 69.16 69.49 69.83 70.07 69.46 70.47 71.62 71.35 71.70 70.10 68.59 67.44 66.50 65.96 67.82 70.03 70.47 70.04 68.04 70.21 68.61 66.75 67.31 67.26 66.86 69.84 68.88 68.77 68.00 68.14 67.67 67.06 67.35 67.73 67.91 68.07 69.90 67.94 68.93 69.89
67.62 68.14 69.19 69.57 69.02 69.13 69.49 69.95 69.97 69.91 69.94 69.11 65.75 64.00 62.38 64.03 62.25 62.08 66.70 68.00 68.69 68.18 68.25 66.66 63.62 63.07 64.56 64.97 65.43 66.82 66.70 67.26 66.63 66.74 66.99 66.60 66.36 66.81 67.46 67.26 66.96 66.87 66.19
68.32 68.79 69.38 68.52 67.78 67.66 68.30 68.39 68.46 68.91 67.28 63.18 59.44 58.24 56.27 56.90 58.19 58.11 63.19 68.18 68.43 66.30 67.49 62.98 61.25 60.96 62.24 65.12 65.18 64.95 62.85 63.52 65.60 65.92 63.36 63.13 63.10 64.61 65.07 64.53 65.26 65.93 66.88
68.32 68.50 67.32 66.62 66.17 66.12 67.37 67.73 68.48 67.75 64.68 62.04 58.86 57.41 55.63 56.69 56.98 58.01 63.29 66.33 65.52 63.44 60.82 58.10 56.56 56.34 59.06 61.74 58.69 57.17 57.14 57.85 58.60 60.28 60.02 61.75 63.85 64.25 64.16 65.25 65.58 64.89 64.90
67.14 66.92 66.45 66.50 66.11 66.20 63.71 62.68 60.91 62.62 61.02 59.17 56.30 54.45 53.48 54.21 55.68 61.00 63.41 62.12 58.79 56.86 55.99 54.22 53.40 53.69 56.47 59.15 56.10 54.12 54.57 56.50 59.91 60.59 61.58 60.91 59.97 60.36 61.64 61.15 60.15 58.39 57.16
66.24 66.17 66.29 65.86 65.38 65.00 64.32 62.76 60.54 58.30 55.58 54.17 52.56 51.70 51.78 51.45 54.59 59.07 61.05 59.14 54.80 53.79 53.21 52.57 55.43 53.49 53.46 54.47 55.47 53.55 54.77 54.00 57.11 57.33 57.45 57.80 57.50 56.89 58.34 55.79 55.25 52.56 54.82
64.79 65.79 66.01 65.68 66.13 64.86 65.27 61.50 59.62 57.44 55.72 53.75 52.66 52.38 51.02 50.68 51.62 55.42 58.49 60.37 58.40 55.18 52.07 52.50 52.21 53.36 52.43 52.76 54.05 54.86 54.78 55.33 56.14 54.39 53.97 53.86 54.17 54.27 53.56 53.49 52.52 52.66 52.63
63.09 63.47 63.83 64.74 64.48 63.58 61.89 59.73 57.83 55.36 52.48 50.26 48.59 47.54 47.70 49.44 51.04 51.26 52.10 55.24 54.49 53.15 51.54 52.40 53.64 51.44 50.69 51.55 52.19 52.14 52.67 53.68 52.70 51.47 50.71 50.59 50.34 50.23 50.90 51.19 50.75 50.81 53.51
59.47 56.56 55.86 55.18 55.34 58.52 60.72 60.24 58.96 57.35 55.24 53.91 52.15 50.49 48.47 46.24 47.04 49.68 49.90 52.21 52.86 51.59 53.59 53.78 51.81 49.96 49.82 50.77 52.09 52.23 51.41 49.56 49.59 47.36 46.28 46.24 46.87 46.67 47.34 47.78 48.11 47.93 48.74
54.06 51.87 50.39 49.13 48.65 49.98 48.36 48.16 48.74 50.88 57.33 57.59 53.54 48.39 45.12 42.54 41.69 44.96 45.93 45.39 47.34 46.75 50.22 52.30 52.11 51.86 51.53 50.72 49.64 49.56 49.16 47.36 46.21 45.00 44.20 44.29 45.26 46.40 46.18 46.11 44.68 45.39 43.70
55.04 51.78 48.68 46.27 44.36 42.45 42.55 44.38 44.04 41.87 43.71 51.03 52.64 49.62 44.45 39.08 39.10 40.60 40.97 41.00 41.05 43.50 47.78 47.39 47.06 46.54 46.05 45.47 45.85 45.18 44.64 44.98 45.54 45.37 44.58 44.18 44.23 44.04 43.13 43.15 43.12 41.30 40.22
55.90 54.94 52.33 49.93 47.46 44.53 42.66 42.14 42.82 42.50 42.45 41.88 41.58 44.23 41.17 40.86 40.99 39.82 39.03 39.63 41.33 43.99 45.18 45.00 44.03 44.54 44.40 43.88 43.42 43.25 43.41 44.85 43.05 43.69 42.70 42.14 41.30 41.44 40.91 41.20 41.18 39.99 39.03
52.70 53.41 53.64 51.93 48.49 46.51 44.67 43.24 40.80 43.77 42.49 40.79 40.55 40.94 40.54 40.16 39.52 38.73 38.98 40.93 42.65 46.24 46.07 44.31 44.18 43.34 42.54 42.69 42.00 42.03 41.11 41.28 42.22 41.63 41.09 40.44 40.52 39.95 39.09 39.02 39.00 38.79 38.21
49.94 51.48 53.38 51.33 48.43 45.97 46.04 44.22 42.59 41.18 42.09 41.50 41.88 40.49 39.75 39.48 39.64 39.45 40.15 43.47 45.37 44.86 44.58 44.86 43.84 42.58 42.10 41.27 41.31 40.85 40.82 40.82 40.32 39.61 39.53 39.08 38.77 38.43 37.79 37.38 37.46 36.81 36.94
44.43 45.35 46.66 49.98 49.26 46.49 43.22 40.65 40.83 40.42 38.64 39.77 39.97 40.70 40.82 39.54 39.60 39.96 41.34 43.13 42.51 41.82 42.38 42.02 41.97 41.56 41.29 41.38 41.03 41.01 39.96 39.06 38.28 37.77 37.05 36.57 36.43 36.33 35.89 36.32 36.33 37.43 36.83
44.93 50.84 48.37 44.55 46.19 45.78 44.36 41.75 41.67 40.77 38.09 38.35 39.84 40.20 42.04 42.93 44.56 45.90 45.56 44.54 43.77 42.38 41.72 42.11 42.39 42.06 41.81 41.12 39.99 39.96 39.23 37.89 36.76 36.18 35.58 35.42 35.31 35.21 34.69 34.77 34.82 34.07 33.97
46.52 45.41 49.62 43.19 42.80 43.73 44.27 43.71 43.66 43.59 41.41 39.94 41.80 41.93 42.57 42.60 43.68 44.49 43.87 43.23 43.38 43.62 42.46 42.37 42.48 41.92 41.29 40.74 40.27 40.30 39.53 37.84 36.63 36.00 35.41 34.71 34.71 34.06 34.25 34.15 33.85 33.90 34.27
44.78 43.42 42.56 43.30 42.67 42.77 43.93 43.61 43.77 45.12 45.43 44.31 43.48 43.35 42.43 44.50 44.98 46.19 45.11 44.98 45.01 44.64 44.01 43.65 41.97 41.07 40.84 40.28 39.66 38.60 37.68 36.86 36.45 35.99 35.18 34.56 34.30 34.07 33.53 33.36 33.64 34.37 34.34
45.42 44.02 42.14 41.17 42.55 44.73 43.49 43.73 43.54 43.61 44.66 44.27 43.52 42.21 40.89 40.80 43.19 45.05 45.39 45.07 44.46 43.49 43.15 43.18 42.75 41.81 42.11 41.73 40.97 39.63 38.21 37.53 37.16 36.79 35.62 34.75 33.94 33.20 33.20 33.18 33.76 33.79 35.44
45.69 44.09 43.29 41.84 41.14 41.30 42.24 42.84 43.32 43.76 43.58 43.51 41.56 40.47 39.59 40.26 42.56 45.23 44.78 45.62 44.84 44.56 44.58 43.94 43.21 43.08 42.47 42.16 41.33 40.47 39.88 39.25 37.90 37.18 36.54 35.02 33.68 33.69 33.46 33.08 33.64 34.30 35.42
45.51 44.31 43.32 42.41 42.19 41.79 41.73 43.10 42.82 42.95 43.76 43.84 43.99 42.51 41.61 42.11 42.07 43.89 44.55 45.23 44.93 44.72 44.60 44.19 44.21 43.80 43.23 42.23 40.71 40.70 39.10 37.34 38.55 36.86 36.24 35.53 35.09 34.99 34.33 34.03 34.08 34.52 35.60
45.73 44.36 44.21 44.47 44.95 44.81 43.40 43.75 45.47 45.30 44.52 43.85 43.91 43.28 43.09 43.66 43.83 43.82 44.07 43.96 44.48 44.41 44.81 44.84 44.49 43.52 43.05 42.62 41.65 38.84 34.40 33.93 36.60 34.40 35.56 35.00 33.78 32.68 32.03 32.45 33.36 33.91 34.73